<?xml version='1.0' encoding='UTF-8'?><gpx version="1.1" creator="JPX - https://github.com/jenetics/jpx" xmlns="http://www.topografix.com/GPX/1/1"><trk><trkseg><trkpt lat="43.1887117" lon="10.5412686"><ele>12.0</ele><time>2026-04-05T09:23:42.484Z</time></trkpt><trkpt lat="43.1885385" lon="10.541016"><ele>12.0</ele><time>2026-04-05T09:23:43.506Z</time></trkpt><trkpt lat="43.1885178" lon="10.5409192"><ele>12.0</ele><time>2026-04-05T09:23:46.513Z</time></trkpt><trkpt lat="43.1884824" lon="10.5408352"><ele>12.0</ele><time>2026-04-05T09:23:48.517Z</time></trkpt><trkpt lat="43.188436" lon="10.5407285"><ele>11.999999999999998</ele><time>2026-04-05T09:23:51.539Z</time></trkpt><trkpt lat="43.1884005" lon="10.540651"><ele>12.0</ele><time>2026-04-05T09:23:53.53Z</time></trkpt><trkpt lat="43.1883568" lon="10.540574"><ele>12.0</ele><time>2026-04-05T09:23:57.543Z</time></trkpt><trkpt lat="43.1883237" lon="10.540476"><ele>12.0</ele><time>2026-04-05T09:24:01.543Z</time></trkpt><trkpt lat="43.1883044" lon="10.540388"><ele>12.0</ele><time>2026-04-05T09:24:05.57Z</time></trkpt><trkpt lat="43.1882353" lon="10.5403837"><ele>11.999999999999998</ele><time>2026-04-05T09:24:21.554Z</time></trkpt><trkpt lat="43.1881892" lon="10.5404491"><ele>12.0</ele><time>2026-04-05T09:24:24.554Z</time></trkpt><trkpt lat="43.1881768" lon="10.5405503"><ele>12.0</ele><time>2026-04-05T09:24:27.552Z</time></trkpt><trkpt lat="43.1882466" lon="10.5406178"><ele>12.0</ele><time>2026-04-05T09:24:30.567Z</time></trkpt><trkpt lat="43.1883212" lon="10.540684"><ele>12.0</ele><time>2026-04-05T09:24:33.558Z</time></trkpt><trkpt lat="43.1883505" lon="10.5407614"><ele>12.0</ele><time>2026-04-05T09:24:35.559Z</time></trkpt><trkpt lat="43.1883676" lon="10.5408592"><ele>12.0</ele><time>2026-04-05T09:24:38.562Z</time></trkpt><trkpt lat="43.1883382" lon="10.5409703"><ele>12.0</ele><time>2026-04-05T09:24:41.578Z</time></trkpt><trkpt lat="43.188287" lon="10.5410537"><ele>12.0</ele><time>2026-04-05T09:24:44.581Z</time></trkpt><trkpt lat="43.188258" lon="10.541133"><ele>12.0</ele><time>2026-04-05T09:24:46.575Z</time></trkpt><trkpt lat="43.1882396" lon="10.5412231"><ele>12.0</ele><time>2026-04-05T09:24:48.564Z</time></trkpt><trkpt lat="43.1881939" lon="10.5413627"><ele>12.0</ele><time>2026-04-05T09:24:51.359Z</time></trkpt><trkpt lat="43.1881434" lon="10.5414374"><ele>12.0</ele><time>2026-04-05T09:24:53.157Z</time></trkpt><trkpt lat="43.188078" lon="10.5415016"><ele>12.0</ele><time>2026-04-05T09:24:54.96Z</time></trkpt><trkpt lat="43.1879629" lon="10.5415799"><ele>12.399999999999999</ele><time>2026-04-05T09:24:57.751Z</time></trkpt><trkpt lat="43.1878639" lon="10.5415714"><ele>12.799999999999999</ele><time>2026-04-05T09:24:59.725Z</time></trkpt><trkpt lat="43.1877756" lon="10.5415212"><ele>13.2</ele><time>2026-04-05T09:25:01.728Z</time></trkpt><trkpt lat="43.1876885" lon="10.5414651"><ele>13.6</ele><time>2026-04-05T09:25:03.711Z</time></trkpt><trkpt lat="43.187592" lon="10.5414176"><ele>14.0</ele><time>2026-04-05T09:25:05.714Z</time></trkpt><trkpt lat="43.1875078" lon="10.541382"><ele>14.000000000000002</ele><time>2026-04-05T09:25:07.714Z</time></trkpt><trkpt lat="43.1874418" lon="10.5413885"><ele>14.0</ele><time>2026-04-05T09:25:09.73Z</time></trkpt><trkpt lat="43.1873723" lon="10.5414137"><ele>14.0</ele><time>2026-04-05T09:25:11.715Z</time></trkpt><trkpt lat="43.1872883" lon="10.5414267"><ele>14.0</ele><time>2026-04-05T09:25:13.719Z</time></trkpt><trkpt lat="43.1872033" lon="10.5414406"><ele>14.000000000000002</ele><time>2026-04-05T09:25:15.685Z</time></trkpt><trkpt lat="43.187111" lon="10.5414679"><ele>14.0</ele><time>2026-04-05T09:25:17.705Z</time></trkpt><trkpt lat="43.1870423" lon="10.5415372"><ele>14.2</ele><time>2026-04-05T09:25:19.713Z</time></trkpt><trkpt lat="43.1869932" lon="10.5416402"><ele>14.399999999999999</ele><time>2026-04-05T09:25:21.71Z</time></trkpt><trkpt lat="43.1869505" lon="10.5417379"><ele>14.6</ele><time>2026-04-05T09:25:23.702Z</time></trkpt><trkpt lat="43.1868901" lon="10.541816"><ele>14.8</ele><time>2026-04-05T09:25:25.703Z</time></trkpt><trkpt lat="43.1868233" lon="10.5419236"><ele>15.0</ele><time>2026-04-05T09:25:27.696Z</time></trkpt><trkpt lat="43.1867852" lon="10.5420716"><ele>14.0</ele><time>2026-04-05T09:25:29.707Z</time></trkpt><trkpt lat="43.1867871" lon="10.5422135"><ele>13.0</ele><time>2026-04-05T09:25:31.704Z</time></trkpt><trkpt lat="43.1867946" lon="10.5423332"><ele>12.0</ele><time>2026-04-05T09:25:33.699Z</time></trkpt><trkpt lat="43.1867968" lon="10.5424484"><ele>11.0</ele><time>2026-04-05T09:25:35.705Z</time></trkpt><trkpt lat="43.1868113" lon="10.5425669"><ele>10.0</ele><time>2026-04-05T09:25:37.71Z</time></trkpt><trkpt lat="43.1868408" lon="10.5426961"><ele>10.0</ele><time>2026-04-05T09:25:39.707Z</time></trkpt><trkpt lat="43.1868792" lon="10.5428261"><ele>10.0</ele><time>2026-04-05T09:25:41.743Z</time></trkpt><trkpt lat="43.1869186" lon="10.5429732"><ele>10.0</ele><time>2026-04-05T09:25:43.714Z</time></trkpt><trkpt lat="43.1869344" lon="10.543136"><ele>10.0</ele><time>2026-04-05T09:25:45.706Z</time></trkpt><trkpt lat="43.1869349" lon="10.5432227"><ele>10.0</ele><time>2026-04-05T09:25:46.715Z</time></trkpt><trkpt lat="43.1869395" lon="10.5433174"><ele>9.0</ele><time>2026-04-05T09:25:47.707Z</time></trkpt><trkpt lat="43.1869526" lon="10.5434067"><ele>8.0</ele><time>2026-04-05T09:25:48.717Z</time></trkpt><trkpt lat="43.1869918" lon="10.5435669"><ele>7.0</ele><time>2026-04-05T09:25:50.71Z</time></trkpt><trkpt lat="43.1870403" lon="10.5437112"><ele>6.0</ele><time>2026-04-05T09:25:52.714Z</time></trkpt><trkpt lat="43.1870866" lon="10.5438481"><ele>5.0</ele><time>2026-04-05T09:25:54.721Z</time></trkpt><trkpt lat="43.187111" lon="10.5439811"><ele>4.4</ele><time>2026-04-05T09:25:56.717Z</time></trkpt><trkpt lat="43.1870793" lon="10.5441193"><ele>3.8</ele><time>2026-04-05T09:25:58.726Z</time></trkpt><trkpt lat="43.1870029" lon="10.5442293"><ele>3.2</ele><time>2026-04-05T09:26:00.721Z</time></trkpt><trkpt lat="43.1868959" lon="10.5442794"><ele>2.6</ele><time>2026-04-05T09:26:02.716Z</time></trkpt><trkpt lat="43.1867866" lon="10.5443189"><ele>2.0</ele><time>2026-04-05T09:26:04.724Z</time></trkpt><trkpt lat="43.1866694" lon="10.5443561"><ele>2.0</ele><time>2026-04-05T09:26:06.726Z</time></trkpt><trkpt lat="43.186565" lon="10.5444142"><ele>2.0</ele><time>2026-04-05T09:26:08.731Z</time></trkpt><trkpt lat="43.1864563" lon="10.5444676"><ele>2.0</ele><time>2026-04-05T09:26:10.734Z</time></trkpt><trkpt lat="43.1863557" lon="10.5445336"><ele>2.0</ele><time>2026-04-05T09:26:12.73Z</time></trkpt><trkpt lat="43.1862544" lon="10.5446007"><ele>2.25</ele><time>2026-04-05T09:26:14.734Z</time></trkpt><trkpt lat="43.1861498" lon="10.54467"><ele>2.5</ele><time>2026-04-05T09:26:16.726Z</time></trkpt><trkpt lat="43.1860515" lon="10.5447416"><ele>2.75</ele><time>2026-04-05T09:26:18.728Z</time></trkpt><trkpt lat="43.1859497" lon="10.5448251"><ele>3.0</ele><time>2026-04-05T09:26:20.727Z</time></trkpt><trkpt lat="43.185854" lon="10.5448935"><ele>3.0</ele><time>2026-04-05T09:26:22.721Z</time></trkpt><trkpt lat="43.1857538" lon="10.5449722"><ele>3.0</ele><time>2026-04-05T09:26:24.715Z</time></trkpt><trkpt lat="43.185659" lon="10.5450516"><ele>3.0</ele><time>2026-04-05T09:26:26.721Z</time></trkpt><trkpt lat="43.1855678" lon="10.5451203"><ele>3.0</ele><time>2026-04-05T09:26:28.719Z</time></trkpt><trkpt lat="43.1854738" lon="10.5451808"><ele>3.0</ele><time>2026-04-05T09:26:30.708Z</time></trkpt><trkpt lat="43.185377" lon="10.5452351"><ele>3.2</ele><time>2026-04-05T09:26:32.716Z</time></trkpt><trkpt lat="43.1852783" lon="10.5453036"><ele>3.4</ele><time>2026-04-05T09:26:34.722Z</time></trkpt><trkpt lat="43.1851711" lon="10.5453633"><ele>3.6000000000000005</ele><time>2026-04-05T09:26:36.732Z</time></trkpt><trkpt lat="43.1851121" lon="10.5453954"><ele>3.8000000000000003</ele><time>2026-04-05T09:26:37.732Z</time></trkpt><trkpt lat="43.1850056" lon="10.5454788"><ele>4.0</ele><time>2026-04-05T09:26:39.733Z</time></trkpt><trkpt lat="43.1849433" lon="10.5456167"><ele>3.4285714285714284</ele><time>2026-04-05T09:26:41.724Z</time></trkpt><trkpt lat="43.1849455" lon="10.5457063"><ele>2.8571428571428568</ele><time>2026-04-05T09:26:42.741Z</time></trkpt><trkpt lat="43.184973" lon="10.5458044"><ele>2.2857142857142856</ele><time>2026-04-05T09:26:43.72Z</time></trkpt><trkpt lat="43.1850189" lon="10.545893"><ele>1.7142857142857142</ele><time>2026-04-05T09:26:44.713Z</time></trkpt><trkpt lat="43.1850738" lon="10.5459724"><ele>1.1428571428571428</ele><time>2026-04-05T09:26:45.72Z</time></trkpt><trkpt lat="43.185126" lon="10.5460398"><ele>0.5714285714285714</ele><time>2026-04-05T09:26:46.72Z</time></trkpt><trkpt lat="43.1851738" lon="10.5461077"><ele>0.0</ele><time>2026-04-05T09:26:47.721Z</time></trkpt><trkpt lat="43.1852229" lon="10.5461706"><ele>0.0</ele><time>2026-04-05T09:26:48.721Z</time></trkpt><trkpt lat="43.1853135" lon="10.5462841"><ele>0.0</ele><time>2026-04-05T09:26:50.713Z</time></trkpt><trkpt lat="43.1853591" lon="10.5463444"><ele>0.0</ele><time>2026-04-05T09:26:51.714Z</time></trkpt><trkpt lat="43.1854075" lon="10.5464064"><ele>0.0</ele><time>2026-04-05T09:26:52.719Z</time></trkpt><trkpt lat="43.1854987" lon="10.5465174"><ele>0.0</ele><time>2026-04-05T09:26:54.717Z</time></trkpt><trkpt lat="43.1855782" lon="10.5466283"><ele>0.0</ele><time>2026-04-05T09:26:56.717Z</time></trkpt><trkpt lat="43.1856555" lon="10.5467371"><ele>0.0</ele><time>2026-04-05T09:26:58.717Z</time></trkpt><trkpt lat="43.1857282" lon="10.5468429"><ele>0.0</ele><time>2026-04-05T09:27:00.722Z</time></trkpt><trkpt lat="43.1858048" lon="10.5469302"><ele>0.0</ele><time>2026-04-05T09:27:02.72Z</time></trkpt><trkpt lat="43.1858737" lon="10.5470196"><ele>0.0</ele><time>2026-04-05T09:27:04.724Z</time></trkpt><trkpt lat="43.1859361" lon="10.5471224"><ele>0.0</ele><time>2026-04-05T09:27:06.722Z</time></trkpt><trkpt lat="43.1860058" lon="10.5472294"><ele>0.0</ele><time>2026-04-05T09:27:08.72Z</time></trkpt><trkpt lat="43.1860664" lon="10.5473417"><ele>0.0</ele><time>2026-04-05T09:27:10.737Z</time></trkpt><trkpt lat="43.1860226" lon="10.5474652"><ele>0.0</ele><time>2026-04-05T09:27:12.734Z</time></trkpt><trkpt lat="43.1859064" lon="10.5475258"><ele>0.0</ele><time>2026-04-05T09:27:14.724Z</time></trkpt><trkpt lat="43.1858506" lon="10.5475661"><ele>0.0</ele><time>2026-04-05T09:27:15.721Z</time></trkpt><trkpt lat="43.185791" lon="10.5476069"><ele>0.0</ele><time>2026-04-05T09:27:16.728Z</time></trkpt><trkpt lat="43.1856799" lon="10.5476881"><ele>0.0</ele><time>2026-04-05T09:27:18.728Z</time></trkpt><trkpt lat="43.1856232" lon="10.5477287"><ele>0.0</ele><time>2026-04-05T09:27:19.724Z</time></trkpt><trkpt lat="43.1855103" lon="10.5478048"><ele>0.0</ele><time>2026-04-05T09:27:21.738Z</time></trkpt><trkpt lat="43.185451" lon="10.5478372"><ele>0.0</ele><time>2026-04-05T09:27:22.742Z</time></trkpt><trkpt lat="43.1853411" lon="10.5479147"><ele>0.0</ele><time>2026-04-05T09:27:24.738Z</time></trkpt><trkpt lat="43.1852804" lon="10.5480377"><ele>0.0</ele><time>2026-04-05T09:27:26.74Z</time></trkpt><trkpt lat="43.1852182" lon="10.5481339"><ele>0.0</ele><time>2026-04-05T09:27:28.73Z</time></trkpt><trkpt lat="43.1851275" lon="10.5481957"><ele>0.0</ele><time>2026-04-05T09:27:30.743Z</time></trkpt><trkpt lat="43.1850253" lon="10.5482558"><ele>0.0</ele><time>2026-04-05T09:27:32.741Z</time></trkpt><trkpt lat="43.1849246" lon="10.5483164"><ele>0.0</ele><time>2026-04-05T09:27:34.742Z</time></trkpt><trkpt lat="43.1848317" lon="10.5483835"><ele>0.0</ele><time>2026-04-05T09:27:36.742Z</time></trkpt><trkpt lat="43.1847458" lon="10.5484503"><ele>0.0</ele><time>2026-04-05T09:27:38.745Z</time></trkpt><trkpt lat="43.1846528" lon="10.5485154"><ele>0.0</ele><time>2026-04-05T09:27:40.751Z</time></trkpt><trkpt lat="43.1845634" lon="10.5485888"><ele>0.0</ele><time>2026-04-05T09:27:42.742Z</time></trkpt><trkpt lat="43.1844928" lon="10.5486521"><ele>-0.2</ele><time>2026-04-05T09:27:44.753Z</time></trkpt><trkpt lat="43.1843786" lon="10.5487457"><ele>-0.4</ele><time>2026-04-05T09:27:47.728Z</time></trkpt><trkpt lat="43.1843081" lon="10.5487987"><ele>-0.6000000000000001</ele><time>2026-04-05T09:27:49.725Z</time></trkpt><trkpt lat="43.1842454" lon="10.5488696"><ele>-0.8</ele><time>2026-04-05T09:27:51.725Z</time></trkpt><trkpt lat="43.1841682" lon="10.5489"><ele>-1.0</ele><time>2026-04-05T09:27:53.727Z</time></trkpt><trkpt lat="43.1840978" lon="10.5489344"><ele>-1.0</ele><time>2026-04-05T09:27:55.717Z</time></trkpt><trkpt lat="43.1840287" lon="10.5489732"><ele>-0.9999999999999999</ele><time>2026-04-05T09:27:57.725Z</time></trkpt><trkpt lat="43.1839678" lon="10.5490253"><ele>-1.0</ele><time>2026-04-05T09:27:59.737Z</time></trkpt><trkpt lat="43.1839134" lon="10.549083"><ele>-1.0</ele><time>2026-04-05T09:28:01.738Z</time></trkpt><trkpt lat="43.1838503" lon="10.5491376"><ele>-0.9999999999999999</ele><time>2026-04-05T09:28:03.748Z</time></trkpt><trkpt lat="43.1837947" lon="10.549182"><ele>-1.0</ele><time>2026-04-05T09:28:05.743Z</time></trkpt><trkpt lat="43.1837176" lon="10.5492393"><ele>-1.0</ele><time>2026-04-05T09:28:08.745Z</time></trkpt><trkpt lat="43.1836396" lon="10.5492806"><ele>-0.8333333333333333</ele><time>2026-04-05T09:28:11.729Z</time></trkpt><trkpt lat="43.1835769" lon="10.5493146"><ele>-0.6666666666666666</ele><time>2026-04-05T09:28:14.717Z</time></trkpt><trkpt lat="43.1835197" lon="10.549371"><ele>-0.5</ele><time>2026-04-05T09:28:16.717Z</time></trkpt><trkpt lat="43.1834533" lon="10.549393"><ele>-0.3333333333333333</ele><time>2026-04-05T09:28:18.74Z</time></trkpt><trkpt lat="43.1833933" lon="10.5494432"><ele>-0.16666666666666666</ele><time>2026-04-05T09:28:20.743Z</time></trkpt><trkpt lat="43.1833107" lon="10.549497"><ele>0.0</ele><time>2026-04-05T09:28:22.752Z</time></trkpt><trkpt lat="43.1832344" lon="10.5495451"><ele>0.3333333333333333</ele><time>2026-04-05T09:28:24.744Z</time></trkpt><trkpt lat="43.1831567" lon="10.5495934"><ele>0.6666666666666666</ele><time>2026-04-05T09:28:26.744Z</time></trkpt><trkpt lat="43.1831023" lon="10.5496598"><ele>1.0</ele><time>2026-04-05T09:28:28.74Z</time></trkpt><trkpt lat="43.1830468" lon="10.5497035"><ele>1.3333333333333333</ele><time>2026-04-05T09:29:16.738Z</time></trkpt><trkpt lat="43.1829838" lon="10.5497734"><ele>1.6666666666666665</ele><time>2026-04-05T09:29:19.737Z</time></trkpt><trkpt lat="43.1829004" lon="10.5498388"><ele>2.0</ele><time>2026-04-05T09:29:21.743Z</time></trkpt><trkpt lat="43.1828156" lon="10.5498875"><ele>2.0</ele><time>2026-04-05T09:29:23.728Z</time></trkpt><trkpt lat="43.1827216" lon="10.5499452"><ele>2.0</ele><time>2026-04-05T09:29:25.737Z</time></trkpt><trkpt lat="43.182626" lon="10.550017"><ele>2.0</ele><time>2026-04-05T09:29:27.731Z</time></trkpt><trkpt lat="43.1825293" lon="10.5500861"><ele>2.0</ele><time>2026-04-05T09:29:29.74Z</time></trkpt><trkpt lat="43.1824299" lon="10.5501572"><ele>2.0</ele><time>2026-04-05T09:29:31.739Z</time></trkpt><trkpt lat="43.1823377" lon="10.5502171"><ele>2.4000000000000004</ele><time>2026-04-05T09:29:33.741Z</time></trkpt><trkpt lat="43.1822372" lon="10.5502864"><ele>2.8000000000000003</ele><time>2026-04-05T09:29:35.745Z</time></trkpt><trkpt lat="43.1821401" lon="10.5503467"><ele>3.2</ele><time>2026-04-05T09:29:37.744Z</time></trkpt><trkpt lat="43.1820391" lon="10.5504184"><ele>3.6</ele><time>2026-04-05T09:29:39.733Z</time></trkpt><trkpt lat="43.181929" lon="10.5504412"><ele>4.0</ele><time>2026-04-05T09:29:41.727Z</time></trkpt><trkpt lat="43.1818179" lon="10.5504655"><ele>4.0</ele><time>2026-04-05T09:29:43.729Z</time></trkpt><trkpt lat="43.1817144" lon="10.5505012"><ele>4.0</ele><time>2026-04-05T09:29:45.723Z</time></trkpt><trkpt lat="43.1815983" lon="10.550531"><ele>4.0</ele><time>2026-04-05T09:29:47.725Z</time></trkpt><trkpt lat="43.1814889" lon="10.5505535"><ele>4.0</ele><time>2026-04-05T09:29:49.727Z</time></trkpt><trkpt lat="43.1813787" lon="10.5505746"><ele>4.0</ele><time>2026-04-05T09:29:51.727Z</time></trkpt><trkpt lat="43.1812652" lon="10.5505826"><ele>4.4</ele><time>2026-04-05T09:29:53.726Z</time></trkpt><trkpt lat="43.1811552" lon="10.5506054"><ele>4.800000000000001</ele><time>2026-04-05T09:29:55.724Z</time></trkpt><trkpt lat="43.1810438" lon="10.5506268"><ele>5.199999999999999</ele><time>2026-04-05T09:29:57.73Z</time></trkpt><trkpt lat="43.1809326" lon="10.5506435"><ele>5.6</ele><time>2026-04-05T09:29:59.726Z</time></trkpt><trkpt lat="43.1808367" lon="10.5506617"><ele>6.0</ele><time>2026-04-05T09:30:01.729Z</time></trkpt><trkpt lat="43.1807658" lon="10.550688"><ele>6.0</ele><time>2026-04-05T09:30:03.732Z</time></trkpt><trkpt lat="43.1807005" lon="10.550693"><ele>6.0</ele><time>2026-04-05T09:30:05.73Z</time></trkpt><trkpt lat="43.1806237" lon="10.5506882"><ele>6.0</ele><time>2026-04-05T09:30:07.728Z</time></trkpt><trkpt lat="43.180537" lon="10.5506763"><ele>6.0</ele><time>2026-04-05T09:30:09.732Z</time></trkpt><trkpt lat="43.1804417" lon="10.5506399"><ele>6.0</ele><time>2026-04-05T09:30:11.728Z</time></trkpt><trkpt lat="43.1803456" lon="10.5505682"><ele>6.0</ele><time>2026-04-05T09:30:13.722Z</time></trkpt><trkpt lat="43.1802606" lon="10.5504784"><ele>6.833333333333333</ele><time>2026-04-05T09:30:15.715Z</time></trkpt><trkpt lat="43.1801756" lon="10.5504402"><ele>7.666666666666666</ele><time>2026-04-05T09:30:17.717Z</time></trkpt><trkpt lat="43.1801089" lon="10.5504525"><ele>8.5</ele><time>2026-04-05T09:30:19.76Z</time></trkpt><trkpt lat="43.1800204" lon="10.5504701"><ele>9.333333333333332</ele><time>2026-04-05T09:30:22.725Z</time></trkpt><trkpt lat="43.17995" lon="10.5504652"><ele>10.166666666666666</ele><time>2026-04-05T09:30:24.713Z</time></trkpt><trkpt lat="43.1798648" lon="10.5504556"><ele>11.0</ele><time>2026-04-05T09:30:26.716Z</time></trkpt><trkpt lat="43.1797725" lon="10.55043"><ele>11.333333333333332</ele><time>2026-04-05T09:30:28.713Z</time></trkpt><trkpt lat="43.1796839" lon="10.5504169"><ele>11.666666666666666</ele><time>2026-04-05T09:30:30.715Z</time></trkpt><trkpt lat="43.1795806" lon="10.5503883"><ele>12.0</ele><time>2026-04-05T09:30:32.712Z</time></trkpt><trkpt lat="43.1794916" lon="10.5503793"><ele>12.333333333333332</ele><time>2026-04-05T09:30:34.711Z</time></trkpt><trkpt lat="43.179404" lon="10.5503568"><ele>12.666666666666666</ele><time>2026-04-05T09:30:36.705Z</time></trkpt><trkpt lat="43.1793418" lon="10.550332"><ele>13.0</ele><time>2026-04-05T09:30:38.714Z</time></trkpt><trkpt lat="43.1792783" lon="10.5503149"><ele>13.499999999999998</ele><time>2026-04-05T09:30:40.71Z</time></trkpt><trkpt lat="43.1792069" lon="10.5502911"><ele>14.0</ele><time>2026-04-05T09:30:42.709Z</time></trkpt><trkpt lat="43.1790912" lon="10.5502679"><ele>14.5</ele><time>2026-04-05T09:30:44.709Z</time></trkpt><trkpt lat="43.1790239" lon="10.5502716"><ele>15.0</ele><time>2026-04-05T09:30:45.71Z</time></trkpt><trkpt lat="43.1789471" lon="10.5502742"><ele>15.499999999999998</ele><time>2026-04-05T09:30:46.71Z</time></trkpt><trkpt lat="43.1788781" lon="10.5502778"><ele>16.0</ele><time>2026-04-05T09:30:47.711Z</time></trkpt><trkpt lat="43.1788121" lon="10.5502716"><ele>16.0</ele><time>2026-04-05T09:30:48.711Z</time></trkpt><trkpt lat="43.1787437" lon="10.550275"><ele>16.0</ele><time>2026-04-05T09:30:49.734Z</time></trkpt><trkpt lat="43.1786193" lon="10.5502821"><ele>16.0</ele><time>2026-04-05T09:30:51.703Z</time></trkpt><trkpt lat="43.1785539" lon="10.5502883"><ele>16.0</ele><time>2026-04-05T09:30:52.717Z</time></trkpt><trkpt lat="43.1784276" lon="10.5502849"><ele>16.0</ele><time>2026-04-05T09:30:54.712Z</time></trkpt><trkpt lat="43.1783038" lon="10.5502434"><ele>16.400000000000002</ele><time>2026-04-05T09:30:56.709Z</time></trkpt><trkpt lat="43.1781799" lon="10.5502175"><ele>16.8</ele><time>2026-04-05T09:30:58.708Z</time></trkpt><trkpt lat="43.1780541" lon="10.5502116"><ele>17.200000000000003</ele><time>2026-04-05T09:31:00.708Z</time></trkpt><trkpt lat="43.1779628" lon="10.5501901"><ele>17.6</ele><time>2026-04-05T09:31:02.712Z</time></trkpt><trkpt lat="43.1778625" lon="10.5501661"><ele>18.0</ele><time>2026-04-05T09:31:04.711Z</time></trkpt><trkpt lat="43.1777742" lon="10.5501572"><ele>18.0</ele><time>2026-04-05T09:31:06.711Z</time></trkpt><trkpt lat="43.1776959" lon="10.5501481"><ele>18.0</ele><time>2026-04-05T09:31:08.715Z</time></trkpt><trkpt lat="43.177628" lon="10.5501362"><ele>18.0</ele><time>2026-04-05T09:31:10.713Z</time></trkpt><trkpt lat="43.1775364" lon="10.5501396"><ele>18.0</ele><time>2026-04-05T09:31:12.71Z</time></trkpt><trkpt lat="43.1774361" lon="10.5501454"><ele>18.0</ele><time>2026-04-05T09:31:14.711Z</time></trkpt><trkpt lat="43.1773387" lon="10.550128"><ele>18.0</ele><time>2026-04-05T09:31:16.705Z</time></trkpt><trkpt lat="43.177234" lon="10.5501171"><ele>17.75</ele><time>2026-04-05T09:31:18.705Z</time></trkpt><trkpt lat="43.1771346" lon="10.5501119"><ele>17.5</ele><time>2026-04-05T09:31:20.72Z</time></trkpt><trkpt lat="43.1770227" lon="10.5501118"><ele>17.25</ele><time>2026-04-05T09:31:22.706Z</time></trkpt><trkpt lat="43.176911" lon="10.5500898"><ele>17.0</ele><time>2026-04-05T09:31:24.708Z</time></trkpt><trkpt lat="43.1767841" lon="10.5500817"><ele>17.0</ele><time>2026-04-05T09:31:26.705Z</time></trkpt><trkpt lat="43.1767188" lon="10.5500919"><ele>17.0</ele><time>2026-04-05T09:31:27.709Z</time></trkpt><trkpt lat="43.1765932" lon="10.5501014"><ele>17.0</ele><time>2026-04-05T09:31:29.709Z</time></trkpt><trkpt lat="43.1764812" lon="10.5500877"><ele>17.0</ele><time>2026-04-05T09:31:31.708Z</time></trkpt><trkpt lat="43.1764171" lon="10.5500872"><ele>17.0</ele><time>2026-04-05T09:31:32.708Z</time></trkpt><trkpt lat="43.1763011" lon="10.5500848"><ele>16.8</ele><time>2026-04-05T09:31:34.712Z</time></trkpt><trkpt lat="43.1761916" lon="10.550083"><ele>16.6</ele><time>2026-04-05T09:31:36.709Z</time></trkpt><trkpt lat="43.1760763" lon="10.5500669"><ele>16.400000000000002</ele><time>2026-04-05T09:31:38.722Z</time></trkpt><trkpt lat="43.1759683" lon="10.5500411"><ele>16.2</ele><time>2026-04-05T09:31:40.718Z</time></trkpt><trkpt lat="43.1758652" lon="10.5500264"><ele>16.0</ele><time>2026-04-05T09:31:42.716Z</time></trkpt><trkpt lat="43.1757616" lon="10.5500081"><ele>15.999999999999998</ele><time>2026-04-05T09:31:44.711Z</time></trkpt><trkpt lat="43.1756993" lon="10.5499955"><ele>16.0</ele><time>2026-04-05T09:31:45.709Z</time></trkpt><trkpt lat="43.1756359" lon="10.5499798"><ele>16.0</ele><time>2026-04-05T09:31:46.716Z</time></trkpt><trkpt lat="43.1755714" lon="10.5499745"><ele>16.0</ele><time>2026-04-05T09:31:47.712Z</time></trkpt><trkpt lat="43.1755088" lon="10.5499622"><ele>15.999999999999998</ele><time>2026-04-05T09:31:48.711Z</time></trkpt><trkpt lat="43.1753896" lon="10.5499471"><ele>16.0</ele><time>2026-04-05T09:31:50.708Z</time></trkpt><trkpt lat="43.1752774" lon="10.5499187"><ele>15.75</ele><time>2026-04-05T09:31:52.71Z</time></trkpt><trkpt lat="43.1751691" lon="10.5499139"><ele>15.5</ele><time>2026-04-05T09:31:54.706Z</time></trkpt><trkpt lat="43.17505" lon="10.5498946"><ele>15.25</ele><time>2026-04-05T09:31:56.712Z</time></trkpt><trkpt lat="43.1749365" lon="10.5498627"><ele>15.0</ele><time>2026-04-05T09:31:58.715Z</time></trkpt><trkpt lat="43.1748144" lon="10.5498399"><ele>15.0</ele><time>2026-04-05T09:32:00.716Z</time></trkpt><trkpt lat="43.1746976" lon="10.5498087"><ele>15.0</ele><time>2026-04-05T09:32:02.717Z</time></trkpt><trkpt lat="43.1745911" lon="10.5497931"><ele>15.0</ele><time>2026-04-05T09:32:04.722Z</time></trkpt><trkpt lat="43.1744821" lon="10.5497894"><ele>15.0</ele><time>2026-04-05T09:32:06.719Z</time></trkpt><trkpt lat="43.1743758" lon="10.5497621"><ele>15.0</ele><time>2026-04-05T09:32:08.719Z</time></trkpt><trkpt lat="43.1742713" lon="10.549729"><ele>15.0</ele><time>2026-04-05T09:32:10.724Z</time></trkpt><trkpt lat="43.174168" lon="10.549709"><ele>15.0</ele><time>2026-04-05T09:32:12.724Z</time></trkpt><trkpt lat="43.1740594" lon="10.5496873"><ele>15.0</ele><time>2026-04-05T09:32:14.72Z</time></trkpt><trkpt lat="43.1739481" lon="10.5496702"><ele>15.0</ele><time>2026-04-05T09:32:16.719Z</time></trkpt><trkpt lat="43.1738389" lon="10.5496636"><ele>15.0</ele><time>2026-04-05T09:32:18.712Z</time></trkpt><trkpt lat="43.1737341" lon="10.549647"><ele>13.8</ele><time>2026-04-05T09:32:20.719Z</time></trkpt><trkpt lat="43.1736288" lon="10.5496315"><ele>12.6</ele><time>2026-04-05T09:32:22.734Z</time></trkpt><trkpt lat="43.1735259" lon="10.5496152"><ele>11.4</ele><time>2026-04-05T09:32:24.714Z</time></trkpt><trkpt lat="43.1734239" lon="10.5496049"><ele>10.2</ele><time>2026-04-05T09:32:26.71Z</time></trkpt><trkpt lat="43.1733257" lon="10.549597"><ele>9.0</ele><time>2026-04-05T09:32:28.711Z</time></trkpt><trkpt lat="43.173234" lon="10.5495953"><ele>9.2</ele><time>2026-04-05T09:32:30.719Z</time></trkpt><trkpt lat="43.1731381" lon="10.5495929"><ele>9.4</ele><time>2026-04-05T09:32:32.714Z</time></trkpt><trkpt lat="43.1730377" lon="10.549564"><ele>9.6</ele><time>2026-04-05T09:32:34.72Z</time></trkpt><trkpt lat="43.1729307" lon="10.5495617"><ele>9.8</ele><time>2026-04-05T09:32:36.724Z</time></trkpt><trkpt lat="43.1728268" lon="10.5495582"><ele>10.0</ele><time>2026-04-05T09:32:38.721Z</time></trkpt><trkpt lat="43.1727125" lon="10.5495455"><ele>12.0</ele><time>2026-04-05T09:32:40.723Z</time></trkpt><trkpt lat="43.1726054" lon="10.5495303"><ele>14.0</ele><time>2026-04-05T09:32:42.716Z</time></trkpt><trkpt lat="43.1724937" lon="10.5495105"><ele>16.0</ele><time>2026-04-05T09:32:44.717Z</time></trkpt><trkpt lat="43.1723834" lon="10.549491"><ele>18.0</ele><time>2026-04-05T09:32:46.72Z</time></trkpt><trkpt lat="43.1722833" lon="10.5494777"><ele>20.0</ele><time>2026-04-05T09:32:48.716Z</time></trkpt><trkpt lat="43.1721868" lon="10.5494605"><ele>20.0</ele><time>2026-04-05T09:32:50.723Z</time></trkpt><trkpt lat="43.1720818" lon="10.5494499"><ele>20.0</ele><time>2026-04-05T09:32:52.715Z</time></trkpt><trkpt lat="43.1719718" lon="10.5494412"><ele>20.0</ele><time>2026-04-05T09:32:54.712Z</time></trkpt><trkpt lat="43.1718679" lon="10.549431"><ele>20.0</ele><time>2026-04-05T09:32:56.713Z</time></trkpt><trkpt lat="43.1717596" lon="10.5494303"><ele>20.0</ele><time>2026-04-05T09:32:58.713Z</time></trkpt><trkpt lat="43.171659" lon="10.5494407"><ele>20.0</ele><time>2026-04-05T09:33:00.705Z</time></trkpt><trkpt lat="43.1715705" lon="10.549473"><ele>20.0</ele><time>2026-04-05T09:33:02.712Z</time></trkpt><trkpt lat="43.1715082" lon="10.5495164"><ele>20.0</ele><time>2026-04-05T09:33:04.718Z</time></trkpt><trkpt lat="43.1715062" lon="10.5496399"><ele>20.0</ele><time>2026-04-05T09:33:06.707Z</time></trkpt><trkpt lat="43.1715132" lon="10.5497615"><ele>20.0</ele><time>2026-04-05T09:33:08.716Z</time></trkpt><trkpt lat="43.1714947" lon="10.5498877"><ele>20.0</ele><time>2026-04-05T09:33:10.725Z</time></trkpt><trkpt lat="43.1714783" lon="10.5500123"><ele>18.2</ele><time>2026-04-05T09:33:12.725Z</time></trkpt><trkpt lat="43.1714521" lon="10.550146"><ele>16.4</ele><time>2026-04-05T09:33:14.724Z</time></trkpt><trkpt lat="43.1714218" lon="10.5502791"><ele>14.600000000000001</ele><time>2026-04-05T09:33:16.732Z</time></trkpt><trkpt lat="43.1714027" lon="10.5504196"><ele>12.8</ele><time>2026-04-05T09:33:18.731Z</time></trkpt><trkpt lat="43.1713839" lon="10.55057"><ele>11.0</ele><time>2026-04-05T09:33:20.739Z</time></trkpt><trkpt lat="43.1713577" lon="10.5507146"><ele>10.600000000000001</ele><time>2026-04-05T09:33:22.733Z</time></trkpt><trkpt lat="43.1713458" lon="10.5508629"><ele>10.200000000000001</ele><time>2026-04-05T09:33:24.756Z</time></trkpt><trkpt lat="43.1713262" lon="10.5510129"><ele>9.8</ele><time>2026-04-05T09:33:26.734Z</time></trkpt><trkpt lat="43.171311" lon="10.5511612"><ele>9.4</ele><time>2026-04-05T09:33:28.741Z</time></trkpt><trkpt lat="43.1712856" lon="10.5513093"><ele>9.0</ele><time>2026-04-05T09:33:30.744Z</time></trkpt><trkpt lat="43.1712574" lon="10.5514499"><ele>9.0</ele><time>2026-04-05T09:33:32.737Z</time></trkpt><trkpt lat="43.1712359" lon="10.5515978"><ele>9.0</ele><time>2026-04-05T09:33:34.735Z</time></trkpt><trkpt lat="43.1712056" lon="10.5517476"><ele>9.0</ele><time>2026-04-05T09:33:36.736Z</time></trkpt><trkpt lat="43.171182" lon="10.5518968"><ele>9.0</ele><time>2026-04-05T09:33:38.739Z</time></trkpt><trkpt lat="43.1711643" lon="10.5520469"><ele>9.0</ele><time>2026-04-05T09:33:40.74Z</time></trkpt><trkpt lat="43.1711401" lon="10.5521948"><ele>9.2</ele><time>2026-04-05T09:33:42.737Z</time></trkpt><trkpt lat="43.1711133" lon="10.5523418"><ele>9.4</ele><time>2026-04-05T09:33:44.739Z</time></trkpt><trkpt lat="43.1710921" lon="10.5524787"><ele>9.6</ele><time>2026-04-05T09:33:46.748Z</time></trkpt><trkpt lat="43.1710684" lon="10.5526208"><ele>9.8</ele><time>2026-04-05T09:33:48.74Z</time></trkpt><trkpt lat="43.1710412" lon="10.5527649"><ele>10.0</ele><time>2026-04-05T09:33:50.745Z</time></trkpt><trkpt lat="43.171011" lon="10.5529067"><ele>10.0</ele><time>2026-04-05T09:33:52.744Z</time></trkpt><trkpt lat="43.1709881" lon="10.5530484"><ele>10.0</ele><time>2026-04-05T09:33:54.74Z</time></trkpt><trkpt lat="43.1709674" lon="10.5531954"><ele>10.0</ele><time>2026-04-05T09:33:56.738Z</time></trkpt><trkpt lat="43.1709422" lon="10.5533407"><ele>10.0</ele><time>2026-04-05T09:33:58.741Z</time></trkpt><trkpt lat="43.1709201" lon="10.5534844"><ele>10.0</ele><time>2026-04-05T09:34:00.74Z</time></trkpt><trkpt lat="43.1709011" lon="10.5536345"><ele>10.0</ele><time>2026-04-05T09:34:02.738Z</time></trkpt><trkpt lat="43.1708796" lon="10.5537851"><ele>10.0</ele><time>2026-04-05T09:34:04.746Z</time></trkpt><trkpt lat="43.1708587" lon="10.5539322"><ele>10.0</ele><time>2026-04-05T09:34:06.742Z</time></trkpt><trkpt lat="43.1708387" lon="10.5540823"><ele>10.0</ele><time>2026-04-05T09:34:08.752Z</time></trkpt><trkpt lat="43.1708237" lon="10.5542356"><ele>10.0</ele><time>2026-04-05T09:34:10.741Z</time></trkpt><trkpt lat="43.1708146" lon="10.5543888"><ele>10.0</ele><time>2026-04-05T09:34:12.751Z</time></trkpt><trkpt lat="43.1707989" lon="10.5545313"><ele>10.0</ele><time>2026-04-05T09:34:14.748Z</time></trkpt><trkpt lat="43.1707765" lon="10.5546568"><ele>10.0</ele><time>2026-04-05T09:34:16.749Z</time></trkpt><trkpt lat="43.1707671" lon="10.5547828"><ele>10.0</ele><time>2026-04-05T09:34:18.748Z</time></trkpt><trkpt lat="43.1707337" lon="10.5549126"><ele>10.0</ele><time>2026-04-05T09:34:20.752Z</time></trkpt><trkpt lat="43.1707084" lon="10.5550518"><ele>10.25</ele><time>2026-04-05T09:34:22.757Z</time></trkpt><trkpt lat="43.1706853" lon="10.5551998"><ele>10.5</ele><time>2026-04-05T09:34:24.755Z</time></trkpt><trkpt lat="43.1706577" lon="10.5553587"><ele>10.75</ele><time>2026-04-05T09:34:26.769Z</time></trkpt><trkpt lat="43.1706366" lon="10.5555101"><ele>11.0</ele><time>2026-04-05T09:34:28.748Z</time></trkpt><trkpt lat="43.1706161" lon="10.5556598"><ele>11.600000000000001</ele><time>2026-04-05T09:34:30.75Z</time></trkpt><trkpt lat="43.1705972" lon="10.5558097"><ele>12.2</ele><time>2026-04-05T09:34:32.748Z</time></trkpt><trkpt lat="43.1705774" lon="10.5559639"><ele>12.799999999999999</ele><time>2026-04-05T09:34:34.755Z</time></trkpt><trkpt lat="43.1705593" lon="10.5561156"><ele>13.399999999999999</ele><time>2026-04-05T09:34:36.755Z</time></trkpt><trkpt lat="43.1705382" lon="10.5562562"><ele>14.0</ele><time>2026-04-05T09:34:38.75Z</time></trkpt><trkpt lat="43.1705186" lon="10.5563833"><ele>14.2</ele><time>2026-04-05T09:34:40.752Z</time></trkpt><trkpt lat="43.1705017" lon="10.5565084"><ele>14.399999999999999</ele><time>2026-04-05T09:34:42.75Z</time></trkpt><trkpt lat="43.1704683" lon="10.5566386"><ele>14.6</ele><time>2026-04-05T09:34:44.743Z</time></trkpt><trkpt lat="43.1704357" lon="10.5567892"><ele>14.8</ele><time>2026-04-05T09:34:46.746Z</time></trkpt><trkpt lat="43.1704075" lon="10.5569405"><ele>15.0</ele><time>2026-04-05T09:34:48.748Z</time></trkpt><trkpt lat="43.1703928" lon="10.5570945"><ele>15.0</ele><time>2026-04-05T09:34:50.742Z</time></trkpt><trkpt lat="43.1703719" lon="10.557249"><ele>15.0</ele><time>2026-04-05T09:34:52.749Z</time></trkpt><trkpt lat="43.1703514" lon="10.5574048"><ele>15.0</ele><time>2026-04-05T09:34:54.749Z</time></trkpt><trkpt lat="43.1703348" lon="10.5575631"><ele>15.0</ele><time>2026-04-05T09:34:56.735Z</time></trkpt><trkpt lat="43.1703139" lon="10.5577201"><ele>15.0</ele><time>2026-04-05T09:34:58.745Z</time></trkpt><trkpt lat="43.1702934" lon="10.5578748"><ele>15.0</ele><time>2026-04-05T09:35:00.75Z</time></trkpt><trkpt lat="43.1702721" lon="10.5580285"><ele>15.0</ele><time>2026-04-05T09:35:02.744Z</time></trkpt><trkpt lat="43.1702494" lon="10.5581771"><ele>15.0</ele><time>2026-04-05T09:35:04.749Z</time></trkpt><trkpt lat="43.1702306" lon="10.5583301"><ele>15.0</ele><time>2026-04-05T09:35:06.752Z</time></trkpt><trkpt lat="43.1702061" lon="10.5584832"><ele>15.0</ele><time>2026-04-05T09:35:08.758Z</time></trkpt><trkpt lat="43.1701849" lon="10.5586433"><ele>15.0</ele><time>2026-04-05T09:35:10.754Z</time></trkpt><trkpt lat="43.1701529" lon="10.558793"><ele>15.0</ele><time>2026-04-05T09:35:12.751Z</time></trkpt><trkpt lat="43.1701282" lon="10.5589473"><ele>15.2</ele><time>2026-04-05T09:35:14.754Z</time></trkpt><trkpt lat="43.1701071" lon="10.5590973"><ele>15.4</ele><time>2026-04-05T09:35:16.748Z</time></trkpt><trkpt lat="43.1700847" lon="10.5592467"><ele>15.600000000000001</ele><time>2026-04-05T09:35:18.751Z</time></trkpt><trkpt lat="43.1700589" lon="10.5593942"><ele>15.8</ele><time>2026-04-05T09:35:20.75Z</time></trkpt><trkpt lat="43.1700403" lon="10.5595427"><ele>16.0</ele><time>2026-04-05T09:35:22.753Z</time></trkpt><trkpt lat="43.1700156" lon="10.5596921"><ele>16.25</ele><time>2026-04-05T09:35:24.748Z</time></trkpt><trkpt lat="43.169988" lon="10.559847"><ele>16.5</ele><time>2026-04-05T09:35:26.747Z</time></trkpt><trkpt lat="43.1699527" lon="10.5599937"><ele>16.75</ele><time>2026-04-05T09:35:28.762Z</time></trkpt><trkpt lat="43.1699401" lon="10.5601468"><ele>17.0</ele><time>2026-04-05T09:35:30.747Z</time></trkpt><trkpt lat="43.1699181" lon="10.5603009"><ele>17.0</ele><time>2026-04-05T09:35:32.746Z</time></trkpt><trkpt lat="43.1698884" lon="10.5604568"><ele>17.0</ele><time>2026-04-05T09:35:34.742Z</time></trkpt><trkpt lat="43.1698684" lon="10.5606103"><ele>17.0</ele><time>2026-04-05T09:35:36.746Z</time></trkpt><trkpt lat="43.1698477" lon="10.5607628"><ele>17.0</ele><time>2026-04-05T09:35:38.744Z</time></trkpt><trkpt lat="43.1698266" lon="10.5609175"><ele>17.0</ele><time>2026-04-05T09:35:40.744Z</time></trkpt><trkpt lat="43.1698005" lon="10.5610672"><ele>17.0</ele><time>2026-04-05T09:35:42.741Z</time></trkpt><trkpt lat="43.1697792" lon="10.5612158"><ele>17.0</ele><time>2026-04-05T09:35:44.749Z</time></trkpt><trkpt lat="43.1697523" lon="10.5613631"><ele>17.0</ele><time>2026-04-05T09:35:46.749Z</time></trkpt><trkpt lat="43.1697238" lon="10.561515"><ele>17.0</ele><time>2026-04-05T09:35:48.746Z</time></trkpt><trkpt lat="43.169698" lon="10.5616642"><ele>17.0</ele><time>2026-04-05T09:35:50.752Z</time></trkpt><trkpt lat="43.1696761" lon="10.5618143"><ele>17.0</ele><time>2026-04-05T09:35:52.747Z</time></trkpt><trkpt lat="43.1696549" lon="10.5619709"><ele>17.0</ele><time>2026-04-05T09:35:54.748Z</time></trkpt><trkpt lat="43.1696368" lon="10.5621249"><ele>17.0</ele><time>2026-04-05T09:35:56.749Z</time></trkpt><trkpt lat="43.1696206" lon="10.5622722"><ele>17.0</ele><time>2026-04-05T09:35:58.757Z</time></trkpt><trkpt lat="43.1696008" lon="10.5624249"><ele>17.0</ele><time>2026-04-05T09:36:00.749Z</time></trkpt><trkpt lat="43.1695725" lon="10.5625749"><ele>17.0</ele><time>2026-04-05T09:36:02.752Z</time></trkpt><trkpt lat="43.169543" lon="10.5627262"><ele>17.0</ele><time>2026-04-05T09:36:04.752Z</time></trkpt><trkpt lat="43.1695194" lon="10.5628709"><ele>17.0</ele><time>2026-04-05T09:36:06.746Z</time></trkpt><trkpt lat="43.1695017" lon="10.5630137"><ele>17.4</ele><time>2026-04-05T09:36:08.72Z</time></trkpt><trkpt lat="43.1694889" lon="10.5631692"><ele>17.799999999999997</ele><time>2026-04-05T09:36:10.733Z</time></trkpt><trkpt lat="43.1694705" lon="10.5633113"><ele>18.2</ele><time>2026-04-05T09:36:12.73Z</time></trkpt><trkpt lat="43.169435" lon="10.563448"><ele>18.599999999999998</ele><time>2026-04-05T09:36:14.742Z</time></trkpt><trkpt lat="43.169414" lon="10.5635879"><ele>19.0</ele><time>2026-04-05T09:36:16.744Z</time></trkpt><trkpt lat="43.1694006" lon="10.5637261"><ele>19.166666666666664</ele><time>2026-04-05T09:36:18.743Z</time></trkpt><trkpt lat="43.1693337" lon="10.5638243"><ele>19.333333333333332</ele><time>2026-04-05T09:36:20.751Z</time></trkpt><trkpt lat="43.169266" lon="10.5638152"><ele>19.5</ele><time>2026-04-05T09:36:21.747Z</time></trkpt><trkpt lat="43.1691945" lon="10.5637887"><ele>19.666666666666668</ele><time>2026-04-05T09:36:22.745Z</time></trkpt><trkpt lat="43.169125" lon="10.5637649"><ele>19.833333333333336</ele><time>2026-04-05T09:36:23.737Z</time></trkpt><trkpt lat="43.1690021" lon="10.5637302"><ele>20.0</ele><time>2026-04-05T09:36:25.73Z</time></trkpt><trkpt lat="43.1688883" lon="10.5636923"><ele>19.25</ele><time>2026-04-05T09:36:27.734Z</time></trkpt><trkpt lat="43.1687757" lon="10.563657"><ele>18.5</ele><time>2026-04-05T09:36:29.737Z</time></trkpt><trkpt lat="43.1686666" lon="10.5635969"><ele>17.75</ele><time>2026-04-05T09:36:31.74Z</time></trkpt><trkpt lat="43.1685549" lon="10.5635269"><ele>17.0</ele><time>2026-04-05T09:36:33.729Z</time></trkpt><trkpt lat="43.1684349" lon="10.5634848"><ele>17.0</ele><time>2026-04-05T09:36:35.731Z</time></trkpt><trkpt lat="43.1683416" lon="10.5634653"><ele>17.0</ele><time>2026-04-05T09:36:37.735Z</time></trkpt><trkpt lat="43.1682906" lon="10.5635445"><ele>17.0</ele><time>2026-04-05T09:36:39.719Z</time></trkpt><trkpt lat="43.1682434" lon="10.5636678"><ele>17.0</ele><time>2026-04-05T09:36:41.692Z</time></trkpt><trkpt lat="43.1682541" lon="10.563827"><ele>17.0</ele><time>2026-04-05T09:36:43.713Z</time></trkpt><trkpt lat="43.1682994" lon="10.5639757"><ele>17.5</ele><time>2026-04-05T09:36:45.725Z</time></trkpt><trkpt lat="43.1683212" lon="10.5640951"><ele>18.0</ele><time>2026-04-05T09:36:47.722Z</time></trkpt><trkpt lat="43.1683758" lon="10.5641436"><ele>18.5</ele><time>2026-04-05T09:36:50.715Z</time></trkpt><trkpt lat="43.1684495" lon="10.5641047"><ele>19.0</ele><time>2026-04-05T09:36:52.73Z</time></trkpt><trkpt lat="43.1685395" lon="10.5640992"><ele>19.5</ele><time>2026-04-05T09:36:55.721Z</time></trkpt><trkpt lat="43.1686086" lon="10.5641686"><ele>20.0</ele><time>2026-04-05T09:36:58.731Z</time></trkpt><trkpt lat="43.1686148" lon="10.5642738"><ele>20.0</ele><time>2026-04-05T09:37:00.736Z</time></trkpt><trkpt lat="43.1686108" lon="10.5643844"><ele>20.0</ele><time>2026-04-05T09:37:02.739Z</time></trkpt><trkpt lat="43.1686063" lon="10.5644777"><ele>20.0</ele><time>2026-04-05T09:37:05.739Z</time></trkpt><trkpt lat="43.1685955" lon="10.564574"><ele>20.0</ele><time>2026-04-05T09:37:10.747Z</time></trkpt><trkpt lat="43.1685925" lon="10.5647052"><ele>20.0</ele><time>2026-04-05T09:37:13.728Z</time></trkpt><trkpt lat="43.1685714" lon="10.564818"><ele>20.0</ele><time>2026-04-05T09:37:15.72Z</time></trkpt><trkpt lat="43.1685556" lon="10.56497"><ele>20.2</ele><time>2026-04-05T09:37:17.727Z</time></trkpt><trkpt lat="43.1685298" lon="10.5650977"><ele>20.4</ele><time>2026-04-05T09:37:19.72Z</time></trkpt><trkpt lat="43.168525" lon="10.5652246"><ele>20.6</ele><time>2026-04-05T09:37:21.724Z</time></trkpt><trkpt lat="43.1685259" lon="10.5653574"><ele>20.8</ele><time>2026-04-05T09:37:23.729Z</time></trkpt><trkpt lat="43.1685209" lon="10.5655011"><ele>21.0</ele><time>2026-04-05T09:37:25.723Z</time></trkpt><trkpt lat="43.168523" lon="10.5656462"><ele>21.4</ele><time>2026-04-05T09:37:27.728Z</time></trkpt><trkpt lat="43.1685269" lon="10.5657873"><ele>21.8</ele><time>2026-04-05T09:37:29.722Z</time></trkpt><trkpt lat="43.1685136" lon="10.5659198"><ele>22.2</ele><time>2026-04-05T09:37:31.723Z</time></trkpt><trkpt lat="43.1684861" lon="10.5660463"><ele>22.599999999999998</ele><time>2026-04-05T09:37:33.734Z</time></trkpt><trkpt lat="43.1684638" lon="10.5661616"><ele>23.0</ele><time>2026-04-05T09:37:35.736Z</time></trkpt><trkpt lat="43.168444" lon="10.5662667"><ele>23.0</ele><time>2026-04-05T09:37:37.742Z</time></trkpt><trkpt lat="43.1684161" lon="10.5663874"><ele>23.0</ele><time>2026-04-05T09:37:39.729Z</time></trkpt><trkpt lat="43.1683972" lon="10.5665114"><ele>23.0</ele><time>2026-04-05T09:37:41.723Z</time></trkpt><trkpt lat="43.1683802" lon="10.5666446"><ele>23.0</ele><time>2026-04-05T09:37:43.721Z</time></trkpt><trkpt lat="43.1683574" lon="10.566787"><ele>23.0</ele><time>2026-04-05T09:37:45.716Z</time></trkpt><trkpt lat="43.1683389" lon="10.5669246"><ele>22.833333333333336</ele><time>2026-04-05T09:37:47.732Z</time></trkpt><trkpt lat="43.1683109" lon="10.5670539"><ele>22.666666666666668</ele><time>2026-04-05T09:37:49.727Z</time></trkpt><trkpt lat="43.1682895" lon="10.5671681"><ele>22.5</ele><time>2026-04-05T09:37:51.728Z</time></trkpt><trkpt lat="43.1682897" lon="10.5672861"><ele>22.333333333333332</ele><time>2026-04-05T09:37:53.732Z</time></trkpt><trkpt lat="43.168282" lon="10.5673931"><ele>22.166666666666664</ele><time>2026-04-05T09:37:55.725Z</time></trkpt><trkpt lat="43.1682446" lon="10.5674738"><ele>22.0</ele><time>2026-04-05T09:37:57.731Z</time></trkpt><trkpt lat="43.1681639" lon="10.5674892"><ele>22.0</ele><time>2026-04-05T09:37:59.74Z</time></trkpt><trkpt lat="43.1680523" lon="10.5674783"><ele>22.0</ele><time>2026-04-05T09:38:01.736Z</time></trkpt><trkpt lat="43.1679378" lon="10.5674624"><ele>22.0</ele><time>2026-04-05T09:38:03.752Z</time></trkpt><trkpt lat="43.1678388" lon="10.5674435"><ele>22.0</ele><time>2026-04-05T09:38:05.739Z</time></trkpt><trkpt lat="43.1677386" lon="10.5674241"><ele>22.0</ele><time>2026-04-05T09:38:07.729Z</time></trkpt><trkpt lat="43.1676314" lon="10.5674041"><ele>22.0</ele><time>2026-04-05T09:38:09.737Z</time></trkpt><trkpt lat="43.1675215" lon="10.5673819"><ele>22.0</ele><time>2026-04-05T09:38:11.728Z</time></trkpt><trkpt lat="43.167399" lon="10.5673532"><ele>22.0</ele><time>2026-04-05T09:38:13.744Z</time></trkpt><trkpt lat="43.1673362" lon="10.567336"><ele>22.0</ele><time>2026-04-05T09:38:14.736Z</time></trkpt><trkpt lat="43.1672711" lon="10.5673248"><ele>22.0</ele><time>2026-04-05T09:38:15.739Z</time></trkpt><trkpt lat="43.1672075" lon="10.5673156"><ele>22.0</ele><time>2026-04-05T09:38:16.739Z</time></trkpt><trkpt lat="43.1671445" lon="10.5673026"><ele>22.0</ele><time>2026-04-05T09:38:17.737Z</time></trkpt><trkpt lat="43.1670261" lon="10.5672864"><ele>22.0</ele><time>2026-04-05T09:38:19.743Z</time></trkpt><trkpt lat="43.1669132" lon="10.5672624"><ele>22.0</ele><time>2026-04-05T09:38:21.744Z</time></trkpt><trkpt lat="43.1668039" lon="10.567233"><ele>22.0</ele><time>2026-04-05T09:38:23.742Z</time></trkpt><trkpt lat="43.1666945" lon="10.567204"><ele>22.0</ele><time>2026-04-05T09:38:25.745Z</time></trkpt><trkpt lat="43.166581" lon="10.5671797"><ele>22.0</ele><time>2026-04-05T09:38:27.746Z</time></trkpt><trkpt lat="43.1664675" lon="10.5671574"><ele>22.0</ele><time>2026-04-05T09:38:29.744Z</time></trkpt><trkpt lat="43.1663594" lon="10.5671381"><ele>22.0</ele><time>2026-04-05T09:38:31.745Z</time></trkpt><trkpt lat="43.1662529" lon="10.5671214"><ele>22.0</ele><time>2026-04-05T09:38:33.742Z</time></trkpt><trkpt lat="43.1661412" lon="10.5670959"><ele>22.0</ele><time>2026-04-05T09:38:35.736Z</time></trkpt><trkpt lat="43.166034" lon="10.56707"><ele>22.0</ele><time>2026-04-05T09:38:37.738Z</time></trkpt><trkpt lat="43.1659302" lon="10.5670338"><ele>22.0</ele><time>2026-04-05T09:38:39.745Z</time></trkpt><trkpt lat="43.1658247" lon="10.5669948"><ele>22.0</ele><time>2026-04-05T09:38:41.74Z</time></trkpt><trkpt lat="43.165724" lon="10.5669726"><ele>22.0</ele><time>2026-04-05T09:38:43.742Z</time></trkpt><trkpt lat="43.165636" lon="10.5669686"><ele>22.0</ele><time>2026-04-05T09:38:45.741Z</time></trkpt><trkpt lat="43.1656032" lon="10.5670772"><ele>22.0</ele><time>2026-04-05T09:38:47.739Z</time></trkpt><trkpt lat="43.1656125" lon="10.5672274"><ele>22.0</ele><time>2026-04-05T09:38:49.741Z</time></trkpt><trkpt lat="43.1656112" lon="10.5673782"><ele>22.0</ele><time>2026-04-05T09:38:51.738Z</time></trkpt><trkpt lat="43.1656005" lon="10.5675226"><ele>22.0</ele><time>2026-04-05T09:38:53.727Z</time></trkpt><trkpt lat="43.1656048" lon="10.5676444"><ele>22.0</ele><time>2026-04-05T09:38:55.737Z</time></trkpt><trkpt lat="43.1655877" lon="10.5677745"><ele>22.0</ele><time>2026-04-05T09:38:57.738Z</time></trkpt><trkpt lat="43.165581" lon="10.5679203"><ele>22.0</ele><time>2026-04-05T09:38:59.729Z</time></trkpt><trkpt lat="43.1655756" lon="10.5680675"><ele>22.0</ele><time>2026-04-05T09:39:01.737Z</time></trkpt><trkpt lat="43.165562" lon="10.5682182"><ele>22.0</ele><time>2026-04-05T09:39:03.736Z</time></trkpt><trkpt lat="43.1655438" lon="10.5683529"><ele>22.200000000000003</ele><time>2026-04-05T09:39:05.751Z</time></trkpt><trkpt lat="43.1655316" lon="10.5684854"><ele>22.4</ele><time>2026-04-05T09:39:07.74Z</time></trkpt><trkpt lat="43.1654958" lon="10.5685979"><ele>22.6</ele><time>2026-04-05T09:39:09.744Z</time></trkpt><trkpt lat="43.1653787" lon="10.5686161"><ele>22.799999999999997</ele><time>2026-04-05T09:39:11.729Z</time></trkpt><trkpt lat="43.1652648" lon="10.5686026"><ele>23.0</ele><time>2026-04-05T09:39:13.741Z</time></trkpt><trkpt lat="43.165202" lon="10.5685925"><ele>23.0</ele><time>2026-04-05T09:39:14.737Z</time></trkpt><trkpt lat="43.1650845" lon="10.5685736"><ele>23.0</ele><time>2026-04-05T09:39:16.742Z</time></trkpt><trkpt lat="43.1649918" lon="10.5685479"><ele>23.0</ele><time>2026-04-05T09:39:18.738Z</time></trkpt><trkpt lat="43.1649267" lon="10.5686191"><ele>23.0</ele><time>2026-04-05T09:39:22.752Z</time></trkpt><trkpt lat="43.1649237" lon="10.5687256"><ele>23.0</ele><time>2026-04-05T09:39:24.744Z</time></trkpt><trkpt lat="43.1649344" lon="10.5688396"><ele>23.2</ele><time>2026-04-05T09:39:26.751Z</time></trkpt><trkpt lat="43.1649412" lon="10.5689712"><ele>23.4</ele><time>2026-04-05T09:39:28.734Z</time></trkpt><trkpt lat="43.1649601" lon="10.5691094"><ele>23.599999999999998</ele><time>2026-04-05T09:39:30.744Z</time></trkpt><trkpt lat="43.1649671" lon="10.5692686"><ele>23.799999999999997</ele><time>2026-04-05T09:39:32.747Z</time></trkpt><trkpt lat="43.1649679" lon="10.5694095"><ele>24.0</ele><time>2026-04-05T09:39:34.742Z</time></trkpt><trkpt lat="43.1649765" lon="10.5695395"><ele>24.2</ele><time>2026-04-05T09:39:36.764Z</time></trkpt><trkpt lat="43.1649754" lon="10.5696633"><ele>24.4</ele><time>2026-04-05T09:39:38.746Z</time></trkpt><trkpt lat="43.1649781" lon="10.569796"><ele>24.6</ele><time>2026-04-05T09:39:40.75Z</time></trkpt><trkpt lat="43.1649845" lon="10.5699298"><ele>24.8</ele><time>2026-04-05T09:39:42.751Z</time></trkpt><trkpt lat="43.1649737" lon="10.5700658"><ele>25.0</ele><time>2026-04-05T09:39:44.747Z</time></trkpt><trkpt lat="43.164957" lon="10.5702139"><ele>25.0</ele><time>2026-04-05T09:39:46.753Z</time></trkpt><trkpt lat="43.164954" lon="10.570352"><ele>25.0</ele><time>2026-04-05T09:39:48.744Z</time></trkpt><trkpt lat="43.1649458" lon="10.5704912"><ele>25.0</ele><time>2026-04-05T09:39:50.746Z</time></trkpt><trkpt lat="43.1649426" lon="10.5706291"><ele>25.0</ele><time>2026-04-05T09:39:52.746Z</time></trkpt><trkpt lat="43.1649403" lon="10.5707685"><ele>25.0</ele><time>2026-04-05T09:39:54.74Z</time></trkpt><trkpt lat="43.1649285" lon="10.5709094"><ele>25.2</ele><time>2026-04-05T09:39:56.743Z</time></trkpt><trkpt lat="43.1649145" lon="10.5710531"><ele>25.4</ele><time>2026-04-05T09:39:58.746Z</time></trkpt><trkpt lat="43.1649022" lon="10.5711912"><ele>25.6</ele><time>2026-04-05T09:40:00.751Z</time></trkpt><trkpt lat="43.1648962" lon="10.5713339"><ele>25.8</ele><time>2026-04-05T09:40:02.754Z</time></trkpt><trkpt lat="43.1648971" lon="10.5714709"><ele>26.0</ele><time>2026-04-05T09:40:04.739Z</time></trkpt><trkpt lat="43.1648993" lon="10.5716067"><ele>26.200000000000003</ele><time>2026-04-05T09:40:06.742Z</time></trkpt><trkpt lat="43.1649022" lon="10.5717551"><ele>26.400000000000002</ele><time>2026-04-05T09:40:08.74Z</time></trkpt><trkpt lat="43.164901" lon="10.5718981"><ele>26.6</ele><time>2026-04-05T09:40:10.74Z</time></trkpt><trkpt lat="43.1648968" lon="10.5720387"><ele>26.8</ele><time>2026-04-05T09:40:12.739Z</time></trkpt><trkpt lat="43.1648994" lon="10.5721714"><ele>27.0</ele><time>2026-04-05T09:40:14.738Z</time></trkpt><trkpt lat="43.1648989" lon="10.5723055"><ele>27.0</ele><time>2026-04-05T09:40:16.737Z</time></trkpt><trkpt lat="43.1648934" lon="10.5724447"><ele>27.000000000000004</ele><time>2026-04-05T09:40:18.735Z</time></trkpt><trkpt lat="43.1648844" lon="10.5725818"><ele>27.000000000000004</ele><time>2026-04-05T09:40:20.743Z</time></trkpt><trkpt lat="43.1648813" lon="10.5727202"><ele>27.0</ele><time>2026-04-05T09:40:22.746Z</time></trkpt><trkpt lat="43.1648764" lon="10.5728528"><ele>27.0</ele><time>2026-04-05T09:40:24.751Z</time></trkpt><trkpt lat="43.1648705" lon="10.5729869"><ele>27.200000000000003</ele><time>2026-04-05T09:40:26.752Z</time></trkpt><trkpt lat="43.1648545" lon="10.573126"><ele>27.400000000000002</ele><time>2026-04-05T09:40:28.754Z</time></trkpt><trkpt lat="43.1648237" lon="10.5732586"><ele>27.599999999999998</ele><time>2026-04-05T09:40:30.739Z</time></trkpt><trkpt lat="43.1647612" lon="10.5733739"><ele>27.799999999999997</ele><time>2026-04-05T09:40:32.738Z</time></trkpt><trkpt lat="43.1646939" lon="10.5734846"><ele>28.0</ele><time>2026-04-05T09:40:34.743Z</time></trkpt><trkpt lat="43.1646094" lon="10.5735855"><ele>28.2</ele><time>2026-04-05T09:40:36.752Z</time></trkpt><trkpt lat="43.1645306" lon="10.5736889"><ele>28.4</ele><time>2026-04-05T09:40:38.765Z</time></trkpt><trkpt lat="43.1644603" lon="10.5737901"><ele>28.599999999999998</ele><time>2026-04-05T09:40:40.749Z</time></trkpt><trkpt lat="43.1643933" lon="10.573888"><ele>28.799999999999997</ele><time>2026-04-05T09:40:42.744Z</time></trkpt><trkpt lat="43.1643272" lon="10.5739898"><ele>29.0</ele><time>2026-04-05T09:40:44.742Z</time></trkpt><trkpt lat="43.1642566" lon="10.5740851"><ele>29.0</ele><time>2026-04-05T09:40:46.749Z</time></trkpt><trkpt lat="43.164179" lon="10.5741984"><ele>29.0</ele><time>2026-04-05T09:40:48.759Z</time></trkpt><trkpt lat="43.1641006" lon="10.5743083"><ele>29.0</ele><time>2026-04-05T09:40:50.758Z</time></trkpt><trkpt lat="43.1640286" lon="10.574413"><ele>29.0</ele><time>2026-04-05T09:40:52.76Z</time></trkpt><trkpt lat="43.1639486" lon="10.5745135"><ele>29.0</ele><time>2026-04-05T09:40:54.749Z</time></trkpt><trkpt lat="43.1638734" lon="10.5746138"><ele>29.2</ele><time>2026-04-05T09:40:56.754Z</time></trkpt><trkpt lat="43.1637995" lon="10.5747188"><ele>29.4</ele><time>2026-04-05T09:40:58.758Z</time></trkpt><trkpt lat="43.1637256" lon="10.5748255"><ele>29.6</ele><time>2026-04-05T09:41:00.763Z</time></trkpt><trkpt lat="43.1636489" lon="10.5749253"><ele>29.8</ele><time>2026-04-05T09:41:02.757Z</time></trkpt><trkpt lat="43.1635691" lon="10.57504"><ele>30.0</ele><time>2026-04-05T09:41:04.76Z</time></trkpt><trkpt lat="43.1634977" lon="10.5751419"><ele>30.0</ele><time>2026-04-05T09:41:06.752Z</time></trkpt><trkpt lat="43.1634222" lon="10.5752423"><ele>30.0</ele><time>2026-04-05T09:41:08.749Z</time></trkpt><trkpt lat="43.1633521" lon="10.5753455"><ele>30.0</ele><time>2026-04-05T09:41:10.75Z</time></trkpt><trkpt lat="43.163288" lon="10.575442"><ele>30.0</ele><time>2026-04-05T09:41:12.751Z</time></trkpt><trkpt lat="43.163228" lon="10.5755335"><ele>30.0</ele><time>2026-04-05T09:41:14.755Z</time></trkpt><trkpt lat="43.1631604" lon="10.5756258"><ele>30.2</ele><time>2026-04-05T09:41:16.75Z</time></trkpt><trkpt lat="43.1630909" lon="10.5757278"><ele>30.4</ele><time>2026-04-05T09:41:18.75Z</time></trkpt><trkpt lat="43.1630178" lon="10.5758282"><ele>30.6</ele><time>2026-04-05T09:41:20.751Z</time></trkpt><trkpt lat="43.162948" lon="10.5759255"><ele>30.8</ele><time>2026-04-05T09:41:22.744Z</time></trkpt><trkpt lat="43.162894" lon="10.5760157"><ele>31.0</ele><time>2026-04-05T09:41:24.748Z</time></trkpt><trkpt lat="43.1628366" lon="10.5761013"><ele>31.000000000000004</ele><time>2026-04-05T09:41:26.746Z</time></trkpt><trkpt lat="43.1627845" lon="10.5761747"><ele>31.0</ele><time>2026-04-05T09:41:28.752Z</time></trkpt><trkpt lat="43.1627339" lon="10.5762281"><ele>31.0</ele><time>2026-04-05T09:41:30.74Z</time></trkpt><trkpt lat="43.1626813" lon="10.5763158"><ele>31.0</ele><time>2026-04-05T09:41:33.748Z</time></trkpt><trkpt lat="43.1626214" lon="10.5763944"><ele>31.000000000000004</ele><time>2026-04-05T09:41:35.741Z</time></trkpt><trkpt lat="43.162556" lon="10.5764808"><ele>31.0</ele><time>2026-04-05T09:41:37.743Z</time></trkpt><trkpt lat="43.1624888" lon="10.5765712"><ele>31.0</ele><time>2026-04-05T09:41:39.744Z</time></trkpt><trkpt lat="43.1624069" lon="10.5766677"><ele>31.0</ele><time>2026-04-05T09:41:41.743Z</time></trkpt><trkpt lat="43.1623395" lon="10.5767686"><ele>31.0</ele><time>2026-04-05T09:41:43.731Z</time></trkpt><trkpt lat="43.162277" lon="10.5768668"><ele>31.0</ele><time>2026-04-05T09:41:45.74Z</time></trkpt><trkpt lat="43.1622098" lon="10.5769639"><ele>31.0</ele><time>2026-04-05T09:41:47.741Z</time></trkpt><trkpt lat="43.1621075" lon="10.5770613"><ele>31.200000000000003</ele><time>2026-04-05T09:41:49.73Z</time></trkpt><trkpt lat="43.1620329" lon="10.5771525"><ele>31.400000000000002</ele><time>2026-04-05T09:41:51.738Z</time></trkpt><trkpt lat="43.1619771" lon="10.5772485"><ele>31.6</ele><time>2026-04-05T09:41:53.743Z</time></trkpt><trkpt lat="43.1619007" lon="10.5773488"><ele>31.8</ele><time>2026-04-05T09:41:55.748Z</time></trkpt><trkpt lat="43.161818" lon="10.5774379"><ele>32.0</ele><time>2026-04-05T09:41:57.753Z</time></trkpt><trkpt lat="43.1617444" lon="10.5775396"><ele>32.0</ele><time>2026-04-05T09:41:59.753Z</time></trkpt><trkpt lat="43.1616765" lon="10.5776421"><ele>32.0</ele><time>2026-04-05T09:42:01.76Z</time></trkpt><trkpt lat="43.1616052" lon="10.5777408"><ele>32.0</ele><time>2026-04-05T09:42:03.751Z</time></trkpt><trkpt lat="43.1615384" lon="10.5778311"><ele>32.0</ele><time>2026-04-05T09:42:05.75Z</time></trkpt><trkpt lat="43.1614701" lon="10.5779269"><ele>32.0</ele><time>2026-04-05T09:42:07.751Z</time></trkpt><trkpt lat="43.1614039" lon="10.5780243"><ele>32.0</ele><time>2026-04-05T09:42:09.751Z</time></trkpt><trkpt lat="43.1613286" lon="10.5781191"><ele>32.0</ele><time>2026-04-05T09:42:11.762Z</time></trkpt><trkpt lat="43.1612635" lon="10.5782117"><ele>32.0</ele><time>2026-04-05T09:42:13.757Z</time></trkpt><trkpt lat="43.1611957" lon="10.5783084"><ele>32.0</ele><time>2026-04-05T09:42:15.748Z</time></trkpt><trkpt lat="43.1611294" lon="10.5784004"><ele>32.0</ele><time>2026-04-05T09:42:17.753Z</time></trkpt><trkpt lat="43.1610664" lon="10.5785063"><ele>32.0</ele><time>2026-04-05T09:42:19.745Z</time></trkpt><trkpt lat="43.1610389" lon="10.5786278"><ele>32.0</ele><time>2026-04-05T09:42:21.746Z</time></trkpt><trkpt lat="43.1610439" lon="10.5787659"><ele>32.0</ele><time>2026-04-05T09:42:23.742Z</time></trkpt><trkpt lat="43.1610608" lon="10.5788975"><ele>32.0</ele><time>2026-04-05T09:42:25.747Z</time></trkpt><trkpt lat="43.1610839" lon="10.5790341"><ele>32.0</ele><time>2026-04-05T09:42:27.749Z</time></trkpt><trkpt lat="43.161106" lon="10.5791595"><ele>32.4</ele><time>2026-04-05T09:42:29.747Z</time></trkpt><trkpt lat="43.1611249" lon="10.5792824"><ele>32.800000000000004</ele><time>2026-04-05T09:42:31.746Z</time></trkpt><trkpt lat="43.1611542" lon="10.5794053"><ele>33.2</ele><time>2026-04-05T09:42:33.742Z</time></trkpt><trkpt lat="43.1611844" lon="10.5795338"><ele>33.6</ele><time>2026-04-05T09:42:35.752Z</time></trkpt><trkpt lat="43.1612044" lon="10.5796651"><ele>34.0</ele><time>2026-04-05T09:42:37.751Z</time></trkpt><trkpt lat="43.1612283" lon="10.5797996"><ele>34.4</ele><time>2026-04-05T09:42:39.749Z</time></trkpt><trkpt lat="43.161256" lon="10.579928"><ele>34.8</ele><time>2026-04-05T09:42:41.748Z</time></trkpt><trkpt lat="43.161277" lon="10.5800685"><ele>35.2</ele><time>2026-04-05T09:42:43.749Z</time></trkpt><trkpt lat="43.161299" lon="10.5802019"><ele>35.6</ele><time>2026-04-05T09:42:45.748Z</time></trkpt><trkpt lat="43.1613152" lon="10.5803446"><ele>36.0</ele><time>2026-04-05T09:42:47.751Z</time></trkpt><trkpt lat="43.1613278" lon="10.580471"><ele>36.2</ele><time>2026-04-05T09:42:49.751Z</time></trkpt><trkpt lat="43.1613447" lon="10.5806064"><ele>36.400000000000006</ele><time>2026-04-05T09:42:51.751Z</time></trkpt><trkpt lat="43.1613442" lon="10.5807467"><ele>36.6</ele><time>2026-04-05T09:42:53.752Z</time></trkpt><trkpt lat="43.1613443" lon="10.5808733"><ele>36.800000000000004</ele><time>2026-04-05T09:42:55.755Z</time></trkpt><trkpt lat="43.1613491" lon="10.5810122"><ele>37.0</ele><time>2026-04-05T09:42:57.75Z</time></trkpt><trkpt lat="43.1613499" lon="10.5811575"><ele>36.800000000000004</ele><time>2026-04-05T09:42:59.752Z</time></trkpt><trkpt lat="43.1613439" lon="10.5813035"><ele>36.6</ele><time>2026-04-05T09:43:01.759Z</time></trkpt><trkpt lat="43.1613367" lon="10.5814501"><ele>36.400000000000006</ele><time>2026-04-05T09:43:03.754Z</time></trkpt><trkpt lat="43.1613319" lon="10.5815909"><ele>36.2</ele><time>2026-04-05T09:43:05.757Z</time></trkpt><trkpt lat="43.1613319" lon="10.5817275"><ele>36.0</ele><time>2026-04-05T09:43:07.752Z</time></trkpt><trkpt lat="43.1613338" lon="10.5818704"><ele>36.0</ele><time>2026-04-05T09:43:09.756Z</time></trkpt><trkpt lat="43.1613398" lon="10.5820098"><ele>36.0</ele><time>2026-04-05T09:43:11.754Z</time></trkpt><trkpt lat="43.1613421" lon="10.5821447"><ele>36.0</ele><time>2026-04-05T09:43:13.779Z</time></trkpt><trkpt lat="43.1613254" lon="10.5822754"><ele>36.0</ele><time>2026-04-05T09:43:15.752Z</time></trkpt><trkpt lat="43.1613086" lon="10.5824113"><ele>36.0</ele><time>2026-04-05T09:43:17.755Z</time></trkpt><trkpt lat="43.1612926" lon="10.5825596"><ele>36.2</ele><time>2026-04-05T09:43:19.757Z</time></trkpt><trkpt lat="43.1612822" lon="10.582692"><ele>36.400000000000006</ele><time>2026-04-05T09:43:21.753Z</time></trkpt><trkpt lat="43.1612753" lon="10.5828287"><ele>36.6</ele><time>2026-04-05T09:43:23.755Z</time></trkpt><trkpt lat="43.1612721" lon="10.5829675"><ele>36.800000000000004</ele><time>2026-04-05T09:43:25.759Z</time></trkpt><trkpt lat="43.1612727" lon="10.5831073"><ele>37.0</ele><time>2026-04-05T09:43:27.761Z</time></trkpt><trkpt lat="43.1612721" lon="10.5832494"><ele>37.2</ele><time>2026-04-05T09:43:29.762Z</time></trkpt><trkpt lat="43.1612723" lon="10.5833906"><ele>37.400000000000006</ele><time>2026-04-05T09:43:31.768Z</time></trkpt><trkpt lat="43.1612706" lon="10.58353"><ele>37.599999999999994</ele><time>2026-04-05T09:43:33.762Z</time></trkpt><trkpt lat="43.1612639" lon="10.5836702"><ele>37.8</ele><time>2026-04-05T09:43:35.751Z</time></trkpt><trkpt lat="43.1612604" lon="10.583812"><ele>38.0</ele><time>2026-04-05T09:43:37.762Z</time></trkpt><trkpt lat="43.1612583" lon="10.5839536"><ele>38.4</ele><time>2026-04-05T09:43:39.757Z</time></trkpt><trkpt lat="43.1612652" lon="10.5840903"><ele>38.8</ele><time>2026-04-05T09:43:41.752Z</time></trkpt><trkpt lat="43.1612722" lon="10.5842264"><ele>39.2</ele><time>2026-04-05T09:43:43.76Z</time></trkpt><trkpt lat="43.1612784" lon="10.5843641"><ele>39.6</ele><time>2026-04-05T09:43:45.752Z</time></trkpt><trkpt lat="43.1612829" lon="10.5844991"><ele>40.0</ele><time>2026-04-05T09:43:47.758Z</time></trkpt><trkpt lat="43.1612883" lon="10.5846356"><ele>40.2</ele><time>2026-04-05T09:43:49.755Z</time></trkpt><trkpt lat="43.1613028" lon="10.5847706"><ele>40.4</ele><time>2026-04-05T09:43:51.755Z</time></trkpt><trkpt lat="43.1613244" lon="10.5848976"><ele>40.599999999999994</ele><time>2026-04-05T09:43:53.755Z</time></trkpt><trkpt lat="43.1613466" lon="10.5850348"><ele>40.8</ele><time>2026-04-05T09:43:55.756Z</time></trkpt><trkpt lat="43.1613856" lon="10.5851678"><ele>41.0</ele><time>2026-04-05T09:43:57.753Z</time></trkpt><trkpt lat="43.1614246" lon="10.5853046"><ele>41.0</ele><time>2026-04-05T09:43:59.752Z</time></trkpt><trkpt lat="43.1614621" lon="10.5854339"><ele>41.0</ele><time>2026-04-05T09:44:01.755Z</time></trkpt><trkpt lat="43.1614951" lon="10.5855679"><ele>41.0</ele><time>2026-04-05T09:44:03.753Z</time></trkpt><trkpt lat="43.1615342" lon="10.5857008"><ele>41.0</ele><time>2026-04-05T09:44:05.752Z</time></trkpt><trkpt lat="43.1615572" lon="10.5858406"><ele>41.0</ele><time>2026-04-05T09:44:07.755Z</time></trkpt><trkpt lat="43.1615669" lon="10.5859862"><ele>41.0</ele><time>2026-04-05T09:44:09.749Z</time></trkpt><trkpt lat="43.1615737" lon="10.5861304"><ele>41.0</ele><time>2026-04-05T09:44:11.755Z</time></trkpt><trkpt lat="43.1615823" lon="10.5862697"><ele>41.0</ele><time>2026-04-05T09:44:13.753Z</time></trkpt><trkpt lat="43.1615976" lon="10.5864058"><ele>41.0</ele><time>2026-04-05T09:44:15.762Z</time></trkpt><trkpt lat="43.1616417" lon="10.5865269"><ele>41.0</ele><time>2026-04-05T09:44:17.75Z</time></trkpt><trkpt lat="43.1617113" lon="10.5866458"><ele>41.199999999999996</ele><time>2026-04-05T09:44:19.746Z</time></trkpt><trkpt lat="43.1617839" lon="10.5867655"><ele>41.4</ele><time>2026-04-05T09:44:21.744Z</time></trkpt><trkpt lat="43.1618562" lon="10.5868771"><ele>41.6</ele><time>2026-04-05T09:44:23.751Z</time></trkpt><trkpt lat="43.1619262" lon="10.5869902"><ele>41.8</ele><time>2026-04-05T09:44:25.75Z</time></trkpt><trkpt lat="43.1619919" lon="10.5871105"><ele>42.0</ele><time>2026-04-05T09:44:27.756Z</time></trkpt><trkpt lat="43.1620558" lon="10.5872455"><ele>42.5</ele><time>2026-04-05T09:44:29.763Z</time></trkpt><trkpt lat="43.1621053" lon="10.5873913"><ele>43.0</ele><time>2026-04-05T09:44:31.757Z</time></trkpt><trkpt lat="43.1621363" lon="10.5875414"><ele>43.5</ele><time>2026-04-05T09:44:33.748Z</time></trkpt><trkpt lat="43.1621395" lon="10.5876942"><ele>44.0</ele><time>2026-04-05T09:44:35.75Z</time></trkpt><trkpt lat="43.1621126" lon="10.5878481"><ele>44.5</ele><time>2026-04-05T09:44:37.752Z</time></trkpt><trkpt lat="43.1620963" lon="10.5879984"><ele>45.0</ele><time>2026-04-05T09:44:39.749Z</time></trkpt><trkpt lat="43.1620783" lon="10.5882329"><ele>45.5</ele><time>2026-04-05T09:44:42.748Z</time></trkpt><trkpt lat="43.1620767" lon="10.5883887"><ele>46.0</ele><time>2026-04-05T09:44:44.745Z</time></trkpt><trkpt lat="43.1620797" lon="10.5885457"><ele>46.0</ele><time>2026-04-05T09:44:46.768Z</time></trkpt><trkpt lat="43.1620793" lon="10.5887034"><ele>46.0</ele><time>2026-04-05T09:44:48.749Z</time></trkpt><trkpt lat="43.1620796" lon="10.5888583"><ele>46.0</ele><time>2026-04-05T09:44:50.754Z</time></trkpt><trkpt lat="43.1620815" lon="10.58901"><ele>46.0</ele><time>2026-04-05T09:44:52.752Z</time></trkpt><trkpt lat="43.1620827" lon="10.5891645"><ele>46.0</ele><time>2026-04-05T09:44:54.751Z</time></trkpt><trkpt lat="43.1620835" lon="10.5893176"><ele>46.0</ele><time>2026-04-05T09:44:56.753Z</time></trkpt><trkpt lat="43.1620805" lon="10.5894676"><ele>46.0</ele><time>2026-04-05T09:44:58.749Z</time></trkpt><trkpt lat="43.1620704" lon="10.5896141"><ele>46.0</ele><time>2026-04-05T09:45:00.752Z</time></trkpt><trkpt lat="43.1620404" lon="10.589763"><ele>46.0</ele><time>2026-04-05T09:45:02.745Z</time></trkpt><trkpt lat="43.1620127" lon="10.5899104"><ele>46.0</ele><time>2026-04-05T09:45:04.751Z</time></trkpt><trkpt lat="43.1619904" lon="10.5900477"><ele>46.0</ele><time>2026-04-05T09:45:06.75Z</time></trkpt><trkpt lat="43.1619588" lon="10.5901895"><ele>46.0</ele><time>2026-04-05T09:45:08.752Z</time></trkpt><trkpt lat="43.1619283" lon="10.590331"><ele>46.0</ele><time>2026-04-05T09:45:10.752Z</time></trkpt><trkpt lat="43.1618937" lon="10.5904746"><ele>46.0</ele><time>2026-04-05T09:45:12.751Z</time></trkpt><trkpt lat="43.1618473" lon="10.590619"><ele>46.0</ele><time>2026-04-05T09:45:14.745Z</time></trkpt><trkpt lat="43.1618058" lon="10.5907627"><ele>46.0</ele><time>2026-04-05T09:45:16.747Z</time></trkpt><trkpt lat="43.1617674" lon="10.5909053"><ele>46.0</ele><time>2026-04-05T09:45:18.748Z</time></trkpt><trkpt lat="43.1617239" lon="10.5910471"><ele>46.0</ele><time>2026-04-05T09:45:20.747Z</time></trkpt><trkpt lat="43.1616852" lon="10.5911981"><ele>46.25</ele><time>2026-04-05T09:45:22.744Z</time></trkpt><trkpt lat="43.1616574" lon="10.5913527"><ele>46.5</ele><time>2026-04-05T09:45:24.733Z</time></trkpt><trkpt lat="43.1616255" lon="10.5915033"><ele>46.75</ele><time>2026-04-05T09:45:26.74Z</time></trkpt><trkpt lat="43.1615881" lon="10.5916485"><ele>47.0</ele><time>2026-04-05T09:45:28.75Z</time></trkpt><trkpt lat="43.1615543" lon="10.5917965"><ele>47.0</ele><time>2026-04-05T09:45:30.749Z</time></trkpt><trkpt lat="43.161541" lon="10.5919476"><ele>47.0</ele><time>2026-04-05T09:45:32.742Z</time></trkpt><trkpt lat="43.16152" lon="10.592094"><ele>47.0</ele><time>2026-04-05T09:45:34.741Z</time></trkpt><trkpt lat="43.161494" lon="10.5922346"><ele>47.0</ele><time>2026-04-05T09:45:36.738Z</time></trkpt><trkpt lat="43.1614668" lon="10.5923886"><ele>47.0</ele><time>2026-04-05T09:45:38.754Z</time></trkpt><trkpt lat="43.1614363" lon="10.5925484"><ele>47.5</ele><time>2026-04-05T09:45:40.745Z</time></trkpt><trkpt lat="43.1614216" lon="10.5926953"><ele>48.0</ele><time>2026-04-05T09:45:42.736Z</time></trkpt><trkpt lat="43.1614178" lon="10.5928598"><ele>48.5</ele><time>2026-04-05T09:45:44.734Z</time></trkpt><trkpt lat="43.1614196" lon="10.5930178"><ele>49.0</ele><time>2026-04-05T09:45:46.737Z</time></trkpt><trkpt lat="43.1614095" lon="10.593176"><ele>49.25</ele><time>2026-04-05T09:45:48.755Z</time></trkpt><trkpt lat="43.1614077" lon="10.5933332"><ele>49.5</ele><time>2026-04-05T09:45:50.74Z</time></trkpt><trkpt lat="43.1613962" lon="10.5934911"><ele>49.75</ele><time>2026-04-05T09:45:52.74Z</time></trkpt><trkpt lat="43.1613806" lon="10.5936508"><ele>50.0</ele><time>2026-04-05T09:45:54.738Z</time></trkpt><trkpt lat="43.1613655" lon="10.5938111"><ele>50.0</ele><time>2026-04-05T09:45:56.745Z</time></trkpt><trkpt lat="43.1613487" lon="10.5939736"><ele>50.0</ele><time>2026-04-05T09:45:58.741Z</time></trkpt><trkpt lat="43.1613455" lon="10.5941336"><ele>50.0</ele><time>2026-04-05T09:46:00.744Z</time></trkpt><trkpt lat="43.1613397" lon="10.5942915"><ele>50.0</ele><time>2026-04-05T09:46:02.745Z</time></trkpt><trkpt lat="43.1613176" lon="10.594449"><ele>50.0</ele><time>2026-04-05T09:46:04.749Z</time></trkpt><trkpt lat="43.1612642" lon="10.594604"><ele>50.0</ele><time>2026-04-05T09:46:06.75Z</time></trkpt><trkpt lat="43.1612073" lon="10.5947512"><ele>50.0</ele><time>2026-04-05T09:46:08.749Z</time></trkpt><trkpt lat="43.1611526" lon="10.5948974"><ele>50.0</ele><time>2026-04-05T09:46:10.755Z</time></trkpt><trkpt lat="43.1611009" lon="10.5950423"><ele>50.0</ele><time>2026-04-05T09:46:12.75Z</time></trkpt><trkpt lat="43.1610534" lon="10.5951873"><ele>50.0</ele><time>2026-04-05T09:46:14.754Z</time></trkpt><trkpt lat="43.1610083" lon="10.5953321"><ele>50.0</ele><time>2026-04-05T09:46:16.754Z</time></trkpt><trkpt lat="43.1609664" lon="10.595464"><ele>50.0</ele><time>2026-04-05T09:46:18.752Z</time></trkpt><trkpt lat="43.1609091" lon="10.5955927"><ele>50.0</ele><time>2026-04-05T09:46:20.749Z</time></trkpt><trkpt lat="43.1608554" lon="10.5957177"><ele>50.0</ele><time>2026-04-05T09:46:22.75Z</time></trkpt><trkpt lat="43.1607994" lon="10.5958448"><ele>50.0</ele><time>2026-04-05T09:46:24.739Z</time></trkpt><trkpt lat="43.1607458" lon="10.5959652"><ele>50.0</ele><time>2026-04-05T09:46:26.742Z</time></trkpt><trkpt lat="43.1606917" lon="10.5960875"><ele>50.0</ele><time>2026-04-05T09:46:28.745Z</time></trkpt><trkpt lat="43.1606341" lon="10.5962104"><ele>50.0</ele><time>2026-04-05T09:46:30.741Z</time></trkpt><trkpt lat="43.1605762" lon="10.5963327"><ele>50.8</ele><time>2026-04-05T09:46:32.74Z</time></trkpt><trkpt lat="43.1605194" lon="10.596452"><ele>51.6</ele><time>2026-04-05T09:46:34.743Z</time></trkpt><trkpt lat="43.1604584" lon="10.5965688"><ele>52.400000000000006</ele><time>2026-04-05T09:46:36.739Z</time></trkpt><trkpt lat="43.1604043" lon="10.5966934"><ele>53.2</ele><time>2026-04-05T09:46:38.741Z</time></trkpt><trkpt lat="43.1603492" lon="10.5968137"><ele>54.0</ele><time>2026-04-05T09:46:40.739Z</time></trkpt><trkpt lat="43.1602925" lon="10.5969311"><ele>54.400000000000006</ele><time>2026-04-05T09:46:42.743Z</time></trkpt><trkpt lat="43.1602376" lon="10.5970451"><ele>54.800000000000004</ele><time>2026-04-05T09:46:44.742Z</time></trkpt><trkpt lat="43.1601814" lon="10.5971597"><ele>55.199999999999996</ele><time>2026-04-05T09:46:46.741Z</time></trkpt><trkpt lat="43.160136" lon="10.5972685"><ele>55.599999999999994</ele><time>2026-04-05T09:46:48.739Z</time></trkpt><trkpt lat="43.1600939" lon="10.5973675"><ele>56.0</ele><time>2026-04-05T09:46:50.759Z</time></trkpt><trkpt lat="43.1600421" lon="10.597457"><ele>56.00000000000001</ele><time>2026-04-05T09:46:52.745Z</time></trkpt><trkpt lat="43.1600094" lon="10.5975449"><ele>56.0</ele><time>2026-04-05T09:46:54.74Z</time></trkpt><trkpt lat="43.1600112" lon="10.5976425"><ele>56.0</ele><time>2026-04-05T09:46:56.748Z</time></trkpt><trkpt lat="43.1600222" lon="10.5977583"><ele>56.0</ele><time>2026-04-05T09:46:58.738Z</time></trkpt><trkpt lat="43.160036" lon="10.5978935"><ele>56.00000000000001</ele><time>2026-04-05T09:47:00.74Z</time></trkpt><trkpt lat="43.1600383" lon="10.5980254"><ele>56.0</ele><time>2026-04-05T09:47:02.737Z</time></trkpt><trkpt lat="43.1600394" lon="10.5981451"><ele>56.16666666666667</ele><time>2026-04-05T09:47:04.738Z</time></trkpt><trkpt lat="43.1600391" lon="10.5982625"><ele>56.333333333333336</ele><time>2026-04-05T09:47:06.742Z</time></trkpt><trkpt lat="43.1600311" lon="10.5983797"><ele>56.5</ele><time>2026-04-05T09:47:08.744Z</time></trkpt><trkpt lat="43.1600225" lon="10.5984987"><ele>56.66666666666667</ele><time>2026-04-05T09:47:10.75Z</time></trkpt><trkpt lat="43.1600119" lon="10.5986125"><ele>56.833333333333336</ele><time>2026-04-05T09:47:12.747Z</time></trkpt><trkpt lat="43.1600034" lon="10.5987287"><ele>57.0</ele><time>2026-04-05T09:47:14.746Z</time></trkpt><trkpt lat="43.1599945" lon="10.5988392"><ele>57.0</ele><time>2026-04-05T09:47:16.745Z</time></trkpt><trkpt lat="43.1599877" lon="10.59896"><ele>57.0</ele><time>2026-04-05T09:47:18.744Z</time></trkpt><trkpt lat="43.1599736" lon="10.5990803"><ele>57.0</ele><time>2026-04-05T09:47:20.744Z</time></trkpt><trkpt lat="43.1599592" lon="10.5992006"><ele>57.0</ele><time>2026-04-05T09:47:22.74Z</time></trkpt><trkpt lat="43.1599508" lon="10.5993087"><ele>57.0</ele><time>2026-04-05T09:47:24.744Z</time></trkpt><trkpt lat="43.159935" lon="10.5994266"><ele>57.0</ele><time>2026-04-05T09:47:26.743Z</time></trkpt><trkpt lat="43.1599303" lon="10.5995404"><ele>58.166666666666664</ele><time>2026-04-05T09:47:28.747Z</time></trkpt><trkpt lat="43.1599266" lon="10.5996562"><ele>59.33333333333333</ele><time>2026-04-05T09:47:30.747Z</time></trkpt><trkpt lat="43.1599221" lon="10.5997718"><ele>60.5</ele><time>2026-04-05T09:47:32.75Z</time></trkpt><trkpt lat="43.1599236" lon="10.5998837"><ele>61.666666666666664</ele><time>2026-04-05T09:47:34.749Z</time></trkpt><trkpt lat="43.1599272" lon="10.5999825"><ele>62.83333333333333</ele><time>2026-04-05T09:47:36.748Z</time></trkpt><trkpt lat="43.1599389" lon="10.6000733"><ele>64.0</ele><time>2026-04-05T09:47:38.746Z</time></trkpt><trkpt lat="43.1599739" lon="10.6001901"><ele>63.99999999999999</ele><time>2026-04-05T09:47:41.748Z</time></trkpt><trkpt lat="43.1600051" lon="10.6002777"><ele>64.0</ele><time>2026-04-05T09:47:44.748Z</time></trkpt><trkpt lat="43.1600105" lon="10.6003852"><ele>64.0</ele><time>2026-04-05T09:47:48.737Z</time></trkpt><trkpt lat="43.1600136" lon="10.6004929"><ele>64.0</ele><time>2026-04-05T09:47:51.737Z</time></trkpt><trkpt lat="43.1600466" lon="10.6005851"><ele>63.99999999999999</ele><time>2026-04-05T09:47:54.738Z</time></trkpt><trkpt lat="43.1600464" lon="10.6006968"><ele>64.0</ele><time>2026-04-05T09:47:57.739Z</time></trkpt><trkpt lat="43.1600559" lon="10.6007935"><ele>65.0</ele><time>2026-04-05T09:48:00.74Z</time></trkpt><trkpt lat="43.1600951" lon="10.6008933"><ele>66.0</ele><time>2026-04-05T09:48:03.737Z</time></trkpt><trkpt lat="43.1601182" lon="10.6009898"><ele>67.0</ele><time>2026-04-05T09:48:08.735Z</time></trkpt><trkpt lat="43.1601062" lon="10.6010838"><ele>68.0</ele><time>2026-04-05T09:48:11.746Z</time></trkpt><trkpt lat="43.1601256" lon="10.6011842"><ele>69.0</ele><time>2026-04-05T09:48:15.741Z</time></trkpt><trkpt lat="43.1601407" lon="10.601279"><ele>70.0</ele><time>2026-04-05T09:48:18.741Z</time></trkpt><trkpt lat="43.160154" lon="10.6013773"><ele>71.0</ele><time>2026-04-05T09:48:21.739Z</time></trkpt><trkpt lat="43.1601608" lon="10.6014771"><ele>72.66666666666667</ele><time>2026-04-05T09:48:24.743Z</time></trkpt><trkpt lat="43.1601683" lon="10.6015885"><ele>74.33333333333334</ele><time>2026-04-05T09:48:27.74Z</time></trkpt><trkpt lat="43.1601772" lon="10.6016862"><ele>76.0</ele><time>2026-04-05T09:48:30.741Z</time></trkpt><trkpt lat="43.1601769" lon="10.6017833"><ele>77.66666666666667</ele><time>2026-04-05T09:48:33.75Z</time></trkpt><trkpt lat="43.1601675" lon="10.6018762"><ele>79.33333333333333</ele><time>2026-04-05T09:48:36.744Z</time></trkpt><trkpt lat="43.1601356" lon="10.6019698"><ele>81.0</ele><time>2026-04-05T09:48:39.743Z</time></trkpt><trkpt lat="43.1600999" lon="10.6020747"><ele>82.14285714285714</ele><time>2026-04-05T09:48:42.747Z</time></trkpt><trkpt lat="43.1600635" lon="10.6021663"><ele>83.28571428571428</ele><time>2026-04-05T09:48:45.743Z</time></trkpt><trkpt lat="43.1600244" lon="10.6022493"><ele>84.42857142857142</ele><time>2026-04-05T09:48:48.75Z</time></trkpt><trkpt lat="43.160017" lon="10.6023393"><ele>85.57142857142857</ele><time>2026-04-05T09:48:51.74Z</time></trkpt><trkpt lat="43.1599921" lon="10.6024387"><ele>86.71428571428571</ele><time>2026-04-05T09:48:54.756Z</time></trkpt><trkpt lat="43.1599379" lon="10.6025146"><ele>87.85714285714285</ele><time>2026-04-05T09:48:57.752Z</time></trkpt><trkpt lat="43.1598748" lon="10.6025738"><ele>89.0</ele><time>2026-04-05T09:49:00.753Z</time></trkpt><trkpt lat="43.1598159" lon="10.6026206"><ele>88.99999999999999</ele><time>2026-04-05T09:49:03.758Z</time></trkpt><trkpt lat="43.1598302" lon="10.60271"><ele>89.0</ele><time>2026-04-05T09:49:07.757Z</time></trkpt><trkpt lat="43.1598842" lon="10.6027851"><ele>89.0</ele><time>2026-04-05T09:49:11.755Z</time></trkpt><trkpt lat="43.1598499" lon="10.6028755"><ele>89.0</ele><time>2026-04-05T09:49:24.743Z</time></trkpt><trkpt lat="43.1597844" lon="10.6028661"><ele>89.0</ele><time>2026-04-05T09:49:26.746Z</time></trkpt><trkpt lat="43.1597023" lon="10.6028622"><ele>88.99999999999999</ele><time>2026-04-05T09:49:28.749Z</time></trkpt><trkpt lat="43.1596219" lon="10.6028711"><ele>89.0</ele><time>2026-04-05T09:49:30.748Z</time></trkpt><trkpt lat="43.1595377" lon="10.6029317"><ele>91.16666666666667</ele><time>2026-04-05T09:49:33.737Z</time></trkpt><trkpt lat="43.1594688" lon="10.6030162"><ele>93.33333333333334</ele><time>2026-04-05T09:49:36.74Z</time></trkpt><trkpt lat="43.159418" lon="10.6030772"><ele>95.5</ele><time>2026-04-05T09:49:38.742Z</time></trkpt><trkpt lat="43.1593699" lon="10.6031369"><ele>97.66666666666667</ele><time>2026-04-05T09:49:40.739Z</time></trkpt><trkpt lat="43.1593258" lon="10.6031998"><ele>99.83333333333333</ele><time>2026-04-05T09:49:42.74Z</time></trkpt><trkpt lat="43.1592624" lon="10.6032894"><ele>102.0</ele><time>2026-04-05T09:49:45.741Z</time></trkpt><trkpt lat="43.1591953" lon="10.6033803"><ele>102.0</ele><time>2026-04-05T09:49:48.74Z</time></trkpt><trkpt lat="43.159145" lon="10.6034411"><ele>102.0</ele><time>2026-04-05T09:49:50.742Z</time></trkpt><trkpt lat="43.1590954" lon="10.6035086"><ele>102.0</ele><time>2026-04-05T09:49:52.741Z</time></trkpt><trkpt lat="43.1590468" lon="10.6035669"><ele>102.0</ele><time>2026-04-05T09:49:54.738Z</time></trkpt><trkpt lat="43.1589999" lon="10.603626"><ele>102.0</ele><time>2026-04-05T09:49:56.757Z</time></trkpt><trkpt lat="43.1589305" lon="10.6037146"><ele>102.0</ele><time>2026-04-05T09:49:59.74Z</time></trkpt><trkpt lat="43.1588825" lon="10.6037744"><ele>102.0</ele><time>2026-04-05T09:50:01.735Z</time></trkpt><trkpt lat="43.1588344" lon="10.6038394"><ele>101.85714285714286</ele><time>2026-04-05T09:50:03.733Z</time></trkpt><trkpt lat="43.1587887" lon="10.6039067"><ele>101.71428571428572</ele><time>2026-04-05T09:50:05.735Z</time></trkpt><trkpt lat="43.1587432" lon="10.6039766"><ele>101.57142857142857</ele><time>2026-04-05T09:50:07.733Z</time></trkpt><trkpt lat="43.1587048" lon="10.6040471"><ele>101.42857142857143</ele><time>2026-04-05T09:50:09.73Z</time></trkpt><trkpt lat="43.1586658" lon="10.6041154"><ele>101.28571428571428</ele><time>2026-04-05T09:50:11.725Z</time></trkpt><trkpt lat="43.1586234" lon="10.6041861"><ele>101.14285714285714</ele><time>2026-04-05T09:50:13.735Z</time></trkpt><trkpt lat="43.1585811" lon="10.6042624"><ele>101.0</ele><time>2026-04-05T09:50:15.735Z</time></trkpt><trkpt lat="43.1585401" lon="10.6043345"><ele>101.0</ele><time>2026-04-05T09:50:17.739Z</time></trkpt><trkpt lat="43.1585016" lon="10.6044055"><ele>101.0</ele><time>2026-04-05T09:50:19.741Z</time></trkpt><trkpt lat="43.1584614" lon="10.604475"><ele>101.0</ele><time>2026-04-05T09:50:21.742Z</time></trkpt><trkpt lat="43.1584248" lon="10.6045499"><ele>101.0</ele><time>2026-04-05T09:50:23.739Z</time></trkpt><trkpt lat="43.1583877" lon="10.6046593"><ele>101.0</ele><time>2026-04-05T09:50:26.744Z</time></trkpt><trkpt lat="43.1583645" lon="10.6047758"><ele>101.0</ele><time>2026-04-05T09:50:29.749Z</time></trkpt><trkpt lat="43.1583514" lon="10.6048611"><ele>101.0</ele><time>2026-04-05T09:50:31.745Z</time></trkpt><trkpt lat="43.1583535" lon="10.6049492"><ele>101.85714285714286</ele><time>2026-04-05T09:50:33.747Z</time></trkpt><trkpt lat="43.1583615" lon="10.605035"><ele>102.71428571428571</ele><time>2026-04-05T09:50:35.744Z</time></trkpt><trkpt lat="43.1583734" lon="10.6051219"><ele>103.57142857142858</ele><time>2026-04-05T09:50:37.749Z</time></trkpt><trkpt lat="43.1584099" lon="10.6052386"><ele>104.42857142857143</ele><time>2026-04-05T09:50:40.742Z</time></trkpt><trkpt lat="43.1584417" lon="10.6053202"><ele>105.28571428571429</ele><time>2026-04-05T09:50:42.74Z</time></trkpt><trkpt lat="43.1584885" lon="10.6054313"><ele>106.14285714285715</ele><time>2026-04-05T09:50:45.739Z</time></trkpt><trkpt lat="43.1585181" lon="10.6055107"><ele>107.0</ele><time>2026-04-05T09:50:47.743Z</time></trkpt><trkpt lat="43.1585671" lon="10.6056159"><ele>107.00000000000001</ele><time>2026-04-05T09:50:50.745Z</time></trkpt><trkpt lat="43.1586192" lon="10.6057262"><ele>107.0</ele><time>2026-04-05T09:50:53.743Z</time></trkpt><trkpt lat="43.1586564" lon="10.6058004"><ele>107.0</ele><time>2026-04-05T09:50:55.742Z</time></trkpt><trkpt lat="43.1586981" lon="10.6058662"><ele>107.0</ele><time>2026-04-05T09:50:57.757Z</time></trkpt><trkpt lat="43.1587426" lon="10.6059285"><ele>107.0</ele><time>2026-04-05T09:50:59.736Z</time></trkpt><trkpt lat="43.1587883" lon="10.6059986"><ele>107.00000000000001</ele><time>2026-04-05T09:51:01.74Z</time></trkpt><trkpt lat="43.1588272" lon="10.606072"><ele>107.0</ele><time>2026-04-05T09:51:03.737Z</time></trkpt><trkpt lat="43.1588884" lon="10.6061757"><ele>107.14285714285715</ele><time>2026-04-05T09:51:06.742Z</time></trkpt><trkpt lat="43.1589247" lon="10.6062508"><ele>107.28571428571429</ele><time>2026-04-05T09:51:08.741Z</time></trkpt><trkpt lat="43.1589612" lon="10.6063321"><ele>107.42857142857143</ele><time>2026-04-05T09:51:10.741Z</time></trkpt><trkpt lat="43.1589919" lon="10.6064192"><ele>107.57142857142858</ele><time>2026-04-05T09:51:12.737Z</time></trkpt><trkpt lat="43.1590144" lon="10.6065153"><ele>107.71428571428571</ele><time>2026-04-05T09:51:14.74Z</time></trkpt><trkpt lat="43.1590289" lon="10.6066056"><ele>107.85714285714286</ele><time>2026-04-05T09:51:16.737Z</time></trkpt><trkpt lat="43.1590397" lon="10.6066977"><ele>108.0</ele><time>2026-04-05T09:51:18.741Z</time></trkpt><trkpt lat="43.1590543" lon="10.6067892"><ele>109.28571428571428</ele><time>2026-04-05T09:51:20.738Z</time></trkpt><trkpt lat="43.1590693" lon="10.6068794"><ele>110.57142857142857</ele><time>2026-04-05T09:51:22.74Z</time></trkpt><trkpt lat="43.1590812" lon="10.6069688"><ele>111.85714285714286</ele><time>2026-04-05T09:51:24.733Z</time></trkpt><trkpt lat="43.1590942" lon="10.6070586"><ele>113.14285714285714</ele><time>2026-04-05T09:51:26.737Z</time></trkpt><trkpt lat="43.1590997" lon="10.6071894"><ele>114.42857142857144</ele><time>2026-04-05T09:51:29.74Z</time></trkpt><trkpt lat="43.1590943" lon="10.6072899"><ele>115.71428571428572</ele><time>2026-04-05T09:51:31.743Z</time></trkpt><trkpt lat="43.1590675" lon="10.6073835"><ele>117.0</ele><time>2026-04-05T09:51:33.738Z</time></trkpt><trkpt lat="43.1590273" lon="10.6074648"><ele>117.0</ele><time>2026-04-05T09:51:35.737Z</time></trkpt><trkpt lat="43.1589798" lon="10.6075415"><ele>117.0</ele><time>2026-04-05T09:51:37.739Z</time></trkpt><trkpt lat="43.1589307" lon="10.6076245"><ele>117.0</ele><time>2026-04-05T09:51:39.745Z</time></trkpt><trkpt lat="43.1588836" lon="10.6076917"><ele>117.0</ele><time>2026-04-05T09:51:41.745Z</time></trkpt><trkpt lat="43.1588331" lon="10.607747"><ele>117.0</ele><time>2026-04-05T09:51:43.739Z</time></trkpt><trkpt lat="43.1587624" lon="10.60784"><ele>117.0</ele><time>2026-04-05T09:51:46.741Z</time></trkpt><trkpt lat="43.1587211" lon="10.607914"><ele>118.66666666666667</ele><time>2026-04-05T09:51:48.743Z</time></trkpt><trkpt lat="43.158688" lon="10.6080318"><ele>120.33333333333334</ele><time>2026-04-05T09:51:51.745Z</time></trkpt><trkpt lat="43.1586904" lon="10.6081401"><ele>122.0</ele><time>2026-04-05T09:51:54.742Z</time></trkpt><trkpt lat="43.1587252" lon="10.6082483"><ele>123.66666666666667</ele><time>2026-04-05T09:51:57.737Z</time></trkpt><trkpt lat="43.1587927" lon="10.6083176"><ele>125.33333333333334</ele><time>2026-04-05T09:52:00.739Z</time></trkpt><trkpt lat="43.1588741" lon="10.6083578"><ele>127.0</ele><time>2026-04-05T09:52:03.729Z</time></trkpt><trkpt lat="43.1589383" lon="10.6083649"><ele>127.0</ele><time>2026-04-05T09:52:05.745Z</time></trkpt><trkpt lat="43.1590002" lon="10.6083413"><ele>127.0</ele><time>2026-04-05T09:52:07.736Z</time></trkpt><trkpt lat="43.1590604" lon="10.6082901"><ele>127.0</ele><time>2026-04-05T09:52:09.726Z</time></trkpt><trkpt lat="43.159105" lon="10.6082157"><ele>127.0</ele><time>2026-04-05T09:52:11.725Z</time></trkpt><trkpt lat="43.1591504" lon="10.6081525"><ele>127.0</ele><time>2026-04-05T09:52:13.729Z</time></trkpt><trkpt lat="43.1592142" lon="10.6080589"><ele>127.0</ele><time>2026-04-05T09:52:16.728Z</time></trkpt><trkpt lat="43.1592516" lon="10.6079819"><ele>127.0</ele><time>2026-04-05T09:52:18.729Z</time></trkpt><trkpt lat="43.1592897" lon="10.6078641"><ele>127.28571428571429</ele><time>2026-04-05T09:52:21.731Z</time></trkpt><trkpt lat="43.1593138" lon="10.6077766"><ele>127.57142857142856</ele><time>2026-04-05T09:52:23.723Z</time></trkpt><trkpt lat="43.1593411" lon="10.6076517"><ele>127.85714285714285</ele><time>2026-04-05T09:52:26.736Z</time></trkpt><trkpt lat="43.1593602" lon="10.6075629"><ele>128.14285714285714</ele><time>2026-04-05T09:52:28.736Z</time></trkpt><trkpt lat="43.1593852" lon="10.607476"><ele>128.42857142857142</ele><time>2026-04-05T09:52:30.748Z</time></trkpt><trkpt lat="43.1594123" lon="10.6073912"><ele>128.7142857142857</ele><time>2026-04-05T09:52:32.732Z</time></trkpt><trkpt lat="43.1594346" lon="10.6072943"><ele>129.0</ele><time>2026-04-05T09:52:34.732Z</time></trkpt><trkpt lat="43.1594493" lon="10.6072028"><ele>128.99999999999997</ele><time>2026-04-05T09:52:36.733Z</time></trkpt><trkpt lat="43.1594484" lon="10.6071049"><ele>129.0</ele><time>2026-04-05T09:52:38.737Z</time></trkpt><trkpt lat="43.1594411" lon="10.6070168"><ele>129.0</ele><time>2026-04-05T09:52:40.741Z</time></trkpt><trkpt lat="43.1594414" lon="10.6069252"><ele>129.0</ele><time>2026-04-05T09:52:42.739Z</time></trkpt><trkpt lat="43.1594352" lon="10.6068274"><ele>129.0</ele><time>2026-04-05T09:52:44.735Z</time></trkpt><trkpt lat="43.1594334" lon="10.6067383"><ele>128.99999999999997</ele><time>2026-04-05T09:52:46.738Z</time></trkpt><trkpt lat="43.1594392" lon="10.6066438"><ele>129.0</ele><time>2026-04-05T09:52:48.732Z</time></trkpt><trkpt lat="43.1594466" lon="10.6065436"><ele>129.14285714285714</ele><time>2026-04-05T09:52:50.729Z</time></trkpt><trkpt lat="43.1594616" lon="10.6064519"><ele>129.28571428571428</ele><time>2026-04-05T09:52:52.737Z</time></trkpt><trkpt lat="43.159484" lon="10.6063637"><ele>129.42857142857144</ele><time>2026-04-05T09:52:54.73Z</time></trkpt><trkpt lat="43.1594994" lon="10.6062711"><ele>129.57142857142856</ele><time>2026-04-05T09:52:56.734Z</time></trkpt><trkpt lat="43.1595169" lon="10.6061457"><ele>129.71428571428572</ele><time>2026-04-05T09:52:59.738Z</time></trkpt><trkpt lat="43.1595205" lon="10.6060565"><ele>129.85714285714286</ele><time>2026-04-05T09:53:01.754Z</time></trkpt><trkpt lat="43.1595204" lon="10.605968"><ele>130.0</ele><time>2026-04-05T09:53:03.734Z</time></trkpt><trkpt lat="43.1595171" lon="10.6058779"><ele>130.00000000000003</ele><time>2026-04-05T09:53:05.732Z</time></trkpt><trkpt lat="43.1595002" lon="10.6057922"><ele>130.0</ele><time>2026-04-05T09:53:07.734Z</time></trkpt><trkpt lat="43.1594803" lon="10.6057095"><ele>130.0</ele><time>2026-04-05T09:53:09.735Z</time></trkpt><trkpt lat="43.1594609" lon="10.6056215"><ele>130.0</ele><time>2026-04-05T09:53:11.726Z</time></trkpt><trkpt lat="43.1594427" lon="10.6055349"><ele>130.0</ele><time>2026-04-05T09:53:13.74Z</time></trkpt><trkpt lat="43.1594226" lon="10.605446"><ele>130.00000000000003</ele><time>2026-04-05T09:53:15.737Z</time></trkpt><trkpt lat="43.1593991" lon="10.6053559"><ele>130.0</ele><time>2026-04-05T09:53:17.737Z</time></trkpt><trkpt lat="43.1593855" lon="10.6052642"><ele>130.5</ele><time>2026-04-05T09:53:19.749Z</time></trkpt><trkpt lat="43.1593813" lon="10.6051663"><ele>131.0</ele><time>2026-04-05T09:53:21.747Z</time></trkpt><trkpt lat="43.1593878" lon="10.6050712"><ele>131.5</ele><time>2026-04-05T09:53:23.747Z</time></trkpt><trkpt lat="43.1594186" lon="10.6049729"><ele>132.0</ele><time>2026-04-05T09:53:25.75Z</time></trkpt><trkpt lat="43.1594698" lon="10.6048888"><ele>132.5</ele><time>2026-04-05T09:53:27.75Z</time></trkpt><trkpt lat="43.1595369" lon="10.6048381"><ele>133.0</ele><time>2026-04-05T09:53:29.74Z</time></trkpt><trkpt lat="43.1596143" lon="10.604808"><ele>133.0</ele><time>2026-04-05T09:53:31.743Z</time></trkpt><trkpt lat="43.1596911" lon="10.6048101"><ele>133.0</ele><time>2026-04-05T09:53:33.752Z</time></trkpt><trkpt lat="43.1597726" lon="10.6048455"><ele>133.0</ele><time>2026-04-05T09:53:35.752Z</time></trkpt><trkpt lat="43.1598458" lon="10.6049018"><ele>133.0</ele><time>2026-04-05T09:53:37.757Z</time></trkpt><trkpt lat="43.1599019" lon="10.6049926"><ele>133.0</ele><time>2026-04-05T09:53:39.751Z</time></trkpt><trkpt lat="43.1599352" lon="10.6050984"><ele>133.0</ele><time>2026-04-05T09:53:41.748Z</time></trkpt><trkpt lat="43.1599512" lon="10.6051975"><ele>133.57142857142858</ele><time>2026-04-05T09:53:43.757Z</time></trkpt><trkpt lat="43.1599641" lon="10.6053026"><ele>134.14285714285714</ele><time>2026-04-05T09:53:45.755Z</time></trkpt><trkpt lat="43.1599772" lon="10.6053987"><ele>134.71428571428572</ele><time>2026-04-05T09:53:47.752Z</time></trkpt><trkpt lat="43.1599817" lon="10.6054911"><ele>135.28571428571428</ele><time>2026-04-05T09:53:49.75Z</time></trkpt><trkpt lat="43.1599841" lon="10.6055843"><ele>135.85714285714286</ele><time>2026-04-05T09:53:51.747Z</time></trkpt><trkpt lat="43.1599898" lon="10.6056778"><ele>136.42857142857144</ele><time>2026-04-05T09:53:53.747Z</time></trkpt><trkpt lat="43.1600009" lon="10.605767"><ele>137.0</ele><time>2026-04-05T09:53:55.751Z</time></trkpt><trkpt lat="43.1600036" lon="10.6058653"><ele>138.33333333333331</ele><time>2026-04-05T09:53:57.748Z</time></trkpt><trkpt lat="43.1599885" lon="10.6059587"><ele>139.66666666666666</ele><time>2026-04-05T09:53:59.747Z</time></trkpt><trkpt lat="43.1599898" lon="10.6060525"><ele>141.0</ele><time>2026-04-05T09:54:01.73Z</time></trkpt><trkpt lat="43.1599911" lon="10.6061802"><ele>142.33333333333334</ele><time>2026-04-05T09:54:04.716Z</time></trkpt><trkpt lat="43.1600029" lon="10.6063021"><ele>143.66666666666669</ele><time>2026-04-05T09:54:07.719Z</time></trkpt><trkpt lat="43.160012" lon="10.6064324"><ele>145.0</ele><time>2026-04-05T09:54:10.721Z</time></trkpt><trkpt lat="43.1600199" lon="10.6065232"><ele>146.0</ele><time>2026-04-05T09:54:12.723Z</time></trkpt><trkpt lat="43.1600217" lon="10.6066306"><ele>147.0</ele><time>2026-04-05T09:54:14.722Z</time></trkpt><trkpt lat="43.1600309" lon="10.6067359"><ele>148.0</ele><time>2026-04-05T09:54:16.719Z</time></trkpt><trkpt lat="43.1600331" lon="10.6068322"><ele>149.0</ele><time>2026-04-05T09:54:18.714Z</time></trkpt><trkpt lat="43.1600377" lon="10.6069411"><ele>150.0</ele><time>2026-04-05T09:54:20.717Z</time></trkpt><trkpt lat="43.1600305" lon="10.6070537"><ele>151.0</ele><time>2026-04-05T09:54:23.719Z</time></trkpt><trkpt lat="43.1599935" lon="10.6071604"><ele>151.71428571428572</ele><time>2026-04-05T09:55:09.735Z</time></trkpt><trkpt lat="43.159982" lon="10.6072594"><ele>152.42857142857144</ele><time>2026-04-05T09:55:11.734Z</time></trkpt><trkpt lat="43.1599701" lon="10.6073596"><ele>153.14285714285717</ele><time>2026-04-05T09:55:13.744Z</time></trkpt><trkpt lat="43.159954" lon="10.6074625"><ele>153.85714285714286</ele><time>2026-04-05T09:55:15.736Z</time></trkpt><trkpt lat="43.159935" lon="10.607559"><ele>154.57142857142856</ele><time>2026-04-05T09:55:17.725Z</time></trkpt><trkpt lat="43.1599201" lon="10.6076467"><ele>155.2857142857143</ele><time>2026-04-05T09:55:19.728Z</time></trkpt><trkpt lat="43.1599037" lon="10.6077416"><ele>156.0</ele><time>2026-04-05T09:55:21.732Z</time></trkpt><trkpt lat="43.1598881" lon="10.6078377"><ele>156.85714285714286</ele><time>2026-04-05T09:55:23.735Z</time></trkpt><trkpt lat="43.1598759" lon="10.6079344"><ele>157.7142857142857</ele><time>2026-04-05T09:55:25.74Z</time></trkpt><trkpt lat="43.1598706" lon="10.6080258"><ele>158.57142857142856</ele><time>2026-04-05T09:55:27.744Z</time></trkpt><trkpt lat="43.1598636" lon="10.6081173"><ele>159.42857142857144</ele><time>2026-04-05T09:55:29.745Z</time></trkpt><trkpt lat="43.1598628" lon="10.6082085"><ele>160.28571428571428</ele><time>2026-04-05T09:55:31.745Z</time></trkpt><trkpt lat="43.1598687" lon="10.6082989"><ele>161.14285714285714</ele><time>2026-04-05T09:55:33.744Z</time></trkpt><trkpt lat="43.159871" lon="10.608386"><ele>162.0</ele><time>2026-04-05T09:55:35.734Z</time></trkpt><trkpt lat="43.1598774" lon="10.6084852"><ele>162.0</ele><time>2026-04-05T09:55:37.736Z</time></trkpt><trkpt lat="43.1598832" lon="10.6085731"><ele>162.0</ele><time>2026-04-05T09:55:39.732Z</time></trkpt><trkpt lat="43.1598807" lon="10.6086595"><ele>162.0</ele><time>2026-04-05T09:55:41.73Z</time></trkpt><trkpt lat="43.1598829" lon="10.6087579"><ele>162.0</ele><time>2026-04-05T09:55:43.738Z</time></trkpt><trkpt lat="43.1598932" lon="10.6088665"><ele>162.0</ele><time>2026-04-05T09:55:45.729Z</time></trkpt><trkpt lat="43.1599037" lon="10.6089709"><ele>162.0</ele><time>2026-04-05T09:55:47.73Z</time></trkpt><trkpt lat="43.1599116" lon="10.6090672"><ele>162.0</ele><time>2026-04-05T09:55:49.733Z</time></trkpt><trkpt lat="43.1599206" lon="10.6091554"><ele>162.57142857142858</ele><time>2026-04-05T09:55:51.736Z</time></trkpt><trkpt lat="43.1599345" lon="10.6092443"><ele>163.14285714285714</ele><time>2026-04-05T09:55:53.734Z</time></trkpt><trkpt lat="43.1599447" lon="10.6093472"><ele>163.71428571428572</ele><time>2026-04-05T09:55:55.731Z</time></trkpt><trkpt lat="43.1599555" lon="10.6094461"><ele>164.28571428571428</ele><time>2026-04-05T09:55:57.739Z</time></trkpt><trkpt lat="43.1599657" lon="10.6095423"><ele>164.85714285714286</ele><time>2026-04-05T09:55:59.734Z</time></trkpt><trkpt lat="43.1599623" lon="10.609636"><ele>165.42857142857142</ele><time>2026-04-05T09:56:01.729Z</time></trkpt><trkpt lat="43.1599533" lon="10.6097416"><ele>166.0</ele><time>2026-04-05T09:56:03.727Z</time></trkpt><trkpt lat="43.1599266" lon="10.6098417"><ele>167.66666666666669</ele><time>2026-04-05T09:56:05.725Z</time></trkpt><trkpt lat="43.1599012" lon="10.609941"><ele>169.33333333333334</ele><time>2026-04-05T09:56:07.745Z</time></trkpt><trkpt lat="43.1598862" lon="10.6100479"><ele>171.0</ele><time>2026-04-05T09:56:09.732Z</time></trkpt><trkpt lat="43.1598674" lon="10.610155"><ele>172.66666666666666</ele><time>2026-04-05T09:56:11.731Z</time></trkpt><trkpt lat="43.1598436" lon="10.6102478"><ele>174.33333333333331</ele><time>2026-04-05T09:56:13.728Z</time></trkpt><trkpt lat="43.1598208" lon="10.6103523"><ele>176.0</ele><time>2026-04-05T09:56:15.726Z</time></trkpt><trkpt lat="43.1598055" lon="10.6104655"><ele>172.0</ele><time>2026-04-05T09:56:17.725Z</time></trkpt><trkpt lat="43.1597869" lon="10.6105726"><ele>168.0</ele><time>2026-04-05T09:56:19.728Z</time></trkpt><trkpt lat="43.1597673" lon="10.6106769"><ele>164.0</ele><time>2026-04-05T09:56:21.731Z</time></trkpt><trkpt lat="43.1597461" lon="10.6107872"><ele>160.0</ele><time>2026-04-05T09:56:23.734Z</time></trkpt><trkpt lat="43.1597242" lon="10.6108947"><ele>156.0</ele><time>2026-04-05T09:56:25.74Z</time></trkpt><trkpt lat="43.1597059" lon="10.6110005"><ele>152.0</ele><time>2026-04-05T09:56:27.739Z</time></trkpt><trkpt lat="43.1597098" lon="10.6111051"><ele>152.5</ele><time>2026-04-05T09:56:29.743Z</time></trkpt><trkpt lat="43.159725" lon="10.6112124"><ele>153.0</ele><time>2026-04-05T09:56:31.744Z</time></trkpt><trkpt lat="43.1597415" lon="10.6113184"><ele>153.5</ele><time>2026-04-05T09:56:33.747Z</time></trkpt><trkpt lat="43.1597599" lon="10.6114265"><ele>154.0</ele><time>2026-04-05T09:56:35.744Z</time></trkpt><trkpt lat="43.1597728" lon="10.6115337"><ele>154.5</ele><time>2026-04-05T09:56:37.743Z</time></trkpt><trkpt lat="43.1597737" lon="10.6116296"><ele>155.0</ele><time>2026-04-05T09:56:39.749Z</time></trkpt><trkpt lat="43.1597744" lon="10.6117347"><ele>155.0</ele><time>2026-04-05T09:56:41.747Z</time></trkpt><trkpt lat="43.159773" lon="10.61184"><ele>155.0</ele><time>2026-04-05T09:56:43.753Z</time></trkpt><trkpt lat="43.1597862" lon="10.6119403"><ele>155.0</ele><time>2026-04-05T09:56:45.747Z</time></trkpt><trkpt lat="43.1598067" lon="10.6120428"><ele>155.0</ele><time>2026-04-05T09:56:47.745Z</time></trkpt><trkpt lat="43.1598449" lon="10.6121396"><ele>155.0</ele><time>2026-04-05T09:56:49.738Z</time></trkpt><trkpt lat="43.1598907" lon="10.6122332"><ele>155.0</ele><time>2026-04-05T09:56:51.737Z</time></trkpt><trkpt lat="43.1599442" lon="10.6123115"><ele>157.0</ele><time>2026-04-05T09:56:53.732Z</time></trkpt><trkpt lat="43.1599907" lon="10.6123816"><ele>159.0</ele><time>2026-04-05T09:56:55.733Z</time></trkpt><trkpt lat="43.1600446" lon="10.6124308"><ele>161.0</ele><time>2026-04-05T09:56:57.736Z</time></trkpt><trkpt lat="43.160108" lon="10.6125087"><ele>163.0</ele><time>2026-04-05T09:56:59.737Z</time></trkpt><trkpt lat="43.1601706" lon="10.6125921"><ele>165.0</ele><time>2026-04-05T09:57:01.736Z</time></trkpt><trkpt lat="43.1602352" lon="10.6126852"><ele>167.0</ele><time>2026-04-05T09:57:03.733Z</time></trkpt><trkpt lat="43.1603053" lon="10.6128066"><ele>166.0</ele><time>2026-04-05T09:57:05.732Z</time></trkpt><trkpt lat="43.1603399" lon="10.612885"><ele>165.0</ele><time>2026-04-05T09:57:06.736Z</time></trkpt><trkpt lat="43.1603765" lon="10.6129654"><ele>164.0</ele><time>2026-04-05T09:57:07.737Z</time></trkpt><trkpt lat="43.1604177" lon="10.6130481"><ele>163.0</ele><time>2026-04-05T09:57:08.731Z</time></trkpt><trkpt lat="43.1604586" lon="10.613142"><ele>162.0</ele><time>2026-04-05T09:57:09.749Z</time></trkpt><trkpt lat="43.1604956" lon="10.6132441"><ele>161.0</ele><time>2026-04-05T09:57:10.743Z</time></trkpt><trkpt lat="43.1605292" lon="10.6133553"><ele>161.0</ele><time>2026-04-05T09:57:11.727Z</time></trkpt><trkpt lat="43.1605547" lon="10.6134704"><ele>161.0</ele><time>2026-04-05T09:57:12.735Z</time></trkpt><trkpt lat="43.1605784" lon="10.6136003"><ele>161.0</ele><time>2026-04-05T09:57:13.74Z</time></trkpt><trkpt lat="43.1605904" lon="10.6137287"><ele>161.0</ele><time>2026-04-05T09:57:14.752Z</time></trkpt><trkpt lat="43.1605936" lon="10.613851"><ele>161.0</ele><time>2026-04-05T09:57:15.743Z</time></trkpt><trkpt lat="43.1605919" lon="10.6139933"><ele>160.4</ele><time>2026-04-05T09:57:16.753Z</time></trkpt><trkpt lat="43.1605916" lon="10.6141362"><ele>159.8</ele><time>2026-04-05T09:57:17.75Z</time></trkpt><trkpt lat="43.1605912" lon="10.6142786"><ele>159.20000000000002</ele><time>2026-04-05T09:57:18.759Z</time></trkpt><trkpt lat="43.1605857" lon="10.614428"><ele>158.60000000000002</ele><time>2026-04-05T09:57:19.749Z</time></trkpt><trkpt lat="43.1605811" lon="10.6145745"><ele>158.0</ele><time>2026-04-05T09:57:20.756Z</time></trkpt><trkpt lat="43.160577" lon="10.6147182"><ele>158.0</ele><time>2026-04-05T09:57:21.751Z</time></trkpt><trkpt lat="43.1605732" lon="10.6148546"><ele>158.0</ele><time>2026-04-05T09:57:22.756Z</time></trkpt><trkpt lat="43.1605733" lon="10.6149863"><ele>158.0</ele><time>2026-04-05T09:57:23.755Z</time></trkpt><trkpt lat="43.1605817" lon="10.6151092"><ele>158.0</ele><time>2026-04-05T09:57:24.743Z</time></trkpt><trkpt lat="43.1605993" lon="10.615218"><ele>158.0</ele><time>2026-04-05T09:57:25.735Z</time></trkpt><trkpt lat="43.1606357" lon="10.6153144"><ele>158.0</ele><time>2026-04-05T09:57:26.744Z</time></trkpt><trkpt lat="43.160689" lon="10.6153942"><ele>160.0</ele><time>2026-04-05T09:57:27.735Z</time></trkpt><trkpt lat="43.1607492" lon="10.6154522"><ele>162.0</ele><time>2026-04-05T09:57:28.738Z</time></trkpt><trkpt lat="43.1608194" lon="10.6154893"><ele>164.0</ele><time>2026-04-05T09:57:29.728Z</time></trkpt><trkpt lat="43.1608927" lon="10.6155263"><ele>166.0</ele><time>2026-04-05T09:57:30.722Z</time></trkpt><trkpt lat="43.1609617" lon="10.6155351"><ele>168.0</ele><time>2026-04-05T09:57:31.72Z</time></trkpt><trkpt lat="43.1610778" lon="10.6155236"><ele>170.0</ele><time>2026-04-05T09:57:33.725Z</time></trkpt><trkpt lat="43.1611797" lon="10.6155142"><ele>170.0</ele><time>2026-04-05T09:57:35.724Z</time></trkpt><trkpt lat="43.1612732" lon="10.6155336"><ele>170.0</ele><time>2026-04-05T09:57:37.734Z</time></trkpt><trkpt lat="43.1613559" lon="10.6156073"><ele>170.0</ele><time>2026-04-05T09:57:39.725Z</time></trkpt><trkpt lat="43.1614077" lon="10.6157284"><ele>170.0</ele><time>2026-04-05T09:57:41.738Z</time></trkpt><trkpt lat="43.1614375" lon="10.6158647"><ele>170.0</ele><time>2026-04-05T09:57:43.744Z</time></trkpt><trkpt lat="43.1614419" lon="10.6160032"><ele>170.0</ele><time>2026-04-05T09:57:45.744Z</time></trkpt><trkpt lat="43.1614352" lon="10.6161344"><ele>170.0</ele><time>2026-04-05T09:57:47.752Z</time></trkpt><trkpt lat="43.1614351" lon="10.616268"><ele>170.0</ele><time>2026-04-05T09:57:49.755Z</time></trkpt><trkpt lat="43.1614273" lon="10.6163999"><ele>170.0</ele><time>2026-04-05T09:57:51.749Z</time></trkpt><trkpt lat="43.1614139" lon="10.6165209"><ele>170.0</ele><time>2026-04-05T09:57:53.751Z</time></trkpt><trkpt lat="43.161382" lon="10.6166416"><ele>171.33333333333331</ele><time>2026-04-05T09:57:55.753Z</time></trkpt><trkpt lat="43.1613552" lon="10.6167705"><ele>172.66666666666666</ele><time>2026-04-05T09:57:57.744Z</time></trkpt><trkpt lat="43.1613367" lon="10.6168968"><ele>174.0</ele><time>2026-04-05T09:57:59.744Z</time></trkpt><trkpt lat="43.161319" lon="10.6170194"><ele>175.33333333333334</ele><time>2026-04-05T09:58:01.743Z</time></trkpt><trkpt lat="43.1613006" lon="10.6171314"><ele>176.66666666666669</ele><time>2026-04-05T09:58:03.745Z</time></trkpt><trkpt lat="43.16128" lon="10.6172407"><ele>178.0</ele><time>2026-04-05T09:58:05.746Z</time></trkpt><trkpt lat="43.1612435" lon="10.6173545"><ele>178.0</ele><time>2026-04-05T09:58:07.732Z</time></trkpt><trkpt lat="43.1611781" lon="10.6174592"><ele>178.0</ele><time>2026-04-05T09:58:09.734Z</time></trkpt><trkpt lat="43.1611113" lon="10.6175576"><ele>178.0</ele><time>2026-04-05T09:58:11.762Z</time></trkpt><trkpt lat="43.1610391" lon="10.6176418"><ele>178.0</ele><time>2026-04-05T09:58:13.743Z</time></trkpt><trkpt lat="43.1609523" lon="10.6177131"><ele>178.0</ele><time>2026-04-05T09:58:15.732Z</time></trkpt><trkpt lat="43.1608711" lon="10.6177886"><ele>177.4</ele><time>2026-04-05T09:58:17.739Z</time></trkpt><trkpt lat="43.1607873" lon="10.6178644"><ele>176.8</ele><time>2026-04-05T09:58:19.747Z</time></trkpt><trkpt lat="43.1607076" lon="10.6179464"><ele>176.2</ele><time>2026-04-05T09:58:21.743Z</time></trkpt><trkpt lat="43.1606339" lon="10.6180295"><ele>175.6</ele><time>2026-04-05T09:58:23.742Z</time></trkpt><trkpt lat="43.1605622" lon="10.6181202"><ele>175.0</ele><time>2026-04-05T09:58:25.739Z</time></trkpt><trkpt lat="43.1604892" lon="10.618201"><ele>179.33333333333334</ele><time>2026-04-05T09:58:27.734Z</time></trkpt><trkpt lat="43.1604252" lon="10.6182807"><ele>183.66666666666669</ele><time>2026-04-05T09:58:29.729Z</time></trkpt><trkpt lat="43.1603698" lon="10.6183735"><ele>188.0</ele><time>2026-04-05T09:58:31.729Z</time></trkpt><trkpt lat="43.1603413" lon="10.6184879"><ele>192.33333333333334</ele><time>2026-04-05T09:58:33.724Z</time></trkpt><trkpt lat="43.1603479" lon="10.6185985"><ele>196.66666666666666</ele><time>2026-04-05T09:58:35.724Z</time></trkpt><trkpt lat="43.1604053" lon="10.6186565"><ele>201.0</ele><time>2026-04-05T09:58:37.725Z</time></trkpt><trkpt lat="43.1605115" lon="10.6186712"><ele>201.8</ele><time>2026-04-05T09:58:39.726Z</time></trkpt><trkpt lat="43.1606159" lon="10.6187003"><ele>202.60000000000002</ele><time>2026-04-05T09:58:41.723Z</time></trkpt><trkpt lat="43.1607223" lon="10.6187375"><ele>203.4</ele><time>2026-04-05T09:58:43.726Z</time></trkpt><trkpt lat="43.1608392" lon="10.6187811"><ele>204.2</ele><time>2026-04-05T09:58:45.717Z</time></trkpt><trkpt lat="43.1609469" lon="10.6188009"><ele>205.0</ele><time>2026-04-05T09:58:47.724Z</time></trkpt><trkpt lat="43.1610537" lon="10.6188483"><ele>202.0</ele><time>2026-04-05T09:58:49.727Z</time></trkpt><trkpt lat="43.1611535" lon="10.6188987"><ele>199.0</ele><time>2026-04-05T09:58:51.729Z</time></trkpt><trkpt lat="43.1612541" lon="10.6189922"><ele>196.0</ele><time>2026-04-05T09:58:53.736Z</time></trkpt><trkpt lat="43.1612993" lon="10.6191511"><ele>193.0</ele><time>2026-04-05T09:58:55.742Z</time></trkpt><trkpt lat="43.1613048" lon="10.6192377"><ele>190.0</ele><time>2026-04-05T09:58:56.747Z</time></trkpt><trkpt lat="43.1613029" lon="10.619324"><ele>190.0</ele><time>2026-04-05T09:58:57.744Z</time></trkpt><trkpt lat="43.1613023" lon="10.6194759"><ele>190.0</ele><time>2026-04-05T09:58:59.736Z</time></trkpt><trkpt lat="43.161307" lon="10.6196278"><ele>190.0</ele><time>2026-04-05T09:59:01.741Z</time></trkpt><trkpt lat="43.1613102" lon="10.619774"><ele>190.0</ele><time>2026-04-05T09:59:03.747Z</time></trkpt><trkpt lat="43.161294" lon="10.619913"><ele>190.0</ele><time>2026-04-05T09:59:05.742Z</time></trkpt><trkpt lat="43.1612928" lon="10.6200543"><ele>192.2</ele><time>2026-04-05T09:59:07.749Z</time></trkpt><trkpt lat="43.1613226" lon="10.6201816"><ele>194.4</ele><time>2026-04-05T09:59:09.749Z</time></trkpt><trkpt lat="43.1613654" lon="10.6202927"><ele>196.60000000000002</ele><time>2026-04-05T09:59:11.748Z</time></trkpt><trkpt lat="43.161415" lon="10.6203991"><ele>198.8</ele><time>2026-04-05T09:59:13.772Z</time></trkpt><trkpt lat="43.1614552" lon="10.6205078"><ele>201.0</ele><time>2026-04-05T09:59:15.745Z</time></trkpt><trkpt lat="43.1614849" lon="10.6206266"><ele>201.0</ele><time>2026-04-05T09:59:17.744Z</time></trkpt><trkpt lat="43.1615188" lon="10.6207351"><ele>201.0</ele><time>2026-04-05T09:59:19.75Z</time></trkpt><trkpt lat="43.1615357" lon="10.6208581"><ele>201.0</ele><time>2026-04-05T09:59:21.75Z</time></trkpt><trkpt lat="43.1615314" lon="10.6209896"><ele>201.0</ele><time>2026-04-05T09:59:23.75Z</time></trkpt><trkpt lat="43.1615165" lon="10.6211132"><ele>201.0</ele><time>2026-04-05T09:59:25.752Z</time></trkpt><trkpt lat="43.1614842" lon="10.6212281"><ele>201.0</ele><time>2026-04-05T09:59:27.748Z</time></trkpt><trkpt lat="43.1614365" lon="10.6213365"><ele>201.0</ele><time>2026-04-05T09:59:29.745Z</time></trkpt><trkpt lat="43.161376" lon="10.6214076"><ele>201.0</ele><time>2026-04-05T09:59:31.741Z</time></trkpt><trkpt lat="43.161322" lon="10.6214532"><ele>201.0</ele><time>2026-04-05T09:59:34.748Z</time></trkpt><trkpt lat="43.1613079" lon="10.6215405"><ele>201.0</ele><time>2026-04-05T09:59:49.751Z</time></trkpt><trkpt lat="43.1612711" lon="10.6216592"><ele>201.0</ele><time>2026-04-05T09:59:52.76Z</time></trkpt><trkpt lat="43.161253" lon="10.6217575"><ele>201.0</ele><time>2026-04-05T09:59:54.753Z</time></trkpt><trkpt lat="43.1612096" lon="10.6218692"><ele>201.0</ele><time>2026-04-05T09:59:56.757Z</time></trkpt><trkpt lat="43.1611405" lon="10.6219615"><ele>201.0</ele><time>2026-04-05T09:59:58.764Z</time></trkpt><trkpt lat="43.1610882" lon="10.6220496"><ele>201.0</ele><time>2026-04-05T10:00:00.758Z</time></trkpt><trkpt lat="43.1610278" lon="10.6221609"><ele>201.0</ele><time>2026-04-05T10:00:02.745Z</time></trkpt><trkpt lat="43.1609801" lon="10.6222855"><ele>201.0</ele><time>2026-04-05T10:00:04.747Z</time></trkpt><trkpt lat="43.1609349" lon="10.6224056"><ele>201.0</ele><time>2026-04-05T10:00:06.744Z</time></trkpt><trkpt lat="43.1608705" lon="10.6225214"><ele>201.0</ele><time>2026-04-05T10:00:08.751Z</time></trkpt><trkpt lat="43.1607834" lon="10.6226016"><ele>201.0</ele><time>2026-04-05T10:00:10.745Z</time></trkpt><trkpt lat="43.1606643" lon="10.6226568"><ele>201.0</ele><time>2026-04-05T10:00:12.729Z</time></trkpt><trkpt lat="43.1605985" lon="10.6226784"><ele>201.0</ele><time>2026-04-05T10:00:13.739Z</time></trkpt><trkpt lat="43.1605314" lon="10.6226877"><ele>201.0</ele><time>2026-04-05T10:00:14.735Z</time></trkpt><trkpt lat="43.1604642" lon="10.622698"><ele>201.0</ele><time>2026-04-05T10:00:15.753Z</time></trkpt><trkpt lat="43.1603988" lon="10.6226989"><ele>201.0</ele><time>2026-04-05T10:00:16.735Z</time></trkpt><trkpt lat="43.1602769" lon="10.6226762"><ele>201.0</ele><time>2026-04-05T10:00:18.733Z</time></trkpt><trkpt lat="43.1601711" lon="10.6226714"><ele>201.0</ele><time>2026-04-05T10:00:20.739Z</time></trkpt><trkpt lat="43.16009" lon="10.6227109"><ele>201.0</ele><time>2026-04-05T10:00:22.739Z</time></trkpt><trkpt lat="43.1600254" lon="10.6227899"><ele>201.0</ele><time>2026-04-05T10:00:24.732Z</time></trkpt><trkpt lat="43.1599645" lon="10.6228683"><ele>201.0</ele><time>2026-04-05T10:00:26.734Z</time></trkpt><trkpt lat="43.1599083" lon="10.6229533"><ele>201.0</ele><time>2026-04-05T10:00:28.736Z</time></trkpt><trkpt lat="43.1598729" lon="10.6230772"><ele>201.0</ele><time>2026-04-05T10:00:30.733Z</time></trkpt><trkpt lat="43.1598749" lon="10.6232211"><ele>199.20000000000002</ele><time>2026-04-05T10:00:32.735Z</time></trkpt><trkpt lat="43.1598986" lon="10.6233476"><ele>197.4</ele><time>2026-04-05T10:00:34.74Z</time></trkpt><trkpt lat="43.1599404" lon="10.6234666"><ele>195.6</ele><time>2026-04-05T10:00:36.754Z</time></trkpt><trkpt lat="43.1599702" lon="10.6235976"><ele>193.8</ele><time>2026-04-05T10:00:38.765Z</time></trkpt><trkpt lat="43.1599989" lon="10.6237409"><ele>192.0</ele><time>2026-04-05T10:00:40.761Z</time></trkpt><trkpt lat="43.1600183" lon="10.6238907"><ele>192.0</ele><time>2026-04-05T10:00:42.762Z</time></trkpt><trkpt lat="43.1600148" lon="10.6240377"><ele>192.0</ele><time>2026-04-05T10:00:44.749Z</time></trkpt><trkpt lat="43.160008" lon="10.6241682"><ele>192.0</ele><time>2026-04-05T10:00:46.769Z</time></trkpt><trkpt lat="43.160003" lon="10.6242998"><ele>192.0</ele><time>2026-04-05T10:00:48.75Z</time></trkpt><trkpt lat="43.1599986" lon="10.6244311"><ele>192.0</ele><time>2026-04-05T10:00:50.754Z</time></trkpt><trkpt lat="43.1599903" lon="10.6245601"><ele>190.6</ele><time>2026-04-05T10:00:52.754Z</time></trkpt><trkpt lat="43.1599892" lon="10.6246884"><ele>189.2</ele><time>2026-04-05T10:00:54.758Z</time></trkpt><trkpt lat="43.1599781" lon="10.6248239"><ele>187.8</ele><time>2026-04-05T10:00:56.758Z</time></trkpt><trkpt lat="43.159961" lon="10.6249553"><ele>186.4</ele><time>2026-04-05T10:00:58.761Z</time></trkpt><trkpt lat="43.159937" lon="10.6250911"><ele>185.0</ele><time>2026-04-05T10:01:00.757Z</time></trkpt><trkpt lat="43.1598928" lon="10.6252084"><ele>188.75</ele><time>2026-04-05T10:01:02.757Z</time></trkpt><trkpt lat="43.1598056" lon="10.6252999"><ele>192.5</ele><time>2026-04-05T10:01:04.757Z</time></trkpt><trkpt lat="43.1597111" lon="10.6253529"><ele>196.25</ele><time>2026-04-05T10:01:06.749Z</time></trkpt><trkpt lat="43.159605" lon="10.6253995"><ele>200.0</ele><time>2026-04-05T10:01:08.75Z</time></trkpt><trkpt lat="43.1594808" lon="10.6254307"><ele>200.0</ele><time>2026-04-05T10:01:10.739Z</time></trkpt><trkpt lat="43.1593586" lon="10.6254084"><ele>200.0</ele><time>2026-04-05T10:01:12.738Z</time></trkpt><trkpt lat="43.1592436" lon="10.6254007"><ele>200.0</ele><time>2026-04-05T10:01:14.731Z</time></trkpt><trkpt lat="43.1591528" lon="10.6254131"><ele>200.0</ele><time>2026-04-05T10:01:16.73Z</time></trkpt><trkpt lat="43.1590874" lon="10.6254874"><ele>200.0</ele><time>2026-04-05T10:01:18.727Z</time></trkpt><trkpt lat="43.1590525" lon="10.6255814"><ele>200.00000000000003</ele><time>2026-04-05T10:01:20.725Z</time></trkpt><trkpt lat="43.1590789" lon="10.6256995"><ele>200.0</ele><time>2026-04-05T10:01:23.727Z</time></trkpt><trkpt lat="43.1591228" lon="10.6257787"><ele>200.0</ele><time>2026-04-05T10:01:25.723Z</time></trkpt><trkpt lat="43.1591655" lon="10.6258528"><ele>200.0</ele><time>2026-04-05T10:01:27.722Z</time></trkpt><trkpt lat="43.1592132" lon="10.6259188"><ele>200.00000000000003</ele><time>2026-04-05T10:01:29.722Z</time></trkpt><trkpt lat="43.1592763" lon="10.6259987"><ele>200.0</ele><time>2026-04-05T10:01:31.714Z</time></trkpt><trkpt lat="43.1593439" lon="10.6260818"><ele>201.0</ele><time>2026-04-05T10:01:33.718Z</time></trkpt><trkpt lat="43.1593598" lon="10.6262137"><ele>202.0</ele><time>2026-04-05T10:01:35.731Z</time></trkpt><trkpt lat="43.1593607" lon="10.6263779"><ele>203.0</ele><time>2026-04-05T10:01:37.732Z</time></trkpt><trkpt lat="43.1593779" lon="10.6264647"><ele>204.0</ele><time>2026-04-05T10:01:38.732Z</time></trkpt><trkpt lat="43.1594233" lon="10.6266134"><ele>205.0</ele><time>2026-04-05T10:01:40.738Z</time></trkpt><trkpt lat="43.1594724" lon="10.6267534"><ele>205.0</ele><time>2026-04-05T10:01:42.739Z</time></trkpt><trkpt lat="43.159514" lon="10.6268758"><ele>205.0</ele><time>2026-04-05T10:01:44.741Z</time></trkpt><trkpt lat="43.1595355" lon="10.6269988"><ele>205.0</ele><time>2026-04-05T10:01:46.745Z</time></trkpt><trkpt lat="43.1595547" lon="10.6271287"><ele>205.0</ele><time>2026-04-05T10:01:48.762Z</time></trkpt><trkpt lat="43.1595491" lon="10.6272726"><ele>205.0</ele><time>2026-04-05T10:01:50.745Z</time></trkpt><trkpt lat="43.1595262" lon="10.6274153"><ele>204.0</ele><time>2026-04-05T10:01:52.743Z</time></trkpt><trkpt lat="43.1594498" lon="10.6275331"><ele>203.0</ele><time>2026-04-05T10:01:54.755Z</time></trkpt><trkpt lat="43.1593573" lon="10.6276221"><ele>202.0</ele><time>2026-04-05T10:01:56.75Z</time></trkpt><trkpt lat="43.1592617" lon="10.6277173"><ele>201.0</ele><time>2026-04-05T10:01:58.744Z</time></trkpt><trkpt lat="43.1591903" lon="10.6278406"><ele>201.4</ele><time>2026-04-05T10:02:00.739Z</time></trkpt><trkpt lat="43.1591169" lon="10.6279553"><ele>201.8</ele><time>2026-04-05T10:02:02.745Z</time></trkpt><trkpt lat="43.159045" lon="10.6280648"><ele>202.20000000000002</ele><time>2026-04-05T10:02:04.743Z</time></trkpt><trkpt lat="43.1589818" lon="10.6281766"><ele>202.60000000000002</ele><time>2026-04-05T10:02:06.734Z</time></trkpt><trkpt lat="43.158922" lon="10.6282953"><ele>203.0</ele><time>2026-04-05T10:02:08.734Z</time></trkpt><trkpt lat="43.1588649" lon="10.6284088"><ele>203.0</ele><time>2026-04-05T10:02:10.735Z</time></trkpt><trkpt lat="43.1587965" lon="10.6285045"><ele>203.0</ele><time>2026-04-05T10:02:12.743Z</time></trkpt><trkpt lat="43.1587078" lon="10.6285668"><ele>203.0</ele><time>2026-04-05T10:02:14.745Z</time></trkpt><trkpt lat="43.1585872" lon="10.628611"><ele>203.0</ele><time>2026-04-05T10:02:16.74Z</time></trkpt><trkpt lat="43.1585231" lon="10.6286362"><ele>203.0</ele><time>2026-04-05T10:02:17.734Z</time></trkpt><trkpt lat="43.1584584" lon="10.6286585"><ele>203.60000000000002</ele><time>2026-04-05T10:02:18.739Z</time></trkpt><trkpt lat="43.1583965" lon="10.6286834"><ele>204.20000000000002</ele><time>2026-04-05T10:02:19.746Z</time></trkpt><trkpt lat="43.158334" lon="10.6286987"><ele>204.8</ele><time>2026-04-05T10:02:20.73Z</time></trkpt><trkpt lat="43.1582159" lon="10.6287241"><ele>205.4</ele><time>2026-04-05T10:02:22.736Z</time></trkpt><trkpt lat="43.1580978" lon="10.6287624"><ele>206.0</ele><time>2026-04-05T10:02:24.733Z</time></trkpt><trkpt lat="43.157988" lon="10.6288106"><ele>206.0</ele><time>2026-04-05T10:02:26.733Z</time></trkpt><trkpt lat="43.1578877" lon="10.6288297"><ele>206.0</ele><time>2026-04-05T10:02:28.732Z</time></trkpt><trkpt lat="43.157783" lon="10.6288756"><ele>206.0</ele><time>2026-04-05T10:02:30.728Z</time></trkpt><trkpt lat="43.1576869" lon="10.6289127"><ele>206.0</ele><time>2026-04-05T10:02:32.729Z</time></trkpt><trkpt lat="43.1576012" lon="10.628934"><ele>206.0</ele><time>2026-04-05T10:02:34.728Z</time></trkpt><trkpt lat="43.1575213" lon="10.6289766"><ele>206.00000000000003</ele><time>2026-04-05T10:02:36.731Z</time></trkpt><trkpt lat="43.1574608" lon="10.629029"><ele>206.0</ele><time>2026-04-05T10:02:38.737Z</time></trkpt><trkpt lat="43.157409" lon="10.6291058"><ele>206.0</ele><time>2026-04-05T10:02:42.741Z</time></trkpt><trkpt lat="43.1573906" lon="10.6291979"><ele>206.0</ele><time>2026-04-05T10:02:45.73Z</time></trkpt><trkpt lat="43.1574253" lon="10.6292829"><ele>206.00000000000003</ele><time>2026-04-05T10:02:50.739Z</time></trkpt><trkpt lat="43.1574878" lon="10.6293009"><ele>206.0</ele><time>2026-04-05T10:02:53.718Z</time></trkpt><trkpt lat="43.1575874" lon="10.6293266"><ele>206.0</ele><time>2026-04-05T10:02:56.731Z</time></trkpt><trkpt lat="43.1576811" lon="10.6293504"><ele>206.0</ele><time>2026-04-05T10:02:58.729Z</time></trkpt><trkpt lat="43.1577789" lon="10.6293738"><ele>206.0</ele><time>2026-04-05T10:03:00.733Z</time></trkpt><trkpt lat="43.1578742" lon="10.6294025"><ele>206.0</ele><time>2026-04-05T10:03:02.737Z</time></trkpt><trkpt lat="43.1579606" lon="10.629433"><ele>206.0</ele><time>2026-04-05T10:03:04.727Z</time></trkpt><trkpt lat="43.1580472" lon="10.6294656"><ele>205.8</ele><time>2026-04-05T10:03:06.728Z</time></trkpt><trkpt lat="43.1581456" lon="10.6295099"><ele>205.60000000000002</ele><time>2026-04-05T10:03:08.723Z</time></trkpt><trkpt lat="43.1582372" lon="10.6295519"><ele>205.4</ele><time>2026-04-05T10:03:10.728Z</time></trkpt><trkpt lat="43.1583347" lon="10.6296024"><ele>205.2</ele><time>2026-04-05T10:03:12.73Z</time></trkpt><trkpt lat="43.1584313" lon="10.6296346"><ele>205.0</ele><time>2026-04-05T10:03:14.733Z</time></trkpt><trkpt lat="43.1585218" lon="10.629689"><ele>205.0</ele><time>2026-04-05T10:03:16.736Z</time></trkpt><trkpt lat="43.158611" lon="10.6297401"><ele>205.0</ele><time>2026-04-05T10:03:18.737Z</time></trkpt><trkpt lat="43.1587107" lon="10.6297904"><ele>205.0</ele><time>2026-04-05T10:03:20.723Z</time></trkpt><trkpt lat="43.1587794" lon="10.6297989"><ele>205.0</ele><time>2026-04-05T10:03:22.723Z</time></trkpt><trkpt lat="43.1588684" lon="10.6297952"><ele>205.0</ele><time>2026-04-05T10:03:24.738Z</time></trkpt><trkpt lat="43.1589389" lon="10.6299111"><ele>204.99999999999997</ele><time>2026-04-05T10:03:26.749Z</time></trkpt><trkpt lat="43.1589617" lon="10.6300177"><ele>205.0</ele><time>2026-04-05T10:03:27.738Z</time></trkpt><trkpt lat="43.1589797" lon="10.6301455"><ele>205.0</ele><time>2026-04-05T10:03:28.742Z</time></trkpt><trkpt lat="43.158994" lon="10.6302682"><ele>205.0</ele><time>2026-04-05T10:03:29.731Z</time></trkpt><trkpt lat="43.1590087" lon="10.6303771"><ele>204.99999999999997</ele><time>2026-04-05T10:03:30.733Z</time></trkpt><trkpt lat="43.1590204" lon="10.6304746"><ele>205.0</ele><time>2026-04-05T10:03:31.74Z</time></trkpt><trkpt lat="43.1590313" lon="10.630561"><ele>206.75</ele><time>2026-04-05T10:03:32.741Z</time></trkpt><trkpt lat="43.1590316" lon="10.6307234"><ele>208.5</ele><time>2026-04-05T10:03:34.745Z</time></trkpt><trkpt lat="43.1589957" lon="10.6308828"><ele>210.25</ele><time>2026-04-05T10:03:36.739Z</time></trkpt><trkpt lat="43.1589314" lon="10.6310173"><ele>212.0</ele><time>2026-04-05T10:03:38.749Z</time></trkpt><trkpt lat="43.1588391" lon="10.6311141"><ele>209.83333333333334</ele><time>2026-04-05T10:03:40.753Z</time></trkpt><trkpt lat="43.1587788" lon="10.6311463"><ele>207.66666666666669</ele><time>2026-04-05T10:03:41.751Z</time></trkpt><trkpt lat="43.1587152" lon="10.6311734"><ele>205.5</ele><time>2026-04-05T10:03:42.754Z</time></trkpt><trkpt lat="43.1586469" lon="10.6311979"><ele>203.33333333333331</ele><time>2026-04-05T10:03:43.754Z</time></trkpt><trkpt lat="43.1585823" lon="10.6312152"><ele>201.16666666666666</ele><time>2026-04-05T10:03:44.749Z</time></trkpt><trkpt lat="43.1585186" lon="10.631227"><ele>199.0</ele><time>2026-04-05T10:03:45.744Z</time></trkpt><trkpt lat="43.1584049" lon="10.6312683"><ele>198.99999999999997</ele><time>2026-04-05T10:03:47.743Z</time></trkpt><trkpt lat="43.1583307" lon="10.6313278"><ele>199.0</ele><time>2026-04-05T10:03:49.732Z</time></trkpt><trkpt lat="43.1582795" lon="10.631424"><ele>199.0</ele><time>2026-04-05T10:03:51.733Z</time></trkpt><trkpt lat="43.1582792" lon="10.6315439"><ele>199.0</ele><time>2026-04-05T10:03:53.722Z</time></trkpt><trkpt lat="43.1582723" lon="10.631669"><ele>198.99999999999997</ele><time>2026-04-05T10:03:55.727Z</time></trkpt><trkpt lat="43.1582705" lon="10.6317965"><ele>199.0</ele><time>2026-04-05T10:03:57.728Z</time></trkpt><trkpt lat="43.1582538" lon="10.6319281"><ele>195.79999999999998</ele><time>2026-04-05T10:03:59.724Z</time></trkpt><trkpt lat="43.1582199" lon="10.632058"><ele>192.6</ele><time>2026-04-05T10:04:01.731Z</time></trkpt><trkpt lat="43.1581851" lon="10.6321904"><ele>189.4</ele><time>2026-04-05T10:04:03.734Z</time></trkpt><trkpt lat="43.1581483" lon="10.6323143"><ele>186.2</ele><time>2026-04-05T10:04:05.733Z</time></trkpt><trkpt lat="43.1581083" lon="10.6324324"><ele>183.0</ele><time>2026-04-05T10:04:07.736Z</time></trkpt><trkpt lat="43.1580735" lon="10.6325594"><ele>188.4</ele><time>2026-04-05T10:04:09.737Z</time></trkpt><trkpt lat="43.1580589" lon="10.6326891"><ele>193.8</ele><time>2026-04-05T10:04:11.732Z</time></trkpt><trkpt lat="43.1580467" lon="10.6328216"><ele>199.2</ele><time>2026-04-05T10:04:13.733Z</time></trkpt><trkpt lat="43.1580281" lon="10.632943"><ele>204.6</ele><time>2026-04-05T10:04:15.733Z</time></trkpt><trkpt lat="43.1580226" lon="10.6330655"><ele>210.0</ele><time>2026-04-05T10:04:17.729Z</time></trkpt><trkpt lat="43.1580112" lon="10.6331934"><ele>210.0</ele><time>2026-04-05T10:04:19.734Z</time></trkpt><trkpt lat="43.1579873" lon="10.6333156"><ele>210.0</ele><time>2026-04-05T10:04:21.735Z</time></trkpt><trkpt lat="43.1579444" lon="10.6334211"><ele>210.0</ele><time>2026-04-05T10:04:23.757Z</time></trkpt><trkpt lat="43.1578676" lon="10.6335026"><ele>210.0</ele><time>2026-04-05T10:04:25.747Z</time></trkpt><trkpt lat="43.1577689" lon="10.6335709"><ele>210.0</ele><time>2026-04-05T10:04:27.747Z</time></trkpt><trkpt lat="43.1576528" lon="10.6336341"><ele>211.85714285714286</ele><time>2026-04-05T10:04:29.744Z</time></trkpt><trkpt lat="43.1575872" lon="10.6336582"><ele>213.71428571428572</ele><time>2026-04-05T10:04:30.742Z</time></trkpt><trkpt lat="43.1575221" lon="10.6336797"><ele>215.57142857142856</ele><time>2026-04-05T10:04:31.74Z</time></trkpt><trkpt lat="43.1574576" lon="10.6337045"><ele>217.42857142857144</ele><time>2026-04-05T10:04:32.739Z</time></trkpt><trkpt lat="43.1573921" lon="10.6337299"><ele>219.28571428571428</ele><time>2026-04-05T10:04:33.731Z</time></trkpt><trkpt lat="43.1573273" lon="10.6337536"><ele>221.14285714285714</ele><time>2026-04-05T10:04:34.734Z</time></trkpt><trkpt lat="43.1572637" lon="10.6337684"><ele>223.0</ele><time>2026-04-05T10:04:35.737Z</time></trkpt><trkpt lat="43.1571459" lon="10.6337637"><ele>222.99999999999997</ele><time>2026-04-05T10:04:37.736Z</time></trkpt><trkpt lat="43.1570382" lon="10.6337402"><ele>223.0</ele><time>2026-04-05T10:04:39.735Z</time></trkpt><trkpt lat="43.1569385" lon="10.6337362"><ele>223.0</ele><time>2026-04-05T10:04:41.724Z</time></trkpt><trkpt lat="43.1568555" lon="10.6337651"><ele>223.0</ele><time>2026-04-05T10:04:43.721Z</time></trkpt><trkpt lat="43.1568135" lon="10.6338304"><ele>222.99999999999997</ele><time>2026-04-05T10:04:45.729Z</time></trkpt><trkpt lat="43.1568208" lon="10.6339238"><ele>223.0</ele><time>2026-04-05T10:04:47.716Z</time></trkpt><trkpt lat="43.1568623" lon="10.6340186"><ele>223.0</ele><time>2026-04-05T10:04:49.723Z</time></trkpt><trkpt lat="43.1569167" lon="10.6341121"><ele>223.0</ele><time>2026-04-05T10:04:51.711Z</time></trkpt><trkpt lat="43.1569637" lon="10.6342301"><ele>223.0</ele><time>2026-04-05T10:04:53.715Z</time></trkpt><trkpt lat="43.156994" lon="10.6343623"><ele>223.0</ele><time>2026-04-05T10:04:55.718Z</time></trkpt><trkpt lat="43.157004" lon="10.6345005"><ele>223.0</ele><time>2026-04-05T10:04:57.71Z</time></trkpt><trkpt lat="43.1569947" lon="10.6346286"><ele>220.16666666666666</ele><time>2026-04-05T10:04:59.717Z</time></trkpt><trkpt lat="43.1569847" lon="10.6347475"><ele>217.33333333333331</ele><time>2026-04-05T10:05:01.719Z</time></trkpt><trkpt lat="43.1569555" lon="10.6348679"><ele>214.5</ele><time>2026-04-05T10:05:03.724Z</time></trkpt><trkpt lat="43.156909" lon="10.6349727"><ele>211.66666666666669</ele><time>2026-04-05T10:05:05.724Z</time></trkpt><trkpt lat="43.1568448" lon="10.6350491"><ele>208.83333333333334</ele><time>2026-04-05T10:05:07.725Z</time></trkpt><trkpt lat="43.1567698" lon="10.6351177"><ele>206.0</ele><time>2026-04-05T10:05:09.721Z</time></trkpt><trkpt lat="43.1566797" lon="10.6351816"><ele>206.0</ele><time>2026-04-05T10:05:11.722Z</time></trkpt><trkpt lat="43.1565954" lon="10.6352492"><ele>206.0</ele><time>2026-04-05T10:05:13.725Z</time></trkpt><trkpt lat="43.1565131" lon="10.635316"><ele>206.0</ele><time>2026-04-05T10:05:15.725Z</time></trkpt><trkpt lat="43.1564467" lon="10.6353979"><ele>206.0</ele><time>2026-04-05T10:05:17.724Z</time></trkpt><trkpt lat="43.1563716" lon="10.6354752"><ele>206.0</ele><time>2026-04-05T10:05:19.726Z</time></trkpt><trkpt lat="43.1562827" lon="10.6355398"><ele>209.0</ele><time>2026-04-05T10:05:21.725Z</time></trkpt><trkpt lat="43.1561979" lon="10.6356131"><ele>212.0</ele><time>2026-04-05T10:05:23.724Z</time></trkpt><trkpt lat="43.1561277" lon="10.6356876"><ele>215.00000000000003</ele><time>2026-04-05T10:05:25.743Z</time></trkpt><trkpt lat="43.1560608" lon="10.6357724"><ele>218.0</ele><time>2026-04-05T10:05:27.725Z</time></trkpt><trkpt lat="43.1559899" lon="10.6358512"><ele>221.0</ele><time>2026-04-05T10:05:29.722Z</time></trkpt><trkpt lat="43.1559341" lon="10.6359304"><ele>221.00000000000003</ele><time>2026-04-05T10:05:31.717Z</time></trkpt><trkpt lat="43.1558942" lon="10.6360151"><ele>221.0</ele><time>2026-04-05T10:05:33.719Z</time></trkpt><trkpt lat="43.1558552" lon="10.6361238"><ele>221.0</ele><time>2026-04-05T10:05:35.714Z</time></trkpt><trkpt lat="43.155829" lon="10.6362318"><ele>221.0</ele><time>2026-04-05T10:05:37.708Z</time></trkpt><trkpt lat="43.1557996" lon="10.6363424"><ele>221.00000000000003</ele><time>2026-04-05T10:05:39.711Z</time></trkpt><trkpt lat="43.1557516" lon="10.6364518"><ele>221.0</ele><time>2026-04-05T10:05:41.712Z</time></trkpt><trkpt lat="43.1556882" lon="10.636558"><ele>220.83333333333334</ele><time>2026-04-05T10:05:43.713Z</time></trkpt><trkpt lat="43.1556237" lon="10.6366479"><ele>220.66666666666669</ele><time>2026-04-05T10:05:45.714Z</time></trkpt><trkpt lat="43.1555588" lon="10.6367228"><ele>220.5</ele><time>2026-04-05T10:05:47.718Z</time></trkpt><trkpt lat="43.1554857" lon="10.6368029"><ele>220.33333333333331</ele><time>2026-04-05T10:05:49.717Z</time></trkpt><trkpt lat="43.1554141" lon="10.6368768"><ele>220.16666666666666</ele><time>2026-04-05T10:05:51.716Z</time></trkpt><trkpt lat="43.1553562" lon="10.6369633"><ele>220.0</ele><time>2026-04-05T10:05:53.714Z</time></trkpt><trkpt lat="43.1553029" lon="10.6370558"><ele>219.99999999999997</ele><time>2026-04-05T10:05:55.709Z</time></trkpt><trkpt lat="43.1552591" lon="10.6371607"><ele>220.0</ele><time>2026-04-05T10:05:57.706Z</time></trkpt><trkpt lat="43.1552262" lon="10.6372557"><ele>220.0</ele><time>2026-04-05T10:05:59.709Z</time></trkpt><trkpt lat="43.1551711" lon="10.6373438"><ele>220.0</ele><time>2026-04-05T10:06:01.706Z</time></trkpt><trkpt lat="43.1551349" lon="10.6374547"><ele>219.99999999999997</ele><time>2026-04-05T10:06:03.7Z</time></trkpt><trkpt lat="43.1551239" lon="10.6375765"><ele>220.0</ele><time>2026-04-05T10:06:05.709Z</time></trkpt><trkpt lat="43.1551073" lon="10.6376853"><ele>220.0</ele><time>2026-04-05T10:06:07.718Z</time></trkpt><trkpt lat="43.15505" lon="10.637767"><ele>220.0</ele><time>2026-04-05T10:06:09.713Z</time></trkpt><trkpt lat="43.1549658" lon="10.6378615"><ele>220.0</ele><time>2026-04-05T10:06:11.718Z</time></trkpt><trkpt lat="43.1548723" lon="10.6379486"><ele>220.0</ele><time>2026-04-05T10:06:13.728Z</time></trkpt><trkpt lat="43.1547848" lon="10.6380244"><ele>220.0</ele><time>2026-04-05T10:06:15.724Z</time></trkpt><trkpt lat="43.1547039" lon="10.6380874"><ele>220.83333333333331</ele><time>2026-04-05T10:06:17.725Z</time></trkpt><trkpt lat="43.1546395" lon="10.6381619"><ele>221.66666666666666</ele><time>2026-04-05T10:06:19.717Z</time></trkpt><trkpt lat="43.1545739" lon="10.638235"><ele>222.5</ele><time>2026-04-05T10:06:21.723Z</time></trkpt><trkpt lat="43.1544918" lon="10.6383049"><ele>223.33333333333331</ele><time>2026-04-05T10:06:23.727Z</time></trkpt><trkpt lat="43.1544145" lon="10.6383782"><ele>224.16666666666666</ele><time>2026-04-05T10:06:25.719Z</time></trkpt><trkpt lat="43.1543426" lon="10.6384522"><ele>225.0</ele><time>2026-04-05T10:06:27.742Z</time></trkpt><trkpt lat="43.1542771" lon="10.6385201"><ele>225.0</ele><time>2026-04-05T10:06:29.728Z</time></trkpt><trkpt lat="43.1542153" lon="10.6386023"><ele>225.0</ele><time>2026-04-05T10:06:31.731Z</time></trkpt><trkpt lat="43.1541558" lon="10.6386819"><ele>225.0</ele><time>2026-04-05T10:06:33.719Z</time></trkpt><trkpt lat="43.1540921" lon="10.6387714"><ele>225.0</ele><time>2026-04-05T10:06:35.718Z</time></trkpt><trkpt lat="43.1540541" lon="10.6388455"><ele>225.0</ele><time>2026-04-05T10:06:37.718Z</time></trkpt><trkpt lat="43.1539966" lon="10.6389094"><ele>225.0</ele><time>2026-04-05T10:06:39.716Z</time></trkpt><trkpt lat="43.1539277" lon="10.6389881"><ele>224.0</ele><time>2026-04-05T10:06:41.72Z</time></trkpt><trkpt lat="43.1538511" lon="10.6390537"><ele>223.0</ele><time>2026-04-05T10:06:43.722Z</time></trkpt><trkpt lat="43.1537585" lon="10.6391155"><ele>222.0</ele><time>2026-04-05T10:06:45.714Z</time></trkpt><trkpt lat="43.1536516" lon="10.6391958"><ele>221.0</ele><time>2026-04-05T10:06:47.726Z</time></trkpt><trkpt lat="43.1535412" lon="10.6392571"><ele>220.0</ele><time>2026-04-05T10:06:49.722Z</time></trkpt><trkpt lat="43.1534325" lon="10.6393089"><ele>220.0</ele><time>2026-04-05T10:06:51.715Z</time></trkpt><trkpt lat="43.1533349" lon="10.6393755"><ele>220.0</ele><time>2026-04-05T10:06:53.708Z</time></trkpt><trkpt lat="43.1532355" lon="10.6394221"><ele>220.0</ele><time>2026-04-05T10:06:55.724Z</time></trkpt><trkpt lat="43.1531465" lon="10.6394638"><ele>220.0</ele><time>2026-04-05T10:06:57.718Z</time></trkpt><trkpt lat="43.1530584" lon="10.6394964"><ele>220.0</ele><time>2026-04-05T10:06:59.718Z</time></trkpt><trkpt lat="43.1529972" lon="10.639548"><ele>219.83333333333331</ele><time>2026-04-05T10:07:01.72Z</time></trkpt><trkpt lat="43.152965" lon="10.6396353"><ele>219.66666666666666</ele><time>2026-04-05T10:07:03.721Z</time></trkpt><trkpt lat="43.1529435" lon="10.639754"><ele>219.5</ele><time>2026-04-05T10:07:06.721Z</time></trkpt><trkpt lat="43.1529079" lon="10.6398576"><ele>219.33333333333331</ele><time>2026-04-05T10:07:09.724Z</time></trkpt><trkpt lat="43.1528471" lon="10.639957"><ele>219.16666666666666</ele><time>2026-04-05T10:07:12.716Z</time></trkpt><trkpt lat="43.1527963" lon="10.6400399"><ele>219.0</ele><time>2026-04-05T10:07:14.722Z</time></trkpt><trkpt lat="43.1527358" lon="10.6401006"><ele>219.0</ele><time>2026-04-05T10:07:16.723Z</time></trkpt><trkpt lat="43.1526584" lon="10.6401144"><ele>219.0</ele><time>2026-04-05T10:07:18.723Z</time></trkpt><trkpt lat="43.1525702" lon="10.6400986"><ele>219.0</ele><time>2026-04-05T10:07:20.724Z</time></trkpt><trkpt lat="43.1524891" lon="10.6400862"><ele>219.0</ele><time>2026-04-05T10:07:22.724Z</time></trkpt><trkpt lat="43.1524188" lon="10.6400695"><ele>219.0</ele><time>2026-04-05T10:07:24.724Z</time></trkpt><trkpt lat="43.1523344" lon="10.6400565"><ele>219.0</ele><time>2026-04-05T10:07:27.724Z</time></trkpt><trkpt lat="43.1522699" lon="10.6400381"><ele>219.85714285714286</ele><time>2026-04-05T10:07:29.743Z</time></trkpt><trkpt lat="43.1521936" lon="10.6400291"><ele>220.71428571428572</ele><time>2026-04-05T10:07:31.723Z</time></trkpt><trkpt lat="43.1521185" lon="10.6400235"><ele>221.57142857142858</ele><time>2026-04-05T10:07:33.727Z</time></trkpt><trkpt lat="43.1520444" lon="10.6400161"><ele>222.42857142857144</ele><time>2026-04-05T10:07:35.727Z</time></trkpt><trkpt lat="43.1519757" lon="10.6400109"><ele>223.28571428571428</ele><time>2026-04-05T10:07:37.727Z</time></trkpt><trkpt lat="43.1519014" lon="10.6400207"><ele>224.14285714285717</ele><time>2026-04-05T10:07:39.727Z</time></trkpt><trkpt lat="43.1518273" lon="10.6400485"><ele>225.00000000000003</ele><time>2026-04-05T10:07:41.729Z</time></trkpt><trkpt lat="43.1517611" lon="10.6400836"><ele>225.0</ele><time>2026-04-05T10:07:43.73Z</time></trkpt><trkpt lat="43.1516783" lon="10.640115"><ele>225.0</ele><time>2026-04-05T10:07:46.736Z</time></trkpt><trkpt lat="43.1515961" lon="10.6401646"><ele>225.0</ele><time>2026-04-05T10:07:49.722Z</time></trkpt><trkpt lat="43.1515147" lon="10.6402216"><ele>225.0</ele><time>2026-04-05T10:07:52.723Z</time></trkpt><trkpt lat="43.1514335" lon="10.6402813"><ele>225.0</ele><time>2026-04-05T10:07:55.722Z</time></trkpt><trkpt lat="43.1513527" lon="10.6403462"><ele>226.8571428571429</ele><time>2026-04-05T10:07:58.717Z</time></trkpt><trkpt lat="43.1512912" lon="10.6403881"><ele>228.71428571428572</ele><time>2026-04-05T10:08:00.734Z</time></trkpt><trkpt lat="43.151225" lon="10.640432"><ele>230.57142857142858</ele><time>2026-04-05T10:08:02.716Z</time></trkpt><trkpt lat="43.1511641" lon="10.6404593"><ele>232.42857142857144</ele><time>2026-04-05T10:08:04.718Z</time></trkpt><trkpt lat="43.1511042" lon="10.6405023"><ele>234.28571428571428</ele><time>2026-04-05T10:08:06.718Z</time></trkpt><trkpt lat="43.1510371" lon="10.6405409"><ele>236.14285714285714</ele><time>2026-04-05T10:08:08.72Z</time></trkpt><trkpt lat="43.1509701" lon="10.640568"><ele>238.0</ele><time>2026-04-05T10:08:10.722Z</time></trkpt><trkpt lat="43.1508961" lon="10.6405975"><ele>237.99999999999997</ele><time>2026-04-05T10:08:12.724Z</time></trkpt><trkpt lat="43.1508298" lon="10.6406324"><ele>238.0</ele><time>2026-04-05T10:08:14.724Z</time></trkpt><trkpt lat="43.150764" lon="10.6406723"><ele>238.0</ele><time>2026-04-05T10:08:16.723Z</time></trkpt><trkpt lat="43.1507009" lon="10.6407081"><ele>238.0</ele><time>2026-04-05T10:08:18.723Z</time></trkpt><trkpt lat="43.1506401" lon="10.640744"><ele>237.99999999999997</ele><time>2026-04-05T10:08:20.723Z</time></trkpt><trkpt lat="43.150567" lon="10.6407975"><ele>238.0</ele><time>2026-04-05T10:08:23.72Z</time></trkpt><trkpt lat="43.1504809" lon="10.6408665"><ele>238.0</ele><time>2026-04-05T10:08:26.718Z</time></trkpt><trkpt lat="43.1504338" lon="10.6409307"><ele>238.0</ele><time>2026-04-05T10:08:28.723Z</time></trkpt><trkpt lat="43.1503816" lon="10.6409932"><ele>238.0</ele><time>2026-04-05T10:08:30.722Z</time></trkpt><trkpt lat="43.1503298" lon="10.6410505"><ele>238.0</ele><time>2026-04-05T10:08:32.72Z</time></trkpt><trkpt lat="43.1502594" lon="10.641128"><ele>238.0</ele><time>2026-04-05T10:08:35.718Z</time></trkpt><trkpt lat="43.1501998" lon="10.6412098"><ele>238.0</ele><time>2026-04-05T10:08:38.72Z</time></trkpt><trkpt lat="43.1501762" lon="10.6412938"><ele>238.0</ele><time>2026-04-05T10:08:40.716Z</time></trkpt><trkpt lat="43.1501569" lon="10.6414145"><ele>237.99999999999997</ele><time>2026-04-05T10:08:43.723Z</time></trkpt><trkpt lat="43.1501339" lon="10.6415298"><ele>238.0</ele><time>2026-04-05T10:08:46.721Z</time></trkpt><trkpt lat="43.150109" lon="10.6416473"><ele>238.0</ele><time>2026-04-05T10:08:48.717Z</time></trkpt><trkpt lat="43.1500807" lon="10.641749"><ele>238.0</ele><time>2026-04-05T10:08:50.729Z</time></trkpt><trkpt lat="43.1500465" lon="10.6418407"><ele>237.99999999999997</ele><time>2026-04-05T10:08:52.724Z</time></trkpt><trkpt lat="43.1499842" lon="10.6418903"><ele>238.0</ele><time>2026-04-05T10:08:54.723Z</time></trkpt><trkpt lat="43.1499031" lon="10.6419096"><ele>236.49999999999997</ele><time>2026-04-05T10:08:56.721Z</time></trkpt><trkpt lat="43.1498231" lon="10.6419104"><ele>235.0</ele><time>2026-04-05T10:08:58.725Z</time></trkpt><trkpt lat="43.1497501" lon="10.6419252"><ele>233.5</ele><time>2026-04-05T10:09:00.728Z</time></trkpt><trkpt lat="43.1496695" lon="10.6419494"><ele>232.0</ele><time>2026-04-05T10:09:02.747Z</time></trkpt><trkpt lat="43.1495972" lon="10.6419924"><ele>230.49999999999997</ele><time>2026-04-05T10:09:04.723Z</time></trkpt><trkpt lat="43.149534" lon="10.6420496"><ele>229.0</ele><time>2026-04-05T10:09:06.729Z</time></trkpt><trkpt lat="43.1494705" lon="10.6420874"><ele>231.99999999999997</ele><time>2026-04-05T10:09:08.719Z</time></trkpt><trkpt lat="43.1494041" lon="10.6421174"><ele>235.0</ele><time>2026-04-05T10:09:10.719Z</time></trkpt><trkpt lat="43.1493391" lon="10.6421536"><ele>238.0</ele><time>2026-04-05T10:09:12.72Z</time></trkpt><trkpt lat="43.1492784" lon="10.6422174"><ele>241.0</ele><time>2026-04-05T10:09:14.718Z</time></trkpt><trkpt lat="43.1491811" lon="10.6422469"><ele>243.99999999999997</ele><time>2026-04-05T10:09:17.724Z</time></trkpt><trkpt lat="43.1491327" lon="10.6423235"><ele>247.0</ele><time>2026-04-05T10:09:21.728Z</time></trkpt><trkpt lat="43.1491205" lon="10.6424238"><ele>247.0</ele><time>2026-04-05T10:09:24.725Z</time></trkpt><trkpt lat="43.1491083" lon="10.6425087"><ele>247.0</ele><time>2026-04-05T10:09:26.727Z</time></trkpt><trkpt lat="43.1491065" lon="10.6426107"><ele>247.0</ele><time>2026-04-05T10:09:28.727Z</time></trkpt><trkpt lat="43.1491046" lon="10.6427216"><ele>247.0</ele><time>2026-04-05T10:09:30.726Z</time></trkpt><trkpt lat="43.1491026" lon="10.6428147"><ele>247.0</ele><time>2026-04-05T10:09:32.723Z</time></trkpt><trkpt lat="43.1490917" lon="10.6429099"><ele>247.0</ele><time>2026-04-05T10:09:35.722Z</time></trkpt><trkpt lat="43.1490566" lon="10.6430266"><ele>247.0</ele><time>2026-04-05T10:09:38.722Z</time></trkpt><trkpt lat="43.1490484" lon="10.6431591"><ele>250.49999999999997</ele><time>2026-04-05T10:09:41.721Z</time></trkpt><trkpt lat="43.1490422" lon="10.6432693"><ele>254.0</ele><time>2026-04-05T10:09:44.719Z</time></trkpt><trkpt lat="43.1490319" lon="10.6433822"><ele>257.5</ele><time>2026-04-05T10:09:46.72Z</time></trkpt><trkpt lat="43.1490213" lon="10.6434955"><ele>261.0</ele><time>2026-04-05T10:09:48.721Z</time></trkpt><trkpt lat="43.1490128" lon="10.6436211"><ele>264.5</ele><time>2026-04-05T10:09:50.72Z</time></trkpt><trkpt lat="43.1489951" lon="10.6437278"><ele>268.0</ele><time>2026-04-05T10:09:52.718Z</time></trkpt><trkpt lat="43.1489616" lon="10.6438141"><ele>268.0</ele><time>2026-04-05T10:09:54.715Z</time></trkpt><trkpt lat="43.1488875" lon="10.6438591"><ele>268.0</ele><time>2026-04-05T10:09:57.719Z</time></trkpt><trkpt lat="43.1487819" lon="10.6438123"><ele>268.0</ele><time>2026-04-05T10:09:59.71Z</time></trkpt><trkpt lat="43.1487015" lon="10.6437058"><ele>268.0</ele><time>2026-04-05T10:10:01.721Z</time></trkpt><trkpt lat="43.1486438" lon="10.6435976"><ele>268.0</ele><time>2026-04-05T10:10:03.718Z</time></trkpt><trkpt lat="43.1485881" lon="10.6435066"><ele>268.0</ele><time>2026-04-05T10:10:05.714Z</time></trkpt><trkpt lat="43.1485463" lon="10.6434378"><ele>268.0</ele><time>2026-04-05T10:10:07.725Z</time></trkpt><trkpt lat="43.1485023" lon="10.6433296"><ele>268.0</ele><time>2026-04-05T10:10:10.725Z</time></trkpt><trkpt lat="43.1484784" lon="10.6432479"><ele>268.0</ele><time>2026-04-05T10:10:12.724Z</time></trkpt><trkpt lat="43.1484383" lon="10.6431297"><ele>268.0</ele><time>2026-04-05T10:10:15.725Z</time></trkpt><trkpt lat="43.1484197" lon="10.6430313"><ele>268.0</ele><time>2026-04-05T10:10:17.723Z</time></trkpt><trkpt lat="43.1484034" lon="10.6429273"><ele>268.0</ele><time>2026-04-05T10:10:19.718Z</time></trkpt><trkpt lat="43.1483916" lon="10.6428382"><ele>268.0</ele><time>2026-04-05T10:10:21.723Z</time></trkpt><trkpt lat="43.1483703" lon="10.6427545"><ele>268.0</ele><time>2026-04-05T10:10:23.728Z</time></trkpt><trkpt lat="43.1483503" lon="10.6426699"><ele>268.0</ele><time>2026-04-05T10:10:25.726Z</time></trkpt><trkpt lat="43.1482936" lon="10.6425762"><ele>268.0</ele><time>2026-04-05T10:10:28.715Z</time></trkpt><trkpt lat="43.1482211" lon="10.642519"><ele>268.0</ele><time>2026-04-05T10:10:31.719Z</time></trkpt><trkpt lat="43.1481428" lon="10.6424701"><ele>268.66666666666663</ele><time>2026-04-05T10:10:34.728Z</time></trkpt><trkpt lat="43.1480681" lon="10.6424693"><ele>269.3333333333333</ele><time>2026-04-05T10:10:36.732Z</time></trkpt><trkpt lat="43.1480023" lon="10.6424946"><ele>270.0</ele><time>2026-04-05T10:10:38.738Z</time></trkpt><trkpt lat="43.1479429" lon="10.6425421"><ele>270.6666666666667</ele><time>2026-04-05T10:10:40.738Z</time></trkpt><trkpt lat="43.1478866" lon="10.6426312"><ele>271.33333333333337</ele><time>2026-04-05T10:10:43.738Z</time></trkpt><trkpt lat="43.1478444" lon="10.6427298"><ele>272.0</ele><time>2026-04-05T10:10:47.741Z</time></trkpt><trkpt lat="43.1477966" lon="10.6428245"><ele>272.0</ele><time>2026-04-05T10:10:51.738Z</time></trkpt><trkpt lat="43.1477475" lon="10.642898"><ele>272.0</ele><time>2026-04-05T10:10:53.735Z</time></trkpt><trkpt lat="43.1476821" lon="10.6429826"><ele>272.0</ele><time>2026-04-05T10:10:56.734Z</time></trkpt><trkpt lat="43.1476261" lon="10.643057"><ele>272.0</ele><time>2026-04-05T10:10:59.73Z</time></trkpt><trkpt lat="43.1475814" lon="10.6431465"><ele>272.0</ele><time>2026-04-05T10:11:02.732Z</time></trkpt><trkpt lat="43.1475183" lon="10.6432114"><ele>272.0</ele><time>2026-04-05T10:11:05.726Z</time></trkpt><trkpt lat="43.1474392" lon="10.6432817"><ele>271.5</ele><time>2026-04-05T10:11:08.729Z</time></trkpt><trkpt lat="43.147356" lon="10.6433572"><ele>271.0</ele><time>2026-04-05T10:11:10.722Z</time></trkpt><trkpt lat="43.1472758" lon="10.6433948"><ele>270.5</ele><time>2026-04-05T10:11:12.732Z</time></trkpt><trkpt lat="43.1472026" lon="10.6434237"><ele>270.0</ele><time>2026-04-05T10:11:14.725Z</time></trkpt><trkpt lat="43.1471401" lon="10.6434932"><ele>269.5</ele><time>2026-04-05T10:11:16.722Z</time></trkpt><trkpt lat="43.1470794" lon="10.6435499"><ele>269.0</ele><time>2026-04-05T10:11:18.732Z</time></trkpt><trkpt lat="43.1470371" lon="10.6436199"><ele>270.57142857142856</ele><time>2026-04-05T10:11:20.722Z</time></trkpt><trkpt lat="43.1469886" lon="10.6437155"><ele>272.14285714285717</ele><time>2026-04-05T10:11:23.72Z</time></trkpt><trkpt lat="43.1469298" lon="10.6437619"><ele>273.7142857142857</ele><time>2026-04-05T10:11:25.715Z</time></trkpt><trkpt lat="43.1468777" lon="10.6438288"><ele>275.2857142857143</ele><time>2026-04-05T10:11:27.718Z</time></trkpt><trkpt lat="43.146833" lon="10.6439059"><ele>276.8571428571429</ele><time>2026-04-05T10:11:30.711Z</time></trkpt><trkpt lat="43.1467796" lon="10.6439519"><ele>278.42857142857144</ele><time>2026-04-05T10:11:32.719Z</time></trkpt><trkpt lat="43.1467401" lon="10.6440508"><ele>280.0</ele><time>2026-04-05T10:11:35.721Z</time></trkpt><trkpt lat="43.1467193" lon="10.6441477"><ele>280.0</ele><time>2026-04-05T10:11:37.727Z</time></trkpt><trkpt lat="43.1466959" lon="10.6442684"><ele>280.0</ele><time>2026-04-05T10:11:39.695Z</time></trkpt><trkpt lat="43.1466165" lon="10.6443405"><ele>280.0</ele><time>2026-04-05T10:11:41.711Z</time></trkpt><trkpt lat="43.1465385" lon="10.6443808"><ele>280.0</ele><time>2026-04-05T10:11:43.706Z</time></trkpt><trkpt lat="43.1464735" lon="10.6444243"><ele>280.0</ele><time>2026-04-05T10:11:45.705Z</time></trkpt><trkpt lat="43.1464456" lon="10.6443216"><ele>280.0</ele><time>2026-04-05T10:11:48.711Z</time></trkpt><trkpt lat="43.1464322" lon="10.6442032"><ele>280.0</ele><time>2026-04-05T10:11:50.69Z</time></trkpt><trkpt lat="43.146495" lon="10.6440549"><ele>280.0</ele><time>2026-04-05T10:11:52.705Z</time></trkpt><trkpt lat="43.1465222" lon="10.643969"><ele>280.0</ele><time>2026-04-05T10:11:53.693Z</time></trkpt><trkpt lat="43.1465486" lon="10.6438837"><ele>280.0</ele><time>2026-04-05T10:11:55.714Z</time></trkpt><trkpt lat="43.1465759" lon="10.6437982"><ele>280.0</ele><time>2026-04-05T10:11:58.704Z</time></trkpt><trkpt lat="43.1465854" lon="10.6436932"><ele>280.0</ele><time>2026-04-05T10:12:00.712Z</time></trkpt><trkpt lat="43.1465149" lon="10.6436049"><ele>280.3333333333333</ele><time>2026-04-05T10:12:02.718Z</time></trkpt><trkpt lat="43.146467" lon="10.643506"><ele>280.66666666666663</ele><time>2026-04-05T10:12:04.719Z</time></trkpt><trkpt lat="43.1464492" lon="10.6434148"><ele>281.0</ele><time>2026-04-05T10:12:07.737Z</time></trkpt><trkpt lat="43.1463665" lon="10.6433109"><ele>281.3333333333333</ele><time>2026-04-05T10:12:10.727Z</time></trkpt><trkpt lat="43.1462926" lon="10.6432461"><ele>281.6666666666667</ele><time>2026-04-05T10:12:12.729Z</time></trkpt><trkpt lat="43.1462244" lon="10.6432077"><ele>282.0</ele><time>2026-04-05T10:12:15.738Z</time></trkpt><trkpt lat="43.1461819" lon="10.6431439"><ele>282.0</ele><time>2026-04-05T10:12:17.743Z</time></trkpt><trkpt lat="43.1461222" lon="10.6431154"><ele>282.0</ele><time>2026-04-05T10:12:19.743Z</time></trkpt><trkpt lat="43.1460458" lon="10.6430965"><ele>282.0</ele><time>2026-04-05T10:12:22.753Z</time></trkpt><trkpt lat="43.1459518" lon="10.6431028"><ele>282.0</ele><time>2026-04-05T10:12:25.744Z</time></trkpt><trkpt lat="43.145873" lon="10.6431594"><ele>282.0</ele><time>2026-04-05T10:12:28.745Z</time></trkpt><trkpt lat="43.1458072" lon="10.6432062"><ele>282.0</ele><time>2026-04-05T10:12:31.745Z</time></trkpt><trkpt lat="43.145739" lon="10.6432247"><ele>282.42857142857144</ele><time>2026-04-05T10:12:34.742Z</time></trkpt><trkpt lat="43.1456606" lon="10.6432776"><ele>282.85714285714283</ele><time>2026-04-05T10:12:37.735Z</time></trkpt><trkpt lat="43.1456007" lon="10.64332"><ele>283.2857142857143</ele><time>2026-04-05T10:12:39.75Z</time></trkpt><trkpt lat="43.1455278" lon="10.6433634"><ele>283.7142857142857</ele><time>2026-04-05T10:12:41.734Z</time></trkpt><trkpt lat="43.145456" lon="10.6433813"><ele>284.14285714285717</ele><time>2026-04-05T10:12:43.736Z</time></trkpt><trkpt lat="43.1453882" lon="10.6433774"><ele>284.57142857142856</ele><time>2026-04-05T10:12:45.73Z</time></trkpt><trkpt lat="43.1453162" lon="10.6433724"><ele>285.0</ele><time>2026-04-05T10:12:47.735Z</time></trkpt><trkpt lat="43.1452407" lon="10.6433823"><ele>285.0</ele><time>2026-04-05T10:12:49.735Z</time></trkpt><trkpt lat="43.1451747" lon="10.6434137"><ele>285.0</ele><time>2026-04-05T10:12:51.732Z</time></trkpt><trkpt lat="43.1451159" lon="10.6434517"><ele>285.0</ele><time>2026-04-05T10:12:53.731Z</time></trkpt><trkpt lat="43.1450484" lon="10.64349"><ele>285.0</ele><time>2026-04-05T10:12:55.73Z</time></trkpt><trkpt lat="43.1449887" lon="10.6435293"><ele>285.0</ele><time>2026-04-05T10:12:57.734Z</time></trkpt><trkpt lat="43.1448965" lon="10.6435726"><ele>285.0</ele><time>2026-04-05T10:13:00.728Z</time></trkpt><trkpt lat="43.1448231" lon="10.6435743"><ele>285.0</ele><time>2026-04-05T10:13:02.727Z</time></trkpt><trkpt lat="43.1447418" lon="10.6435698"><ele>287.6666666666667</ele><time>2026-04-05T10:13:04.726Z</time></trkpt><trkpt lat="43.1446641" lon="10.643559"><ele>290.3333333333333</ele><time>2026-04-05T10:13:06.729Z</time></trkpt><trkpt lat="43.1445769" lon="10.6435376"><ele>293.0</ele><time>2026-04-05T10:13:08.727Z</time></trkpt><trkpt lat="43.1444843" lon="10.6434884"><ele>295.66666666666663</ele><time>2026-04-05T10:13:10.743Z</time></trkpt><trkpt lat="43.1444192" lon="10.6434706"><ele>298.3333333333333</ele><time>2026-04-05T10:13:12.734Z</time></trkpt><trkpt lat="43.1443438" lon="10.6434382"><ele>301.0</ele><time>2026-04-05T10:13:14.735Z</time></trkpt><trkpt lat="43.1442741" lon="10.6434111"><ele>301.0</ele><time>2026-04-05T10:13:16.735Z</time></trkpt><trkpt lat="43.1442067" lon="10.6433929"><ele>301.0</ele><time>2026-04-05T10:13:18.739Z</time></trkpt><trkpt lat="43.1441428" lon="10.6433009"><ele>301.0</ele><time>2026-04-05T10:13:21.741Z</time></trkpt><trkpt lat="43.1441481" lon="10.6431871"><ele>301.0</ele><time>2026-04-05T10:13:23.737Z</time></trkpt><trkpt lat="43.1442151" lon="10.6430595"><ele>301.0</ele><time>2026-04-05T10:13:25.745Z</time></trkpt><trkpt lat="43.1442895" lon="10.6429211"><ele>301.0</ele><time>2026-04-05T10:13:27.743Z</time></trkpt><trkpt lat="43.1443284" lon="10.6428493"><ele>301.0</ele><time>2026-04-05T10:13:28.747Z</time></trkpt><trkpt lat="43.1443925" lon="10.6427381"><ele>301.0</ele><time>2026-04-05T10:13:30.745Z</time></trkpt><trkpt lat="43.1444554" lon="10.6426262"><ele>301.0</ele><time>2026-04-05T10:13:32.748Z</time></trkpt><trkpt lat="43.1444823" lon="10.6425273"><ele>301.0</ele><time>2026-04-05T10:13:34.746Z</time></trkpt><trkpt lat="43.1444805" lon="10.6424354"><ele>301.0</ele><time>2026-04-05T10:13:36.747Z</time></trkpt><trkpt lat="43.1444301" lon="10.6423404"><ele>301.42857142857144</ele><time>2026-04-05T10:13:39.752Z</time></trkpt><trkpt lat="43.1443724" lon="10.6423003"><ele>301.8571428571429</ele><time>2026-04-05T10:13:41.763Z</time></trkpt><trkpt lat="43.144297" lon="10.6422948"><ele>302.2857142857143</ele><time>2026-04-05T10:13:43.754Z</time></trkpt><trkpt lat="43.1442296" lon="10.6422994"><ele>302.7142857142857</ele><time>2026-04-05T10:13:45.748Z</time></trkpt><trkpt lat="43.1441514" lon="10.6423214"><ele>303.14285714285717</ele><time>2026-04-05T10:13:47.75Z</time></trkpt><trkpt lat="43.1440736" lon="10.6423498"><ele>303.57142857142856</ele><time>2026-04-05T10:13:49.745Z</time></trkpt><trkpt lat="43.1440025" lon="10.6423847"><ele>304.0</ele><time>2026-04-05T10:13:51.742Z</time></trkpt><trkpt lat="43.1439248" lon="10.6424052"><ele>304.0</ele><time>2026-04-05T10:13:53.745Z</time></trkpt><trkpt lat="43.1438424" lon="10.6424292"><ele>304.0</ele><time>2026-04-05T10:13:55.74Z</time></trkpt><trkpt lat="43.1437628" lon="10.6424367"><ele>304.0</ele><time>2026-04-05T10:13:57.75Z</time></trkpt><trkpt lat="43.1436806" lon="10.6424302"><ele>304.0</ele><time>2026-04-05T10:13:59.736Z</time></trkpt><trkpt lat="43.1436041" lon="10.6424002"><ele>304.0</ele><time>2026-04-05T10:14:01.738Z</time></trkpt><trkpt lat="43.1435329" lon="10.6423647"><ele>304.0</ele><time>2026-04-05T10:14:03.739Z</time></trkpt><trkpt lat="43.1434565" lon="10.6423079"><ele>304.0</ele><time>2026-04-05T10:14:05.739Z</time></trkpt><trkpt lat="43.1433974" lon="10.6422449"><ele>304.0</ele><time>2026-04-05T10:14:07.74Z</time></trkpt><trkpt lat="43.1433408" lon="10.6422019"><ele>304.0</ele><time>2026-04-05T10:14:09.741Z</time></trkpt><trkpt lat="43.1432703" lon="10.6421638"><ele>304.0</ele><time>2026-04-05T10:14:11.745Z</time></trkpt><trkpt lat="43.1431925" lon="10.6421616"><ele>304.0</ele><time>2026-04-05T10:14:13.749Z</time></trkpt><trkpt lat="43.1431049" lon="10.6421681"><ele>304.0</ele><time>2026-04-05T10:14:15.745Z</time></trkpt><trkpt lat="43.1430228" lon="10.6421978"><ele>304.66666666666663</ele><time>2026-04-05T10:14:17.744Z</time></trkpt><trkpt lat="43.1429596" lon="10.6422492"><ele>305.3333333333333</ele><time>2026-04-05T10:14:19.746Z</time></trkpt><trkpt lat="43.142909" lon="10.6423056"><ele>306.0</ele><time>2026-04-05T10:14:21.738Z</time></trkpt><trkpt lat="43.1428455" lon="10.642379"><ele>306.6666666666667</ele><time>2026-04-05T10:14:24.735Z</time></trkpt><trkpt lat="43.142776" lon="10.6424414"><ele>307.33333333333337</ele><time>2026-04-05T10:14:27.725Z</time></trkpt><trkpt lat="43.1427169" lon="10.642503"><ele>308.0</ele><time>2026-04-05T10:14:29.724Z</time></trkpt><trkpt lat="43.1426393" lon="10.6425046"><ele>308.0</ele><time>2026-04-05T10:14:32.723Z</time></trkpt><trkpt lat="43.1425533" lon="10.6424119"><ele>308.0</ele><time>2026-04-05T10:14:34.716Z</time></trkpt><trkpt lat="43.1424994" lon="10.6423166"><ele>308.0</ele><time>2026-04-05T10:14:35.714Z</time></trkpt><trkpt lat="43.1424504" lon="10.6422519"><ele>308.0</ele><time>2026-04-05T10:14:36.726Z</time></trkpt><trkpt lat="43.1423741" lon="10.6421419"><ele>308.0</ele><time>2026-04-05T10:14:38.726Z</time></trkpt><trkpt lat="43.1422895" lon="10.6421262"><ele>308.5</ele><time>2026-04-05T10:14:42.714Z</time></trkpt><trkpt lat="43.1422003" lon="10.6420652"><ele>309.0</ele><time>2026-04-05T10:14:44.721Z</time></trkpt><trkpt lat="43.1421292" lon="10.6420543"><ele>309.5</ele><time>2026-04-05T10:14:46.722Z</time></trkpt><trkpt lat="43.1420519" lon="10.6420663"><ele>310.0</ele><time>2026-04-05T10:14:48.721Z</time></trkpt><trkpt lat="43.1419822" lon="10.6420503"><ele>310.5</ele><time>2026-04-05T10:14:50.724Z</time></trkpt><trkpt lat="43.1419015" lon="10.6420391"><ele>311.0</ele><time>2026-04-05T10:14:52.726Z</time></trkpt><trkpt lat="43.1418233" lon="10.6420517"><ele>311.0</ele><time>2026-04-05T10:14:54.728Z</time></trkpt><trkpt lat="43.1417337" lon="10.6420508"><ele>311.0</ele><time>2026-04-05T10:14:56.729Z</time></trkpt><trkpt lat="43.1416569" lon="10.6420718"><ele>311.0</ele><time>2026-04-05T10:14:58.729Z</time></trkpt><trkpt lat="43.1415919" lon="10.6421208"><ele>311.0</ele><time>2026-04-05T10:15:00.721Z</time></trkpt><trkpt lat="43.1415182" lon="10.6421418"><ele>311.0</ele><time>2026-04-05T10:15:02.717Z</time></trkpt><trkpt lat="43.1414406" lon="10.6422062"><ele>311.0</ele><time>2026-04-05T10:15:05.725Z</time></trkpt><trkpt lat="43.1413841" lon="10.6422712"><ele>310.7142857142857</ele><time>2026-04-05T10:15:07.727Z</time></trkpt><trkpt lat="43.1413182" lon="10.6423243"><ele>310.42857142857144</ele><time>2026-04-05T10:15:09.728Z</time></trkpt><trkpt lat="43.1412449" lon="10.6423795"><ele>310.14285714285717</ele><time>2026-04-05T10:15:11.726Z</time></trkpt><trkpt lat="43.1411852" lon="10.6424094"><ele>309.8571428571429</ele><time>2026-04-05T10:15:13.734Z</time></trkpt><trkpt lat="43.141122" lon="10.6424463"><ele>309.57142857142856</ele><time>2026-04-05T10:15:15.72Z</time></trkpt><trkpt lat="43.1410378" lon="10.6424851"><ele>309.28571428571433</ele><time>2026-04-05T10:15:18.729Z</time></trkpt><trkpt lat="43.1409704" lon="10.6424983"><ele>309.0</ele><time>2026-04-05T10:15:20.73Z</time></trkpt><trkpt lat="43.1409033" lon="10.6425163"><ele>309.0</ele><time>2026-04-05T10:15:22.732Z</time></trkpt><trkpt lat="43.1408401" lon="10.6425369"><ele>309.0</ele><time>2026-04-05T10:15:24.726Z</time></trkpt><trkpt lat="43.1407697" lon="10.6425545"><ele>309.0</ele><time>2026-04-05T10:15:26.727Z</time></trkpt><trkpt lat="43.1406951" lon="10.6425677"><ele>309.0</ele><time>2026-04-05T10:15:28.731Z</time></trkpt><trkpt lat="43.1406227" lon="10.6425724"><ele>309.0</ele><time>2026-04-05T10:15:30.737Z</time></trkpt><trkpt lat="43.1405506" lon="10.6425764"><ele>309.0</ele><time>2026-04-05T10:15:32.726Z</time></trkpt><trkpt lat="43.1404539" lon="10.6425788"><ele>310.5714285714286</ele><time>2026-04-05T10:15:35.735Z</time></trkpt><trkpt lat="43.1403839" lon="10.6425986"><ele>312.14285714285717</ele><time>2026-04-05T10:15:37.739Z</time></trkpt><trkpt lat="43.1403184" lon="10.6426224"><ele>313.7142857142857</ele><time>2026-04-05T10:15:39.739Z</time></trkpt><trkpt lat="43.140256" lon="10.6426494"><ele>315.28571428571433</ele><time>2026-04-05T10:15:41.735Z</time></trkpt><trkpt lat="43.1401923" lon="10.642695"><ele>316.8571428571429</ele><time>2026-04-05T10:15:43.738Z</time></trkpt><trkpt lat="43.1401254" lon="10.6427283"><ele>318.42857142857144</ele><time>2026-04-05T10:15:45.77Z</time></trkpt><trkpt lat="43.1400581" lon="10.6427804"><ele>320.0</ele><time>2026-04-05T10:15:48.732Z</time></trkpt><trkpt lat="43.1399852" lon="10.6427232"><ele>320.0</ele><time>2026-04-05T10:17:28.725Z</time></trkpt><trkpt lat="43.1399067" lon="10.6426938"><ele>320.0</ele><time>2026-04-05T10:17:31.711Z</time></trkpt><trkpt lat="43.1398474" lon="10.6427238"><ele>320.0</ele><time>2026-04-05T10:17:34.719Z</time></trkpt><trkpt lat="43.139765" lon="10.6427064"><ele>320.0</ele><time>2026-04-05T10:17:38.712Z</time></trkpt><trkpt lat="43.1397146" lon="10.6426526"><ele>320.0</ele><time>2026-04-05T10:17:40.705Z</time></trkpt><trkpt lat="43.1396529" lon="10.6425637"><ele>320.0</ele><time>2026-04-05T10:17:44.695Z</time></trkpt><trkpt lat="43.1396149" lon="10.642491"><ele>320.0</ele><time>2026-04-05T10:17:45.699Z</time></trkpt><trkpt lat="43.1394913" lon="10.6424666"><ele>322.0</ele><time>2026-04-05T10:17:47.702Z</time></trkpt><trkpt lat="43.1394168" lon="10.6424111"><ele>324.0</ele><time>2026-04-05T10:17:48.725Z</time></trkpt><trkpt lat="43.1393432" lon="10.6423767"><ele>326.0</ele><time>2026-04-05T10:17:49.715Z</time></trkpt><trkpt lat="43.1392341" lon="10.6423339"><ele>328.0</ele><time>2026-04-05T10:17:51.708Z</time></trkpt><trkpt lat="43.139151" lon="10.6423098"><ele>330.0</ele><time>2026-04-05T10:17:53.712Z</time></trkpt><trkpt lat="43.1390797" lon="10.6423562"><ele>332.0</ele><time>2026-04-05T10:17:55.713Z</time></trkpt><trkpt lat="43.1390182" lon="10.6424431"><ele>332.5</ele><time>2026-04-05T10:17:59.712Z</time></trkpt><trkpt lat="43.1389619" lon="10.6424835"><ele>333.0</ele><time>2026-04-05T10:18:00.718Z</time></trkpt><trkpt lat="43.1388952" lon="10.642495"><ele>333.5</ele><time>2026-04-05T10:18:01.713Z</time></trkpt><trkpt lat="43.1388342" lon="10.6425395"><ele>334.0</ele><time>2026-04-05T10:18:02.717Z</time></trkpt><trkpt lat="43.1387665" lon="10.6425983"><ele>334.5</ele><time>2026-04-05T10:18:03.717Z</time></trkpt><trkpt lat="43.1386814" lon="10.6426687"><ele>335.0</ele><time>2026-04-05T10:18:04.718Z</time></trkpt><trkpt lat="43.1385792" lon="10.6427418"><ele>335.0</ele><time>2026-04-05T10:18:05.721Z</time></trkpt><trkpt lat="43.1384996" lon="10.6427704"><ele>335.0</ele><time>2026-04-05T10:18:06.726Z</time></trkpt><trkpt lat="43.13838" lon="10.6428156"><ele>335.0</ele><time>2026-04-05T10:18:08.723Z</time></trkpt><trkpt lat="43.138282" lon="10.6428805"><ele>335.0</ele><time>2026-04-05T10:18:10.717Z</time></trkpt><trkpt lat="43.1381988" lon="10.6428729"><ele>335.0</ele><time>2026-04-05T10:18:12.715Z</time></trkpt><trkpt lat="43.1381336" lon="10.6428416"><ele>331.6666666666667</ele><time>2026-04-05T10:18:14.716Z</time></trkpt><trkpt lat="43.1380396" lon="10.6428326"><ele>328.33333333333337</ele><time>2026-04-05T10:18:16.724Z</time></trkpt><trkpt lat="43.1379508" lon="10.6428237"><ele>325.0</ele><time>2026-04-05T10:18:18.721Z</time></trkpt><trkpt lat="43.1378745" lon="10.642859"><ele>321.6666666666667</ele><time>2026-04-05T10:18:20.722Z</time></trkpt><trkpt lat="43.1377988" lon="10.6428978"><ele>318.3333333333333</ele><time>2026-04-05T10:18:22.725Z</time></trkpt><trkpt lat="43.137714" lon="10.642916"><ele>315.0</ele><time>2026-04-05T10:18:24.718Z</time></trkpt><trkpt lat="43.1376365" lon="10.6429386"><ele>315.0</ele><time>2026-04-05T10:18:26.714Z</time></trkpt><trkpt lat="43.1375513" lon="10.6429865"><ele>315.0</ele><time>2026-04-05T10:18:28.721Z</time></trkpt><trkpt lat="43.1374775" lon="10.6430514"><ele>315.0</ele><time>2026-04-05T10:18:30.721Z</time></trkpt><trkpt lat="43.1374021" lon="10.6430918"><ele>315.0</ele><time>2026-04-05T10:18:32.72Z</time></trkpt><trkpt lat="43.137327" lon="10.6431659"><ele>315.0</ele><time>2026-04-05T10:18:35.721Z</time></trkpt><trkpt lat="43.1372722" lon="10.6432128"><ele>315.0</ele><time>2026-04-05T10:18:37.722Z</time></trkpt><trkpt lat="43.1372179" lon="10.6432633"><ele>318.0</ele><time>2026-04-05T10:18:39.724Z</time></trkpt><trkpt lat="43.1371478" lon="10.6433087"><ele>321.0</ele><time>2026-04-05T10:18:41.728Z</time></trkpt><trkpt lat="43.1370852" lon="10.6433427"><ele>324.0</ele><time>2026-04-05T10:18:43.731Z</time></trkpt><trkpt lat="43.1370176" lon="10.643391"><ele>327.0</ele><time>2026-04-05T10:18:45.736Z</time></trkpt><trkpt lat="43.1369211" lon="10.6434313"><ele>330.0</ele><time>2026-04-05T10:18:47.728Z</time></trkpt><trkpt lat="43.1368072" lon="10.6434613"><ele>333.0</ele><time>2026-04-05T10:18:49.731Z</time></trkpt><trkpt lat="43.1367408" lon="10.6434923"><ele>333.0</ele><time>2026-04-05T10:18:50.747Z</time></trkpt><trkpt lat="43.136649" lon="10.6435353"><ele>333.0</ele><time>2026-04-05T10:18:52.732Z</time></trkpt><trkpt lat="43.1365685" lon="10.6435693"><ele>333.0</ele><time>2026-04-05T10:18:54.731Z</time></trkpt><trkpt lat="43.1364988" lon="10.6436228"><ele>333.0</ele><time>2026-04-05T10:18:56.727Z</time></trkpt><trkpt lat="43.1364404" lon="10.6436791"><ele>333.0</ele><time>2026-04-05T10:18:58.734Z</time></trkpt><trkpt lat="43.1363585" lon="10.6437629"><ele>333.0</ele><time>2026-04-05T10:19:00.733Z</time></trkpt><trkpt lat="43.136296" lon="10.6438347"><ele>332.4</ele><time>2026-04-05T10:19:02.73Z</time></trkpt><trkpt lat="43.1362468" lon="10.6439356"><ele>331.79999999999995</ele><time>2026-04-05T10:19:04.73Z</time></trkpt><trkpt lat="43.1361995" lon="10.6440323"><ele>331.2</ele><time>2026-04-05T10:19:06.734Z</time></trkpt><trkpt lat="43.136147" lon="10.6441353"><ele>330.6</ele><time>2026-04-05T10:19:08.74Z</time></trkpt><trkpt lat="43.1360837" lon="10.6442256"><ele>330.0</ele><time>2026-04-05T10:19:10.738Z</time></trkpt><trkpt lat="43.1359987" lon="10.6443253"><ele>330.0</ele><time>2026-04-05T10:19:12.743Z</time></trkpt><trkpt lat="43.1359332" lon="10.6443986"><ele>330.0</ele><time>2026-04-05T10:19:14.737Z</time></trkpt><trkpt lat="43.1358545" lon="10.6444205"><ele>330.0</ele><time>2026-04-05T10:19:16.744Z</time></trkpt><trkpt lat="43.1357725" lon="10.6444017"><ele>330.0</ele><time>2026-04-05T10:19:18.745Z</time></trkpt><trkpt lat="43.1357066" lon="10.6443423"><ele>330.0</ele><time>2026-04-05T10:19:20.729Z</time></trkpt><trkpt lat="43.1356636" lon="10.6442106"><ele>330.0</ele><time>2026-04-05T10:19:22.731Z</time></trkpt><trkpt lat="43.1356191" lon="10.6440647"><ele>327.2</ele><time>2026-04-05T10:19:24.724Z</time></trkpt><trkpt lat="43.1355949" lon="10.6439163"><ele>324.4</ele><time>2026-04-05T10:19:26.725Z</time></trkpt><trkpt lat="43.1355693" lon="10.6437897"><ele>321.6</ele><time>2026-04-05T10:19:28.723Z</time></trkpt><trkpt lat="43.1355496" lon="10.6436768"><ele>318.8</ele><time>2026-04-05T10:19:30.727Z</time></trkpt><trkpt lat="43.1355177" lon="10.6435752"><ele>316.0</ele><time>2026-04-05T10:19:32.725Z</time></trkpt><trkpt lat="43.1354623" lon="10.6434684"><ele>316.0</ele><time>2026-04-05T10:19:34.714Z</time></trkpt><trkpt lat="43.1354135" lon="10.6433381"><ele>316.0</ele><time>2026-04-05T10:19:36.72Z</time></trkpt><trkpt lat="43.1353584" lon="10.6432139"><ele>316.0</ele><time>2026-04-05T10:19:38.724Z</time></trkpt><trkpt lat="43.1353227" lon="10.6431406"><ele>316.0</ele><time>2026-04-05T10:19:39.721Z</time></trkpt><trkpt lat="43.135286" lon="10.6430674"><ele>316.0</ele><time>2026-04-05T10:19:40.723Z</time></trkpt><trkpt lat="43.1352561" lon="10.6429805"><ele>316.0</ele><time>2026-04-05T10:19:41.728Z</time></trkpt><trkpt lat="43.1352284" lon="10.6428977"><ele>316.0</ele><time>2026-04-05T10:19:42.722Z</time></trkpt><trkpt lat="43.1351905" lon="10.6428255"><ele>316.0</ele><time>2026-04-05T10:19:43.724Z</time></trkpt><trkpt lat="43.1351501" lon="10.6427513"><ele>316.0</ele><time>2026-04-05T10:19:44.713Z</time></trkpt><trkpt lat="43.1350767" lon="10.6426776"><ele>316.0</ele><time>2026-04-05T10:19:46.718Z</time></trkpt><trkpt lat="43.1350026" lon="10.6426827"><ele>316.0</ele><time>2026-04-05T10:19:48.725Z</time></trkpt><trkpt lat="43.1349606" lon="10.6425099"><ele>316.0</ele><time>2026-04-05T10:19:50.708Z</time></trkpt><trkpt lat="43.1349377" lon="10.6424092"><ele>317.8571428571429</ele><time>2026-04-05T10:19:51.707Z</time></trkpt><trkpt lat="43.1349041" lon="10.642308"><ele>319.7142857142857</ele><time>2026-04-05T10:19:52.723Z</time></trkpt><trkpt lat="43.1348817" lon="10.6422247"><ele>321.57142857142856</ele><time>2026-04-05T10:19:53.706Z</time></trkpt><trkpt lat="43.1348458" lon="10.642145"><ele>323.42857142857144</ele><time>2026-04-05T10:19:54.709Z</time></trkpt><trkpt lat="43.1348013" lon="10.642069"><ele>325.2857142857143</ele><time>2026-04-05T10:19:55.712Z</time></trkpt><trkpt lat="43.134747" lon="10.6420239"><ele>327.14285714285717</ele><time>2026-04-05T10:19:56.705Z</time></trkpt><trkpt lat="43.134682" lon="10.6420157"><ele>329.0</ele><time>2026-04-05T10:19:58.703Z</time></trkpt><trkpt lat="43.134598" lon="10.642065"><ele>329.0</ele><time>2026-04-05T10:20:02.707Z</time></trkpt><trkpt lat="43.1345625" lon="10.6421419"><ele>329.0</ele><time>2026-04-05T10:20:04.712Z</time></trkpt><trkpt lat="43.1345294" lon="10.6422159"><ele>329.0</ele><time>2026-04-05T10:20:06.713Z</time></trkpt><trkpt lat="43.1344443" lon="10.6422439"><ele>329.0</ele><time>2026-04-05T10:20:08.708Z</time></trkpt><trkpt lat="43.1343562" lon="10.6422974"><ele>329.0</ele><time>2026-04-05T10:20:10.704Z</time></trkpt><trkpt lat="43.1342856" lon="10.6423625"><ele>329.0</ele><time>2026-04-05T10:20:12.724Z</time></trkpt><trkpt lat="43.1342167" lon="10.6424138"><ele>329.0</ele><time>2026-04-05T10:20:14.72Z</time></trkpt><trkpt lat="43.1341574" lon="10.6424746"><ele>329.0</ele><time>2026-04-05T10:20:17.715Z</time></trkpt><trkpt lat="43.1340757" lon="10.6424995"><ele>329.0</ele><time>2026-04-05T10:20:20.719Z</time></trkpt><trkpt lat="43.1340012" lon="10.6425297"><ele>329.0</ele><time>2026-04-05T10:20:22.725Z</time></trkpt><trkpt lat="43.1338939" lon="10.6425555"><ele>329.0</ele><time>2026-04-05T10:20:24.719Z</time></trkpt><trkpt lat="43.13383" lon="10.6425649"><ele>329.0</ele><time>2026-04-05T10:20:25.719Z</time></trkpt><trkpt lat="43.1337371" lon="10.6425099"><ele>327.6666666666667</ele><time>2026-04-05T10:20:27.716Z</time></trkpt><trkpt lat="43.1336571" lon="10.6423969"><ele>326.33333333333337</ele><time>2026-04-05T10:20:29.71Z</time></trkpt><trkpt lat="43.1336224" lon="10.642322"><ele>325.0</ele><time>2026-04-05T10:20:30.723Z</time></trkpt><trkpt lat="43.1335852" lon="10.6422446"><ele>323.6666666666667</ele><time>2026-04-05T10:20:31.721Z</time></trkpt><trkpt lat="43.1335415" lon="10.6421689"><ele>322.3333333333333</ele><time>2026-04-05T10:20:32.717Z</time></trkpt><trkpt lat="43.1334825" lon="10.6421153"><ele>321.0</ele><time>2026-04-05T10:20:33.717Z</time></trkpt><trkpt lat="43.1333676" lon="10.6420576"><ele>321.0</ele><time>2026-04-05T10:20:35.723Z</time></trkpt><trkpt lat="43.1333037" lon="10.6420498"><ele>321.0</ele><time>2026-04-05T10:20:36.717Z</time></trkpt><trkpt lat="43.1332073" lon="10.6420691"><ele>321.0</ele><time>2026-04-05T10:20:38.714Z</time></trkpt><trkpt lat="43.1331295" lon="10.6421466"><ele>321.0</ele><time>2026-04-05T10:20:40.715Z</time></trkpt><trkpt lat="43.1330423" lon="10.6422437"><ele>321.0</ele><time>2026-04-05T10:20:42.718Z</time></trkpt><trkpt lat="43.1330024" lon="10.6423435"><ele>326.0</ele><time>2026-04-05T10:20:44.723Z</time></trkpt><trkpt lat="43.1329546" lon="10.6424474"><ele>331.0</ele><time>2026-04-05T10:20:46.723Z</time></trkpt><trkpt lat="43.1328934" lon="10.6425691"><ele>336.0</ele><time>2026-04-05T10:20:48.721Z</time></trkpt><trkpt lat="43.1328816" lon="10.6426801"><ele>341.0</ele><time>2026-04-05T10:20:50.722Z</time></trkpt><trkpt lat="43.1328844" lon="10.6428051"><ele>346.0</ele><time>2026-04-05T10:20:52.718Z</time></trkpt><trkpt lat="43.1328881" lon="10.6429279"><ele>346.0</ele><time>2026-04-05T10:20:54.733Z</time></trkpt><trkpt lat="43.1328937" lon="10.6430754"><ele>346.0</ele><time>2026-04-05T10:20:56.721Z</time></trkpt><trkpt lat="43.1328803" lon="10.6432351"><ele>346.0</ele><time>2026-04-05T10:20:58.717Z</time></trkpt><trkpt lat="43.1328633" lon="10.6433848"><ele>346.0</ele><time>2026-04-05T10:21:00.727Z</time></trkpt><trkpt lat="43.1328444" lon="10.6435226"><ele>346.0</ele><time>2026-04-05T10:21:02.722Z</time></trkpt><trkpt lat="43.1328304" lon="10.6436472"><ele>344.66666666666663</ele><time>2026-04-05T10:21:04.722Z</time></trkpt><trkpt lat="43.1328006" lon="10.6437725"><ele>343.3333333333333</ele><time>2026-04-05T10:21:06.725Z</time></trkpt><trkpt lat="43.132771" lon="10.6438775"><ele>342.0</ele><time>2026-04-05T10:21:08.721Z</time></trkpt><trkpt lat="43.1327391" lon="10.6439782"><ele>340.6666666666667</ele><time>2026-04-05T10:21:10.72Z</time></trkpt><trkpt lat="43.1327" lon="10.6440813"><ele>339.33333333333337</ele><time>2026-04-05T10:21:12.727Z</time></trkpt><trkpt lat="43.1326564" lon="10.644176"><ele>338.0</ele><time>2026-04-05T10:21:14.725Z</time></trkpt><trkpt lat="43.132625" lon="10.6442804"><ele>338.0</ele><time>2026-04-05T10:21:16.726Z</time></trkpt><trkpt lat="43.1325814" lon="10.6443973"><ele>338.0</ele><time>2026-04-05T10:21:18.728Z</time></trkpt><trkpt lat="43.1325458" lon="10.6445122"><ele>338.0</ele><time>2026-04-05T10:21:20.731Z</time></trkpt><trkpt lat="43.1325045" lon="10.6446208"><ele>338.0</ele><time>2026-04-05T10:21:22.738Z</time></trkpt><trkpt lat="43.1324596" lon="10.6447313"><ele>338.0</ele><time>2026-04-05T10:21:24.725Z</time></trkpt><trkpt lat="43.132402" lon="10.6448446"><ele>337.2</ele><time>2026-04-05T10:21:26.728Z</time></trkpt><trkpt lat="43.132347" lon="10.6449484"><ele>336.4</ele><time>2026-04-05T10:21:28.726Z</time></trkpt><trkpt lat="43.1322857" lon="10.6450563"><ele>335.59999999999997</ele><time>2026-04-05T10:21:30.726Z</time></trkpt><trkpt lat="43.1322382" lon="10.6451349"><ele>334.79999999999995</ele><time>2026-04-05T10:21:32.718Z</time></trkpt><trkpt lat="43.1321674" lon="10.645241"><ele>334.0</ele><time>2026-04-05T10:21:35.718Z</time></trkpt><trkpt lat="43.1320954" lon="10.6453319"><ele>330.0</ele><time>2026-04-05T10:21:37.722Z</time></trkpt><trkpt lat="43.1319867" lon="10.6454207"><ele>326.0</ele><time>2026-04-05T10:21:39.725Z</time></trkpt><trkpt lat="43.131926" lon="10.645449"><ele>322.0</ele><time>2026-04-05T10:21:40.732Z</time></trkpt><trkpt lat="43.1318099" lon="10.6454875"><ele>318.0</ele><time>2026-04-05T10:21:42.734Z</time></trkpt><trkpt lat="43.1316986" lon="10.6454918"><ele>314.0</ele><time>2026-04-05T10:21:44.73Z</time></trkpt><trkpt lat="43.1316077" lon="10.6454695"><ele>313.83333333333337</ele><time>2026-04-05T10:21:46.731Z</time></trkpt><trkpt lat="43.1315127" lon="10.6454359"><ele>313.6666666666667</ele><time>2026-04-05T10:21:48.728Z</time></trkpt><trkpt lat="43.1314249" lon="10.6453787"><ele>313.5</ele><time>2026-04-05T10:21:50.73Z</time></trkpt><trkpt lat="43.1313395" lon="10.6453186"><ele>313.3333333333333</ele><time>2026-04-05T10:21:52.734Z</time></trkpt><trkpt lat="43.1312725" lon="10.6452516"><ele>313.16666666666663</ele><time>2026-04-05T10:21:54.737Z</time></trkpt><trkpt lat="43.1312148" lon="10.6451942"><ele>313.0</ele><time>2026-04-05T10:21:56.75Z</time></trkpt><trkpt lat="43.1311555" lon="10.6451541"><ele>313.0</ele><time>2026-04-05T10:21:58.731Z</time></trkpt><trkpt lat="43.1311014" lon="10.6450955"><ele>313.0</ele><time>2026-04-05T10:22:00.731Z</time></trkpt><trkpt lat="43.131042" lon="10.6450586"><ele>313.0</ele><time>2026-04-05T10:22:02.73Z</time></trkpt><trkpt lat="43.1309796" lon="10.6450114"><ele>313.0</ele><time>2026-04-05T10:22:05.729Z</time></trkpt><trkpt lat="43.1309285" lon="10.6449554"><ele>313.0</ele><time>2026-04-05T10:22:40.746Z</time></trkpt><trkpt lat="43.1309865" lon="10.6450378"><ele>313.0</ele><time>2026-04-05T10:22:45.715Z</time></trkpt><trkpt lat="43.1309378" lon="10.6449394"><ele>313.0</ele><time>2026-04-05T10:22:55.728Z</time></trkpt><trkpt lat="43.1308981" lon="10.6448574"><ele>313.0</ele><time>2026-04-05T10:23:31.713Z</time></trkpt><trkpt lat="43.1308983" lon="10.6447539"><ele>313.0</ele><time>2026-04-05T10:24:29.731Z</time></trkpt><trkpt lat="43.1308438" lon="10.6446612"><ele>313.0</ele><time>2026-04-05T10:24:32.732Z</time></trkpt><trkpt lat="43.1307905" lon="10.6445988"><ele>313.0</ele><time>2026-04-05T10:24:35.729Z</time></trkpt><trkpt lat="43.1307288" lon="10.6445501"><ele>313.0</ele><time>2026-04-05T10:24:39.723Z</time></trkpt><trkpt lat="43.13067" lon="10.6444706"><ele>313.0</ele><time>2026-04-05T10:24:43.729Z</time></trkpt><trkpt lat="43.1305996" lon="10.6443716"><ele>313.66666666666663</ele><time>2026-04-05T10:24:46.727Z</time></trkpt><trkpt lat="43.1305488" lon="10.6442953"><ele>314.3333333333333</ele><time>2026-04-05T10:24:48.728Z</time></trkpt><trkpt lat="43.1304921" lon="10.6442211"><ele>315.0</ele><time>2026-04-05T10:24:50.728Z</time></trkpt><trkpt lat="43.1304279" lon="10.6441593"><ele>315.6666666666667</ele><time>2026-04-05T10:24:52.729Z</time></trkpt><trkpt lat="43.1303692" lon="10.6441084"><ele>316.33333333333337</ele><time>2026-04-05T10:24:54.733Z</time></trkpt><trkpt lat="43.1303071" lon="10.6440504"><ele>317.0</ele><time>2026-04-05T10:24:56.725Z</time></trkpt><trkpt lat="43.1302468" lon="10.6439896"><ele>317.0</ele><time>2026-04-05T10:24:58.72Z</time></trkpt><trkpt lat="43.1301813" lon="10.6439268"><ele>317.0</ele><time>2026-04-05T10:25:00.724Z</time></trkpt><trkpt lat="43.1301071" lon="10.6438896"><ele>317.0</ele><time>2026-04-05T10:25:02.734Z</time></trkpt><trkpt lat="43.130027" lon="10.6438668"><ele>317.0</ele><time>2026-04-05T10:25:04.716Z</time></trkpt><trkpt lat="43.129947" lon="10.6438525"><ele>317.0</ele><time>2026-04-05T10:25:06.714Z</time></trkpt><trkpt lat="43.1298673" lon="10.6438406"><ele>317.0</ele><time>2026-04-05T10:25:08.715Z</time></trkpt><trkpt lat="43.1297912" lon="10.6438063"><ele>317.5</ele><time>2026-04-05T10:25:10.721Z</time></trkpt><trkpt lat="43.1297156" lon="10.6437594"><ele>318.0</ele><time>2026-04-05T10:25:12.729Z</time></trkpt><trkpt lat="43.1296444" lon="10.6437116"><ele>318.5</ele><time>2026-04-05T10:25:14.735Z</time></trkpt><trkpt lat="43.1295766" lon="10.643671"><ele>319.0</ele><time>2026-04-05T10:25:16.733Z</time></trkpt><trkpt lat="43.129516" lon="10.6435982"><ele>319.5</ele><time>2026-04-05T10:25:18.727Z</time></trkpt><trkpt lat="43.1294712" lon="10.643504"><ele>320.0</ele><time>2026-04-05T10:25:20.731Z</time></trkpt><trkpt lat="43.1294203" lon="10.6434035"><ele>322.33333333333337</ele><time>2026-04-05T10:25:22.725Z</time></trkpt><trkpt lat="43.1293709" lon="10.6433043"><ele>324.6666666666667</ele><time>2026-04-05T10:25:24.725Z</time></trkpt><trkpt lat="43.1293284" lon="10.6432105"><ele>327.0</ele><time>2026-04-05T10:25:26.712Z</time></trkpt><trkpt lat="43.129236" lon="10.6432073"><ele>329.3333333333333</ele><time>2026-04-05T10:25:29.728Z</time></trkpt><trkpt lat="43.1291665" lon="10.6432712"><ele>331.66666666666663</ele><time>2026-04-05T10:25:31.726Z</time></trkpt><trkpt lat="43.129112" lon="10.6433652"><ele>334.0</ele><time>2026-04-05T10:25:33.749Z</time></trkpt><trkpt lat="43.1290665" lon="10.6434451"><ele>332.5</ele><time>2026-04-05T10:25:35.714Z</time></trkpt><trkpt lat="43.1290068" lon="10.6435502"><ele>331.0</ele><time>2026-04-05T10:25:37.722Z</time></trkpt><trkpt lat="43.1289559" lon="10.6436445"><ele>329.5</ele><time>2026-04-05T10:25:39.708Z</time></trkpt><trkpt lat="43.1289278" lon="10.6437523"><ele>328.0</ele><time>2026-04-05T10:25:41.7Z</time></trkpt><trkpt lat="43.1288844" lon="10.643836"><ele>326.5</ele><time>2026-04-05T10:25:43.722Z</time></trkpt><trkpt lat="43.1288516" lon="10.6439195"><ele>325.0</ele><time>2026-04-05T10:25:45.711Z</time></trkpt><trkpt lat="43.1288169" lon="10.6440056"><ele>325.0</ele><time>2026-04-05T10:25:47.719Z</time></trkpt><trkpt lat="43.1287899" lon="10.6441124"><ele>325.0</ele><time>2026-04-05T10:25:49.721Z</time></trkpt><trkpt lat="43.1287789" lon="10.6442037"><ele>325.0</ele><time>2026-04-05T10:25:51.728Z</time></trkpt><trkpt lat="43.1287092" lon="10.644221"><ele>325.0</ele><time>2026-04-05T10:25:55.701Z</time></trkpt><trkpt lat="43.1285975" lon="10.6441797"><ele>325.0</ele><time>2026-04-05T10:25:57.698Z</time></trkpt><trkpt lat="43.1285366" lon="10.6441237"><ele>325.0</ele><time>2026-04-05T10:25:58.702Z</time></trkpt><trkpt lat="43.1284314" lon="10.6440804"><ele>325.0</ele><time>2026-04-05T10:26:00.696Z</time></trkpt><trkpt lat="43.1283531" lon="10.6440367"><ele>325.0</ele><time>2026-04-05T10:26:01.709Z</time></trkpt><trkpt lat="43.1282931" lon="10.6439871"><ele>325.0</ele><time>2026-04-05T10:26:02.709Z</time></trkpt><trkpt lat="43.1282397" lon="10.6439372"><ele>325.0</ele><time>2026-04-05T10:26:03.708Z</time></trkpt><trkpt lat="43.1281825" lon="10.6438835"><ele>325.0</ele><time>2026-04-05T10:26:04.728Z</time></trkpt><trkpt lat="43.1281306" lon="10.6438292"><ele>325.0</ele><time>2026-04-05T10:26:05.715Z</time></trkpt><trkpt lat="43.1280706" lon="10.6437733"><ele>325.0</ele><time>2026-04-05T10:26:06.721Z</time></trkpt><trkpt lat="43.1280117" lon="10.6437301"><ele>325.5</ele><time>2026-04-05T10:26:07.724Z</time></trkpt><trkpt lat="43.1279467" lon="10.6436874"><ele>326.0</ele><time>2026-04-05T10:26:08.722Z</time></trkpt><trkpt lat="43.1278878" lon="10.6436424"><ele>326.5</ele><time>2026-04-05T10:26:09.724Z</time></trkpt><trkpt lat="43.1278342" lon="10.6435894"><ele>327.0</ele><time>2026-04-05T10:26:10.728Z</time></trkpt><trkpt lat="43.1277316" lon="10.6435081"><ele>327.5</ele><time>2026-04-05T10:26:12.725Z</time></trkpt><trkpt lat="43.127625" lon="10.6434529"><ele>328.0</ele><time>2026-04-05T10:26:14.725Z</time></trkpt><trkpt lat="43.1275245" lon="10.643412"><ele>328.0</ele><time>2026-04-05T10:26:16.719Z</time></trkpt><trkpt lat="43.127409" lon="10.6433825"><ele>328.0</ele><time>2026-04-05T10:26:18.724Z</time></trkpt><trkpt lat="43.127327" lon="10.6433543"><ele>328.0</ele><time>2026-04-05T10:26:20.707Z</time></trkpt><trkpt lat="43.1272493" lon="10.6433013"><ele>328.0</ele><time>2026-04-05T10:26:23.729Z</time></trkpt><trkpt lat="43.1271585" lon="10.6432546"><ele>328.0</ele><time>2026-04-05T10:26:26.734Z</time></trkpt><trkpt lat="43.127083" lon="10.6432004"><ele>328.16666666666663</ele><time>2026-04-05T10:26:28.738Z</time></trkpt><trkpt lat="43.1270089" lon="10.6431412"><ele>328.3333333333333</ele><time>2026-04-05T10:26:30.739Z</time></trkpt><trkpt lat="43.1269367" lon="10.6430733"><ele>328.5</ele><time>2026-04-05T10:26:32.744Z</time></trkpt><trkpt lat="43.1268674" lon="10.6430135"><ele>328.6666666666667</ele><time>2026-04-05T10:26:34.751Z</time></trkpt><trkpt lat="43.1268181" lon="10.6429524"><ele>328.83333333333337</ele><time>2026-04-05T10:26:36.726Z</time></trkpt><trkpt lat="43.1267584" lon="10.64289"><ele>329.0</ele><time>2026-04-05T10:26:38.721Z</time></trkpt><trkpt lat="43.1267074" lon="10.6427893"><ele>329.0</ele><time>2026-04-05T10:26:41.706Z</time></trkpt><trkpt lat="43.1266774" lon="10.6426879"><ele>329.0</ele><time>2026-04-05T10:26:43.711Z</time></trkpt><trkpt lat="43.1266385" lon="10.6425995"><ele>329.0</ele><time>2026-04-05T10:26:45.708Z</time></trkpt><trkpt lat="43.1265828" lon="10.6425217"><ele>329.0</ele><time>2026-04-05T10:26:48.724Z</time></trkpt><trkpt lat="43.126502" lon="10.6425092"><ele>329.0</ele><time>2026-04-05T10:26:50.73Z</time></trkpt><trkpt lat="43.1264302" lon="10.6424911"><ele>329.0</ele><time>2026-04-05T10:26:52.731Z</time></trkpt><trkpt lat="43.1263625" lon="10.6424642"><ele>329.0</ele><time>2026-04-05T10:26:54.731Z</time></trkpt><trkpt lat="43.1262977" lon="10.6424642"><ele>329.0</ele><time>2026-04-05T10:26:57.715Z</time></trkpt><trkpt lat="43.1263881" lon="10.6424764"><ele>329.0</ele><time>2026-04-05T10:28:24.74Z</time></trkpt><trkpt lat="43.1264494" lon="10.642505"><ele>329.0</ele><time>2026-04-05T10:28:26.752Z</time></trkpt><trkpt lat="43.1265179" lon="10.6425453"><ele>329.0</ele><time>2026-04-05T10:28:28.753Z</time></trkpt><trkpt lat="43.1266017" lon="10.6425988"><ele>329.0</ele><time>2026-04-05T10:28:30.749Z</time></trkpt><trkpt lat="43.1266912" lon="10.6426645"><ele>329.0</ele><time>2026-04-05T10:28:32.726Z</time></trkpt><trkpt lat="43.1267594" lon="10.642764"><ele>329.0</ele><time>2026-04-05T10:28:34.731Z</time></trkpt><trkpt lat="43.126813" lon="10.6429013"><ele>329.0</ele><time>2026-04-05T10:28:36.722Z</time></trkpt><trkpt lat="43.1268586" lon="10.6430442"><ele>329.0</ele><time>2026-04-05T10:28:38.719Z</time></trkpt><trkpt lat="43.1269077" lon="10.6431195"><ele>329.0</ele><time>2026-04-05T10:28:40.72Z</time></trkpt><trkpt lat="43.1269696" lon="10.6431795"><ele>328.83333333333337</ele><time>2026-04-05T10:28:42.728Z</time></trkpt><trkpt lat="43.1270537" lon="10.6432178"><ele>328.6666666666667</ele><time>2026-04-05T10:28:44.728Z</time></trkpt><trkpt lat="43.1271342" lon="10.6432521"><ele>328.5</ele><time>2026-04-05T10:28:46.727Z</time></trkpt><trkpt lat="43.1272149" lon="10.6432825"><ele>328.3333333333333</ele><time>2026-04-05T10:28:48.728Z</time></trkpt><trkpt lat="43.1273061" lon="10.6433022"><ele>328.16666666666663</ele><time>2026-04-05T10:28:50.723Z</time></trkpt><trkpt lat="43.1274009" lon="10.6433362"><ele>328.0</ele><time>2026-04-05T10:28:52.725Z</time></trkpt><trkpt lat="43.127485" lon="10.6433633"><ele>328.0</ele><time>2026-04-05T10:28:54.724Z</time></trkpt><trkpt lat="43.1275648" lon="10.6434297"><ele>328.0</ele><time>2026-04-05T10:28:56.71Z</time></trkpt><trkpt lat="43.127621" lon="10.6434772"><ele>328.0</ele><time>2026-04-05T10:28:58.705Z</time></trkpt><trkpt lat="43.1277154" lon="10.6435085"><ele>328.0</ele><time>2026-04-05T10:29:00.705Z</time></trkpt><trkpt lat="43.1277904" lon="10.6435231"><ele>328.0</ele><time>2026-04-05T10:29:02.706Z</time></trkpt><trkpt lat="43.1278703" lon="10.6435443"><ele>328.0</ele><time>2026-04-05T10:29:05.707Z</time></trkpt><trkpt lat="43.1279092" lon="10.6436457"><ele>323.66666666666663</ele><time>2026-04-05T10:29:08.709Z</time></trkpt><trkpt lat="43.1279009" lon="10.6437552"><ele>319.3333333333333</ele><time>2026-04-05T10:29:10.733Z</time></trkpt><trkpt lat="43.1279508" lon="10.6438332"><ele>315.0</ele><time>2026-04-05T10:29:12.718Z</time></trkpt><trkpt lat="43.1280266" lon="10.6438829"><ele>310.6666666666667</ele><time>2026-04-05T10:29:14.715Z</time></trkpt><trkpt lat="43.1280883" lon="10.6439211"><ele>306.33333333333337</ele><time>2026-04-05T10:29:16.696Z</time></trkpt><trkpt lat="43.1281556" lon="10.6439931"><ele>302.0</ele><time>2026-04-05T10:29:19.705Z</time></trkpt><trkpt lat="43.1281956" lon="10.6440709"><ele>306.6</ele><time>2026-04-05T10:29:21.7Z</time></trkpt><trkpt lat="43.1282611" lon="10.6440781"><ele>311.2</ele><time>2026-04-05T10:29:25.701Z</time></trkpt><trkpt lat="43.1282965" lon="10.644162"><ele>315.8</ele><time>2026-04-05T10:29:26.695Z</time></trkpt><trkpt lat="43.1283741" lon="10.6442489"><ele>320.4</ele><time>2026-04-05T10:29:27.693Z</time></trkpt><trkpt lat="43.1284457" lon="10.6443023"><ele>325.0</ele><time>2026-04-05T10:29:28.698Z</time></trkpt><trkpt lat="43.1285136" lon="10.6444611"><ele>325.0</ele><time>2026-04-05T10:29:29.698Z</time></trkpt><trkpt lat="43.1285563" lon="10.6446001"><ele>325.0</ele><time>2026-04-05T10:29:30.704Z</time></trkpt><trkpt lat="43.1286471" lon="10.6446435"><ele>325.0</ele><time>2026-04-05T10:29:35.712Z</time></trkpt><trkpt lat="43.1286996" lon="10.644558"><ele>325.0</ele><time>2026-04-05T10:29:36.714Z</time></trkpt><trkpt lat="43.1287394" lon="10.6444745"><ele>325.0</ele><time>2026-04-05T10:29:42.692Z</time></trkpt><trkpt lat="43.1287126" lon="10.6443389"><ele>325.0</ele><time>2026-04-05T10:29:47.709Z</time></trkpt><trkpt lat="43.1287897" lon="10.6443053"><ele>325.0</ele><time>2026-04-05T10:29:49.726Z</time></trkpt><trkpt lat="43.128845" lon="10.6442331"><ele>325.0</ele><time>2026-04-05T10:29:53.707Z</time></trkpt><trkpt lat="43.1289408" lon="10.6443783"><ele>325.0</ele><time>2026-04-05T10:29:55.706Z</time></trkpt><trkpt lat="43.1288995" lon="10.6444761"><ele>325.0</ele><time>2026-04-05T10:29:57.695Z</time></trkpt><trkpt lat="43.1289629" lon="10.6445053"><ele>325.0</ele><time>2026-04-05T10:30:11.707Z</time></trkpt><trkpt lat="43.1289545" lon="10.6444066"><ele>325.0</ele><time>2026-04-05T10:30:20.715Z</time></trkpt><trkpt lat="43.1289589" lon="10.6443074"><ele>325.0</ele><time>2026-04-05T10:30:29.716Z</time></trkpt><trkpt lat="43.1289217" lon="10.6442362"><ele>325.0</ele><time>2026-04-05T10:30:32.717Z</time></trkpt><trkpt lat="43.128866" lon="10.6441878"><ele>325.0</ele><time>2026-04-05T10:30:35.725Z</time></trkpt><trkpt lat="43.1288536" lon="10.6440738"><ele>325.0</ele><time>2026-04-05T10:30:39.723Z</time></trkpt><trkpt lat="43.1288974" lon="10.6439926"><ele>325.0</ele><time>2026-04-05T10:30:41.723Z</time></trkpt><trkpt lat="43.1289283" lon="10.6439029"><ele>325.0</ele><time>2026-04-05T10:30:43.734Z</time></trkpt><trkpt lat="43.1289824" lon="10.6437939"><ele>325.0</ele><time>2026-04-05T10:30:45.72Z</time></trkpt><trkpt lat="43.129014" lon="10.6436643"><ele>325.0</ele><time>2026-04-05T10:30:47.726Z</time></trkpt><trkpt lat="43.1290506" lon="10.6435677"><ele>325.0</ele><time>2026-04-05T10:30:50.722Z</time></trkpt><trkpt lat="43.1291069" lon="10.6435203"><ele>325.0</ele><time>2026-04-05T10:30:52.733Z</time></trkpt><trkpt lat="43.1291803" lon="10.6435106"><ele>325.0</ele><time>2026-04-05T10:30:54.733Z</time></trkpt><trkpt lat="43.1292815" lon="10.6435475"><ele>325.0</ele><time>2026-04-05T10:30:56.74Z</time></trkpt><trkpt lat="43.1293705" lon="10.6435892"><ele>324.2857142857143</ele><time>2026-04-05T10:30:58.739Z</time></trkpt><trkpt lat="43.1294404" lon="10.6436192"><ele>323.5714285714286</ele><time>2026-04-05T10:31:00.736Z</time></trkpt><trkpt lat="43.1295067" lon="10.6436473"><ele>322.8571428571429</ele><time>2026-04-05T10:31:02.741Z</time></trkpt><trkpt lat="43.1295648" lon="10.6436945"><ele>322.1428571428571</ele><time>2026-04-05T10:31:04.735Z</time></trkpt><trkpt lat="43.129628" lon="10.6437631"><ele>321.42857142857144</ele><time>2026-04-05T10:31:07.726Z</time></trkpt><trkpt lat="43.129707" lon="10.6437769"><ele>320.7142857142857</ele><time>2026-04-05T10:34:49.723Z</time></trkpt><trkpt lat="43.1297753" lon="10.643805"><ele>320.0</ele><time>2026-04-05T10:34:51.748Z</time></trkpt><trkpt lat="43.1298453" lon="10.64382"><ele>319.5</ele><time>2026-04-05T10:34:53.725Z</time></trkpt><trkpt lat="43.1299093" lon="10.6438515"><ele>319.0</ele><time>2026-04-05T10:34:55.734Z</time></trkpt><trkpt lat="43.1299715" lon="10.6438871"><ele>318.5</ele><time>2026-04-05T10:34:57.73Z</time></trkpt><trkpt lat="43.1300463" lon="10.6439141"><ele>318.0</ele><time>2026-04-05T10:34:59.724Z</time></trkpt><trkpt lat="43.1301152" lon="10.6439447"><ele>317.5</ele><time>2026-04-05T10:35:01.726Z</time></trkpt><trkpt lat="43.1301913" lon="10.6440026"><ele>317.0</ele><time>2026-04-05T10:35:03.732Z</time></trkpt><trkpt lat="43.13026" lon="10.6440547"><ele>317.0</ele><time>2026-04-05T10:35:05.732Z</time></trkpt><trkpt lat="43.1303277" lon="10.6441115"><ele>317.0</ele><time>2026-04-05T10:35:07.739Z</time></trkpt><trkpt lat="43.1303821" lon="10.6441573"><ele>317.0</ele><time>2026-04-05T10:35:09.739Z</time></trkpt><trkpt lat="43.1304447" lon="10.644225"><ele>317.0</ele><time>2026-04-05T10:35:11.736Z</time></trkpt><trkpt lat="43.1305098" lon="10.6443065"><ele>317.0</ele><time>2026-04-05T10:35:13.727Z</time></trkpt><trkpt lat="43.1305717" lon="10.644381"><ele>317.0</ele><time>2026-04-05T10:35:15.735Z</time></trkpt><trkpt lat="43.1306398" lon="10.6444489"><ele>316.33333333333337</ele><time>2026-04-05T10:35:17.736Z</time></trkpt><trkpt lat="43.1307045" lon="10.6445437"><ele>315.6666666666667</ele><time>2026-04-05T10:35:19.728Z</time></trkpt><trkpt lat="43.1307605" lon="10.6446419"><ele>315.0</ele><time>2026-04-05T10:35:21.733Z</time></trkpt><trkpt lat="43.1308115" lon="10.6447297"><ele>314.3333333333333</ele><time>2026-04-05T10:35:23.737Z</time></trkpt><trkpt lat="43.1308609" lon="10.6448321"><ele>313.66666666666663</ele><time>2026-04-05T10:35:25.745Z</time></trkpt><trkpt lat="43.1309101" lon="10.6449279"><ele>313.0</ele><time>2026-04-05T10:35:27.744Z</time></trkpt><trkpt lat="43.1309627" lon="10.6450307"><ele>313.0</ele><time>2026-04-05T10:35:29.733Z</time></trkpt><trkpt lat="43.1310177" lon="10.6451252"><ele>313.0</ele><time>2026-04-05T10:35:31.734Z</time></trkpt><trkpt lat="43.1310867" lon="10.6452185"><ele>313.0</ele><time>2026-04-05T10:35:33.729Z</time></trkpt><trkpt lat="43.1311576" lon="10.6452876"><ele>313.0</ele><time>2026-04-05T10:35:35.729Z</time></trkpt><trkpt lat="43.1312356" lon="10.6453354"><ele>313.0</ele><time>2026-04-05T10:35:37.739Z</time></trkpt><trkpt lat="43.131322" lon="10.6453939"><ele>313.16666666666663</ele><time>2026-04-05T10:35:39.744Z</time></trkpt><trkpt lat="43.1314078" lon="10.6454365"><ele>313.3333333333333</ele><time>2026-04-05T10:35:41.736Z</time></trkpt><trkpt lat="43.1314845" lon="10.6454683"><ele>313.5</ele><time>2026-04-05T10:35:43.742Z</time></trkpt><trkpt lat="43.1315546" lon="10.6455051"><ele>313.6666666666667</ele><time>2026-04-05T10:35:45.73Z</time></trkpt><trkpt lat="43.1316342" lon="10.6455337"><ele>313.83333333333337</ele><time>2026-04-05T10:35:47.718Z</time></trkpt><trkpt lat="43.1317231" lon="10.6455435"><ele>314.0</ele><time>2026-04-05T10:35:49.725Z</time></trkpt><trkpt lat="43.1318251" lon="10.6455425"><ele>314.0</ele><time>2026-04-05T10:35:51.733Z</time></trkpt><trkpt lat="43.1319231" lon="10.6455066"><ele>314.0</ele><time>2026-04-05T10:35:53.741Z</time></trkpt><trkpt lat="43.1320009" lon="10.6454558"><ele>314.0</ele><time>2026-04-05T10:35:55.73Z</time></trkpt><trkpt lat="43.1320569" lon="10.6453802"><ele>314.0</ele><time>2026-04-05T10:35:57.728Z</time></trkpt><trkpt lat="43.1321095" lon="10.6452851"><ele>314.0</ele><time>2026-04-05T10:35:59.728Z</time></trkpt><trkpt lat="43.1321646" lon="10.6451858"><ele>314.0</ele><time>2026-04-05T10:36:01.736Z</time></trkpt><trkpt lat="43.1322211" lon="10.6450621"><ele>314.59999999999997</ele><time>2026-04-05T10:36:03.733Z</time></trkpt><trkpt lat="43.1322799" lon="10.6449587"><ele>315.2</ele><time>2026-04-05T10:36:05.732Z</time></trkpt><trkpt lat="43.1323346" lon="10.644849"><ele>315.79999999999995</ele><time>2026-04-05T10:36:07.736Z</time></trkpt><trkpt lat="43.1323899" lon="10.6447357"><ele>316.4</ele><time>2026-04-05T10:36:09.738Z</time></trkpt><trkpt lat="43.1324412" lon="10.6446268"><ele>317.0</ele><time>2026-04-05T10:36:11.735Z</time></trkpt><trkpt lat="43.1324976" lon="10.6445032"><ele>321.2</ele><time>2026-04-05T10:36:13.741Z</time></trkpt><trkpt lat="43.1325622" lon="10.6443766"><ele>325.4</ele><time>2026-04-05T10:36:15.733Z</time></trkpt><trkpt lat="43.1326169" lon="10.6442588"><ele>329.59999999999997</ele><time>2026-04-05T10:36:17.735Z</time></trkpt><trkpt lat="43.1326918" lon="10.6441298"><ele>333.79999999999995</ele><time>2026-04-05T10:36:19.732Z</time></trkpt><trkpt lat="43.1327413" lon="10.6439996"><ele>338.0</ele><time>2026-04-05T10:36:21.726Z</time></trkpt><trkpt lat="43.1327731" lon="10.6438842"><ele>338.0</ele><time>2026-04-05T10:36:23.724Z</time></trkpt><trkpt lat="43.132817" lon="10.6437711"><ele>338.0</ele><time>2026-04-05T10:36:25.729Z</time></trkpt><trkpt lat="43.1328655" lon="10.6436457"><ele>338.0</ele><time>2026-04-05T10:36:27.729Z</time></trkpt><trkpt lat="43.1329099" lon="10.643515"><ele>338.0</ele><time>2026-04-05T10:36:29.736Z</time></trkpt><trkpt lat="43.1329433" lon="10.6433761"><ele>338.0</ele><time>2026-04-05T10:36:31.737Z</time></trkpt><trkpt lat="43.1329678" lon="10.6432332"><ele>339.59999999999997</ele><time>2026-04-05T10:36:33.734Z</time></trkpt><trkpt lat="43.1329871" lon="10.6430934"><ele>341.2</ele><time>2026-04-05T10:36:35.732Z</time></trkpt><trkpt lat="43.1329955" lon="10.6429539"><ele>342.8</ele><time>2026-04-05T10:36:37.737Z</time></trkpt><trkpt lat="43.1329838" lon="10.6428078"><ele>344.4</ele><time>2026-04-05T10:36:39.732Z</time></trkpt><trkpt lat="43.1329588" lon="10.6426658"><ele>346.0</ele><time>2026-04-05T10:36:41.727Z</time></trkpt><trkpt lat="43.1329361" lon="10.6425246"><ele>346.20000000000005</ele><time>2026-04-05T10:36:43.733Z</time></trkpt><trkpt lat="43.1329531" lon="10.642376"><ele>346.40000000000003</ele><time>2026-04-05T10:36:45.732Z</time></trkpt><trkpt lat="43.1330183" lon="10.6422449"><ele>346.6</ele><time>2026-04-05T10:36:47.734Z</time></trkpt><trkpt lat="43.1330959" lon="10.6421546"><ele>346.8</ele><time>2026-04-05T10:36:49.729Z</time></trkpt><trkpt lat="43.1331915" lon="10.6420602"><ele>347.0</ele><time>2026-04-05T10:36:51.736Z</time></trkpt><trkpt lat="43.1332986" lon="10.6420461"><ele>341.8</ele><time>2026-04-05T10:36:53.734Z</time></trkpt><trkpt lat="43.1334041" lon="10.6420959"><ele>336.6</ele><time>2026-04-05T10:36:55.756Z</time></trkpt><trkpt lat="43.1335168" lon="10.6421704"><ele>331.40000000000003</ele><time>2026-04-05T10:36:57.741Z</time></trkpt><trkpt lat="43.1335732" lon="10.6422112"><ele>326.20000000000005</ele><time>2026-04-05T10:36:58.742Z</time></trkpt><trkpt lat="43.1336624" lon="10.6423082"><ele>321.0</ele><time>2026-04-05T10:37:00.734Z</time></trkpt><trkpt lat="43.133721" lon="10.6424056"><ele>321.0</ele><time>2026-04-05T10:37:02.734Z</time></trkpt><trkpt lat="43.1337797" lon="10.6425113"><ele>321.0</ele><time>2026-04-05T10:37:04.711Z</time></trkpt><trkpt lat="43.1338413" lon="10.6426265"><ele>321.0</ele><time>2026-04-05T10:37:06.713Z</time></trkpt><trkpt lat="43.1339386" lon="10.642728"><ele>321.0</ele><time>2026-04-05T10:37:08.704Z</time></trkpt><trkpt lat="43.1340215" lon="10.6427918"><ele>321.0</ele><time>2026-04-05T10:37:09.697Z</time></trkpt><trkpt lat="43.1340814" lon="10.6428676"><ele>320.8</ele><time>2026-04-05T10:37:10.691Z</time></trkpt><trkpt lat="43.1341743" lon="10.642841"><ele>320.6</ele><time>2026-04-05T10:37:12.696Z</time></trkpt><trkpt lat="43.1342618" lon="10.6427648"><ele>320.4</ele><time>2026-04-05T10:37:14.707Z</time></trkpt><trkpt lat="43.1343192" lon="10.6426606"><ele>320.2</ele><time>2026-04-05T10:37:16.714Z</time></trkpt><trkpt lat="43.1343983" lon="10.6425652"><ele>320.0</ele><time>2026-04-05T10:37:18.733Z</time></trkpt><trkpt lat="43.1344806" lon="10.6424732"><ele>321.5</ele><time>2026-04-05T10:37:20.732Z</time></trkpt><trkpt lat="43.1345436" lon="10.6423781"><ele>323.0</ele><time>2026-04-05T10:37:22.731Z</time></trkpt><trkpt lat="43.1345852" lon="10.6423054"><ele>324.5</ele><time>2026-04-05T10:37:24.729Z</time></trkpt><trkpt lat="43.1345922" lon="10.6422048"><ele>326.0</ele><time>2026-04-05T10:37:35.704Z</time></trkpt><trkpt lat="43.1345964" lon="10.6420841"><ele>327.5</ele><time>2026-04-05T10:37:49.724Z</time></trkpt><trkpt lat="43.1346514" lon="10.6420419"><ele>329.0</ele><time>2026-04-05T10:37:51.733Z</time></trkpt><trkpt lat="43.134718" lon="10.6420352"><ele>329.0</ele><time>2026-04-05T10:37:53.731Z</time></trkpt><trkpt lat="43.1348027" lon="10.6421099"><ele>329.0</ele><time>2026-04-05T10:37:55.723Z</time></trkpt><trkpt lat="43.1348731" lon="10.6422274"><ele>329.0</ele><time>2026-04-05T10:37:57.755Z</time></trkpt><trkpt lat="43.1349412" lon="10.6423512"><ele>329.0</ele><time>2026-04-05T10:37:59.734Z</time></trkpt><trkpt lat="43.1349985" lon="10.6424574"><ele>329.0</ele><time>2026-04-05T10:38:01.732Z</time></trkpt><trkpt lat="43.135064" lon="10.6425628"><ele>329.2</ele><time>2026-04-05T10:38:03.735Z</time></trkpt><trkpt lat="43.1351228" lon="10.6426563"><ele>329.4</ele><time>2026-04-05T10:38:05.734Z</time></trkpt><trkpt lat="43.1351862" lon="10.6427445"><ele>329.6</ele><time>2026-04-05T10:38:07.737Z</time></trkpt><trkpt lat="43.1352322" lon="10.6428516"><ele>329.8</ele><time>2026-04-05T10:38:09.745Z</time></trkpt><trkpt lat="43.1352848" lon="10.6429524"><ele>330.0</ele><time>2026-04-05T10:38:11.735Z</time></trkpt><trkpt lat="43.1353279" lon="10.6430613"><ele>327.2</ele><time>2026-04-05T10:38:13.735Z</time></trkpt><trkpt lat="43.1353614" lon="10.6431816"><ele>324.4</ele><time>2026-04-05T10:38:15.732Z</time></trkpt><trkpt lat="43.1353977" lon="10.643302"><ele>321.6</ele><time>2026-04-05T10:38:17.736Z</time></trkpt><trkpt lat="43.1354397" lon="10.6434178"><ele>318.8</ele><time>2026-04-05T10:38:19.74Z</time></trkpt><trkpt lat="43.1354895" lon="10.6435275"><ele>316.0</ele><time>2026-04-05T10:38:21.737Z</time></trkpt><trkpt lat="43.1355293" lon="10.6436413"><ele>313.6</ele><time>2026-04-05T10:38:23.738Z</time></trkpt><trkpt lat="43.1355629" lon="10.6437643"><ele>311.20000000000005</ele><time>2026-04-05T10:38:25.733Z</time></trkpt><trkpt lat="43.1355873" lon="10.6438877"><ele>308.79999999999995</ele><time>2026-04-05T10:38:27.739Z</time></trkpt><trkpt lat="43.1356091" lon="10.6440168"><ele>306.4</ele><time>2026-04-05T10:38:29.741Z</time></trkpt><trkpt lat="43.1356152" lon="10.644148"><ele>304.0</ele><time>2026-04-05T10:38:31.734Z</time></trkpt><trkpt lat="43.1356475" lon="10.644264"><ele>304.0</ele><time>2026-04-05T10:38:33.744Z</time></trkpt><trkpt lat="43.1357026" lon="10.6443686"><ele>304.0</ele><time>2026-04-05T10:38:35.743Z</time></trkpt><trkpt lat="43.1357496" lon="10.6444324"><ele>304.0</ele><time>2026-04-05T10:38:37.739Z</time></trkpt><trkpt lat="43.1357955" lon="10.6445127"><ele>304.0</ele><time>2026-04-05T10:38:40.725Z</time></trkpt><trkpt lat="43.1358431" lon="10.6445905"><ele>304.0</ele><time>2026-04-05T10:38:42.721Z</time></trkpt><trkpt lat="43.135911" lon="10.6445681"><ele>304.0</ele><time>2026-04-05T10:38:46.729Z</time></trkpt><trkpt lat="43.1359224" lon="10.6444749"><ele>304.0</ele><time>2026-04-05T10:38:50.733Z</time></trkpt><trkpt lat="43.1358486" lon="10.6444764"><ele>307.7142857142857</ele><time>2026-04-05T10:40:33.734Z</time></trkpt><trkpt lat="43.1358051" lon="10.6444077"><ele>311.42857142857144</ele><time>2026-04-05T10:40:37.747Z</time></trkpt><trkpt lat="43.1358507" lon="10.6443266"><ele>315.14285714285717</ele><time>2026-04-05T10:40:40.757Z</time></trkpt><trkpt lat="43.1358808" lon="10.6442491"><ele>318.8571428571429</ele><time>2026-04-05T10:40:42.758Z</time></trkpt><trkpt lat="43.1359024" lon="10.6441564"><ele>322.57142857142856</ele><time>2026-04-05T10:40:44.751Z</time></trkpt><trkpt lat="43.1359342" lon="10.6440709"><ele>326.28571428571433</ele><time>2026-04-05T10:40:46.76Z</time></trkpt><trkpt lat="43.1359537" lon="10.6439696"><ele>330.0</ele><time>2026-04-05T10:40:49.76Z</time></trkpt><trkpt lat="43.1359652" lon="10.643864"><ele>330.0</ele><time>2026-04-05T10:40:52.746Z</time></trkpt><trkpt lat="43.1359784" lon="10.6437551"><ele>330.0</ele><time>2026-04-05T10:40:55.747Z</time></trkpt><trkpt lat="43.1359882" lon="10.6436379"><ele>330.0</ele><time>2026-04-05T10:40:58.748Z</time></trkpt><trkpt lat="43.1360064" lon="10.6435283"><ele>330.0</ele><time>2026-04-05T10:41:01.745Z</time></trkpt><trkpt lat="43.1360327" lon="10.6434285"><ele>330.0</ele><time>2026-04-05T10:41:05.745Z</time></trkpt><trkpt lat="43.1360675" lon="10.6433521"><ele>330.0</ele><time>2026-04-05T10:41:08.745Z</time></trkpt><trkpt lat="43.1360882" lon="10.6432448"><ele>331.5</ele><time>2026-04-05T10:41:11.75Z</time></trkpt><trkpt lat="43.1361097" lon="10.6431292"><ele>333.0</ele><time>2026-04-05T10:41:14.748Z</time></trkpt><trkpt lat="43.1361445" lon="10.6430378"><ele>334.5</ele><time>2026-04-05T10:41:17.754Z</time></trkpt><trkpt lat="43.1361981" lon="10.642956"><ele>336.0</ele><time>2026-04-05T10:41:21.756Z</time></trkpt><trkpt lat="43.1362528" lon="10.6428808"><ele>337.5</ele><time>2026-04-05T10:41:24.748Z</time></trkpt><trkpt lat="43.1363256" lon="10.6428142"><ele>339.0</ele><time>2026-04-05T10:41:27.749Z</time></trkpt><trkpt lat="43.1363858" lon="10.6427448"><ele>341.6666666666667</ele><time>2026-04-05T10:41:30.751Z</time></trkpt><trkpt lat="43.1364436" lon="10.642687"><ele>344.3333333333333</ele><time>2026-04-05T10:41:33.742Z</time></trkpt><trkpt lat="43.1365115" lon="10.6426407"><ele>347.0</ele><time>2026-04-05T10:41:36.745Z</time></trkpt><trkpt lat="43.1365878" lon="10.6425771"><ele>349.66666666666663</ele><time>2026-04-05T10:41:39.747Z</time></trkpt><trkpt lat="43.1366554" lon="10.6424881"><ele>352.3333333333333</ele><time>2026-04-05T10:41:42.746Z</time></trkpt><trkpt lat="43.1366976" lon="10.6424203"><ele>355.0</ele><time>2026-04-05T10:41:44.744Z</time></trkpt><trkpt lat="43.1367421" lon="10.6423508"><ele>355.5</ele><time>2026-04-05T10:41:46.744Z</time></trkpt><trkpt lat="43.1367986" lon="10.6422516"><ele>356.0</ele><time>2026-04-05T10:41:49.748Z</time></trkpt><trkpt lat="43.1368494" lon="10.6421911"><ele>356.5</ele><time>2026-04-05T10:41:51.747Z</time></trkpt><trkpt lat="43.1369209" lon="10.642114"><ele>357.0</ele><time>2026-04-05T10:41:54.739Z</time></trkpt><trkpt lat="43.1369671" lon="10.6420421"><ele>357.5</ele><time>2026-04-05T10:41:56.742Z</time></trkpt><trkpt lat="43.1370107" lon="10.6419561"><ele>358.0</ele><time>2026-04-05T10:41:59.734Z</time></trkpt><trkpt lat="43.1370641" lon="10.6418592"><ele>361.16666666666663</ele><time>2026-04-05T10:42:03.743Z</time></trkpt><trkpt lat="43.1371055" lon="10.641762"><ele>364.3333333333333</ele><time>2026-04-05T10:42:06.744Z</time></trkpt><trkpt lat="43.1371314" lon="10.6416432"><ele>367.5</ele><time>2026-04-05T10:42:09.745Z</time></trkpt><trkpt lat="43.1371441" lon="10.6415449"><ele>370.6666666666667</ele><time>2026-04-05T10:42:12.745Z</time></trkpt><trkpt lat="43.1371444" lon="10.6414575"><ele>373.83333333333337</ele><time>2026-04-05T10:42:15.752Z</time></trkpt><trkpt lat="43.1371549" lon="10.6413565"><ele>377.0</ele><time>2026-04-05T10:42:19.744Z</time></trkpt><trkpt lat="43.1371734" lon="10.6412671"><ele>377.0</ele><time>2026-04-05T10:42:22.741Z</time></trkpt><trkpt lat="43.1371849" lon="10.641177"><ele>377.0</ele><time>2026-04-05T10:42:25.742Z</time></trkpt><trkpt lat="43.1372197" lon="10.641099"><ele>377.0</ele><time>2026-04-05T10:42:30.744Z</time></trkpt><trkpt lat="43.1372451" lon="10.6409994"><ele>377.0</ele><time>2026-04-05T10:42:36.759Z</time></trkpt><trkpt lat="43.1373097" lon="10.6409081"><ele>377.0</ele><time>2026-04-05T10:42:40.746Z</time></trkpt><trkpt lat="43.1373728" lon="10.6408498"><ele>377.0</ele><time>2026-04-05T10:42:43.753Z</time></trkpt><trkpt lat="43.1374182" lon="10.6407653"><ele>377.33333333333337</ele><time>2026-04-05T10:42:47.748Z</time></trkpt><trkpt lat="43.137466" lon="10.640676"><ele>377.6666666666667</ele><time>2026-04-05T10:42:52.753Z</time></trkpt><trkpt lat="43.1374954" lon="10.6405849"><ele>378.0</ele><time>2026-04-05T10:42:56.743Z</time></trkpt><trkpt lat="43.1375396" lon="10.6405086"><ele>378.3333333333333</ele><time>2026-04-05T10:42:59.742Z</time></trkpt><trkpt lat="43.1376022" lon="10.6404351"><ele>378.66666666666663</ele><time>2026-04-05T10:43:02.747Z</time></trkpt><trkpt lat="43.1376707" lon="10.6403904"><ele>379.0</ele><time>2026-04-05T10:43:05.749Z</time></trkpt><trkpt lat="43.1377385" lon="10.6403765"><ele>380.5</ele><time>2026-04-05T10:43:10.749Z</time></trkpt><trkpt lat="43.1377897" lon="10.6402985"><ele>382.0</ele><time>2026-04-05T10:43:13.752Z</time></trkpt><trkpt lat="43.1378321" lon="10.6402285"><ele>383.5</ele><time>2026-04-05T10:43:16.753Z</time></trkpt><trkpt lat="43.13789" lon="10.6401284"><ele>385.0</ele><time>2026-04-05T10:43:20.75Z</time></trkpt><trkpt lat="43.137925" lon="10.640019"><ele>386.50000000000006</ele><time>2026-04-05T10:43:23.753Z</time></trkpt><trkpt lat="43.1379518" lon="10.6399248"><ele>388.0</ele><time>2026-04-05T10:43:27.761Z</time></trkpt><trkpt lat="43.1379931" lon="10.6398273"><ele>388.00000000000006</ele><time>2026-04-05T10:43:41.75Z</time></trkpt><trkpt lat="43.1380075" lon="10.6397208"><ele>388.0</ele><time>2026-04-05T10:43:43.741Z</time></trkpt><trkpt lat="43.1380077" lon="10.6395714"><ele>388.0</ele><time>2026-04-05T10:43:45.745Z</time></trkpt><trkpt lat="43.1380035" lon="10.63947"><ele>388.0</ele><time>2026-04-05T10:43:46.745Z</time></trkpt><trkpt lat="43.137988" lon="10.6393601"><ele>388.00000000000006</ele><time>2026-04-05T10:43:47.737Z</time></trkpt><trkpt lat="43.137963" lon="10.6392526"><ele>388.0</ele><time>2026-04-05T10:43:48.739Z</time></trkpt><trkpt lat="43.13795" lon="10.6391549"><ele>389.83333333333337</ele><time>2026-04-05T10:43:49.742Z</time></trkpt><trkpt lat="43.1379377" lon="10.6390595"><ele>391.6666666666667</ele><time>2026-04-05T10:43:50.743Z</time></trkpt><trkpt lat="43.137927" lon="10.6389678"><ele>393.5</ele><time>2026-04-05T10:43:51.737Z</time></trkpt><trkpt lat="43.1379278" lon="10.6388814"><ele>395.33333333333337</ele><time>2026-04-05T10:43:52.741Z</time></trkpt><trkpt lat="43.1379275" lon="10.6387287"><ele>397.1666666666667</ele><time>2026-04-05T10:43:54.746Z</time></trkpt><trkpt lat="43.1379191" lon="10.6385976"><ele>399.0</ele><time>2026-04-05T10:43:56.745Z</time></trkpt><trkpt lat="43.1379101" lon="10.6384851"><ele>399.85714285714283</ele><time>2026-04-05T10:43:58.75Z</time></trkpt><trkpt lat="43.137908" lon="10.6383937"><ele>400.7142857142857</ele><time>2026-04-05T10:44:00.736Z</time></trkpt><trkpt lat="43.1379096" lon="10.6382941"><ele>401.57142857142856</ele><time>2026-04-05T10:44:03.734Z</time></trkpt><trkpt lat="43.1379118" lon="10.6381845"><ele>402.42857142857144</ele><time>2026-04-05T10:44:07.741Z</time></trkpt><trkpt lat="43.1379093" lon="10.6380887"><ele>403.2857142857143</ele><time>2026-04-05T10:44:12.755Z</time></trkpt><trkpt lat="43.1379097" lon="10.6379993"><ele>404.1428571428571</ele><time>2026-04-05T10:44:17.746Z</time></trkpt><trkpt lat="43.1379325" lon="10.6379074"><ele>405.0</ele><time>2026-04-05T10:44:21.75Z</time></trkpt><trkpt lat="43.1379673" lon="10.6378285"><ele>405.99999999999994</ele><time>2026-04-05T10:44:25.753Z</time></trkpt><trkpt lat="43.1380049" lon="10.6377407"><ele>407.0</ele><time>2026-04-05T10:44:28.745Z</time></trkpt><trkpt lat="43.1380361" lon="10.6376572"><ele>408.0</ele><time>2026-04-05T10:44:31.748Z</time></trkpt><trkpt lat="43.1380822" lon="10.6375844"><ele>409.0</ele><time>2026-04-05T10:44:34.746Z</time></trkpt><trkpt lat="43.138114" lon="10.6375004"><ele>410.0</ele><time>2026-04-05T10:44:37.755Z</time></trkpt><trkpt lat="43.1381329" lon="10.6374164"><ele>410.99999999999994</ele><time>2026-04-05T10:44:41.745Z</time></trkpt><trkpt lat="43.138135" lon="10.6372937"><ele>412.0</ele><time>2026-04-05T10:44:44.743Z</time></trkpt><trkpt lat="43.1381268" lon="10.6372012"><ele>412.00000000000006</ele><time>2026-04-05T10:44:46.75Z</time></trkpt><trkpt lat="43.1381228" lon="10.6370945"><ele>412.0</ele><time>2026-04-05T10:44:48.75Z</time></trkpt><trkpt lat="43.1381158" lon="10.6369921"><ele>412.0</ele><time>2026-04-05T10:44:50.746Z</time></trkpt><trkpt lat="43.1381103" lon="10.6368733"><ele>412.0</ele><time>2026-04-05T10:44:53.743Z</time></trkpt><trkpt lat="43.1380971" lon="10.6367448"><ele>412.00000000000006</ele><time>2026-04-05T10:44:56.739Z</time></trkpt><trkpt lat="43.1380712" lon="10.6366501"><ele>412.0</ele><time>2026-04-05T10:44:58.735Z</time></trkpt><trkpt lat="43.1380401" lon="10.6365372"><ele>412.8</ele><time>2026-04-05T10:45:00.742Z</time></trkpt><trkpt lat="43.137993" lon="10.6364133"><ele>413.6</ele><time>2026-04-05T10:45:02.741Z</time></trkpt><trkpt lat="43.1379332" lon="10.6362657"><ele>414.40000000000003</ele><time>2026-04-05T10:45:04.735Z</time></trkpt><trkpt lat="43.1378791" lon="10.636136"><ele>415.20000000000005</ele><time>2026-04-05T10:45:06.732Z</time></trkpt><trkpt lat="43.1379331" lon="10.6360827"><ele>416.0</ele><time>2026-04-05T10:45:10.741Z</time></trkpt><trkpt lat="43.1380007" lon="10.6361084"><ele>416.66666666666663</ele><time>2026-04-05T10:45:14.735Z</time></trkpt><trkpt lat="43.1380698" lon="10.6360794"><ele>417.3333333333333</ele><time>2026-04-05T10:45:17.738Z</time></trkpt><trkpt lat="43.1381337" lon="10.6360426"><ele>418.0</ele><time>2026-04-05T10:45:20.727Z</time></trkpt><trkpt lat="43.1382251" lon="10.6360029"><ele>418.66666666666663</ele><time>2026-04-05T10:45:23.732Z</time></trkpt><trkpt lat="43.1382847" lon="10.6359098"><ele>419.3333333333333</ele><time>2026-04-05T10:45:25.745Z</time></trkpt><trkpt lat="43.1383471" lon="10.6358809"><ele>420.0</ele><time>2026-04-05T10:45:28.743Z</time></trkpt><trkpt lat="43.1384129" lon="10.6358128"><ele>417.3333333333333</ele><time>2026-04-05T10:45:33.752Z</time></trkpt><trkpt lat="43.1384965" lon="10.6357716"><ele>414.66666666666663</ele><time>2026-04-05T10:45:39.747Z</time></trkpt><trkpt lat="43.138561" lon="10.6357895"><ele>412.0</ele><time>2026-04-05T10:45:41.752Z</time></trkpt><trkpt lat="43.1386317" lon="10.6358101"><ele>409.3333333333333</ele><time>2026-04-05T10:45:43.762Z</time></trkpt><trkpt lat="43.1387125" lon="10.6358329"><ele>406.66666666666663</ele><time>2026-04-05T10:45:46.758Z</time></trkpt><trkpt lat="43.1388032" lon="10.6358039"><ele>404.0</ele><time>2026-04-05T10:45:49.76Z</time></trkpt><trkpt lat="43.1388676" lon="10.6357332"><ele>403.99999999999994</ele><time>2026-04-05T10:45:52.761Z</time></trkpt><trkpt lat="43.1389124" lon="10.6356447"><ele>404.0</ele><time>2026-04-05T10:45:56.751Z</time></trkpt><trkpt lat="43.1389454" lon="10.6355439"><ele>404.0</ele><time>2026-04-05T10:46:00.757Z</time></trkpt><trkpt lat="43.1389749" lon="10.6354445"><ele>404.0</ele><time>2026-04-05T10:46:04.758Z</time></trkpt><trkpt lat="43.1390049" lon="10.6353567"><ele>403.99999999999994</ele><time>2026-04-05T10:46:08.756Z</time></trkpt><trkpt lat="43.1390325" lon="10.635262"><ele>404.0</ele><time>2026-04-05T10:46:11.762Z</time></trkpt><trkpt lat="43.139059" lon="10.6351674"><ele>406.8333333333333</ele><time>2026-04-05T10:46:14.762Z</time></trkpt><trkpt lat="43.1390906" lon="10.6350682"><ele>409.66666666666663</ele><time>2026-04-05T10:46:17.752Z</time></trkpt><trkpt lat="43.1391268" lon="10.6349817"><ele>412.5</ele><time>2026-04-05T10:46:21.752Z</time></trkpt><trkpt lat="43.1391531" lon="10.6348863"><ele>415.33333333333337</ele><time>2026-04-05T10:46:25.751Z</time></trkpt><trkpt lat="43.1391861" lon="10.6347814"><ele>418.1666666666667</ele><time>2026-04-05T10:46:28.748Z</time></trkpt><trkpt lat="43.1392235" lon="10.6346795"><ele>421.0</ele><time>2026-04-05T10:46:31.744Z</time></trkpt><trkpt lat="43.1392585" lon="10.6345983"><ele>421.00000000000006</ele><time>2026-04-05T10:46:34.747Z</time></trkpt><trkpt lat="43.1392816" lon="10.6344947"><ele>421.0</ele><time>2026-04-05T10:46:38.752Z</time></trkpt><trkpt lat="43.1392881" lon="10.6344021"><ele>421.0</ele><time>2026-04-05T10:46:40.755Z</time></trkpt><trkpt lat="43.1392984" lon="10.6343065"><ele>421.0</ele><time>2026-04-05T10:46:43.763Z</time></trkpt><trkpt lat="43.1393233" lon="10.6342136"><ele>421.0</ele><time>2026-04-05T10:46:46.755Z</time></trkpt><trkpt lat="43.1393604" lon="10.6341326"><ele>421.00000000000006</ele><time>2026-04-05T10:46:49.747Z</time></trkpt><trkpt lat="43.1394038" lon="10.634059"><ele>421.0</ele><time>2026-04-05T10:46:53.745Z</time></trkpt><trkpt lat="43.1394474" lon="10.6339879"><ele>422.50000000000006</ele><time>2026-04-05T10:46:57.747Z</time></trkpt><trkpt lat="43.1394836" lon="10.6339069"><ele>424.0</ele><time>2026-04-05T10:47:00.754Z</time></trkpt><trkpt lat="43.139532" lon="10.6338144"><ele>425.5</ele><time>2026-04-05T10:47:03.745Z</time></trkpt><trkpt lat="43.1395768" lon="10.6337292"><ele>427.0</ele><time>2026-04-05T10:47:06.745Z</time></trkpt><trkpt lat="43.1396022" lon="10.6336459"><ele>428.50000000000006</ele><time>2026-04-05T10:47:09.753Z</time></trkpt><trkpt lat="43.1396353" lon="10.6335473"><ele>430.0</ele><time>2026-04-05T10:47:12.746Z</time></trkpt><trkpt lat="43.1396679" lon="10.6334423"><ele>430.85714285714283</ele><time>2026-04-05T10:47:15.735Z</time></trkpt><trkpt lat="43.1396938" lon="10.6333515"><ele>431.7142857142857</ele><time>2026-04-05T10:48:04.761Z</time></trkpt><trkpt lat="43.1397372" lon="10.6332561"><ele>432.57142857142856</ele><time>2026-04-05T10:48:08.762Z</time></trkpt><trkpt lat="43.1397312" lon="10.6331686"><ele>433.42857142857144</ele><time>2026-04-05T10:48:12.752Z</time></trkpt><trkpt lat="43.1396686" lon="10.6331338"><ele>434.28571428571433</ele><time>2026-04-05T10:48:15.744Z</time></trkpt><trkpt lat="43.1395939" lon="10.6331238"><ele>435.14285714285717</ele><time>2026-04-05T10:48:19.738Z</time></trkpt><trkpt lat="43.139513" lon="10.6330922"><ele>436.0</ele><time>2026-04-05T10:48:24.744Z</time></trkpt><trkpt lat="43.1394393" lon="10.6330419"><ele>436.0</ele><time>2026-04-05T10:48:27.741Z</time></trkpt><trkpt lat="43.1393779" lon="10.6329945"><ele>436.0</ele><time>2026-04-05T10:48:30.741Z</time></trkpt><trkpt lat="43.1393147" lon="10.6329404"><ele>436.0</ele><time>2026-04-05T10:48:35.744Z</time></trkpt><trkpt lat="43.1392589" lon="10.6328965"><ele>436.0</ele><time>2026-04-05T10:48:39.747Z</time></trkpt><trkpt lat="43.1391933" lon="10.6328783"><ele>436.0</ele><time>2026-04-05T10:48:42.727Z</time></trkpt><trkpt lat="43.1391247" lon="10.6328672"><ele>436.0</ele><time>2026-04-05T10:48:45.735Z</time></trkpt><trkpt lat="43.1390611" lon="10.6328926"><ele>436.0</ele><time>2026-04-05T10:48:49.746Z</time></trkpt><trkpt lat="43.1389925" lon="10.6329359"><ele>438.57142857142856</ele><time>2026-04-05T10:48:53.732Z</time></trkpt><trkpt lat="43.1389307" lon="10.6329817"><ele>441.14285714285717</ele><time>2026-04-05T10:48:56.739Z</time></trkpt><trkpt lat="43.1388576" lon="10.633004"><ele>443.7142857142857</ele><time>2026-04-05T10:48:59.738Z</time></trkpt><trkpt lat="43.1387904" lon="10.6330146"><ele>446.28571428571433</ele><time>2026-04-05T10:49:04.733Z</time></trkpt><trkpt lat="43.1387224" lon="10.6329987"><ele>448.8571428571429</ele><time>2026-04-05T10:49:09.741Z</time></trkpt><trkpt lat="43.1386594" lon="10.6329856"><ele>451.42857142857144</ele><time>2026-04-05T10:49:13.734Z</time></trkpt><trkpt lat="43.1385734" lon="10.6329505"><ele>454.0</ele><time>2026-04-05T10:49:17.73Z</time></trkpt><trkpt lat="43.1384893" lon="10.6329508"><ele>454.0</ele><time>2026-04-05T10:49:21.735Z</time></trkpt><trkpt lat="43.1384158" lon="10.6329188"><ele>454.00000000000006</ele><time>2026-04-05T10:49:24.741Z</time></trkpt><trkpt lat="43.1383362" lon="10.6328862"><ele>454.0</ele><time>2026-04-05T10:49:27.75Z</time></trkpt><trkpt lat="43.1382722" lon="10.6329049"><ele>454.0</ele><time>2026-04-05T10:49:29.741Z</time></trkpt><trkpt lat="43.1381938" lon="10.6329385"><ele>454.00000000000006</ele><time>2026-04-05T10:49:32.746Z</time></trkpt><trkpt lat="43.1381257" lon="10.632967"><ele>454.0</ele><time>2026-04-05T10:49:36.74Z</time></trkpt><trkpt lat="43.1380578" lon="10.6329843"><ele>454.0</ele><time>2026-04-05T10:49:39.714Z</time></trkpt><trkpt lat="43.1379837" lon="10.6330081"><ele>456.50000000000006</ele><time>2026-04-05T10:49:43.728Z</time></trkpt><trkpt lat="43.1379396" lon="10.6330998"><ele>459.0</ele><time>2026-04-05T10:49:46.739Z</time></trkpt><trkpt lat="43.1378729" lon="10.633148"><ele>461.5</ele><time>2026-04-05T10:49:52.727Z</time></trkpt><trkpt lat="43.1378056" lon="10.6331958"><ele>464.0</ele><time>2026-04-05T10:49:55.736Z</time></trkpt><trkpt lat="43.13773" lon="10.6332456"><ele>466.50000000000006</ele><time>2026-04-05T10:49:58.74Z</time></trkpt><trkpt lat="43.1376638" lon="10.6332159"><ele>469.0</ele><time>2026-04-05T10:50:01.742Z</time></trkpt><trkpt lat="43.1375935" lon="10.6331927"><ele>469.00000000000006</ele><time>2026-04-05T10:50:05.743Z</time></trkpt><trkpt lat="43.1375203" lon="10.6331964"><ele>469.0</ele><time>2026-04-05T10:50:10.742Z</time></trkpt><trkpt lat="43.1374338" lon="10.6332556"><ele>469.0</ele><time>2026-04-05T10:50:17.744Z</time></trkpt><trkpt lat="43.1373657" lon="10.6332695"><ele>469.0</ele><time>2026-04-05T10:50:21.748Z</time></trkpt><trkpt lat="43.1372842" lon="10.6332766"><ele>469.00000000000006</ele><time>2026-04-05T10:50:27.737Z</time></trkpt><trkpt lat="43.1372022" lon="10.6332454"><ele>469.0</ele><time>2026-04-05T10:50:31.741Z</time></trkpt><trkpt lat="43.1371257" lon="10.6332459"><ele>471.57142857142856</ele><time>2026-04-05T10:50:34.742Z</time></trkpt><trkpt lat="43.1370602" lon="10.6332193"><ele>474.1428571428571</ele><time>2026-04-05T10:50:37.74Z</time></trkpt><trkpt lat="43.1369726" lon="10.6332196"><ele>476.7142857142857</ele><time>2026-04-05T10:50:41.743Z</time></trkpt><trkpt lat="43.1369084" lon="10.633219"><ele>479.2857142857143</ele><time>2026-04-05T10:50:45.749Z</time></trkpt><trkpt lat="43.1368383" lon="10.6332369"><ele>481.85714285714283</ele><time>2026-04-05T10:50:49.742Z</time></trkpt><trkpt lat="43.1367704" lon="10.633215"><ele>484.42857142857144</ele><time>2026-04-05T10:50:53.748Z</time></trkpt><trkpt lat="43.1367018" lon="10.6331489"><ele>487.0</ele><time>2026-04-05T10:50:57.746Z</time></trkpt><trkpt lat="43.1366152" lon="10.6331094"><ele>489.33333333333337</ele><time>2026-04-05T10:51:00.75Z</time></trkpt><trkpt lat="43.1365295" lon="10.6330771"><ele>491.6666666666667</ele><time>2026-04-05T10:51:03.744Z</time></trkpt><trkpt lat="43.1364533" lon="10.63306"><ele>494.0</ele><time>2026-04-05T10:51:06.743Z</time></trkpt><trkpt lat="43.1363769" lon="10.6330476"><ele>496.33333333333337</ele><time>2026-04-05T10:51:09.74Z</time></trkpt><trkpt lat="43.1363014" lon="10.6330401"><ele>498.6666666666667</ele><time>2026-04-05T10:51:12.739Z</time></trkpt><trkpt lat="43.1362378" lon="10.633022"><ele>501.0</ele><time>2026-04-05T10:51:15.748Z</time></trkpt><trkpt lat="43.1361687" lon="10.6330163"><ele>501.0</ele><time>2026-04-05T10:51:18.748Z</time></trkpt><trkpt lat="43.1360768" lon="10.6330132"><ele>501.0</ele><time>2026-04-05T10:51:22.749Z</time></trkpt><trkpt lat="43.1359974" lon="10.6330225"><ele>501.0</ele><time>2026-04-05T10:51:25.743Z</time></trkpt><trkpt lat="43.1359398" lon="10.6330672"><ele>501.0</ele><time>2026-04-05T10:51:28.744Z</time></trkpt><trkpt lat="43.1358628" lon="10.6331223"><ele>501.0</ele><time>2026-04-05T10:51:31.741Z</time></trkpt><trkpt lat="43.1357915" lon="10.6331789"><ele>501.0</ele><time>2026-04-05T10:51:34.743Z</time></trkpt><trkpt lat="43.1357071" lon="10.6332064"><ele>502.5</ele><time>2026-04-05T10:51:37.739Z</time></trkpt><trkpt lat="43.1356189" lon="10.633223"><ele>504.0</ele><time>2026-04-05T10:51:40.751Z</time></trkpt><trkpt lat="43.1355414" lon="10.6332259"><ele>505.5</ele><time>2026-04-05T10:51:44.727Z</time></trkpt><trkpt lat="43.1354577" lon="10.6332212"><ele>507.0</ele><time>2026-04-05T10:51:46.735Z</time></trkpt><trkpt lat="43.1353946" lon="10.6332151"><ele>508.5</ele><time>2026-04-05T10:51:47.735Z</time></trkpt><trkpt lat="43.135311" lon="10.6332313"><ele>510.0</ele><time>2026-04-05T10:51:49.728Z</time></trkpt><trkpt lat="43.1351966" lon="10.6332364"><ele>510.0</ele><time>2026-04-05T10:51:51.741Z</time></trkpt><trkpt lat="43.1351207" lon="10.6332434"><ele>510.0</ele><time>2026-04-05T10:51:53.747Z</time></trkpt><trkpt lat="43.1350454" lon="10.6332205"><ele>510.0</ele><time>2026-04-05T10:51:55.745Z</time></trkpt><trkpt lat="43.1349405" lon="10.633183"><ele>510.0</ele><time>2026-04-05T10:51:57.749Z</time></trkpt><trkpt lat="43.1348505" lon="10.6331103"><ele>510.0</ele><time>2026-04-05T10:51:59.735Z</time></trkpt><trkpt lat="43.1347883" lon="10.6330633"><ele>510.0</ele><time>2026-04-05T10:52:01.729Z</time></trkpt><trkpt lat="43.1347156" lon="10.6330159"><ele>509.4</ele><time>2026-04-05T10:52:03.741Z</time></trkpt><trkpt lat="43.1346303" lon="10.6329655"><ele>508.8</ele><time>2026-04-05T10:52:05.724Z</time></trkpt><trkpt lat="43.1345381" lon="10.6329403"><ele>508.20000000000005</ele><time>2026-04-05T10:52:07.724Z</time></trkpt><trkpt lat="43.1344414" lon="10.6329054"><ele>507.6</ele><time>2026-04-05T10:52:09.727Z</time></trkpt><trkpt lat="43.1343236" lon="10.6328724"><ele>507.0</ele><time>2026-04-05T10:52:11.716Z</time></trkpt><trkpt lat="43.1342247" lon="10.6328304"><ele>507.0</ele><time>2026-04-05T10:52:15.719Z</time></trkpt><trkpt lat="43.1340845" lon="10.6328505"><ele>507.00000000000006</ele><time>2026-04-05T10:52:17.719Z</time></trkpt><trkpt lat="43.1340228" lon="10.632877"><ele>507.00000000000006</ele><time>2026-04-05T10:52:18.719Z</time></trkpt><trkpt lat="43.133921" lon="10.6329579"><ele>507.0</ele><time>2026-04-05T10:52:20.719Z</time></trkpt><trkpt lat="43.1338602" lon="10.6329888"><ele>507.0</ele><time>2026-04-05T10:52:21.718Z</time></trkpt><trkpt lat="43.133744" lon="10.6330116"><ele>506.1666666666667</ele><time>2026-04-05T10:52:23.724Z</time></trkpt><trkpt lat="43.1336662" lon="10.6329995"><ele>505.33333333333337</ele><time>2026-04-05T10:52:25.718Z</time></trkpt><trkpt lat="43.1335751" lon="10.633046"><ele>504.5</ele><time>2026-04-05T10:52:28.707Z</time></trkpt><trkpt lat="43.1335116" lon="10.6331078"><ele>503.6666666666667</ele><time>2026-04-05T10:52:31.714Z</time></trkpt><trkpt lat="43.133465" lon="10.6331685"><ele>502.83333333333337</ele><time>2026-04-05T10:52:34.712Z</time></trkpt><trkpt lat="43.1334088" lon="10.6332216"><ele>502.0</ele><time>2026-04-05T10:52:38.723Z</time></trkpt><trkpt lat="43.1333721" lon="10.6333003"><ele>502.00000000000006</ele><time>2026-04-05T10:52:44.715Z</time></trkpt><trkpt lat="43.1333287" lon="10.6333813"><ele>502.0</ele><time>2026-04-05T10:52:46.719Z</time></trkpt><trkpt lat="43.1332901" lon="10.6334743"><ele>502.0</ele><time>2026-04-05T10:52:48.723Z</time></trkpt><trkpt lat="43.1332735" lon="10.6335922"><ele>502.0</ele><time>2026-04-05T10:52:50.723Z</time></trkpt><trkpt lat="43.1332703" lon="10.633694"><ele>502.00000000000006</ele><time>2026-04-05T10:52:52.719Z</time></trkpt><trkpt lat="43.1332928" lon="10.633794"><ele>502.0</ele><time>2026-04-05T10:52:56.715Z</time></trkpt><trkpt lat="43.1333119" lon="10.633897"><ele>502.50000000000006</ele><time>2026-04-05T10:52:59.717Z</time></trkpt><trkpt lat="43.1332897" lon="10.6339812"><ele>503.0</ele><time>2026-04-05T10:53:02.719Z</time></trkpt><trkpt lat="43.1332537" lon="10.6341075"><ele>503.5</ele><time>2026-04-05T10:53:05.726Z</time></trkpt><trkpt lat="43.1332168" lon="10.6342099"><ele>504.0</ele><time>2026-04-05T10:53:07.724Z</time></trkpt><trkpt lat="43.1331789" lon="10.6342941"><ele>504.50000000000006</ele><time>2026-04-05T10:53:09.726Z</time></trkpt><trkpt lat="43.1331215" lon="10.6343644"><ele>505.0</ele><time>2026-04-05T10:53:11.724Z</time></trkpt><trkpt lat="43.133053" lon="10.6344194"><ele>505.0</ele><time>2026-04-05T10:53:14.725Z</time></trkpt><trkpt lat="43.1329617" lon="10.6344674"><ele>505.0</ele><time>2026-04-05T10:53:17.728Z</time></trkpt><trkpt lat="43.1328602" lon="10.6344808"><ele>505.0</ele><time>2026-04-05T10:53:19.727Z</time></trkpt><trkpt lat="43.1327468" lon="10.6344898"><ele>505.0</ele><time>2026-04-05T10:53:21.736Z</time></trkpt><trkpt lat="43.1326229" lon="10.6345731"><ele>505.6666666666667</ele><time>2026-04-05T10:53:23.734Z</time></trkpt><trkpt lat="43.1325418" lon="10.634639"><ele>506.33333333333337</ele><time>2026-04-05T10:53:24.715Z</time></trkpt><trkpt lat="43.132483" lon="10.634693"><ele>507.0</ele><time>2026-04-05T10:53:25.738Z</time></trkpt><trkpt lat="43.1324333" lon="10.6347573"><ele>507.66666666666663</ele><time>2026-04-05T10:53:26.712Z</time></trkpt><trkpt lat="43.1323749" lon="10.6347978"><ele>508.3333333333333</ele><time>2026-04-05T10:53:27.713Z</time></trkpt><trkpt lat="43.1322724" lon="10.6348085"><ele>509.0</ele><time>2026-04-05T10:53:29.718Z</time></trkpt><trkpt lat="43.1321557" lon="10.6348069"><ele>508.99999999999994</ele><time>2026-04-05T10:53:31.721Z</time></trkpt><trkpt lat="43.1320609" lon="10.6348188"><ele>509.0</ele><time>2026-04-05T10:53:33.728Z</time></trkpt><trkpt lat="43.1319804" lon="10.6347925"><ele>509.0</ele><time>2026-04-05T10:53:35.729Z</time></trkpt><trkpt lat="43.1319355" lon="10.6346828"><ele>509.0</ele><time>2026-04-05T10:53:38.722Z</time></trkpt><trkpt lat="43.1319027" lon="10.6345901"><ele>508.99999999999994</ele><time>2026-04-05T10:53:40.724Z</time></trkpt><trkpt lat="43.1318871" lon="10.6344668"><ele>509.0</ele><time>2026-04-05T10:53:42.721Z</time></trkpt><trkpt lat="43.1318813" lon="10.6343294"><ele>508.6</ele><time>2026-04-05T10:53:44.724Z</time></trkpt><trkpt lat="43.1318337" lon="10.6341944"><ele>508.2</ele><time>2026-04-05T10:53:46.73Z</time></trkpt><trkpt lat="43.1318723" lon="10.6340742"><ele>507.80000000000007</ele><time>2026-04-05T10:53:48.72Z</time></trkpt><trkpt lat="43.1319242" lon="10.6339807"><ele>507.40000000000003</ele><time>2026-04-05T10:53:50.726Z</time></trkpt><trkpt lat="43.1319098" lon="10.6338583"><ele>507.0</ele><time>2026-04-05T10:53:52.723Z</time></trkpt><trkpt lat="43.1318921" lon="10.6337178"><ele>505.8</ele><time>2026-04-05T10:53:54.726Z</time></trkpt><trkpt lat="43.1318675" lon="10.6335652"><ele>504.6</ele><time>2026-04-05T10:53:56.747Z</time></trkpt><trkpt lat="43.1318432" lon="10.6334789"><ele>503.40000000000003</ele><time>2026-04-05T10:53:57.733Z</time></trkpt><trkpt lat="43.1317926" lon="10.6333353"><ele>502.20000000000005</ele><time>2026-04-05T10:53:59.729Z</time></trkpt><trkpt lat="43.1317206" lon="10.633208"><ele>501.0</ele><time>2026-04-05T10:54:01.718Z</time></trkpt><trkpt lat="43.1316415" lon="10.6331038"><ele>501.0</ele><time>2026-04-05T10:54:03.719Z</time></trkpt><trkpt lat="43.13156" lon="10.6330117"><ele>501.0</ele><time>2026-04-05T10:54:05.727Z</time></trkpt><trkpt lat="43.1314917" lon="10.6329266"><ele>501.0</ele><time>2026-04-05T10:54:08.728Z</time></trkpt><trkpt lat="43.1314472" lon="10.63285"><ele>501.0</ele><time>2026-04-05T10:54:10.733Z</time></trkpt><trkpt lat="43.1313915" lon="10.6327633"><ele>501.0</ele><time>2026-04-05T10:54:12.728Z</time></trkpt><trkpt lat="43.1313285" lon="10.6326845"><ele>501.0</ele><time>2026-04-05T10:54:14.724Z</time></trkpt><trkpt lat="43.131259" lon="10.6326111"><ele>501.0</ele><time>2026-04-05T10:54:16.726Z</time></trkpt><trkpt lat="43.1311804" lon="10.6325399"><ele>501.0</ele><time>2026-04-05T10:54:18.729Z</time></trkpt><trkpt lat="43.131096" lon="10.6324707"><ele>501.0</ele><time>2026-04-05T10:54:20.724Z</time></trkpt><trkpt lat="43.1309959" lon="10.6324276"><ele>501.0</ele><time>2026-04-05T10:54:22.719Z</time></trkpt><trkpt lat="43.1308952" lon="10.6324062"><ele>501.0</ele><time>2026-04-05T10:54:24.725Z</time></trkpt><trkpt lat="43.1307868" lon="10.6323807"><ele>503.0</ele><time>2026-04-05T10:54:26.721Z</time></trkpt><trkpt lat="43.1306767" lon="10.63236"><ele>505.0</ele><time>2026-04-05T10:54:28.728Z</time></trkpt><trkpt lat="43.1305926" lon="10.6323414"><ele>507.0</ele><time>2026-04-05T10:54:30.723Z</time></trkpt><trkpt lat="43.1305051" lon="10.6323136"><ele>509.0</ele><time>2026-04-05T10:54:32.72Z</time></trkpt><trkpt lat="43.1304285" lon="10.6322781"><ele>511.0</ele><time>2026-04-05T10:54:34.723Z</time></trkpt><trkpt lat="43.1303392" lon="10.632221"><ele>511.0</ele><time>2026-04-05T10:54:36.723Z</time></trkpt><trkpt lat="43.1302619" lon="10.6321498"><ele>511.0</ele><time>2026-04-05T10:54:38.724Z</time></trkpt><trkpt lat="43.1301843" lon="10.632064"><ele>511.0</ele><time>2026-04-05T10:54:40.733Z</time></trkpt><trkpt lat="43.1301083" lon="10.6319665"><ele>511.0</ele><time>2026-04-05T10:54:42.726Z</time></trkpt><trkpt lat="43.1300492" lon="10.6318648"><ele>511.0</ele><time>2026-04-05T10:54:44.736Z</time></trkpt><trkpt lat="43.1299736" lon="10.6317751"><ele>510.4</ele><time>2026-04-05T10:54:46.734Z</time></trkpt><trkpt lat="43.1299059" lon="10.6317124"><ele>509.8</ele><time>2026-04-05T10:54:48.74Z</time></trkpt><trkpt lat="43.1298081" lon="10.6316806"><ele>509.19999999999993</ele><time>2026-04-05T10:54:50.734Z</time></trkpt><trkpt lat="43.1297033" lon="10.6316787"><ele>508.59999999999997</ele><time>2026-04-05T10:54:52.73Z</time></trkpt><trkpt lat="43.1295994" lon="10.6316671"><ele>508.0</ele><time>2026-04-05T10:54:54.731Z</time></trkpt><trkpt lat="43.1294819" lon="10.6316535"><ele>508.0</ele><time>2026-04-05T10:54:56.736Z</time></trkpt><trkpt lat="43.1294186" lon="10.6316426"><ele>507.99999999999994</ele><time>2026-04-05T10:54:57.733Z</time></trkpt><trkpt lat="43.1293014" lon="10.6316307"><ele>507.99999999999994</ele><time>2026-04-05T10:54:59.733Z</time></trkpt><trkpt lat="43.1291842" lon="10.6316112"><ele>508.0</ele><time>2026-04-05T10:55:01.728Z</time></trkpt><trkpt lat="43.1290625" lon="10.6316277"><ele>508.0</ele><time>2026-04-05T10:55:03.724Z</time></trkpt><trkpt lat="43.1289984" lon="10.6316394"><ele>507.4</ele><time>2026-04-05T10:55:04.723Z</time></trkpt><trkpt lat="43.1288889" lon="10.6316742"><ele>506.79999999999995</ele><time>2026-04-05T10:55:06.726Z</time></trkpt><trkpt lat="43.1287936" lon="10.6316991"><ele>506.2</ele><time>2026-04-05T10:55:08.728Z</time></trkpt><trkpt lat="43.1286907" lon="10.6317112"><ele>505.6</ele><time>2026-04-05T10:55:10.732Z</time></trkpt><trkpt lat="43.1285834" lon="10.6317259"><ele>505.0</ele><time>2026-04-05T10:55:12.732Z</time></trkpt><trkpt lat="43.1285014" lon="10.6317259"><ele>505.00000000000006</ele><time>2026-04-05T10:55:14.731Z</time></trkpt><trkpt lat="43.1284238" lon="10.6316918"><ele>505.0</ele><time>2026-04-05T10:55:16.752Z</time></trkpt><trkpt lat="43.1283631" lon="10.6316278"><ele>505.0</ele><time>2026-04-05T10:55:18.744Z</time></trkpt><trkpt lat="43.1283168" lon="10.6315593"><ele>505.0</ele><time>2026-04-05T10:55:20.741Z</time></trkpt><trkpt lat="43.1282561" lon="10.6314864"><ele>505.00000000000006</ele><time>2026-04-05T10:55:24.741Z</time></trkpt><trkpt lat="43.128208" lon="10.6313809"><ele>505.0</ele><time>2026-04-05T10:55:27.744Z</time></trkpt><trkpt lat="43.1281696" lon="10.6312812"><ele>505.2857142857143</ele><time>2026-04-05T10:55:29.764Z</time></trkpt><trkpt lat="43.1281328" lon="10.6312039"><ele>505.57142857142856</ele><time>2026-04-05T10:55:31.741Z</time></trkpt><trkpt lat="43.1280938" lon="10.6311175"><ele>505.85714285714283</ele><time>2026-04-05T10:55:33.744Z</time></trkpt><trkpt lat="43.1280449" lon="10.6310418"><ele>506.1428571428571</ele><time>2026-04-05T10:55:35.746Z</time></trkpt><trkpt lat="43.1280023" lon="10.6309653"><ele>506.42857142857144</ele><time>2026-04-05T10:55:37.733Z</time></trkpt><trkpt lat="43.1279554" lon="10.6308946"><ele>506.71428571428567</ele><time>2026-04-05T10:55:39.745Z</time></trkpt><trkpt lat="43.1279011" lon="10.6307945"><ele>507.0</ele><time>2026-04-05T10:55:41.735Z</time></trkpt><trkpt lat="43.1278378" lon="10.6306751"><ele>507.0</ele><time>2026-04-05T10:55:43.743Z</time></trkpt><trkpt lat="43.1277675" lon="10.6305681"><ele>507.00000000000006</ele><time>2026-04-05T10:55:45.737Z</time></trkpt><trkpt lat="43.1276971" lon="10.6304457"><ele>507.00000000000006</ele><time>2026-04-05T10:55:47.738Z</time></trkpt><trkpt lat="43.1276392" lon="10.6303449"><ele>507.0</ele><time>2026-04-05T10:55:49.737Z</time></trkpt><trkpt lat="43.1276005" lon="10.6302435"><ele>507.0</ele><time>2026-04-05T10:55:51.756Z</time></trkpt><trkpt lat="43.1275562" lon="10.6301313"><ele>508.71428571428567</ele><time>2026-04-05T10:55:53.755Z</time></trkpt><trkpt lat="43.1275126" lon="10.6300349"><ele>510.42857142857144</ele><time>2026-04-05T10:55:56.742Z</time></trkpt><trkpt lat="43.1274657" lon="10.6299647"><ele>512.1428571428571</ele><time>2026-04-05T10:55:59.75Z</time></trkpt><trkpt lat="43.1274272" lon="10.6298902"><ele>513.8571428571429</ele><time>2026-04-05T10:56:01.739Z</time></trkpt><trkpt lat="43.1274043" lon="10.6298098"><ele>515.5714285714286</ele><time>2026-04-05T10:56:04.742Z</time></trkpt><trkpt lat="43.1273503" lon="10.6297166"><ele>517.2857142857142</ele><time>2026-04-05T10:56:06.739Z</time></trkpt><trkpt lat="43.1272998" lon="10.6296374"><ele>519.0</ele><time>2026-04-05T10:56:08.725Z</time></trkpt><trkpt lat="43.1272432" lon="10.629575"><ele>519.6666666666666</ele><time>2026-04-05T10:56:10.731Z</time></trkpt><trkpt lat="43.127198" lon="10.6294907"><ele>520.3333333333334</ele><time>2026-04-05T10:56:13.739Z</time></trkpt><trkpt lat="43.1271606" lon="10.6294067"><ele>521.0</ele><time>2026-04-05T10:56:15.714Z</time></trkpt><trkpt lat="43.1271339" lon="10.6293181"><ele>521.6666666666667</ele><time>2026-04-05T10:56:17.714Z</time></trkpt><trkpt lat="43.1271582" lon="10.6291916"><ele>522.3333333333334</ele><time>2026-04-05T10:56:19.718Z</time></trkpt><trkpt lat="43.1272008" lon="10.6290906"><ele>523.0</ele><time>2026-04-05T10:56:20.711Z</time></trkpt><trkpt lat="43.12727" lon="10.6290644"><ele>523.4</ele><time>2026-04-05T10:56:22.721Z</time></trkpt><trkpt lat="43.1273774" lon="10.6290809"><ele>523.8</ele><time>2026-04-05T10:56:24.722Z</time></trkpt><trkpt lat="43.1274754" lon="10.6290832"><ele>524.2</ele><time>2026-04-05T10:56:30.737Z</time></trkpt><trkpt lat="43.1275595" lon="10.6291217"><ele>524.6</ele><time>2026-04-05T10:56:32.731Z</time></trkpt><trkpt lat="43.1276305" lon="10.6291482"><ele>525.0</ele><time>2026-04-05T10:56:34.724Z</time></trkpt><trkpt lat="43.1277206" lon="10.6291613"><ele>525.1428571428571</ele><time>2026-04-05T10:56:39.741Z</time></trkpt><trkpt lat="43.1278035" lon="10.6291728"><ele>525.2857142857142</ele><time>2026-04-05T10:56:41.728Z</time></trkpt><trkpt lat="43.1278869" lon="10.6291523"><ele>525.4285714285714</ele><time>2026-04-05T10:56:44.736Z</time></trkpt><trkpt lat="43.1279445" lon="10.6291112"><ele>525.5714285714286</ele><time>2026-04-05T10:56:45.723Z</time></trkpt><trkpt lat="43.1280163" lon="10.6290892"><ele>525.7142857142857</ele><time>2026-04-05T10:56:47.73Z</time></trkpt><trkpt lat="43.1280433" lon="10.6289987"><ele>525.8571428571429</ele><time>2026-04-05T10:56:52.737Z</time></trkpt><trkpt lat="43.1280724" lon="10.6289091"><ele>526.0</ele><time>2026-04-05T10:56:54.746Z</time></trkpt><trkpt lat="43.1280027" lon="10.6288108"><ele>526.0</ele><time>2026-04-05T10:56:59.713Z</time></trkpt><trkpt lat="43.1279846" lon="10.6287253"><ele>526.0</ele><time>2026-04-05T10:57:01.72Z</time></trkpt><trkpt lat="43.12797" lon="10.6286088"><ele>526.0</ele><time>2026-04-05T10:57:04.733Z</time></trkpt><trkpt lat="43.1280018" lon="10.6285076"><ele>526.0</ele><time>2026-04-05T10:57:07.721Z</time></trkpt><trkpt lat="43.1280037" lon="10.6284154"><ele>526.0</ele><time>2026-04-05T10:57:10.719Z</time></trkpt><trkpt lat="43.12794" lon="10.6283826"><ele>526.0</ele><time>2026-04-05T10:57:14.732Z</time></trkpt><trkpt lat="43.1279642" lon="10.6282969"><ele>526.0</ele><time>2026-04-05T10:57:29.729Z</time></trkpt><trkpt lat="43.1279111" lon="10.6281952"><ele>525.2</ele><time>2026-04-05T10:57:36.705Z</time></trkpt><trkpt lat="43.1279913" lon="10.6281879"><ele>524.4000000000001</ele><time>2026-04-05T11:00:13.725Z</time></trkpt><trkpt lat="43.128053" lon="10.6283037"><ele>523.6</ele><time>2026-04-05T11:01:56.738Z</time></trkpt><trkpt lat="43.128125" lon="10.6284061"><ele>522.8000000000001</ele><time>2026-04-05T11:01:58.744Z</time></trkpt><trkpt lat="43.1282199" lon="10.6284717"><ele>522.0</ele><time>2026-04-05T11:02:00.738Z</time></trkpt><trkpt lat="43.1282835" lon="10.6285792"><ele>521.8333333333334</ele><time>2026-04-05T11:02:02.716Z</time></trkpt><trkpt lat="43.1283604" lon="10.6286533"><ele>521.6666666666666</ele><time>2026-04-05T11:02:05.735Z</time></trkpt><trkpt lat="43.1284347" lon="10.6286831"><ele>521.5</ele><time>2026-04-05T11:02:07.743Z</time></trkpt><trkpt lat="43.1284783" lon="10.6287597"><ele>521.3333333333333</ele><time>2026-04-05T11:02:11.748Z</time></trkpt><trkpt lat="43.1285392" lon="10.6288443"><ele>521.1666666666666</ele><time>2026-04-05T11:02:14.741Z</time></trkpt><trkpt lat="43.1286191" lon="10.628897"><ele>521.0</ele><time>2026-04-05T11:02:17.759Z</time></trkpt><trkpt lat="43.1286945" lon="10.6289158"><ele>521.0</ele><time>2026-04-05T11:02:19.749Z</time></trkpt><trkpt lat="43.1287879" lon="10.6289188"><ele>521.0</ele><time>2026-04-05T11:02:21.765Z</time></trkpt><trkpt lat="43.1288678" lon="10.6289136"><ele>521.0</ele><time>2026-04-05T11:02:23.749Z</time></trkpt><trkpt lat="43.1289507" lon="10.6289064"><ele>521.0</ele><time>2026-04-05T11:02:25.753Z</time></trkpt><trkpt lat="43.1290201" lon="10.628898"><ele>521.0</ele><time>2026-04-05T11:02:27.753Z</time></trkpt><trkpt lat="43.1290873" lon="10.62899"><ele>521.0</ele><time>2026-04-05T11:02:32.737Z</time></trkpt><trkpt lat="43.1291393" lon="10.6290764"><ele>517.5</ele><time>2026-04-05T11:02:34.746Z</time></trkpt><trkpt lat="43.1292453" lon="10.6290868"><ele>514.0</ele><time>2026-04-05T11:02:36.739Z</time></trkpt><trkpt lat="43.1293316" lon="10.6290609"><ele>510.5</ele><time>2026-04-05T11:02:38.74Z</time></trkpt><trkpt lat="43.1294096" lon="10.6290195"><ele>507.0</ele><time>2026-04-05T11:02:43.757Z</time></trkpt><trkpt lat="43.129468" lon="10.6289863"><ele>503.49999999999994</ele><time>2026-04-05T11:02:45.737Z</time></trkpt><trkpt lat="43.12954" lon="10.6289491"><ele>500.0</ele><time>2026-04-05T11:02:50.739Z</time></trkpt><trkpt lat="43.1296001" lon="10.628923"><ele>499.99999999999994</ele><time>2026-04-05T11:02:54.745Z</time></trkpt><trkpt lat="43.1296676" lon="10.6289643"><ele>500.0</ele><time>2026-04-05T11:02:58.741Z</time></trkpt><trkpt lat="43.1297326" lon="10.6289092"><ele>500.0</ele><time>2026-04-05T11:03:02.737Z</time></trkpt><trkpt lat="43.1297418" lon="10.6288038"><ele>500.0</ele><time>2026-04-05T11:03:05.741Z</time></trkpt><trkpt lat="43.1297247" lon="10.6287159"><ele>499.99999999999994</ele><time>2026-04-05T11:03:07.739Z</time></trkpt><trkpt lat="43.1296915" lon="10.6286256"><ele>500.0</ele><time>2026-04-05T11:03:09.735Z</time></trkpt><trkpt lat="43.1297068" lon="10.6285034"><ele>499.16666666666663</ele><time>2026-04-05T11:04:39.734Z</time></trkpt><trkpt lat="43.1297857" lon="10.6284848"><ele>498.3333333333333</ele><time>2026-04-05T11:04:43.734Z</time></trkpt><trkpt lat="43.1298616" lon="10.6285392"><ele>497.5</ele><time>2026-04-05T11:04:46.727Z</time></trkpt><trkpt lat="43.1299409" lon="10.6285802"><ele>496.66666666666663</ele><time>2026-04-05T11:04:50.725Z</time></trkpt><trkpt lat="43.1300287" lon="10.6286253"><ele>495.8333333333333</ele><time>2026-04-05T11:04:59.722Z</time></trkpt><trkpt lat="43.1300821" lon="10.628689"><ele>495.0</ele><time>2026-04-05T11:05:01.721Z</time></trkpt><trkpt lat="43.1301168" lon="10.6287664"><ele>492.3333333333333</ele><time>2026-04-05T11:05:03.73Z</time></trkpt><trkpt lat="43.1301718" lon="10.6288101"><ele>489.66666666666663</ele><time>2026-04-05T11:05:06.729Z</time></trkpt><trkpt lat="43.1301917" lon="10.6286782"><ele>487.0</ele><time>2026-04-05T11:05:12.736Z</time></trkpt><trkpt lat="43.1301866" lon="10.6285906"><ele>484.3333333333333</ele><time>2026-04-05T11:05:14.736Z</time></trkpt><trkpt lat="43.1302028" lon="10.6284714"><ele>481.66666666666663</ele><time>2026-04-05T11:05:17.734Z</time></trkpt><trkpt lat="43.1301848" lon="10.6283796"><ele>479.0</ele><time>2026-04-05T11:05:19.72Z</time></trkpt><trkpt lat="43.1301619" lon="10.6282705"><ele>476.1428571428571</ele><time>2026-04-05T11:05:21.728Z</time></trkpt><trkpt lat="43.1301222" lon="10.6281751"><ele>473.28571428571433</ele><time>2026-04-05T11:05:23.722Z</time></trkpt><trkpt lat="43.1301057" lon="10.6280736"><ele>470.42857142857144</ele><time>2026-04-05T11:05:25.728Z</time></trkpt><trkpt lat="43.1301029" lon="10.6279771"><ele>467.57142857142856</ele><time>2026-04-05T11:05:27.728Z</time></trkpt><trkpt lat="43.1300697" lon="10.6278879"><ele>464.71428571428567</ele><time>2026-04-05T11:05:29.72Z</time></trkpt><trkpt lat="43.130027" lon="10.6278141"><ele>461.8571428571429</ele><time>2026-04-05T11:05:31.732Z</time></trkpt><trkpt lat="43.1300077" lon="10.62772"><ele>459.0</ele><time>2026-04-05T11:05:33.724Z</time></trkpt><trkpt lat="43.1299825" lon="10.6276132"><ele>455.79999999999995</ele><time>2026-04-05T11:05:35.718Z</time></trkpt><trkpt lat="43.1299735" lon="10.627494"><ele>452.59999999999997</ele><time>2026-04-05T11:05:37.72Z</time></trkpt><trkpt lat="43.1299672" lon="10.6273621"><ele>449.4</ele><time>2026-04-05T11:05:39.723Z</time></trkpt><trkpt lat="43.1299464" lon="10.627233"><ele>446.2</ele><time>2026-04-05T11:05:41.724Z</time></trkpt><trkpt lat="43.1299112" lon="10.6271037"><ele>443.0</ele><time>2026-04-05T11:05:43.725Z</time></trkpt><trkpt lat="43.1298538" lon="10.6269975"><ele>441.49999999999994</ele><time>2026-04-05T11:05:45.721Z</time></trkpt><trkpt lat="43.1298247" lon="10.626888"><ele>440.0</ele><time>2026-04-05T11:05:50.735Z</time></trkpt><trkpt lat="43.1298635" lon="10.626804"><ele>438.5</ele><time>2026-04-05T11:05:52.725Z</time></trkpt><trkpt lat="43.1299007" lon="10.6267006"><ele>437.0</ele><time>2026-04-05T11:05:54.725Z</time></trkpt><trkpt lat="43.1299563" lon="10.6265822"><ele>435.49999999999994</ele><time>2026-04-05T11:05:56.722Z</time></trkpt><trkpt lat="43.1300075" lon="10.6264734"><ele>434.0</ele><time>2026-04-05T11:05:58.729Z</time></trkpt><trkpt lat="43.1300639" lon="10.6263582"><ele>433.99999999999994</ele><time>2026-04-05T11:06:00.734Z</time></trkpt><trkpt lat="43.1301322" lon="10.6262596"><ele>434.0</ele><time>2026-04-05T11:06:02.725Z</time></trkpt><trkpt lat="43.1301583" lon="10.6261692"><ele>434.0</ele><time>2026-04-05T11:06:04.723Z</time></trkpt><trkpt lat="43.1301625" lon="10.6260508"><ele>434.0</ele><time>2026-04-05T11:06:09.734Z</time></trkpt><trkpt lat="43.1301829" lon="10.6259689"><ele>433.99999999999994</ele><time>2026-04-05T11:06:22.733Z</time></trkpt><trkpt lat="43.130266" lon="10.6259698"><ele>434.0</ele><time>2026-04-05T11:06:25.728Z</time></trkpt><trkpt lat="43.1303746" lon="10.6260169"><ele>433.99999999999994</ele><time>2026-04-05T11:06:27.735Z</time></trkpt><trkpt lat="43.130457" lon="10.6260266"><ele>434.0</ele><time>2026-04-05T11:06:29.738Z</time></trkpt><trkpt lat="43.1305214" lon="10.6260562"><ele>434.0</ele><time>2026-04-05T11:06:31.735Z</time></trkpt><trkpt lat="43.130603" lon="10.62606"><ele>434.0</ele><time>2026-04-05T11:06:33.734Z</time></trkpt><trkpt lat="43.1306722" lon="10.6260844"><ele>433.99999999999994</ele><time>2026-04-05T11:06:36.736Z</time></trkpt><trkpt lat="43.1306801" lon="10.626183"><ele>434.0</ele><time>2026-04-05T11:06:42.743Z</time></trkpt><trkpt lat="43.1307453" lon="10.6262494"><ele>431.7142857142857</ele><time>2026-04-05T11:06:45.741Z</time></trkpt><trkpt lat="43.1308053" lon="10.6262814"><ele>429.42857142857144</ele><time>2026-04-05T11:06:47.743Z</time></trkpt><trkpt lat="43.1308758" lon="10.6262929"><ele>427.1428571428571</ele><time>2026-04-05T11:06:49.74Z</time></trkpt><trkpt lat="43.1309415" lon="10.6262561"><ele>424.8571428571429</ele><time>2026-04-05T11:06:51.737Z</time></trkpt><trkpt lat="43.1310049" lon="10.6261979"><ele>422.57142857142856</ele><time>2026-04-05T11:06:53.735Z</time></trkpt><trkpt lat="43.131025" lon="10.626096"><ele>420.2857142857143</ele><time>2026-04-05T11:06:55.731Z</time></trkpt><trkpt lat="43.1310693" lon="10.6260159"><ele>418.0</ele><time>2026-04-05T11:06:57.732Z</time></trkpt><trkpt lat="43.1311233" lon="10.6259334"><ele>418.0</ele><time>2026-04-05T11:06:59.727Z</time></trkpt><trkpt lat="43.1311688" lon="10.625795"><ele>418.0</ele><time>2026-04-05T11:07:01.726Z</time></trkpt><trkpt lat="43.1312006" lon="10.6257198"><ele>418.0</ele><time>2026-04-05T11:07:02.718Z</time></trkpt><trkpt lat="43.1312496" lon="10.6255843"><ele>418.0</ele><time>2026-04-05T11:07:04.733Z</time></trkpt><trkpt lat="43.1312737" lon="10.6254793"><ele>418.0</ele><time>2026-04-05T11:07:06.725Z</time></trkpt><trkpt lat="43.1313614" lon="10.6254409"><ele>418.00000000000006</ele><time>2026-04-05T11:07:12.727Z</time></trkpt><trkpt lat="43.1314024" lon="10.6253722"><ele>418.0</ele><time>2026-04-05T11:07:14.733Z</time></trkpt><trkpt lat="43.1314693" lon="10.62527"><ele>418.0</ele><time>2026-04-05T11:07:16.732Z</time></trkpt><trkpt lat="43.13152" lon="10.6252068"><ele>418.0</ele><time>2026-04-05T11:07:17.734Z</time></trkpt><trkpt lat="43.1315671" lon="10.6251351"><ele>418.00000000000006</ele><time>2026-04-05T11:07:18.723Z</time></trkpt><trkpt lat="43.131625" lon="10.6249914"><ele>418.0</ele><time>2026-04-05T11:07:20.728Z</time></trkpt><trkpt lat="43.1316417" lon="10.6248962"><ele>413.2</ele><time>2026-04-05T11:07:21.747Z</time></trkpt><trkpt lat="43.1316506" lon="10.6247928"><ele>408.4</ele><time>2026-04-05T11:07:22.737Z</time></trkpt><trkpt lat="43.1317306" lon="10.6246888"><ele>403.59999999999997</ele><time>2026-04-05T11:07:24.733Z</time></trkpt><trkpt lat="43.1317884" lon="10.6245718"><ele>398.79999999999995</ele><time>2026-04-05T11:07:26.732Z</time></trkpt><trkpt lat="43.131841" lon="10.6244606"><ele>394.0</ele><time>2026-04-05T11:07:28.735Z</time></trkpt><trkpt lat="43.1318974" lon="10.6243541"><ele>393.4</ele><time>2026-04-05T11:07:30.744Z</time></trkpt><trkpt lat="43.1318834" lon="10.6242093"><ele>392.79999999999995</ele><time>2026-04-05T11:07:32.737Z</time></trkpt><trkpt lat="43.131876" lon="10.6240551"><ele>392.20000000000005</ele><time>2026-04-05T11:07:34.725Z</time></trkpt><trkpt lat="43.1319076" lon="10.6238904"><ele>391.6</ele><time>2026-04-05T11:07:36.735Z</time></trkpt><trkpt lat="43.1319261" lon="10.623795"><ele>391.0</ele><time>2026-04-05T11:07:37.725Z</time></trkpt><trkpt lat="43.1319323" lon="10.6237021"><ele>389.4</ele><time>2026-04-05T11:07:38.722Z</time></trkpt><trkpt lat="43.1319482" lon="10.6235268"><ele>387.8</ele><time>2026-04-05T11:07:40.73Z</time></trkpt><trkpt lat="43.1319629" lon="10.6234425"><ele>386.2</ele><time>2026-04-05T11:07:41.71Z</time></trkpt><trkpt lat="43.1319825" lon="10.6233398"><ele>384.59999999999997</ele><time>2026-04-05T11:07:42.723Z</time></trkpt><trkpt lat="43.1320199" lon="10.6232182"><ele>383.0</ele><time>2026-04-05T11:07:44.734Z</time></trkpt><trkpt lat="43.1320849" lon="10.6231449"><ele>383.0</ele><time>2026-04-05T11:07:47.751Z</time></trkpt><trkpt lat="43.1321442" lon="10.6230305"><ele>383.0</ele><time>2026-04-05T11:07:49.746Z</time></trkpt><trkpt lat="43.1321952" lon="10.6229634"><ele>383.0</ele><time>2026-04-05T11:07:50.746Z</time></trkpt><trkpt lat="43.1322552" lon="10.622907"><ele>383.0</ele><time>2026-04-05T11:07:51.739Z</time></trkpt><trkpt lat="43.1323153" lon="10.6228386"><ele>383.0</ele><time>2026-04-05T11:07:52.761Z</time></trkpt><trkpt lat="43.1323931" lon="10.6227165"><ele>383.0</ele><time>2026-04-05T11:07:54.734Z</time></trkpt><trkpt lat="43.1324195" lon="10.6225555"><ele>381.33333333333337</ele><time>2026-04-05T11:07:56.74Z</time></trkpt><trkpt lat="43.1323596" lon="10.6224322"><ele>379.6666666666667</ele><time>2026-04-05T11:07:58.742Z</time></trkpt><trkpt lat="43.1323596" lon="10.6223212"><ele>378.0</ele><time>2026-04-05T11:08:01.743Z</time></trkpt><trkpt lat="43.1323993" lon="10.6222066"><ele>376.3333333333333</ele><time>2026-04-05T11:08:03.741Z</time></trkpt><trkpt lat="43.1324584" lon="10.6221578"><ele>374.66666666666663</ele><time>2026-04-05T11:08:05.739Z</time></trkpt><trkpt lat="43.1325249" lon="10.6221135"><ele>373.0</ele><time>2026-04-05T11:08:08.751Z</time></trkpt><trkpt lat="43.132591" lon="10.6221074"><ele>371.0</ele><time>2026-04-05T11:08:11.737Z</time></trkpt><trkpt lat="43.132666" lon="10.6221187"><ele>369.0</ele><time>2026-04-05T11:08:27.745Z</time></trkpt><trkpt lat="43.132733" lon="10.6221506"><ele>367.0</ele><time>2026-04-05T11:08:50.744Z</time></trkpt><trkpt lat="43.1328188" lon="10.6221191"><ele>365.0</ele><time>2026-04-05T11:08:53.741Z</time></trkpt><trkpt lat="43.1329016" lon="10.6220948"><ele>363.0</ele><time>2026-04-05T11:08:56.738Z</time></trkpt><trkpt lat="43.1329746" lon="10.6220532"><ele>361.0</ele><time>2026-04-05T11:08:59.734Z</time></trkpt><trkpt lat="43.1330619" lon="10.6219758"><ele>360.20000000000005</ele><time>2026-04-05T11:09:01.737Z</time></trkpt><trkpt lat="43.1331168" lon="10.6218697"><ele>359.40000000000003</ele><time>2026-04-05T11:09:03.737Z</time></trkpt><trkpt lat="43.133172" lon="10.6217609"><ele>358.6</ele><time>2026-04-05T11:09:05.744Z</time></trkpt><trkpt lat="43.1332505" lon="10.6216478"><ele>357.8</ele><time>2026-04-05T11:09:07.735Z</time></trkpt><trkpt lat="43.1333279" lon="10.6215617"><ele>357.0</ele><time>2026-04-05T11:09:09.733Z</time></trkpt><trkpt lat="43.1333959" lon="10.6214353"><ele>354.6666666666667</ele><time>2026-04-05T11:09:11.739Z</time></trkpt><trkpt lat="43.1334251" lon="10.6213491"><ele>352.3333333333333</ele><time>2026-04-05T11:09:13.734Z</time></trkpt><trkpt lat="43.1334264" lon="10.6212233"><ele>350.0</ele><time>2026-04-05T11:09:15.738Z</time></trkpt><trkpt lat="43.1334164" lon="10.6210978"><ele>347.66666666666663</ele><time>2026-04-05T11:09:17.741Z</time></trkpt><trkpt lat="43.1333728" lon="10.6209889"><ele>345.3333333333333</ele><time>2026-04-05T11:09:19.74Z</time></trkpt><trkpt lat="43.1333536" lon="10.6208928"><ele>343.0</ele><time>2026-04-05T11:09:24.741Z</time></trkpt><trkpt lat="43.1333175" lon="10.6207978"><ele>342.5</ele><time>2026-04-05T11:09:29.741Z</time></trkpt><trkpt lat="43.1333296" lon="10.6206932"><ele>342.0</ele><time>2026-04-05T11:09:32.739Z</time></trkpt><trkpt lat="43.1333592" lon="10.6206157"><ele>341.5</ele><time>2026-04-05T11:09:34.738Z</time></trkpt><trkpt lat="43.133403" lon="10.6205446"><ele>341.0</ele><time>2026-04-05T11:09:36.741Z</time></trkpt><trkpt lat="43.1334599" lon="10.6204492"><ele>340.5</ele><time>2026-04-05T11:09:38.748Z</time></trkpt><trkpt lat="43.1335255" lon="10.6203647"><ele>340.0</ele><time>2026-04-05T11:09:40.751Z</time></trkpt><trkpt lat="43.133586" lon="10.6203036"><ele>340.4</ele><time>2026-04-05T11:09:42.747Z</time></trkpt><trkpt lat="43.1336814" lon="10.6202538"><ele>340.8</ele><time>2026-04-05T11:09:44.743Z</time></trkpt><trkpt lat="43.1337845" lon="10.6202256"><ele>341.20000000000005</ele><time>2026-04-05T11:09:46.744Z</time></trkpt><trkpt lat="43.1338851" lon="10.6202006"><ele>341.6</ele><time>2026-04-05T11:09:48.741Z</time></trkpt><trkpt lat="43.1339766" lon="10.6201826"><ele>342.0</ele><time>2026-04-05T11:09:50.745Z</time></trkpt><trkpt lat="43.1340644" lon="10.6201856"><ele>342.0</ele><time>2026-04-05T11:09:52.744Z</time></trkpt><trkpt lat="43.1341615" lon="10.6201888"><ele>342.0</ele><time>2026-04-05T11:09:54.738Z</time></trkpt><trkpt lat="43.1342578" lon="10.6202039"><ele>342.0</ele><time>2026-04-05T11:09:56.749Z</time></trkpt><trkpt lat="43.1343392" lon="10.6202342"><ele>342.0</ele><time>2026-04-05T11:09:58.733Z</time></trkpt><trkpt lat="43.1344173" lon="10.6202662"><ele>342.0</ele><time>2026-04-05T11:10:00.737Z</time></trkpt><trkpt lat="43.1344983" lon="10.6203309"><ele>340.8</ele><time>2026-04-05T11:10:02.731Z</time></trkpt><trkpt lat="43.1345788" lon="10.6203644"><ele>339.6</ele><time>2026-04-05T11:10:04.723Z</time></trkpt><trkpt lat="43.134665" lon="10.6203905"><ele>338.40000000000003</ele><time>2026-04-05T11:10:06.727Z</time></trkpt><trkpt lat="43.1347415" lon="10.6204206"><ele>337.20000000000005</ele><time>2026-04-05T11:10:08.727Z</time></trkpt><trkpt lat="43.1348496" lon="10.6204197"><ele>336.0</ele><time>2026-04-05T11:10:10.73Z</time></trkpt><trkpt lat="43.1349611" lon="10.6203623"><ele>337.8</ele><time>2026-04-05T11:10:12.731Z</time></trkpt><trkpt lat="43.1350793" lon="10.6203107"><ele>339.6</ele><time>2026-04-05T11:10:14.732Z</time></trkpt><trkpt lat="43.1351973" lon="10.6202812"><ele>341.4</ele><time>2026-04-05T11:10:16.733Z</time></trkpt><trkpt lat="43.135261" lon="10.6202753"><ele>343.2</ele><time>2026-04-05T11:10:17.731Z</time></trkpt><trkpt lat="43.1353806" lon="10.620247"><ele>345.0</ele><time>2026-04-05T11:10:19.731Z</time></trkpt><trkpt lat="43.1354992" lon="10.6202101"><ele>345.0</ele><time>2026-04-05T11:10:21.737Z</time></trkpt><trkpt lat="43.135609" lon="10.6201793"><ele>345.0</ele><time>2026-04-05T11:10:23.731Z</time></trkpt><trkpt lat="43.1357287" lon="10.6201475"><ele>345.0</ele><time>2026-04-05T11:10:25.726Z</time></trkpt><trkpt lat="43.1358436" lon="10.620093"><ele>345.0</ele><time>2026-04-05T11:10:27.758Z</time></trkpt><trkpt lat="43.1359503" lon="10.6200644"><ele>344.6666666666667</ele><time>2026-04-05T11:10:29.727Z</time></trkpt><trkpt lat="43.1360281" lon="10.6200577"><ele>344.3333333333333</ele><time>2026-04-05T11:10:31.726Z</time></trkpt><trkpt lat="43.1361164" lon="10.6200542"><ele>344.0</ele><time>2026-04-05T11:10:33.727Z</time></trkpt><trkpt lat="43.1362006" lon="10.6200452"><ele>343.66666666666663</ele><time>2026-04-05T11:10:35.73Z</time></trkpt><trkpt lat="43.1362627" lon="10.6200226"><ele>343.3333333333333</ele><time>2026-04-05T11:10:37.73Z</time></trkpt><trkpt lat="43.1363603" lon="10.6200156"><ele>343.0</ele><time>2026-04-05T11:10:40.714Z</time></trkpt><trkpt lat="43.1364466" lon="10.619997"><ele>343.0</ele><time>2026-04-05T11:10:42.713Z</time></trkpt><trkpt lat="43.1365358" lon="10.6199667"><ele>343.0</ele><time>2026-04-05T11:10:44.725Z</time></trkpt><trkpt lat="43.1366367" lon="10.619921"><ele>343.0</ele><time>2026-04-05T11:10:46.726Z</time></trkpt><trkpt lat="43.1366982" lon="10.6198871"><ele>343.0</ele><time>2026-04-05T11:10:47.72Z</time></trkpt><trkpt lat="43.1367584" lon="10.6198467"><ele>343.0</ele><time>2026-04-05T11:10:48.728Z</time></trkpt><trkpt lat="43.1368683" lon="10.6197961"><ele>343.0</ele><time>2026-04-05T11:10:50.724Z</time></trkpt><trkpt lat="43.1369626" lon="10.6197263"><ele>342.8333333333333</ele><time>2026-04-05T11:10:52.73Z</time></trkpt><trkpt lat="43.137035" lon="10.6196739"><ele>342.66666666666663</ele><time>2026-04-05T11:10:54.728Z</time></trkpt><trkpt lat="43.1371291" lon="10.6196637"><ele>342.5</ele><time>2026-04-05T11:10:57.743Z</time></trkpt><trkpt lat="43.1371941" lon="10.6197218"><ele>342.3333333333333</ele><time>2026-04-05T11:11:01.722Z</time></trkpt><trkpt lat="43.13729" lon="10.6197309"><ele>342.1666666666667</ele><time>2026-04-05T11:11:03.728Z</time></trkpt><trkpt lat="43.1373546" lon="10.6197425"><ele>342.0</ele><time>2026-04-05T11:11:04.716Z</time></trkpt><trkpt lat="43.1374736" lon="10.6197938"><ele>341.0</ele><time>2026-04-05T11:11:06.724Z</time></trkpt><trkpt lat="43.1375406" lon="10.6198034"><ele>340.0</ele><time>2026-04-05T11:11:07.727Z</time></trkpt><trkpt lat="43.1376115" lon="10.6197959"><ele>339.0</ele><time>2026-04-05T11:11:08.723Z</time></trkpt><trkpt lat="43.1376783" lon="10.6197872"><ele>338.0</ele><time>2026-04-05T11:11:09.729Z</time></trkpt><trkpt lat="43.1377419" lon="10.6197793"><ele>337.0</ele><time>2026-04-05T11:11:10.729Z</time></trkpt><trkpt lat="43.1378274" lon="10.6197849"><ele>336.0</ele><time>2026-04-05T11:11:12.725Z</time></trkpt><trkpt lat="43.1379249" lon="10.6197629"><ele>336.0</ele><time>2026-04-05T11:11:14.725Z</time></trkpt><trkpt lat="43.1379902" lon="10.6197456"><ele>336.0</ele><time>2026-04-05T11:11:16.735Z</time></trkpt><trkpt lat="43.1380614" lon="10.6197693"><ele>336.0</ele><time>2026-04-05T11:11:18.737Z</time></trkpt><trkpt lat="43.1381664" lon="10.6197376"><ele>336.0</ele><time>2026-04-05T11:11:20.737Z</time></trkpt><trkpt lat="43.1382665" lon="10.6196601"><ele>336.0</ele><time>2026-04-05T11:11:22.729Z</time></trkpt><trkpt lat="43.1383228" lon="10.6196024"><ele>336.0</ele><time>2026-04-05T11:11:24.72Z</time></trkpt><trkpt lat="43.1383612" lon="10.6195241"><ele>334.3333333333333</ele><time>2026-04-05T11:11:26.719Z</time></trkpt><trkpt lat="43.1383925" lon="10.6194151"><ele>332.6666666666667</ele><time>2026-04-05T11:11:31.721Z</time></trkpt><trkpt lat="43.1384155" lon="10.6193285"><ele>331.0</ele><time>2026-04-05T11:11:33.727Z</time></trkpt><trkpt lat="43.1384709" lon="10.619264"><ele>329.33333333333337</ele><time>2026-04-05T11:11:35.729Z</time></trkpt><trkpt lat="43.1385534" lon="10.619216"><ele>327.6666666666667</ele><time>2026-04-05T11:11:37.731Z</time></trkpt><trkpt lat="43.1386264" lon="10.6191592"><ele>326.0</ele><time>2026-04-05T11:11:39.739Z</time></trkpt><trkpt lat="43.1386349" lon="10.6190441"><ele>326.0</ele><time>2026-04-05T11:11:42.735Z</time></trkpt><trkpt lat="43.1386877" lon="10.6189915"><ele>326.0</ele><time>2026-04-05T11:11:44.728Z</time></trkpt><trkpt lat="43.1387654" lon="10.6189412"><ele>326.0</ele><time>2026-04-05T11:11:46.726Z</time></trkpt><trkpt lat="43.1388663" lon="10.6189063"><ele>326.0</ele><time>2026-04-05T11:11:48.722Z</time></trkpt><trkpt lat="43.1389543" lon="10.6188584"><ele>326.0</ele><time>2026-04-05T11:11:50.727Z</time></trkpt><trkpt lat="43.1390356" lon="10.6188228"><ele>326.0</ele><time>2026-04-05T11:11:52.728Z</time></trkpt><trkpt lat="43.1390934" lon="10.6187647"><ele>322.33333333333337</ele><time>2026-04-05T11:12:29.725Z</time></trkpt><trkpt lat="43.1391224" lon="10.6188617"><ele>318.6666666666667</ele><time>2026-04-05T11:12:35.716Z</time></trkpt><trkpt lat="43.1391808" lon="10.6189252"><ele>315.0</ele><time>2026-04-05T11:12:39.715Z</time></trkpt><trkpt lat="43.1392528" lon="10.6189692"><ele>311.3333333333333</ele><time>2026-04-05T11:12:42.713Z</time></trkpt><trkpt lat="43.1393314" lon="10.6189486"><ele>307.66666666666663</ele><time>2026-04-05T11:12:45.704Z</time></trkpt><trkpt lat="43.1394018" lon="10.6190089"><ele>304.0</ele><time>2026-04-05T11:12:47.719Z</time></trkpt><trkpt lat="43.139484" lon="10.6191316"><ele>304.0</ele><time>2026-04-05T11:12:49.717Z</time></trkpt><trkpt lat="43.1395277" lon="10.6191972"><ele>304.0</ele><time>2026-04-05T11:12:50.721Z</time></trkpt><trkpt lat="43.1396117" lon="10.6192732"><ele>304.0</ele><time>2026-04-05T11:12:52.729Z</time></trkpt><trkpt lat="43.1396881" lon="10.6193127"><ele>304.0</ele><time>2026-04-05T11:12:54.73Z</time></trkpt><trkpt lat="43.1397918" lon="10.6193153"><ele>304.0</ele><time>2026-04-05T11:12:56.731Z</time></trkpt><trkpt lat="43.1398943" lon="10.6192877"><ele>302.5</ele><time>2026-04-05T11:12:58.726Z</time></trkpt><trkpt lat="43.1399644" lon="10.6192605"><ele>301.0</ele><time>2026-04-05T11:13:00.722Z</time></trkpt><trkpt lat="43.1400299" lon="10.619229"><ele>299.5</ele><time>2026-04-05T11:13:02.728Z</time></trkpt><trkpt lat="43.1401125" lon="10.6191922"><ele>298.0</ele><time>2026-04-05T11:13:05.727Z</time></trkpt><trkpt lat="43.1401764" lon="10.6191797"><ele>296.5</ele><time>2026-04-05T11:13:07.72Z</time></trkpt><trkpt lat="43.1402541" lon="10.619184"><ele>295.0</ele><time>2026-04-05T11:13:09.721Z</time></trkpt><trkpt lat="43.1403336" lon="10.6192017"><ele>295.0</ele><time>2026-04-05T11:13:11.728Z</time></trkpt><trkpt lat="43.1403993" lon="10.6192558"><ele>295.0</ele><time>2026-04-05T11:13:14.722Z</time></trkpt><trkpt lat="43.1403948" lon="10.6193658"><ele>295.0</ele><time>2026-04-05T11:13:19.718Z</time></trkpt><trkpt lat="43.140389" lon="10.6194745"><ele>295.0</ele><time>2026-04-05T11:13:23.724Z</time></trkpt><trkpt lat="43.1404298" lon="10.6195776"><ele>295.0</ele><time>2026-04-05T11:13:26.721Z</time></trkpt><trkpt lat="43.1404982" lon="10.6196476"><ele>295.0</ele><time>2026-04-05T11:13:29.73Z</time></trkpt><trkpt lat="43.1405476" lon="10.619702"><ele>290.4</ele><time>2026-04-05T11:13:31.726Z</time></trkpt><trkpt lat="43.1406108" lon="10.6197413"><ele>285.8</ele><time>2026-04-05T11:13:33.727Z</time></trkpt><trkpt lat="43.1406739" lon="10.6197789"><ele>281.2</ele><time>2026-04-05T11:13:35.735Z</time></trkpt><trkpt lat="43.1407701" lon="10.6198021"><ele>276.6</ele><time>2026-04-05T11:13:37.733Z</time></trkpt><trkpt lat="43.1408844" lon="10.6198143"><ele>272.0</ele><time>2026-04-05T11:13:39.733Z</time></trkpt><trkpt lat="43.1409932" lon="10.6197928"><ele>270.8</ele><time>2026-04-05T11:13:41.74Z</time></trkpt><trkpt lat="43.1411002" lon="10.619746"><ele>269.6</ele><time>2026-04-05T11:13:43.732Z</time></trkpt><trkpt lat="43.1412039" lon="10.619694"><ele>268.40000000000003</ele><time>2026-04-05T11:13:45.737Z</time></trkpt><trkpt lat="43.1413049" lon="10.6196295"><ele>267.2</ele><time>2026-04-05T11:13:47.726Z</time></trkpt><trkpt lat="43.1414062" lon="10.6195575"><ele>266.0</ele><time>2026-04-05T11:13:49.724Z</time></trkpt><trkpt lat="43.1414917" lon="10.6195107"><ele>266.6</ele><time>2026-04-05T11:13:51.721Z</time></trkpt><trkpt lat="43.141589" lon="10.6194724"><ele>267.20000000000005</ele><time>2026-04-05T11:13:53.729Z</time></trkpt><trkpt lat="43.1416927" lon="10.6194453"><ele>267.79999999999995</ele><time>2026-04-05T11:13:55.726Z</time></trkpt><trkpt lat="43.1417712" lon="10.6193954"><ele>268.4</ele><time>2026-04-05T11:13:57.729Z</time></trkpt><trkpt lat="43.1418408" lon="10.6193233"><ele>269.0</ele><time>2026-04-05T11:14:01.729Z</time></trkpt><trkpt lat="43.1419107" lon="10.6192856"><ele>269.0</ele><time>2026-04-05T11:14:03.74Z</time></trkpt><trkpt lat="43.1420012" lon="10.6192212"><ele>269.0</ele><time>2026-04-05T11:14:08.721Z</time></trkpt><trkpt lat="43.1421022" lon="10.6191781"><ele>269.0</ele><time>2026-04-05T11:14:10.715Z</time></trkpt><trkpt lat="43.1421796" lon="10.619176"><ele>269.0</ele><time>2026-04-05T11:14:12.721Z</time></trkpt><trkpt lat="43.1422516" lon="10.6191662"><ele>269.0</ele><time>2026-04-05T11:14:14.721Z</time></trkpt><trkpt lat="43.1423461" lon="10.6191636"><ele>266.33333333333337</ele><time>2026-04-05T11:14:16.724Z</time></trkpt><trkpt lat="43.1424619" lon="10.6191358"><ele>263.6666666666667</ele><time>2026-04-05T11:14:18.724Z</time></trkpt><trkpt lat="43.1425338" lon="10.6191115"><ele>261.0</ele><time>2026-04-05T11:14:19.723Z</time></trkpt><trkpt lat="43.1426171" lon="10.6190809"><ele>258.3333333333333</ele><time>2026-04-05T11:14:20.724Z</time></trkpt><trkpt lat="43.1426943" lon="10.6190562"><ele>255.66666666666666</ele><time>2026-04-05T11:14:21.721Z</time></trkpt><trkpt lat="43.1427633" lon="10.6190441"><ele>253.0</ele><time>2026-04-05T11:14:22.714Z</time></trkpt><trkpt lat="43.1428316" lon="10.6190015"><ele>252.99999999999997</ele><time>2026-04-05T11:14:25.713Z</time></trkpt><trkpt lat="43.1429011" lon="10.6189676"><ele>253.0</ele><time>2026-04-05T11:14:28.725Z</time></trkpt><trkpt lat="43.1429761" lon="10.6189479"><ele>253.0</ele><time>2026-04-05T11:14:32.726Z</time></trkpt><trkpt lat="43.1430417" lon="10.6189497"><ele>253.0</ele><time>2026-04-05T11:14:36.733Z</time></trkpt><trkpt lat="43.1431331" lon="10.6189361"><ele>252.99999999999997</ele><time>2026-04-05T11:14:39.727Z</time></trkpt><trkpt lat="43.1432394" lon="10.6189016"><ele>253.0</ele><time>2026-04-05T11:14:41.731Z</time></trkpt><trkpt lat="43.1433502" lon="10.6188512"><ele>252.2</ele><time>2026-04-05T11:14:43.726Z</time></trkpt><trkpt lat="43.1434483" lon="10.6188049"><ele>251.4</ele><time>2026-04-05T11:14:47.73Z</time></trkpt><trkpt lat="43.1435469" lon="10.6187832"><ele>250.59999999999997</ele><time>2026-04-05T11:14:49.726Z</time></trkpt><trkpt lat="43.1436365" lon="10.6187659"><ele>249.79999999999998</ele><time>2026-04-05T11:14:51.724Z</time></trkpt><trkpt lat="43.1437211" lon="10.6187381"><ele>249.0</ele><time>2026-04-05T11:14:53.725Z</time></trkpt><trkpt lat="43.1437787" lon="10.6186853"><ele>250.33333333333334</ele><time>2026-04-05T11:14:55.726Z</time></trkpt><trkpt lat="43.1438541" lon="10.6186234"><ele>251.66666666666669</ele><time>2026-04-05T11:14:58.728Z</time></trkpt><trkpt lat="43.143909" lon="10.6185769"><ele>253.0</ele><time>2026-04-05T11:15:00.709Z</time></trkpt><trkpt lat="43.1439739" lon="10.6185078"><ele>254.33333333333334</ele><time>2026-04-05T11:15:07.697Z</time></trkpt><trkpt lat="43.1440211" lon="10.6184395"><ele>255.66666666666669</ele><time>2026-04-05T11:15:09.696Z</time></trkpt><trkpt lat="43.1440772" lon="10.6183609"><ele>257.0</ele><time>2026-04-05T11:15:16.7Z</time></trkpt><trkpt lat="43.1441218" lon="10.6182075"><ele>257.0</ele><time>2026-04-05T11:15:18.7Z</time></trkpt><trkpt lat="43.1441578" lon="10.6180871"><ele>257.0</ele><time>2026-04-05T11:15:20.702Z</time></trkpt><trkpt lat="43.1442303" lon="10.6180629"><ele>257.0</ele><time>2026-04-05T11:15:23.706Z</time></trkpt><trkpt lat="43.1443308" lon="10.6180197"><ele>257.0</ele><time>2026-04-05T11:15:25.698Z</time></trkpt><trkpt lat="43.1444054" lon="10.617977"><ele>257.0</ele><time>2026-04-05T11:15:27.695Z</time></trkpt><trkpt lat="43.1444866" lon="10.617954"><ele>257.0</ele><time>2026-04-05T11:15:29.701Z</time></trkpt><trkpt lat="43.1445505" lon="10.6178863"><ele>258.1666666666667</ele><time>2026-04-05T11:15:31.701Z</time></trkpt><trkpt lat="43.1445874" lon="10.617776"><ele>259.33333333333337</ele><time>2026-04-05T11:15:33.699Z</time></trkpt><trkpt lat="43.1446303" lon="10.6176498"><ele>260.5</ele><time>2026-04-05T11:15:35.703Z</time></trkpt><trkpt lat="43.1446707" lon="10.617542"><ele>261.6666666666667</ele><time>2026-04-05T11:15:37.699Z</time></trkpt><trkpt lat="43.144667" lon="10.6174387"><ele>262.8333333333333</ele><time>2026-04-05T11:15:39.701Z</time></trkpt><trkpt lat="43.1447053" lon="10.6175215"><ele>264.0</ele><time>2026-04-05T11:15:48.695Z</time></trkpt><trkpt lat="43.1447745" lon="10.6174931"><ele>264.0</ele><time>2026-04-05T11:15:50.704Z</time></trkpt><trkpt lat="43.1448441" lon="10.617523"><ele>264.0</ele><time>2026-04-05T11:15:53.716Z</time></trkpt><trkpt lat="43.1448704" lon="10.6176411"><ele>264.0</ele><time>2026-04-05T11:15:56.695Z</time></trkpt><trkpt lat="43.1449698" lon="10.6177074"><ele>264.0</ele><time>2026-04-05T11:15:58.699Z</time></trkpt><trkpt lat="43.1451052" lon="10.6177266"><ele>264.0</ele><time>2026-04-05T11:16:00.694Z</time></trkpt><trkpt lat="43.1452254" lon="10.6176509"><ele>261.0</ele><time>2026-04-05T11:16:02.699Z</time></trkpt><trkpt lat="43.1452691" lon="10.6175474"><ele>258.0</ele><time>2026-04-05T11:16:04.697Z</time></trkpt><trkpt lat="43.1453049" lon="10.6174265"><ele>255.0</ele><time>2026-04-05T11:16:06.702Z</time></trkpt><trkpt lat="43.1453405" lon="10.6173509"><ele>252.0</ele><time>2026-04-05T11:16:09.701Z</time></trkpt><trkpt lat="43.145381" lon="10.6172709"><ele>249.0</ele><time>2026-04-05T11:16:23.711Z</time></trkpt><trkpt lat="43.1454324" lon="10.6172097"><ele>246.0</ele><time>2026-04-05T11:16:25.7Z</time></trkpt><trkpt lat="43.1455229" lon="10.6171297"><ele>246.0</ele><time>2026-04-05T11:16:27.705Z</time></trkpt><trkpt lat="43.1456304" lon="10.6170418"><ele>246.00000000000003</ele><time>2026-04-05T11:16:29.707Z</time></trkpt><trkpt lat="43.1457324" lon="10.6169854"><ele>246.00000000000003</ele><time>2026-04-05T11:16:31.7Z</time></trkpt><trkpt lat="43.1458206" lon="10.616933"><ele>246.0</ele><time>2026-04-05T11:16:33.703Z</time></trkpt><trkpt lat="43.1459064" lon="10.6169105"><ele>246.0</ele><time>2026-04-05T11:16:37.701Z</time></trkpt><trkpt lat="43.1459897" lon="10.616855"><ele>244.14285714285717</ele><time>2026-04-05T11:16:40.701Z</time></trkpt><trkpt lat="43.146058" lon="10.6167998"><ele>242.28571428571428</ele><time>2026-04-05T11:16:43.704Z</time></trkpt><trkpt lat="43.1461221" lon="10.6167675"><ele>240.42857142857144</ele><time>2026-04-05T11:16:46.706Z</time></trkpt><trkpt lat="43.1461911" lon="10.6167932"><ele>238.57142857142858</ele><time>2026-04-05T11:16:55.703Z</time></trkpt><trkpt lat="43.1462573" lon="10.6168077"><ele>236.71428571428572</ele><time>2026-04-05T11:16:58.7Z</time></trkpt><trkpt lat="43.1463449" lon="10.6167712"><ele>234.85714285714286</ele><time>2026-04-05T11:17:01.694Z</time></trkpt><trkpt lat="43.1463973" lon="10.6167043"><ele>233.0</ele><time>2026-04-05T11:17:03.694Z</time></trkpt><trkpt lat="43.1463982" lon="10.616572"><ele>233.00000000000003</ele><time>2026-04-05T11:17:06.691Z</time></trkpt><trkpt lat="43.1464246" lon="10.616466"><ele>233.0</ele><time>2026-04-05T11:17:08.698Z</time></trkpt><trkpt lat="43.1465052" lon="10.6164233"><ele>233.0</ele><time>2026-04-05T11:17:10.704Z</time></trkpt><trkpt lat="43.1465933" lon="10.6162978"><ele>233.0</ele><time>2026-04-05T11:17:12.704Z</time></trkpt><trkpt lat="43.1466533" lon="10.6162227"><ele>233.00000000000003</ele><time>2026-04-05T11:17:13.704Z</time></trkpt><trkpt lat="43.1467035" lon="10.6161531"><ele>233.0</ele><time>2026-04-05T11:17:14.705Z</time></trkpt><trkpt lat="43.1467559" lon="10.6160961"><ele>230.00000000000003</ele><time>2026-04-05T11:17:15.699Z</time></trkpt><trkpt lat="43.1468273" lon="10.6160021"><ele>227.0</ele><time>2026-04-05T11:17:17.702Z</time></trkpt><trkpt lat="43.146909" lon="10.6159829"><ele>224.0</ele><time>2026-04-05T11:17:19.702Z</time></trkpt><trkpt lat="43.1469802" lon="10.6160042"><ele>221.0</ele><time>2026-04-05T11:17:21.704Z</time></trkpt><trkpt lat="43.1470424" lon="10.6159094"><ele>218.00000000000003</ele><time>2026-04-05T11:17:27.692Z</time></trkpt><trkpt lat="43.1470953" lon="10.61585"><ele>215.0</ele><time>2026-04-05T11:17:29.692Z</time></trkpt><trkpt lat="43.147195" lon="10.6157917"><ele>215.0</ele><time>2026-04-05T11:17:32.703Z</time></trkpt><trkpt lat="43.1472668" lon="10.6157625"><ele>215.0</ele><time>2026-04-05T11:17:34.705Z</time></trkpt><trkpt lat="43.1473298" lon="10.6157562"><ele>215.0</ele><time>2026-04-05T11:17:39.706Z</time></trkpt><trkpt lat="43.1474174" lon="10.6157099"><ele>215.0</ele><time>2026-04-05T11:17:42.706Z</time></trkpt><trkpt lat="43.1475112" lon="10.6156734"><ele>215.0</ele><time>2026-04-05T11:17:44.707Z</time></trkpt><trkpt lat="43.1476387" lon="10.6156265"><ele>213.16666666666669</ele><time>2026-04-05T11:17:46.71Z</time></trkpt><trkpt lat="43.1476971" lon="10.6155829"><ele>211.33333333333334</ele><time>2026-04-05T11:17:47.7Z</time></trkpt><trkpt lat="43.1477467" lon="10.6155257"><ele>209.5</ele><time>2026-04-05T11:17:48.704Z</time></trkpt><trkpt lat="43.1477954" lon="10.6154557"><ele>207.66666666666669</ele><time>2026-04-05T11:17:49.708Z</time></trkpt><trkpt lat="43.147847" lon="10.6153714"><ele>205.83333333333334</ele><time>2026-04-05T11:17:50.714Z</time></trkpt><trkpt lat="43.1479112" lon="10.6152813"><ele>204.0</ele><time>2026-04-05T11:17:51.716Z</time></trkpt><trkpt lat="43.1479765" lon="10.6152038"><ele>204.0</ele><time>2026-04-05T11:17:52.711Z</time></trkpt><trkpt lat="43.1480264" lon="10.6151123"><ele>204.0</ele><time>2026-04-05T11:17:53.715Z</time></trkpt><trkpt lat="43.1480557" lon="10.6150119"><ele>204.0</ele><time>2026-04-05T11:17:54.703Z</time></trkpt><trkpt lat="43.148073" lon="10.6149134"><ele>204.0</ele><time>2026-04-05T11:17:55.699Z</time></trkpt><trkpt lat="43.148092" lon="10.6148027"><ele>204.0</ele><time>2026-04-05T11:17:56.7Z</time></trkpt><trkpt lat="43.1481281" lon="10.6147136"><ele>204.0</ele><time>2026-04-05T11:17:57.702Z</time></trkpt><trkpt lat="43.1481667" lon="10.6146392"><ele>200.66666666666666</ele><time>2026-04-05T11:17:58.703Z</time></trkpt><trkpt lat="43.1482221" lon="10.6147462"><ele>197.33333333333334</ele><time>2026-04-05T11:18:02.697Z</time></trkpt><trkpt lat="43.1482507" lon="10.6148692"><ele>194.0</ele><time>2026-04-05T11:18:05.696Z</time></trkpt><trkpt lat="43.1483003" lon="10.6149681"><ele>190.66666666666669</ele><time>2026-04-05T11:18:08.704Z</time></trkpt><trkpt lat="43.1483534" lon="10.615025"><ele>187.33333333333334</ele><time>2026-04-05T11:18:11.716Z</time></trkpt><trkpt lat="43.1483869" lon="10.6151329"><ele>184.0</ele><time>2026-04-05T11:18:15.699Z</time></trkpt><trkpt lat="43.1484318" lon="10.6152329"><ele>182.0</ele><time>2026-04-05T11:18:18.706Z</time></trkpt><trkpt lat="43.1484526" lon="10.6153585"><ele>180.0</ele><time>2026-04-05T11:18:21.714Z</time></trkpt><trkpt lat="43.1485186" lon="10.6154496"><ele>178.0</ele><time>2026-04-05T11:18:24.711Z</time></trkpt><trkpt lat="43.1485853" lon="10.6154874"><ele>176.0</ele><time>2026-04-05T11:18:26.708Z</time></trkpt><trkpt lat="43.1486587" lon="10.6155498"><ele>174.0</ele><time>2026-04-05T11:18:29.706Z</time></trkpt><trkpt lat="43.1487328" lon="10.6155493"><ele>172.0</ele><time>2026-04-05T11:19:20.702Z</time></trkpt><trkpt lat="43.1488214" lon="10.6155063"><ele>172.0</ele><time>2026-04-05T11:19:24.722Z</time></trkpt><trkpt lat="43.1489002" lon="10.6154703"><ele>172.0</ele><time>2026-04-05T11:19:26.711Z</time></trkpt><trkpt lat="43.1489892" lon="10.6154291"><ele>172.0</ele><time>2026-04-05T11:19:28.72Z</time></trkpt><trkpt lat="43.1490981" lon="10.6154134"><ele>172.0</ele><time>2026-04-05T11:19:30.706Z</time></trkpt><trkpt lat="43.1491731" lon="10.6153485"><ele>172.0</ele><time>2026-04-05T11:19:32.706Z</time></trkpt><trkpt lat="43.1492488" lon="10.6153048"><ele>170.0</ele><time>2026-04-05T11:19:35.7Z</time></trkpt><trkpt lat="43.1493157" lon="10.6152432"><ele>168.0</ele><time>2026-04-05T11:19:37.7Z</time></trkpt><trkpt lat="43.149386" lon="10.6152822"><ele>166.0</ele><time>2026-04-05T11:19:42.714Z</time></trkpt><trkpt lat="43.1494391" lon="10.6153678"><ele>164.0</ele><time>2026-04-05T11:19:46.71Z</time></trkpt><trkpt lat="43.1494872" lon="10.615458"><ele>162.0</ele><time>2026-04-05T11:19:49.708Z</time></trkpt><trkpt lat="43.1494995" lon="10.6155836"><ele>160.0</ele><time>2026-04-05T11:19:52.7Z</time></trkpt><trkpt lat="43.1495295" lon="10.6156918"><ele>158.33333333333334</ele><time>2026-04-05T11:19:55.709Z</time></trkpt><trkpt lat="43.1496019" lon="10.6156992"><ele>156.66666666666669</ele><time>2026-04-05T11:19:57.701Z</time></trkpt><trkpt lat="43.1497021" lon="10.6156594"><ele>155.0</ele><time>2026-04-05T11:19:59.712Z</time></trkpt><trkpt lat="43.1497626" lon="10.6155943"><ele>153.33333333333334</ele><time>2026-04-05T11:20:01.71Z</time></trkpt><trkpt lat="43.149833" lon="10.6155911"><ele>151.66666666666666</ele><time>2026-04-05T11:20:04.71Z</time></trkpt><trkpt lat="43.1499175" lon="10.6156595"><ele>150.0</ele><time>2026-04-05T11:20:06.708Z</time></trkpt><trkpt lat="43.1500224" lon="10.6157227"><ele>147.16666666666666</ele><time>2026-04-05T11:20:08.709Z</time></trkpt><trkpt lat="43.1501117" lon="10.615738"><ele>144.33333333333334</ele><time>2026-04-05T11:20:10.714Z</time></trkpt><trkpt lat="43.1501392" lon="10.6158248"><ele>141.5</ele><time>2026-04-05T11:20:13.715Z</time></trkpt><trkpt lat="43.1501969" lon="10.6159052"><ele>138.66666666666669</ele><time>2026-04-05T11:20:16.712Z</time></trkpt><trkpt lat="43.1502681" lon="10.6159263"><ele>135.83333333333334</ele><time>2026-04-05T11:20:18.721Z</time></trkpt><trkpt lat="43.1503387" lon="10.6159191"><ele>133.0</ele><time>2026-04-05T11:20:20.715Z</time></trkpt><trkpt lat="43.1504094" lon="10.6159738"><ele>133.0</ele><time>2026-04-05T11:20:23.702Z</time></trkpt><trkpt lat="43.1504976" lon="10.6159379"><ele>133.0</ele><time>2026-04-05T11:20:26.702Z</time></trkpt><trkpt lat="43.1505656" lon="10.6159103"><ele>133.0</ele><time>2026-04-05T11:20:28.695Z</time></trkpt><trkpt lat="43.1506281" lon="10.6158811"><ele>133.0</ele><time>2026-04-05T11:20:30.703Z</time></trkpt><trkpt lat="43.1507055" lon="10.6158184"><ele>133.0</ele><time>2026-04-05T11:20:32.694Z</time></trkpt><trkpt lat="43.15077" lon="10.6157508"><ele>133.0</ele><time>2026-04-05T11:20:35.701Z</time></trkpt><trkpt lat="43.1508399" lon="10.6156996"><ele>130.5</ele><time>2026-04-05T11:21:52.7Z</time></trkpt><trkpt lat="43.1509343" lon="10.6157114"><ele>128.0</ele><time>2026-04-05T11:21:56.693Z</time></trkpt><trkpt lat="43.1509969" lon="10.6157839"><ele>125.5</ele><time>2026-04-05T11:21:59.697Z</time></trkpt><trkpt lat="43.1510583" lon="10.6157549"><ele>123.0</ele><time>2026-04-05T11:22:44.714Z</time></trkpt><trkpt lat="43.151102" lon="10.6156889"><ele>120.50000000000001</ele><time>2026-04-05T11:22:45.709Z</time></trkpt><trkpt lat="43.1511467" lon="10.6156232"><ele>118.0</ele><time>2026-04-05T11:22:46.709Z</time></trkpt><trkpt lat="43.1512269" lon="10.6154815"><ele>118.0</ele><time>2026-04-05T11:22:48.706Z</time></trkpt><trkpt lat="43.1512597" lon="10.6154038"><ele>118.0</ele><time>2026-04-05T11:22:49.726Z</time></trkpt><trkpt lat="43.151292" lon="10.6153204"><ele>118.0</ele><time>2026-04-05T11:22:50.719Z</time></trkpt><trkpt lat="43.151324" lon="10.6152314"><ele>118.0</ele><time>2026-04-05T11:22:51.719Z</time></trkpt><trkpt lat="43.1513578" lon="10.6151367"><ele>118.0</ele><time>2026-04-05T11:22:52.715Z</time></trkpt><trkpt lat="43.1513963" lon="10.6150579"><ele>118.0</ele><time>2026-04-05T11:22:53.711Z</time></trkpt><trkpt lat="43.1514364" lon="10.6149832"><ele>118.0</ele><time>2026-04-05T11:22:54.71Z</time></trkpt><trkpt lat="43.1514992" lon="10.6148911"><ele>116.83333333333334</ele><time>2026-04-05T11:22:56.708Z</time></trkpt><trkpt lat="43.1515514" lon="10.6148227"><ele>115.66666666666667</ele><time>2026-04-05T11:22:58.716Z</time></trkpt><trkpt lat="43.1516278" lon="10.6147759"><ele>114.5</ele><time>2026-04-05T11:23:00.721Z</time></trkpt><trkpt lat="43.1517145" lon="10.614748"><ele>113.33333333333334</ele><time>2026-04-05T11:23:20.734Z</time></trkpt><trkpt lat="43.1517884" lon="10.6147162"><ele>112.16666666666667</ele><time>2026-04-05T11:23:24.714Z</time></trkpt><trkpt lat="43.1518499" lon="10.6146057"><ele>111.0</ele><time>2026-04-05T11:23:26.718Z</time></trkpt><trkpt lat="43.151937" lon="10.6145003"><ele>111.6</ele><time>2026-04-05T11:23:28.716Z</time></trkpt><trkpt lat="43.1520511" lon="10.6144238"><ele>112.19999999999999</ele><time>2026-04-05T11:23:30.721Z</time></trkpt><trkpt lat="43.1521139" lon="10.6144066"><ele>112.80000000000001</ele><time>2026-04-05T11:23:31.724Z</time></trkpt><trkpt lat="43.1522307" lon="10.614465"><ele>113.4</ele><time>2026-04-05T11:23:33.715Z</time></trkpt><trkpt lat="43.1522947" lon="10.6144658"><ele>114.0</ele><time>2026-04-05T11:23:34.72Z</time></trkpt><trkpt lat="43.1523901" lon="10.6143808"><ele>112.66666666666667</ele><time>2026-04-05T11:23:36.717Z</time></trkpt><trkpt lat="43.1524447" lon="10.6143181"><ele>111.33333333333334</ele><time>2026-04-05T11:23:37.713Z</time></trkpt><trkpt lat="43.1524905" lon="10.6142524"><ele>110.0</ele><time>2026-04-05T11:23:38.714Z</time></trkpt><trkpt lat="43.152534" lon="10.6141881"><ele>108.66666666666667</ele><time>2026-04-05T11:23:39.712Z</time></trkpt><trkpt lat="43.1526167" lon="10.6140998"><ele>107.33333333333334</ele><time>2026-04-05T11:23:41.712Z</time></trkpt><trkpt lat="43.1527004" lon="10.6140368"><ele>106.0</ele><time>2026-04-05T11:23:43.706Z</time></trkpt><trkpt lat="43.1527657" lon="10.6139418"><ele>106.0</ele><time>2026-04-05T11:23:45.712Z</time></trkpt><trkpt lat="43.1528137" lon="10.6138858"><ele>106.0</ele><time>2026-04-05T11:23:46.711Z</time></trkpt><trkpt lat="43.1528672" lon="10.6138162"><ele>106.0</ele><time>2026-04-05T11:23:47.718Z</time></trkpt><trkpt lat="43.152961" lon="10.6137123"><ele>106.0</ele><time>2026-04-05T11:23:49.714Z</time></trkpt><trkpt lat="43.1530519" lon="10.6136327"><ele>106.0</ele><time>2026-04-05T11:23:51.736Z</time></trkpt><trkpt lat="43.1531502" lon="10.6135707"><ele>105.0</ele><time>2026-04-05T11:23:53.718Z</time></trkpt><trkpt lat="43.1532456" lon="10.6135003"><ele>104.0</ele><time>2026-04-05T11:23:55.717Z</time></trkpt><trkpt lat="43.1533308" lon="10.613432"><ele>103.0</ele><time>2026-04-05T11:23:57.717Z</time></trkpt><trkpt lat="43.1534105" lon="10.6133662"><ele>102.0</ele><time>2026-04-05T11:23:59.714Z</time></trkpt><trkpt lat="43.1534901" lon="10.6133127"><ele>101.0</ele><time>2026-04-05T11:24:01.718Z</time></trkpt><trkpt lat="43.1535943" lon="10.6132499"><ele>101.0</ele><time>2026-04-05T11:24:03.717Z</time></trkpt><trkpt lat="43.1536483" lon="10.6131648"><ele>101.0</ele><time>2026-04-05T11:24:05.719Z</time></trkpt><trkpt lat="43.1537237" lon="10.6130543"><ele>101.0</ele><time>2026-04-05T11:24:07.722Z</time></trkpt><trkpt lat="43.1537983" lon="10.6129306"><ele>101.0</ele><time>2026-04-05T11:24:09.722Z</time></trkpt><trkpt lat="43.1538639" lon="10.6127972"><ele>101.0</ele><time>2026-04-05T11:24:11.718Z</time></trkpt><trkpt lat="43.1539184" lon="10.612674"><ele>100.42857142857143</ele><time>2026-04-05T11:24:13.714Z</time></trkpt><trkpt lat="43.1539467" lon="10.6125954"><ele>99.85714285714286</ele><time>2026-04-05T11:24:14.719Z</time></trkpt><trkpt lat="43.1539805" lon="10.6124986"><ele>99.28571428571428</ele><time>2026-04-05T11:24:15.72Z</time></trkpt><trkpt lat="43.1540062" lon="10.6124031"><ele>98.71428571428572</ele><time>2026-04-05T11:24:16.725Z</time></trkpt><trkpt lat="43.1540406" lon="10.6122914"><ele>98.14285714285715</ele><time>2026-04-05T11:24:17.731Z</time></trkpt><trkpt lat="43.1540739" lon="10.6121961"><ele>97.57142857142857</ele><time>2026-04-05T11:24:18.709Z</time></trkpt><trkpt lat="43.1541045" lon="10.6121155"><ele>97.0</ele><time>2026-04-05T11:24:19.704Z</time></trkpt><trkpt lat="43.1541598" lon="10.6120407"><ele>97.8</ele><time>2026-04-05T11:24:20.709Z</time></trkpt><trkpt lat="43.1542" lon="10.6119452"><ele>98.6</ele><time>2026-04-05T11:24:21.721Z</time></trkpt><trkpt lat="43.1542516" lon="10.6118455"><ele>99.39999999999999</ele><time>2026-04-05T11:24:22.716Z</time></trkpt><trkpt lat="43.1543273" lon="10.611762"><ele>100.19999999999999</ele><time>2026-04-05T11:24:23.703Z</time></trkpt><trkpt lat="43.1544115" lon="10.611668"><ele>101.0</ele><time>2026-04-05T11:24:24.703Z</time></trkpt><trkpt lat="43.1545008" lon="10.6115612"><ele>101.0</ele><time>2026-04-05T11:24:25.708Z</time></trkpt><trkpt lat="43.1545888" lon="10.6114607"><ele>101.0</ele><time>2026-04-05T11:24:26.71Z</time></trkpt><trkpt lat="43.154674" lon="10.611385"><ele>101.0</ele><time>2026-04-05T11:24:27.703Z</time></trkpt><trkpt lat="43.1547629" lon="10.6113349"><ele>101.0</ele><time>2026-04-05T11:24:28.702Z</time></trkpt><trkpt lat="43.1548506" lon="10.6112984"><ele>101.0</ele><time>2026-04-05T11:24:29.707Z</time></trkpt><trkpt lat="43.1549298" lon="10.6112694"><ele>99.99999999999999</ele><time>2026-04-05T11:24:30.71Z</time></trkpt><trkpt lat="43.1550059" lon="10.6112329"><ele>99.0</ele><time>2026-04-05T11:24:31.71Z</time></trkpt><trkpt lat="43.1550662" lon="10.6111823"><ele>98.0</ele><time>2026-04-05T11:24:32.705Z</time></trkpt><trkpt lat="43.1551441" lon="10.6110952"><ele>97.0</ele><time>2026-04-05T11:24:34.706Z</time></trkpt><trkpt lat="43.1551681" lon="10.6110134"><ele>96.0</ele><time>2026-04-05T11:24:36.703Z</time></trkpt><trkpt lat="43.1551481" lon="10.6109134"><ele>95.0</ele><time>2026-04-05T11:24:38.708Z</time></trkpt><trkpt lat="43.1551284" lon="10.6107983"><ele>95.0</ele><time>2026-04-05T11:24:40.719Z</time></trkpt><trkpt lat="43.1550862" lon="10.6106628"><ele>95.0</ele><time>2026-04-05T11:24:42.717Z</time></trkpt><trkpt lat="43.1550633" lon="10.6105813"><ele>95.0</ele><time>2026-04-05T11:24:43.728Z</time></trkpt><trkpt lat="43.1550414" lon="10.6105001"><ele>95.0</ele><time>2026-04-05T11:24:44.722Z</time></trkpt><trkpt lat="43.1550179" lon="10.6103526"><ele>95.0</ele><time>2026-04-05T11:24:46.725Z</time></trkpt><trkpt lat="43.1550146" lon="10.6102186"><ele>95.0</ele><time>2026-04-05T11:24:48.719Z</time></trkpt><trkpt lat="43.1550267" lon="10.6101099"><ele>95.0</ele><time>2026-04-05T11:24:50.721Z</time></trkpt><trkpt lat="43.1550514" lon="10.6100127"><ele>95.0</ele><time>2026-04-05T11:24:52.721Z</time></trkpt><trkpt lat="43.1550846" lon="10.6099214"><ele>95.0</ele><time>2026-04-05T11:24:54.723Z</time></trkpt><trkpt lat="43.1551277" lon="10.6097868"><ele>95.0</ele><time>2026-04-05T11:24:56.726Z</time></trkpt><trkpt lat="43.1551533" lon="10.6097072"><ele>95.0</ele><time>2026-04-05T11:24:57.73Z</time></trkpt><trkpt lat="43.1551757" lon="10.6096162"><ele>95.0</ele><time>2026-04-05T11:24:58.726Z</time></trkpt><trkpt lat="43.1551873" lon="10.6095257"><ele>95.6</ele><time>2026-04-05T11:24:59.728Z</time></trkpt><trkpt lat="43.155197" lon="10.6094391"><ele>96.2</ele><time>2026-04-05T11:25:00.724Z</time></trkpt><trkpt lat="43.1552111" lon="10.6092789"><ele>96.80000000000001</ele><time>2026-04-05T11:25:02.723Z</time></trkpt><trkpt lat="43.1552104" lon="10.6091912"><ele>97.4</ele><time>2026-04-05T11:25:03.722Z</time></trkpt><trkpt lat="43.1552225" lon="10.6090279"><ele>98.0</ele><time>2026-04-05T11:25:05.724Z</time></trkpt><trkpt lat="43.1552246" lon="10.6088614"><ele>97.99999999999999</ele><time>2026-04-05T11:25:07.722Z</time></trkpt><trkpt lat="43.1552233" lon="10.6087712"><ele>98.0</ele><time>2026-04-05T11:25:08.726Z</time></trkpt><trkpt lat="43.1552237" lon="10.6086824"><ele>98.0</ele><time>2026-04-05T11:25:09.724Z</time></trkpt><trkpt lat="43.1552195" lon="10.6085937"><ele>98.0</ele><time>2026-04-05T11:25:10.725Z</time></trkpt><trkpt lat="43.1552181" lon="10.6084189"><ele>97.99999999999999</ele><time>2026-04-05T11:25:12.726Z</time></trkpt><trkpt lat="43.1552194" lon="10.6082469"><ele>98.0</ele><time>2026-04-05T11:25:14.726Z</time></trkpt><trkpt lat="43.1552199" lon="10.6080768"><ele>97.60000000000001</ele><time>2026-04-05T11:25:16.726Z</time></trkpt><trkpt lat="43.15522" lon="10.6079829"><ele>97.2</ele><time>2026-04-05T11:25:17.728Z</time></trkpt><trkpt lat="43.1552135" lon="10.6078217"><ele>96.8</ele><time>2026-04-05T11:25:19.721Z</time></trkpt><trkpt lat="43.1552078" lon="10.6076582"><ele>96.4</ele><time>2026-04-05T11:25:21.722Z</time></trkpt><trkpt lat="43.1551831" lon="10.6075028"><ele>96.0</ele><time>2026-04-05T11:25:23.738Z</time></trkpt><trkpt lat="43.1551414" lon="10.6073968"><ele>95.0</ele><time>2026-04-05T11:25:25.717Z</time></trkpt><trkpt lat="43.1550726" lon="10.6073106"><ele>94.0</ele><time>2026-04-05T11:25:27.715Z</time></trkpt><trkpt lat="43.1549973" lon="10.6071811"><ele>93.0</ele><time>2026-04-05T11:25:29.718Z</time></trkpt><trkpt lat="43.1549181" lon="10.6070536"><ele>92.0</ele><time>2026-04-05T11:25:31.72Z</time></trkpt><trkpt lat="43.1548685" lon="10.6069365"><ele>91.0</ele><time>2026-04-05T11:25:33.721Z</time></trkpt><trkpt lat="43.1548136" lon="10.6068155"><ele>94.6</ele><time>2026-04-05T11:25:35.718Z</time></trkpt><trkpt lat="43.1547488" lon="10.6067052"><ele>98.19999999999999</ele><time>2026-04-05T11:25:37.71Z</time></trkpt><trkpt lat="43.1546848" lon="10.6065807"><ele>101.80000000000001</ele><time>2026-04-05T11:25:39.713Z</time></trkpt><trkpt lat="43.1546339" lon="10.6064642"><ele>105.4</ele><time>2026-04-05T11:25:41.714Z</time></trkpt><trkpt lat="43.1545987" lon="10.6063588"><ele>109.0</ele><time>2026-04-05T11:25:43.718Z</time></trkpt><trkpt lat="43.1545785" lon="10.6062411"><ele>108.80000000000001</ele><time>2026-04-05T11:25:45.719Z</time></trkpt><trkpt lat="43.1545509" lon="10.606101"><ele>108.60000000000001</ele><time>2026-04-05T11:25:47.717Z</time></trkpt><trkpt lat="43.1545325" lon="10.6059735"><ele>108.4</ele><time>2026-04-05T11:25:49.723Z</time></trkpt><trkpt lat="43.1545242" lon="10.6058355"><ele>108.2</ele><time>2026-04-05T11:25:51.715Z</time></trkpt><trkpt lat="43.1545033" lon="10.6056862"><ele>108.0</ele><time>2026-04-05T11:25:53.721Z</time></trkpt><trkpt lat="43.1544848" lon="10.6055978"><ele>108.0</ele><time>2026-04-05T11:25:54.736Z</time></trkpt><trkpt lat="43.1544381" lon="10.6054449"><ele>108.0</ele><time>2026-04-05T11:25:56.723Z</time></trkpt><trkpt lat="43.154405" lon="10.6053707"><ele>108.0</ele><time>2026-04-05T11:25:57.717Z</time></trkpt><trkpt lat="43.1543778" lon="10.6052905"><ele>108.0</ele><time>2026-04-05T11:25:58.719Z</time></trkpt><trkpt lat="43.1543195" lon="10.6051476"><ele>108.0</ele><time>2026-04-05T11:26:00.725Z</time></trkpt><trkpt lat="43.1542789" lon="10.6050751"><ele>108.0</ele><time>2026-04-05T11:26:01.72Z</time></trkpt><trkpt lat="43.1542309" lon="10.6050068"><ele>106.66666666666667</ele><time>2026-04-05T11:26:02.719Z</time></trkpt><trkpt lat="43.1541855" lon="10.604939"><ele>105.33333333333334</ele><time>2026-04-05T11:26:03.717Z</time></trkpt><trkpt lat="43.154145" lon="10.6048658"><ele>104.0</ele><time>2026-04-05T11:26:04.721Z</time></trkpt><trkpt lat="43.1541149" lon="10.6047898"><ele>102.66666666666667</ele><time>2026-04-05T11:26:05.717Z</time></trkpt><trkpt lat="43.1540686" lon="10.604634"><ele>101.33333333333334</ele><time>2026-04-05T11:26:07.723Z</time></trkpt><trkpt lat="43.1540436" lon="10.6044679"><ele>100.0</ele><time>2026-04-05T11:26:09.726Z</time></trkpt><trkpt lat="43.1540497" lon="10.6043768"><ele>98.50000000000001</ele><time>2026-04-05T11:26:10.725Z</time></trkpt><trkpt lat="43.1540918" lon="10.6042116"><ele>97.0</ele><time>2026-04-05T11:26:12.725Z</time></trkpt><trkpt lat="43.1541069" lon="10.6041221"><ele>95.5</ele><time>2026-04-05T11:26:13.728Z</time></trkpt><trkpt lat="43.1541158" lon="10.6040257"><ele>94.0</ele><time>2026-04-05T11:26:14.721Z</time></trkpt><trkpt lat="43.1541268" lon="10.6039323"><ele>92.5</ele><time>2026-04-05T11:26:15.727Z</time></trkpt><trkpt lat="43.1541419" lon="10.6038348"><ele>91.0</ele><time>2026-04-05T11:26:16.735Z</time></trkpt><trkpt lat="43.1541593" lon="10.6037335"><ele>89.83333333333333</ele><time>2026-04-05T11:26:17.719Z</time></trkpt><trkpt lat="43.1541815" lon="10.6036334"><ele>88.66666666666666</ele><time>2026-04-05T11:26:18.719Z</time></trkpt><trkpt lat="43.1542081" lon="10.603535"><ele>87.5</ele><time>2026-04-05T11:26:19.718Z</time></trkpt><trkpt lat="43.1542362" lon="10.6034298"><ele>86.33333333333333</ele><time>2026-04-05T11:26:20.726Z</time></trkpt><trkpt lat="43.154263" lon="10.6033202"><ele>85.16666666666667</ele><time>2026-04-05T11:26:21.738Z</time></trkpt><trkpt lat="43.1542816" lon="10.6032289"><ele>84.0</ele><time>2026-04-05T11:26:22.716Z</time></trkpt><trkpt lat="43.1543094" lon="10.6031326"><ele>84.0</ele><time>2026-04-05T11:26:23.717Z</time></trkpt><trkpt lat="43.1543166" lon="10.6030283"><ele>84.0</ele><time>2026-04-05T11:26:24.724Z</time></trkpt><trkpt lat="43.154303" lon="10.6029229"><ele>84.0</ele><time>2026-04-05T11:26:25.73Z</time></trkpt><trkpt lat="43.1542863" lon="10.6028147"><ele>84.0</ele><time>2026-04-05T11:26:26.733Z</time></trkpt><trkpt lat="43.1542637" lon="10.602712"><ele>84.0</ele><time>2026-04-05T11:26:27.721Z</time></trkpt><trkpt lat="43.1542387" lon="10.6026107"><ele>84.0</ele><time>2026-04-05T11:26:28.72Z</time></trkpt><trkpt lat="43.1542249" lon="10.6025147"><ele>83.33333333333333</ele><time>2026-04-05T11:26:29.717Z</time></trkpt><trkpt lat="43.1542353" lon="10.6024193"><ele>82.66666666666667</ele><time>2026-04-05T11:26:30.712Z</time></trkpt><trkpt lat="43.1542606" lon="10.6023285"><ele>82.0</ele><time>2026-04-05T11:26:31.732Z</time></trkpt><trkpt lat="43.1543062" lon="10.6022545"><ele>81.33333333333334</ele><time>2026-04-05T11:26:32.713Z</time></trkpt><trkpt lat="43.154365" lon="10.6021705"><ele>80.66666666666667</ele><time>2026-04-05T11:26:33.707Z</time></trkpt><trkpt lat="43.1544267" lon="10.6020913"><ele>80.0</ele><time>2026-04-05T11:26:34.717Z</time></trkpt><trkpt lat="43.1544851" lon="10.6020185"><ele>79.5</ele><time>2026-04-05T11:26:35.723Z</time></trkpt><trkpt lat="43.1545398" lon="10.6019462"><ele>79.0</ele><time>2026-04-05T11:26:36.707Z</time></trkpt><trkpt lat="43.1545859" lon="10.6018396"><ele>78.5</ele><time>2026-04-05T11:26:37.702Z</time></trkpt><trkpt lat="43.1546226" lon="10.6017479"><ele>78.0</ele><time>2026-04-05T11:26:38.725Z</time></trkpt><trkpt lat="43.1546673" lon="10.6016437"><ele>77.5</ele><time>2026-04-05T11:26:39.717Z</time></trkpt><trkpt lat="43.1547141" lon="10.6015484"><ele>77.0</ele><time>2026-04-05T11:26:40.715Z</time></trkpt><trkpt lat="43.1547721" lon="10.6014464"><ele>77.0</ele><time>2026-04-05T11:26:41.72Z</time></trkpt><trkpt lat="43.154827" lon="10.6013555"><ele>77.0</ele><time>2026-04-05T11:26:42.715Z</time></trkpt><trkpt lat="43.1548862" lon="10.6012969"><ele>77.0</ele><time>2026-04-05T11:26:43.721Z</time></trkpt><trkpt lat="43.154945" lon="10.6012358"><ele>77.0</ele><time>2026-04-05T11:26:44.716Z</time></trkpt><trkpt lat="43.1549937" lon="10.6011706"><ele>77.0</ele><time>2026-04-05T11:26:45.709Z</time></trkpt><trkpt lat="43.1550644" lon="10.601017"><ele>77.0</ele><time>2026-04-05T11:26:47.714Z</time></trkpt><trkpt lat="43.1550955" lon="10.600929"><ele>75.83333333333334</ele><time>2026-04-05T11:26:48.71Z</time></trkpt><trkpt lat="43.1551312" lon="10.6008336"><ele>74.66666666666667</ele><time>2026-04-05T11:26:49.707Z</time></trkpt><trkpt lat="43.1551674" lon="10.6007378"><ele>73.5</ele><time>2026-04-05T11:26:50.708Z</time></trkpt><trkpt lat="43.1552219" lon="10.6005679"><ele>72.33333333333333</ele><time>2026-04-05T11:26:52.706Z</time></trkpt><trkpt lat="43.1552554" lon="10.6004803"><ele>71.16666666666666</ele><time>2026-04-05T11:26:53.71Z</time></trkpt><trkpt lat="43.1552944" lon="10.6003813"><ele>70.0</ele><time>2026-04-05T11:26:54.714Z</time></trkpt><trkpt lat="43.155323" lon="10.60029"><ele>69.66666666666666</ele><time>2026-04-05T11:26:55.717Z</time></trkpt><trkpt lat="43.1553523" lon="10.6001476"><ele>69.33333333333333</ele><time>2026-04-05T11:26:57.716Z</time></trkpt><trkpt lat="43.1553645" lon="10.600061"><ele>69.0</ele><time>2026-04-05T11:26:58.714Z</time></trkpt><trkpt lat="43.1553644" lon="10.5999573"><ele>68.66666666666667</ele><time>2026-04-05T11:26:59.714Z</time></trkpt><trkpt lat="43.1553477" lon="10.599855"><ele>68.33333333333334</ele><time>2026-04-05T11:27:00.718Z</time></trkpt><trkpt lat="43.1553413" lon="10.5997518"><ele>68.0</ele><time>2026-04-05T11:27:01.712Z</time></trkpt><trkpt lat="43.1553211" lon="10.5996061"><ele>69.0</ele><time>2026-04-05T11:27:03.714Z</time></trkpt><trkpt lat="43.155322" lon="10.5994895"><ele>70.0</ele><time>2026-04-05T11:27:05.71Z</time></trkpt><trkpt lat="43.1553549" lon="10.5993768"><ele>71.0</ele><time>2026-04-05T11:27:07.714Z</time></trkpt><trkpt lat="43.1553932" lon="10.5992601"><ele>72.0</ele><time>2026-04-05T11:27:09.71Z</time></trkpt><trkpt lat="43.1554295" lon="10.5991372"><ele>73.0</ele><time>2026-04-05T11:27:11.711Z</time></trkpt><trkpt lat="43.1554569" lon="10.5990076"><ele>73.0</ele><time>2026-04-05T11:27:13.709Z</time></trkpt><trkpt lat="43.1555051" lon="10.5988607"><ele>73.0</ele><time>2026-04-05T11:27:15.705Z</time></trkpt><trkpt lat="43.1555519" lon="10.5987383"><ele>73.0</ele><time>2026-04-05T11:27:17.707Z</time></trkpt><trkpt lat="43.1555992" lon="10.5986301"><ele>73.0</ele><time>2026-04-05T11:27:19.704Z</time></trkpt><trkpt lat="43.1556458" lon="10.598525"><ele>73.0</ele><time>2026-04-05T11:27:21.709Z</time></trkpt><trkpt lat="43.1556871" lon="10.5984074"><ele>73.0</ele><time>2026-04-05T11:27:23.709Z</time></trkpt><trkpt lat="43.1557185" lon="10.5982906"><ele>73.0</ele><time>2026-04-05T11:27:25.704Z</time></trkpt><trkpt lat="43.1557472" lon="10.5981779"><ele>73.0</ele><time>2026-04-05T11:27:27.731Z</time></trkpt><trkpt lat="43.155779" lon="10.5980619"><ele>73.0</ele><time>2026-04-05T11:27:29.713Z</time></trkpt><trkpt lat="43.1558122" lon="10.5979328"><ele>73.0</ele><time>2026-04-05T11:27:31.708Z</time></trkpt><trkpt lat="43.155855" lon="10.5977689"><ele>73.0</ele><time>2026-04-05T11:27:33.714Z</time></trkpt><trkpt lat="43.1558796" lon="10.5976766"><ele>73.0</ele><time>2026-04-05T11:27:34.71Z</time></trkpt><trkpt lat="43.1559082" lon="10.5975891"><ele>73.0</ele><time>2026-04-05T11:27:35.715Z</time></trkpt><trkpt lat="43.1559364" lon="10.5975001"><ele>73.0</ele><time>2026-04-05T11:27:36.718Z</time></trkpt><trkpt lat="43.1559667" lon="10.5974127"><ele>73.0</ele><time>2026-04-05T11:27:37.717Z</time></trkpt><trkpt lat="43.1559853" lon="10.5973184"><ele>73.0</ele><time>2026-04-05T11:27:38.715Z</time></trkpt><trkpt lat="43.1559955" lon="10.597224"><ele>73.0</ele><time>2026-04-05T11:27:39.715Z</time></trkpt><trkpt lat="43.1559963" lon="10.5971351"><ele>73.0</ele><time>2026-04-05T11:27:40.715Z</time></trkpt><trkpt lat="43.1559947" lon="10.5970317"><ele>73.0</ele><time>2026-04-05T11:27:41.715Z</time></trkpt><trkpt lat="43.1559843" lon="10.5969226"><ele>73.0</ele><time>2026-04-05T11:27:42.708Z</time></trkpt><trkpt lat="43.1559605" lon="10.5968008"><ele>73.0</ele><time>2026-04-05T11:27:43.716Z</time></trkpt><trkpt lat="43.1559431" lon="10.5966956"><ele>73.0</ele><time>2026-04-05T11:27:44.705Z</time></trkpt><trkpt lat="43.1559262" lon="10.596612"><ele>73.0</ele><time>2026-04-05T11:27:45.716Z</time></trkpt><trkpt lat="43.1559064" lon="10.5965164"><ele>72.66666666666666</ele><time>2026-04-05T11:27:46.718Z</time></trkpt><trkpt lat="43.1558851" lon="10.5964312"><ele>72.33333333333333</ele><time>2026-04-05T11:27:47.713Z</time></trkpt><trkpt lat="43.1558431" lon="10.5962684"><ele>72.0</ele><time>2026-04-05T11:27:49.718Z</time></trkpt><trkpt lat="43.1558226" lon="10.5961761"><ele>71.66666666666667</ele><time>2026-04-05T11:27:50.718Z</time></trkpt><trkpt lat="43.1558019" lon="10.5960855"><ele>71.33333333333334</ele><time>2026-04-05T11:27:51.722Z</time></trkpt><trkpt lat="43.1557799" lon="10.5959969"><ele>71.0</ele><time>2026-04-05T11:27:52.717Z</time></trkpt><trkpt lat="43.1557623" lon="10.595912"><ele>69.83333333333334</ele><time>2026-04-05T11:27:53.726Z</time></trkpt><trkpt lat="43.15577" lon="10.5958122"><ele>68.66666666666667</ele><time>2026-04-05T11:27:54.727Z</time></trkpt><trkpt lat="43.1558042" lon="10.595732"><ele>67.5</ele><time>2026-04-05T11:27:55.727Z</time></trkpt><trkpt lat="43.1558582" lon="10.5956615"><ele>66.33333333333333</ele><time>2026-04-05T11:27:56.723Z</time></trkpt><trkpt lat="43.1559268" lon="10.595602"><ele>65.16666666666666</ele><time>2026-04-05T11:27:57.729Z</time></trkpt><trkpt lat="43.1560053" lon="10.5955493"><ele>64.0</ele><time>2026-04-05T11:27:58.735Z</time></trkpt><trkpt lat="43.1560791" lon="10.5954882"><ele>63.99999999999999</ele><time>2026-04-05T11:27:59.732Z</time></trkpt><trkpt lat="43.1561486" lon="10.595429"><ele>64.0</ele><time>2026-04-05T11:28:00.728Z</time></trkpt><trkpt lat="43.1562143" lon="10.595364"><ele>64.0</ele><time>2026-04-05T11:28:01.73Z</time></trkpt><trkpt lat="43.1562842" lon="10.5953076"><ele>64.0</ele><time>2026-04-05T11:28:02.73Z</time></trkpt><trkpt lat="43.1563551" lon="10.5952502"><ele>63.99999999999999</ele><time>2026-04-05T11:28:03.727Z</time></trkpt><trkpt lat="43.156424" lon="10.5951833"><ele>64.0</ele><time>2026-04-05T11:28:04.72Z</time></trkpt><trkpt lat="43.1564883" lon="10.5951288"><ele>62.99999999999999</ele><time>2026-04-05T11:28:05.718Z</time></trkpt><trkpt lat="43.1565528" lon="10.5950917"><ele>62.0</ele><time>2026-04-05T11:28:06.715Z</time></trkpt><trkpt lat="43.1566142" lon="10.5950659"><ele>61.0</ele><time>2026-04-05T11:28:07.711Z</time></trkpt><trkpt lat="43.1566776" lon="10.5950367"><ele>60.0</ele><time>2026-04-05T11:28:08.723Z</time></trkpt><trkpt lat="43.1567396" lon="10.5950048"><ele>58.99999999999999</ele><time>2026-04-05T11:28:09.716Z</time></trkpt><trkpt lat="43.1568477" lon="10.5949252"><ele>58.0</ele><time>2026-04-05T11:28:11.713Z</time></trkpt><trkpt lat="43.1569015" lon="10.5948781"><ele>57.99999999999999</ele><time>2026-04-05T11:28:12.709Z</time></trkpt><trkpt lat="43.1569899" lon="10.5948107"><ele>58.0</ele><time>2026-04-05T11:28:14.72Z</time></trkpt><trkpt lat="43.1570699" lon="10.5947545"><ele>58.0</ele><time>2026-04-05T11:28:16.722Z</time></trkpt><trkpt lat="43.1571396" lon="10.5947051"><ele>58.0</ele><time>2026-04-05T11:28:18.716Z</time></trkpt><trkpt lat="43.1571977" lon="10.5946496"><ele>57.99999999999999</ele><time>2026-04-05T11:28:20.716Z</time></trkpt><trkpt lat="43.1572521" lon="10.594599"><ele>58.0</ele><time>2026-04-05T11:28:22.707Z</time></trkpt><trkpt lat="43.1573211" lon="10.5945464"><ele>57.666666666666664</ele><time>2026-04-05T11:28:24.713Z</time></trkpt><trkpt lat="43.1573878" lon="10.5944957"><ele>57.33333333333333</ele><time>2026-04-05T11:28:26.71Z</time></trkpt><trkpt lat="43.1574575" lon="10.5944663"><ele>57.0</ele><time>2026-04-05T11:28:45.726Z</time></trkpt><trkpt lat="43.1575213" lon="10.5944251"><ele>56.66666666666667</ele><time>2026-04-05T11:28:48.717Z</time></trkpt><trkpt lat="43.1575883" lon="10.5943602"><ele>56.333333333333336</ele><time>2026-04-05T11:28:52.725Z</time></trkpt><trkpt lat="43.157606" lon="10.5942637"><ele>56.0</ele><time>2026-04-05T11:28:54.724Z</time></trkpt><trkpt lat="43.1575937" lon="10.5941531"><ele>56.0</ele><time>2026-04-05T11:28:56.722Z</time></trkpt><trkpt lat="43.15757" lon="10.5940396"><ele>55.99999999999999</ele><time>2026-04-05T11:28:58.722Z</time></trkpt><trkpt lat="43.1575275" lon="10.5939071"><ele>55.99999999999999</ele><time>2026-04-05T11:29:00.741Z</time></trkpt><trkpt lat="43.1574854" lon="10.5937798"><ele>56.0</ele><time>2026-04-05T11:29:02.719Z</time></trkpt><trkpt lat="43.1574274" lon="10.5936421"><ele>56.0</ele><time>2026-04-05T11:29:04.723Z</time></trkpt><trkpt lat="43.1573921" lon="10.593562"><ele>55.833333333333336</ele><time>2026-04-05T11:29:05.723Z</time></trkpt><trkpt lat="43.15736" lon="10.5934813"><ele>55.66666666666667</ele><time>2026-04-05T11:29:06.725Z</time></trkpt><trkpt lat="43.1573281" lon="10.5933982"><ele>55.5</ele><time>2026-04-05T11:29:07.723Z</time></trkpt><trkpt lat="43.1572979" lon="10.5933179"><ele>55.33333333333333</ele><time>2026-04-05T11:29:08.731Z</time></trkpt><trkpt lat="43.1572619" lon="10.5932343"><ele>55.166666666666664</ele><time>2026-04-05T11:29:09.732Z</time></trkpt><trkpt lat="43.1572018" lon="10.59309"><ele>55.0</ele><time>2026-04-05T11:29:11.729Z</time></trkpt><trkpt lat="43.1571501" lon="10.5929518"><ele>54.49999999999999</ele><time>2026-04-05T11:29:13.732Z</time></trkpt><trkpt lat="43.157093" lon="10.5928147"><ele>54.0</ele><time>2026-04-05T11:29:15.732Z</time></trkpt><trkpt lat="43.1570369" lon="10.5926681"><ele>53.5</ele><time>2026-04-05T11:29:17.733Z</time></trkpt><trkpt lat="43.15701" lon="10.5925876"><ele>53.0</ele><time>2026-04-05T11:29:18.737Z</time></trkpt><trkpt lat="43.1569839" lon="10.5925045"><ele>52.49999999999999</ele><time>2026-04-05T11:29:19.732Z</time></trkpt><trkpt lat="43.1569605" lon="10.5924221"><ele>52.0</ele><time>2026-04-05T11:29:20.734Z</time></trkpt><trkpt lat="43.1569324" lon="10.5923433"><ele>52.0</ele><time>2026-04-05T11:29:21.735Z</time></trkpt><trkpt lat="43.1568672" lon="10.5922043"><ele>52.0</ele><time>2026-04-05T11:29:23.729Z</time></trkpt><trkpt lat="43.1568291" lon="10.5920643"><ele>52.0</ele><time>2026-04-05T11:29:25.727Z</time></trkpt><trkpt lat="43.1568749" lon="10.5919258"><ele>52.0</ele><time>2026-04-05T11:29:27.724Z</time></trkpt><trkpt lat="43.1569312" lon="10.5918743"><ele>52.0</ele><time>2026-04-05T11:29:28.725Z</time></trkpt><trkpt lat="43.1569889" lon="10.5918276"><ele>51.8</ele><time>2026-04-05T11:29:29.728Z</time></trkpt><trkpt lat="43.1570854" lon="10.5917366"><ele>51.6</ele><time>2026-04-05T11:29:31.739Z</time></trkpt><trkpt lat="43.1571681" lon="10.5916451"><ele>51.4</ele><time>2026-04-05T11:29:33.724Z</time></trkpt><trkpt lat="43.1572485" lon="10.5915503"><ele>51.199999999999996</ele><time>2026-04-05T11:29:35.725Z</time></trkpt><trkpt lat="43.1573202" lon="10.5914559"><ele>51.0</ele><time>2026-04-05T11:29:37.734Z</time></trkpt><trkpt lat="43.1574113" lon="10.5913494"><ele>50.75</ele><time>2026-04-05T11:29:39.733Z</time></trkpt><trkpt lat="43.1575053" lon="10.5912429"><ele>50.5</ele><time>2026-04-05T11:29:41.726Z</time></trkpt><trkpt lat="43.157588" lon="10.5911351"><ele>50.25</ele><time>2026-04-05T11:29:43.727Z</time></trkpt><trkpt lat="43.1576718" lon="10.5910365"><ele>50.0</ele><time>2026-04-05T11:29:45.723Z</time></trkpt><trkpt lat="43.1577579" lon="10.5909248"><ele>49.8</ele><time>2026-04-05T11:29:47.721Z</time></trkpt><trkpt lat="43.1578483" lon="10.5908122"><ele>49.6</ele><time>2026-04-05T11:29:49.72Z</time></trkpt><trkpt lat="43.1579373" lon="10.5907001"><ele>49.400000000000006</ele><time>2026-04-05T11:29:51.735Z</time></trkpt><trkpt lat="43.1579866" lon="10.5906459"><ele>49.2</ele><time>2026-04-05T11:29:52.728Z</time></trkpt><trkpt lat="43.1580826" lon="10.590536"><ele>49.0</ele><time>2026-04-05T11:29:54.725Z</time></trkpt><trkpt lat="43.1581328" lon="10.5904829"><ele>49.0</ele><time>2026-04-05T11:29:55.722Z</time></trkpt><trkpt lat="43.1582289" lon="10.5903823"><ele>49.0</ele><time>2026-04-05T11:29:57.725Z</time></trkpt><trkpt lat="43.158319" lon="10.590269"><ele>49.0</ele><time>2026-04-05T11:29:59.723Z</time></trkpt><trkpt lat="43.1584005" lon="10.5901637"><ele>49.0</ele><time>2026-04-05T11:30:01.727Z</time></trkpt><trkpt lat="43.1584914" lon="10.5900572"><ele>48.6</ele><time>2026-04-05T11:30:03.725Z</time></trkpt><trkpt lat="43.1585387" lon="10.589999"><ele>48.2</ele><time>2026-04-05T11:30:04.727Z</time></trkpt><trkpt lat="43.158635" lon="10.589896"><ele>47.800000000000004</ele><time>2026-04-05T11:30:06.723Z</time></trkpt><trkpt lat="43.1587345" lon="10.5898102"><ele>47.400000000000006</ele><time>2026-04-05T11:30:08.72Z</time></trkpt><trkpt lat="43.1588239" lon="10.5897315"><ele>47.0</ele><time>2026-04-05T11:30:10.719Z</time></trkpt><trkpt lat="43.1589162" lon="10.5896274"><ele>47.0</ele><time>2026-04-05T11:30:12.727Z</time></trkpt><trkpt lat="43.158964" lon="10.5895586"><ele>47.0</ele><time>2026-04-05T11:30:13.726Z</time></trkpt><trkpt lat="43.159013" lon="10.589495"><ele>47.0</ele><time>2026-04-05T11:30:14.731Z</time></trkpt><trkpt lat="43.1590592" lon="10.5894345"><ele>47.0</ele><time>2026-04-05T11:30:15.722Z</time></trkpt><trkpt lat="43.1591055" lon="10.5893712"><ele>47.0</ele><time>2026-04-05T11:30:16.733Z</time></trkpt><trkpt lat="43.1591958" lon="10.5892611"><ele>47.0</ele><time>2026-04-05T11:30:18.729Z</time></trkpt><trkpt lat="43.1592397" lon="10.5891981"><ele>46.666666666666664</ele><time>2026-04-05T11:30:19.733Z</time></trkpt><trkpt lat="43.1593301" lon="10.5890796"><ele>46.33333333333333</ele><time>2026-04-05T11:30:21.732Z</time></trkpt><trkpt lat="43.159375" lon="10.5890182"><ele>46.0</ele><time>2026-04-05T11:30:22.728Z</time></trkpt><trkpt lat="43.1594717" lon="10.5889062"><ele>45.666666666666664</ele><time>2026-04-05T11:30:24.726Z</time></trkpt><trkpt lat="43.1595185" lon="10.5888481"><ele>45.333333333333336</ele><time>2026-04-05T11:30:25.728Z</time></trkpt><trkpt lat="43.1595662" lon="10.5887906"><ele>45.0</ele><time>2026-04-05T11:30:26.73Z</time></trkpt><trkpt lat="43.1596581" lon="10.5886795"><ele>45.0</ele><time>2026-04-05T11:30:28.73Z</time></trkpt><trkpt lat="43.1597501" lon="10.5885743"><ele>45.0</ele><time>2026-04-05T11:30:30.728Z</time></trkpt><trkpt lat="43.1598315" lon="10.5884603"><ele>45.0</ele><time>2026-04-05T11:30:32.727Z</time></trkpt><trkpt lat="43.1599164" lon="10.5883408"><ele>45.0</ele><time>2026-04-05T11:30:34.73Z</time></trkpt><trkpt lat="43.1600134" lon="10.5882405"><ele>45.0</ele><time>2026-04-05T11:30:36.724Z</time></trkpt><trkpt lat="43.1601095" lon="10.5881375"><ele>45.0</ele><time>2026-04-05T11:30:38.725Z</time></trkpt><trkpt lat="43.1602075" lon="10.5880361"><ele>45.0</ele><time>2026-04-05T11:30:40.729Z</time></trkpt><trkpt lat="43.160302" lon="10.587934"><ele>45.0</ele><time>2026-04-05T11:30:42.729Z</time></trkpt><trkpt lat="43.1603953" lon="10.5878351"><ele>44.75</ele><time>2026-04-05T11:30:44.73Z</time></trkpt><trkpt lat="43.1604839" lon="10.5877234"><ele>44.5</ele><time>2026-04-05T11:30:46.73Z</time></trkpt><trkpt lat="43.1605738" lon="10.587613"><ele>44.25</ele><time>2026-04-05T11:30:48.711Z</time></trkpt><trkpt lat="43.1606624" lon="10.5874996"><ele>44.0</ele><time>2026-04-05T11:30:50.713Z</time></trkpt><trkpt lat="43.1607528" lon="10.587386"><ele>43.75</ele><time>2026-04-05T11:30:52.717Z</time></trkpt><trkpt lat="43.1608396" lon="10.5872758"><ele>43.5</ele><time>2026-04-05T11:30:54.718Z</time></trkpt><trkpt lat="43.1609264" lon="10.5871683"><ele>43.25</ele><time>2026-04-05T11:30:56.714Z</time></trkpt><trkpt lat="43.1610142" lon="10.5870611"><ele>43.0</ele><time>2026-04-05T11:30:58.713Z</time></trkpt><trkpt lat="43.1611095" lon="10.5869464"><ele>42.8</ele><time>2026-04-05T11:31:00.716Z</time></trkpt><trkpt lat="43.1612045" lon="10.5868365"><ele>42.599999999999994</ele><time>2026-04-05T11:31:02.708Z</time></trkpt><trkpt lat="43.1612539" lon="10.5867746"><ele>42.400000000000006</ele><time>2026-04-05T11:31:03.71Z</time></trkpt><trkpt lat="43.1613014" lon="10.5867166"><ele>42.2</ele><time>2026-04-05T11:31:04.724Z</time></trkpt><trkpt lat="43.1613824" lon="10.5866331"><ele>42.0</ele><time>2026-04-05T11:31:06.714Z</time></trkpt><trkpt lat="43.161463" lon="10.5865329"><ele>42.0</ele><time>2026-04-05T11:31:08.713Z</time></trkpt><trkpt lat="43.1615204" lon="10.5864518"><ele>42.0</ele><time>2026-04-05T11:31:10.716Z</time></trkpt><trkpt lat="43.1615629" lon="10.5863547"><ele>42.0</ele><time>2026-04-05T11:31:12.715Z</time></trkpt><trkpt lat="43.1615831" lon="10.5862181"><ele>42.0</ele><time>2026-04-05T11:31:14.715Z</time></trkpt><trkpt lat="43.1615781" lon="10.5860554"><ele>42.0</ele><time>2026-04-05T11:31:16.713Z</time></trkpt><trkpt lat="43.1615664" lon="10.5858908"><ele>42.0</ele><time>2026-04-05T11:31:18.713Z</time></trkpt><trkpt lat="43.1615609" lon="10.5858036"><ele>42.0</ele><time>2026-04-05T11:31:19.714Z</time></trkpt><trkpt lat="43.1615429" lon="10.58564"><ele>42.0</ele><time>2026-04-05T11:31:21.72Z</time></trkpt><trkpt lat="43.1615241" lon="10.5855523"><ele>42.0</ele><time>2026-04-05T11:31:22.715Z</time></trkpt><trkpt lat="43.1615009" lon="10.5854669"><ele>42.0</ele><time>2026-04-05T11:31:23.712Z</time></trkpt><trkpt lat="43.1614815" lon="10.5853765"><ele>42.0</ele><time>2026-04-05T11:31:24.718Z</time></trkpt><trkpt lat="43.1614618" lon="10.5852919"><ele>41.8</ele><time>2026-04-05T11:31:25.714Z</time></trkpt><trkpt lat="43.1614444" lon="10.5852057"><ele>41.6</ele><time>2026-04-05T11:31:26.719Z</time></trkpt><trkpt lat="43.1614078" lon="10.5850561"><ele>41.4</ele><time>2026-04-05T11:31:28.717Z</time></trkpt><trkpt lat="43.1613671" lon="10.5849071"><ele>41.199999999999996</ele><time>2026-04-05T11:31:30.725Z</time></trkpt><trkpt lat="43.1613274" lon="10.5847516"><ele>41.0</ele><time>2026-04-05T11:31:32.711Z</time></trkpt><trkpt lat="43.1613006" lon="10.584605"><ele>40.75</ele><time>2026-04-05T11:31:34.716Z</time></trkpt><trkpt lat="43.1612779" lon="10.5844487"><ele>40.5</ele><time>2026-04-05T11:31:36.717Z</time></trkpt><trkpt lat="43.1612694" lon="10.5842933"><ele>40.25</ele><time>2026-04-05T11:31:38.727Z</time></trkpt><trkpt lat="43.1612666" lon="10.5841355"><ele>40.0</ele><time>2026-04-05T11:31:40.721Z</time></trkpt><trkpt lat="43.1612697" lon="10.5839706"><ele>40.0</ele><time>2026-04-05T11:31:42.726Z</time></trkpt><trkpt lat="43.1612691" lon="10.5838087"><ele>40.0</ele><time>2026-04-05T11:31:44.723Z</time></trkpt><trkpt lat="43.1612704" lon="10.583641"><ele>40.0</ele><time>2026-04-05T11:31:46.724Z</time></trkpt><trkpt lat="43.1612799" lon="10.5834858"><ele>40.0</ele><time>2026-04-05T11:31:48.721Z</time></trkpt><trkpt lat="43.1612826" lon="10.5833259"><ele>39.5</ele><time>2026-04-05T11:31:50.722Z</time></trkpt><trkpt lat="43.1612836" lon="10.5831565"><ele>39.0</ele><time>2026-04-05T11:31:52.723Z</time></trkpt><trkpt lat="43.1612813" lon="10.5829976"><ele>38.5</ele><time>2026-04-05T11:31:54.722Z</time></trkpt><trkpt lat="43.1612799" lon="10.5828372"><ele>38.0</ele><time>2026-04-05T11:31:56.717Z</time></trkpt><trkpt lat="43.1612771" lon="10.5826694"><ele>37.8</ele><time>2026-04-05T11:31:58.718Z</time></trkpt><trkpt lat="43.161287" lon="10.5825029"><ele>37.599999999999994</ele><time>2026-04-05T11:32:00.718Z</time></trkpt><trkpt lat="43.1612941" lon="10.5824143"><ele>37.400000000000006</ele><time>2026-04-05T11:32:01.721Z</time></trkpt><trkpt lat="43.1613108" lon="10.5822579"><ele>37.2</ele><time>2026-04-05T11:32:03.713Z</time></trkpt><trkpt lat="43.1613228" lon="10.5821023"><ele>37.0</ele><time>2026-04-05T11:32:05.719Z</time></trkpt><trkpt lat="43.1613279" lon="10.5819435"><ele>36.75</ele><time>2026-04-05T11:32:07.721Z</time></trkpt><trkpt lat="43.1613329" lon="10.5817761"><ele>36.5</ele><time>2026-04-05T11:32:09.722Z</time></trkpt><trkpt lat="43.1613477" lon="10.5816029"><ele>36.25</ele><time>2026-04-05T11:32:11.717Z</time></trkpt><trkpt lat="43.1613539" lon="10.5814365"><ele>36.0</ele><time>2026-04-05T11:32:13.722Z</time></trkpt><trkpt lat="43.1613547" lon="10.5812763"><ele>36.2</ele><time>2026-04-05T11:32:15.724Z</time></trkpt><trkpt lat="43.1613553" lon="10.5811188"><ele>36.400000000000006</ele><time>2026-04-05T11:32:17.72Z</time></trkpt><trkpt lat="43.1613584" lon="10.5810287"><ele>36.6</ele><time>2026-04-05T11:32:18.718Z</time></trkpt><trkpt lat="43.1613599" lon="10.5808678"><ele>36.800000000000004</ele><time>2026-04-05T11:32:20.717Z</time></trkpt><trkpt lat="43.1613671" lon="10.5807061"><ele>37.0</ele><time>2026-04-05T11:32:22.711Z</time></trkpt><trkpt lat="43.1613644" lon="10.5805527"><ele>37.0</ele><time>2026-04-05T11:32:24.718Z</time></trkpt><trkpt lat="43.1613561" lon="10.5803904"><ele>37.0</ele><time>2026-04-05T11:32:26.721Z</time></trkpt><trkpt lat="43.1613298" lon="10.5802331"><ele>37.0</ele><time>2026-04-05T11:32:28.722Z</time></trkpt><trkpt lat="43.1613077" lon="10.5800753"><ele>37.0</ele><time>2026-04-05T11:32:30.729Z</time></trkpt><trkpt lat="43.1612878" lon="10.5799124"><ele>36.800000000000004</ele><time>2026-04-05T11:32:32.721Z</time></trkpt><trkpt lat="43.1612755" lon="10.5798276"><ele>36.6</ele><time>2026-04-05T11:32:33.719Z</time></trkpt><trkpt lat="43.1612432" lon="10.579672"><ele>36.400000000000006</ele><time>2026-04-05T11:32:35.723Z</time></trkpt><trkpt lat="43.1612171" lon="10.5795055"><ele>36.2</ele><time>2026-04-05T11:32:37.734Z</time></trkpt><trkpt lat="43.1611871" lon="10.5793507"><ele>36.0</ele><time>2026-04-05T11:32:39.723Z</time></trkpt><trkpt lat="43.161153" lon="10.5791973"><ele>35.6</ele><time>2026-04-05T11:32:41.716Z</time></trkpt><trkpt lat="43.1611399" lon="10.5791128"><ele>35.2</ele><time>2026-04-05T11:32:42.708Z</time></trkpt><trkpt lat="43.1611066" lon="10.5789588"><ele>34.8</ele><time>2026-04-05T11:32:44.722Z</time></trkpt><trkpt lat="43.1610676" lon="10.578806"><ele>34.4</ele><time>2026-04-05T11:32:46.721Z</time></trkpt><trkpt lat="43.1610447" lon="10.5786357"><ele>34.0</ele><time>2026-04-05T11:32:48.717Z</time></trkpt><trkpt lat="43.1610476" lon="10.5785474"><ele>33.6</ele><time>2026-04-05T11:32:49.714Z</time></trkpt><trkpt lat="43.1610638" lon="10.5784573"><ele>33.2</ele><time>2026-04-05T11:32:50.714Z</time></trkpt><trkpt lat="43.1611426" lon="10.5783378"><ele>32.800000000000004</ele><time>2026-04-05T11:32:52.712Z</time></trkpt><trkpt lat="43.1612343" lon="10.5782223"><ele>32.4</ele><time>2026-04-05T11:32:54.72Z</time></trkpt><trkpt lat="43.1613207" lon="10.5781127"><ele>32.0</ele><time>2026-04-05T11:32:56.721Z</time></trkpt><trkpt lat="43.1614064" lon="10.5779969"><ele>32.0</ele><time>2026-04-05T11:32:58.719Z</time></trkpt><trkpt lat="43.1614875" lon="10.5778861"><ele>32.0</ele><time>2026-04-05T11:33:00.72Z</time></trkpt><trkpt lat="43.1615711" lon="10.5777789"><ele>32.0</ele><time>2026-04-05T11:33:02.72Z</time></trkpt><trkpt lat="43.1616526" lon="10.577675"><ele>32.0</ele><time>2026-04-05T11:33:04.719Z</time></trkpt><trkpt lat="43.1617355" lon="10.5775737"><ele>32.0</ele><time>2026-04-05T11:33:06.713Z</time></trkpt><trkpt lat="43.1618121" lon="10.5774673"><ele>32.0</ele><time>2026-04-05T11:33:08.74Z</time></trkpt><trkpt lat="43.1618929" lon="10.5773546"><ele>32.0</ele><time>2026-04-05T11:33:10.718Z</time></trkpt><trkpt lat="43.1619836" lon="10.5772427"><ele>32.0</ele><time>2026-04-05T11:33:12.716Z</time></trkpt><trkpt lat="43.1620639" lon="10.5771305"><ele>32.0</ele><time>2026-04-05T11:33:14.716Z</time></trkpt><trkpt lat="43.1621522" lon="10.5770232"><ele>32.0</ele><time>2026-04-05T11:33:16.722Z</time></trkpt><trkpt lat="43.1622436" lon="10.5769137"><ele>32.0</ele><time>2026-04-05T11:33:18.725Z</time></trkpt><trkpt lat="43.1623321" lon="10.5768085"><ele>32.0</ele><time>2026-04-05T11:33:20.724Z</time></trkpt><trkpt lat="43.1624198" lon="10.5766954"><ele>31.5</ele><time>2026-04-05T11:33:22.72Z</time></trkpt><trkpt lat="43.1625062" lon="10.5765792"><ele>31.0</ele><time>2026-04-05T11:33:24.721Z</time></trkpt><trkpt lat="43.1625898" lon="10.5764631"><ele>30.5</ele><time>2026-04-05T11:33:26.719Z</time></trkpt><trkpt lat="43.1626721" lon="10.5763461"><ele>30.0</ele><time>2026-04-05T11:33:28.725Z</time></trkpt><trkpt lat="43.1627547" lon="10.5762306"><ele>30.25</ele><time>2026-04-05T11:33:30.721Z</time></trkpt><trkpt lat="43.1628389" lon="10.576116"><ele>30.5</ele><time>2026-04-05T11:33:32.721Z</time></trkpt><trkpt lat="43.1629165" lon="10.5760069"><ele>30.75</ele><time>2026-04-05T11:33:34.721Z</time></trkpt><trkpt lat="43.162995" lon="10.5758844"><ele>31.0</ele><time>2026-04-05T11:33:36.723Z</time></trkpt><trkpt lat="43.1630751" lon="10.5757721"><ele>31.0</ele><time>2026-04-05T11:33:38.727Z</time></trkpt><trkpt lat="43.1631587" lon="10.5756539"><ele>31.0</ele><time>2026-04-05T11:33:40.725Z</time></trkpt><trkpt lat="43.1632452" lon="10.5755406"><ele>31.0</ele><time>2026-04-05T11:33:42.716Z</time></trkpt><trkpt lat="43.1633262" lon="10.5754308"><ele>31.0</ele><time>2026-04-05T11:33:44.723Z</time></trkpt><trkpt lat="43.1634038" lon="10.5753028"><ele>30.833333333333336</ele><time>2026-04-05T11:33:46.722Z</time></trkpt><trkpt lat="43.1634505" lon="10.5752425"><ele>30.666666666666668</ele><time>2026-04-05T11:33:47.722Z</time></trkpt><trkpt lat="43.1634951" lon="10.5751776"><ele>30.5</ele><time>2026-04-05T11:33:48.725Z</time></trkpt><trkpt lat="43.1635419" lon="10.5751105"><ele>30.333333333333336</ele><time>2026-04-05T11:33:49.72Z</time></trkpt><trkpt lat="43.1635884" lon="10.5750493"><ele>30.166666666666668</ele><time>2026-04-05T11:33:50.724Z</time></trkpt><trkpt lat="43.163673" lon="10.57492"><ele>30.0</ele><time>2026-04-05T11:33:52.722Z</time></trkpt><trkpt lat="43.1637598" lon="10.5747978"><ele>30.0</ele><time>2026-04-05T11:33:54.722Z</time></trkpt><trkpt lat="43.1638429" lon="10.5746874"><ele>30.0</ele><time>2026-04-05T11:33:56.722Z</time></trkpt><trkpt lat="43.1639318" lon="10.5745662"><ele>30.0</ele><time>2026-04-05T11:33:58.724Z</time></trkpt><trkpt lat="43.164008" lon="10.5744527"><ele>30.0</ele><time>2026-04-05T11:34:00.725Z</time></trkpt><trkpt lat="43.1640824" lon="10.5743247"><ele>29.75</ele><time>2026-04-05T11:34:02.721Z</time></trkpt><trkpt lat="43.1641644" lon="10.5742146"><ele>29.5</ele><time>2026-04-05T11:34:04.724Z</time></trkpt><trkpt lat="43.1642486" lon="10.5741003"><ele>29.25</ele><time>2026-04-05T11:34:06.727Z</time></trkpt><trkpt lat="43.1643318" lon="10.5739894"><ele>29.0</ele><time>2026-04-05T11:34:08.721Z</time></trkpt><trkpt lat="43.1644048" lon="10.5738746"><ele>29.0</ele><time>2026-04-05T11:34:10.736Z</time></trkpt><trkpt lat="43.1644901" lon="10.573751"><ele>29.0</ele><time>2026-04-05T11:34:12.727Z</time></trkpt><trkpt lat="43.1645323" lon="10.5736837"><ele>29.0</ele><time>2026-04-05T11:34:13.722Z</time></trkpt><trkpt lat="43.1645755" lon="10.5736135"><ele>29.0</ele><time>2026-04-05T11:34:14.726Z</time></trkpt><trkpt lat="43.1646549" lon="10.5734854"><ele>29.0</ele><time>2026-04-05T11:34:16.723Z</time></trkpt><trkpt lat="43.1647316" lon="10.5733697"><ele>28.799999999999997</ele><time>2026-04-05T11:34:18.72Z</time></trkpt><trkpt lat="43.1648157" lon="10.5732619"><ele>28.599999999999998</ele><time>2026-04-05T11:34:20.721Z</time></trkpt><trkpt lat="43.1648636" lon="10.5732036"><ele>28.4</ele><time>2026-04-05T11:34:21.728Z</time></trkpt><trkpt lat="43.1649652" lon="10.5731234"><ele>28.2</ele><time>2026-04-05T11:34:23.726Z</time></trkpt><trkpt lat="43.1650771" lon="10.5730577"><ele>28.0</ele><time>2026-04-05T11:34:25.726Z</time></trkpt><trkpt lat="43.1651815" lon="10.5730057"><ele>27.75</ele><time>2026-04-05T11:34:27.725Z</time></trkpt><trkpt lat="43.165296" lon="10.5729482"><ele>27.5</ele><time>2026-04-05T11:34:29.726Z</time></trkpt><trkpt lat="43.1654072" lon="10.5728813"><ele>27.25</ele><time>2026-04-05T11:34:31.721Z</time></trkpt><trkpt lat="43.1655219" lon="10.5728314"><ele>27.0</ele><time>2026-04-05T11:34:33.729Z</time></trkpt><trkpt lat="43.1656373" lon="10.5727979"><ele>26.8</ele><time>2026-04-05T11:34:35.732Z</time></trkpt><trkpt lat="43.165757" lon="10.5727454"><ele>26.6</ele><time>2026-04-05T11:34:37.72Z</time></trkpt><trkpt lat="43.1658739" lon="10.5726898"><ele>26.400000000000002</ele><time>2026-04-05T11:34:39.713Z</time></trkpt><trkpt lat="43.1659384" lon="10.5726616"><ele>26.200000000000003</ele><time>2026-04-05T11:34:40.721Z</time></trkpt><trkpt lat="43.1660011" lon="10.572626"><ele>26.0</ele><time>2026-04-05T11:34:41.75Z</time></trkpt><trkpt lat="43.1660635" lon="10.5725995"><ele>25.999999999999996</ele><time>2026-04-05T11:34:42.726Z</time></trkpt><trkpt lat="43.166184" lon="10.5725428"><ele>26.0</ele><time>2026-04-05T11:34:44.723Z</time></trkpt><trkpt lat="43.1662468" lon="10.5725213"><ele>26.0</ele><time>2026-04-05T11:34:45.727Z</time></trkpt><trkpt lat="43.1663088" lon="10.5725002"><ele>26.0</ele><time>2026-04-05T11:34:46.726Z</time></trkpt><trkpt lat="43.1663709" lon="10.5724772"><ele>25.999999999999996</ele><time>2026-04-05T11:34:47.722Z</time></trkpt><trkpt lat="43.1664892" lon="10.5724267"><ele>26.0</ele><time>2026-04-05T11:34:49.725Z</time></trkpt><trkpt lat="43.1666046" lon="10.5723707"><ele>25.75</ele><time>2026-04-05T11:34:51.729Z</time></trkpt><trkpt lat="43.1667153" lon="10.5723011"><ele>25.5</ele><time>2026-04-05T11:34:53.726Z</time></trkpt><trkpt lat="43.1668274" lon="10.5722368"><ele>25.25</ele><time>2026-04-05T11:34:55.72Z</time></trkpt><trkpt lat="43.1669387" lon="10.5721726"><ele>25.0</ele><time>2026-04-05T11:34:57.718Z</time></trkpt><trkpt lat="43.1670406" lon="10.5721223"><ele>25.0</ele><time>2026-04-05T11:34:59.724Z</time></trkpt><trkpt lat="43.1671476" lon="10.5720875"><ele>25.0</ele><time>2026-04-05T11:35:01.721Z</time></trkpt><trkpt lat="43.1672491" lon="10.5720399"><ele>25.0</ele><time>2026-04-05T11:35:03.727Z</time></trkpt><trkpt lat="43.1673154" lon="10.5719451"><ele>25.0</ele><time>2026-04-05T11:35:05.722Z</time></trkpt><trkpt lat="43.1673431" lon="10.5718477"><ele>25.0</ele><time>2026-04-05T11:35:07.719Z</time></trkpt><trkpt lat="43.167351" lon="10.5716848"><ele>25.000000000000004</ele><time>2026-04-05T11:35:09.717Z</time></trkpt><trkpt lat="43.1673569" lon="10.5715259"><ele>25.0</ele><time>2026-04-05T11:35:11.736Z</time></trkpt><trkpt lat="43.1673574" lon="10.5714345"><ele>25.0</ele><time>2026-04-05T11:35:12.72Z</time></trkpt><trkpt lat="43.1673616" lon="10.5713448"><ele>25.0</ele><time>2026-04-05T11:35:13.717Z</time></trkpt><trkpt lat="43.1673647" lon="10.5712565"><ele>25.000000000000004</ele><time>2026-04-05T11:35:14.717Z</time></trkpt><trkpt lat="43.1673636" lon="10.5710974"><ele>25.0</ele><time>2026-04-05T11:35:16.719Z</time></trkpt><trkpt lat="43.1673726" lon="10.5709567"><ele>25.0</ele><time>2026-04-05T11:35:18.713Z</time></trkpt><trkpt lat="43.1673736" lon="10.5708484"><ele>25.0</ele><time>2026-04-05T11:35:20.72Z</time></trkpt><trkpt lat="43.1673711" lon="10.5707377"><ele>25.0</ele><time>2026-04-05T11:35:22.719Z</time></trkpt><trkpt lat="43.1673822" lon="10.5706054"><ele>25.0</ele><time>2026-04-05T11:35:24.718Z</time></trkpt><trkpt lat="43.1674078" lon="10.5704527"><ele>25.0</ele><time>2026-04-05T11:35:26.713Z</time></trkpt><trkpt lat="43.1674169" lon="10.5702915"><ele>25.0</ele><time>2026-04-05T11:35:28.715Z</time></trkpt><trkpt lat="43.1674175" lon="10.5701289"><ele>25.0</ele><time>2026-04-05T11:35:30.717Z</time></trkpt><trkpt lat="43.1674222" lon="10.5700382"><ele>25.0</ele><time>2026-04-05T11:35:31.713Z</time></trkpt><trkpt lat="43.1674327" lon="10.5698757"><ele>25.0</ele><time>2026-04-05T11:35:33.714Z</time></trkpt><trkpt lat="43.1674527" lon="10.569732"><ele>25.0</ele><time>2026-04-05T11:35:35.71Z</time></trkpt><trkpt lat="43.1674606" lon="10.5695849"><ele>24.4</ele><time>2026-04-05T11:35:37.712Z</time></trkpt><trkpt lat="43.1674769" lon="10.5694512"><ele>23.8</ele><time>2026-04-05T11:35:39.709Z</time></trkpt><trkpt lat="43.1674972" lon="10.5693244"><ele>23.200000000000003</ele><time>2026-04-05T11:35:42.729Z</time></trkpt><trkpt lat="43.1674973" lon="10.5691994"><ele>22.6</ele><time>2026-04-05T11:35:44.714Z</time></trkpt><trkpt lat="43.1675004" lon="10.5690726"><ele>22.0</ele><time>2026-04-05T11:35:46.717Z</time></trkpt><trkpt lat="43.1675007" lon="10.568913"><ele>22.0</ele><time>2026-04-05T11:35:48.714Z</time></trkpt><trkpt lat="43.1674975" lon="10.5687424"><ele>22.0</ele><time>2026-04-05T11:35:50.715Z</time></trkpt><trkpt lat="43.1674991" lon="10.5685741"><ele>22.0</ele><time>2026-04-05T11:35:52.714Z</time></trkpt><trkpt lat="43.1675065" lon="10.568415"><ele>22.0</ele><time>2026-04-05T11:35:54.716Z</time></trkpt><trkpt lat="43.1675145" lon="10.5682679"><ele>22.0</ele><time>2026-04-05T11:35:56.711Z</time></trkpt><trkpt lat="43.1675219" lon="10.5681052"><ele>22.0</ele><time>2026-04-05T11:35:58.716Z</time></trkpt><trkpt lat="43.1675438" lon="10.56796"><ele>22.0</ele><time>2026-04-05T11:36:00.715Z</time></trkpt><trkpt lat="43.1675745" lon="10.5678198"><ele>22.0</ele><time>2026-04-05T11:36:02.714Z</time></trkpt><trkpt lat="43.1675969" lon="10.5676764"><ele>22.0</ele><time>2026-04-05T11:36:04.715Z</time></trkpt><trkpt lat="43.1676123" lon="10.5675553"><ele>22.0</ele><time>2026-04-05T11:36:06.715Z</time></trkpt><trkpt lat="43.1676312" lon="10.5674293"><ele>22.0</ele><time>2026-04-05T11:36:08.717Z</time></trkpt><trkpt lat="43.1676596" lon="10.5672935"><ele>22.0</ele><time>2026-04-05T11:36:10.713Z</time></trkpt><trkpt lat="43.1676606" lon="10.5671578"><ele>22.0</ele><time>2026-04-05T11:36:12.713Z</time></trkpt><trkpt lat="43.1676621" lon="10.5670119"><ele>22.0</ele><time>2026-04-05T11:36:14.708Z</time></trkpt><trkpt lat="43.1676782" lon="10.5669218"><ele>22.0</ele><time>2026-04-05T11:36:15.711Z</time></trkpt><trkpt lat="43.1676898" lon="10.5668323"><ele>22.0</ele><time>2026-04-05T11:36:16.712Z</time></trkpt><trkpt lat="43.1677099" lon="10.5667491"><ele>22.0</ele><time>2026-04-05T11:36:17.712Z</time></trkpt><trkpt lat="43.1677332" lon="10.566664"><ele>22.0</ele><time>2026-04-05T11:36:18.709Z</time></trkpt><trkpt lat="43.1677651" lon="10.5665069"><ele>22.0</ele><time>2026-04-05T11:36:20.712Z</time></trkpt><trkpt lat="43.167781" lon="10.5663533"><ele>22.0</ele><time>2026-04-05T11:36:22.713Z</time></trkpt><trkpt lat="43.1677868" lon="10.5662242"><ele>22.0</ele><time>2026-04-05T11:36:24.707Z</time></trkpt><trkpt lat="43.1678002" lon="10.5660785"><ele>22.0</ele><time>2026-04-05T11:36:26.711Z</time></trkpt><trkpt lat="43.1678407" lon="10.5659225"><ele>22.0</ele><time>2026-04-05T11:36:28.716Z</time></trkpt><trkpt lat="43.1678686" lon="10.5657622"><ele>22.0</ele><time>2026-04-05T11:36:30.706Z</time></trkpt><trkpt lat="43.167884" lon="10.56561"><ele>22.0</ele><time>2026-04-05T11:36:32.708Z</time></trkpt><trkpt lat="43.1679062" lon="10.56545"><ele>22.0</ele><time>2026-04-05T11:36:34.711Z</time></trkpt><trkpt lat="43.167915" lon="10.5653619"><ele>22.0</ele><time>2026-04-05T11:36:35.711Z</time></trkpt><trkpt lat="43.1679268" lon="10.5652767"><ele>22.0</ele><time>2026-04-05T11:36:36.707Z</time></trkpt><trkpt lat="43.1679367" lon="10.5651914"><ele>22.0</ele><time>2026-04-05T11:36:37.71Z</time></trkpt><trkpt lat="43.1679425" lon="10.5650384"><ele>22.0</ele><time>2026-04-05T11:36:39.71Z</time></trkpt><trkpt lat="43.1679564" lon="10.5648778"><ele>22.166666666666664</ele><time>2026-04-05T11:36:41.714Z</time></trkpt><trkpt lat="43.1679818" lon="10.5647402"><ele>22.333333333333332</ele><time>2026-04-05T11:36:43.713Z</time></trkpt><trkpt lat="43.1680036" lon="10.564622"><ele>22.5</ele><time>2026-04-05T11:36:45.717Z</time></trkpt><trkpt lat="43.168034" lon="10.56453"><ele>22.666666666666668</ele><time>2026-04-05T11:36:47.713Z</time></trkpt><trkpt lat="43.168087" lon="10.564464"><ele>22.833333333333336</ele><time>2026-04-05T11:36:49.709Z</time></trkpt><trkpt lat="43.1681723" lon="10.5644626"><ele>23.0</ele><time>2026-04-05T11:36:51.718Z</time></trkpt><trkpt lat="43.1682801" lon="10.5644993"><ele>22.599999999999998</ele><time>2026-04-05T11:36:53.71Z</time></trkpt><trkpt lat="43.1683977" lon="10.5645339"><ele>22.2</ele><time>2026-04-05T11:36:55.702Z</time></trkpt><trkpt lat="43.1685072" lon="10.5645484"><ele>21.8</ele><time>2026-04-05T11:36:57.704Z</time></trkpt><trkpt lat="43.1686223" lon="10.5645517"><ele>21.4</ele><time>2026-04-05T11:36:59.71Z</time></trkpt><trkpt lat="43.1686633" lon="10.5644527"><ele>21.0</ele><time>2026-04-05T11:37:01.699Z</time></trkpt><trkpt lat="43.1686699" lon="10.5643144"><ele>20.8</ele><time>2026-04-05T11:37:03.714Z</time></trkpt><trkpt lat="43.1686607" lon="10.5642029"><ele>20.6</ele><time>2026-04-05T11:37:05.709Z</time></trkpt><trkpt lat="43.1686093" lon="10.5641323"><ele>20.4</ele><time>2026-04-05T11:37:07.72Z</time></trkpt><trkpt lat="43.1685105" lon="10.5641324"><ele>20.2</ele><time>2026-04-05T11:37:09.715Z</time></trkpt><trkpt lat="43.1684141" lon="10.564104"><ele>20.0</ele><time>2026-04-05T11:37:11.723Z</time></trkpt><trkpt lat="43.1683148" lon="10.5640791"><ele>20.0</ele><time>2026-04-05T11:37:13.717Z</time></trkpt><trkpt lat="43.1682492" lon="10.5640522"><ele>20.0</ele><time>2026-04-05T11:37:15.733Z</time></trkpt><trkpt lat="43.1682698" lon="10.5638876"><ele>20.0</ele><time>2026-04-05T11:37:18.704Z</time></trkpt><trkpt lat="43.168314" lon="10.5637014"><ele>20.0</ele><time>2026-04-05T11:37:20.7Z</time></trkpt><trkpt lat="43.1683564" lon="10.563605"><ele>20.0</ele><time>2026-04-05T11:37:21.695Z</time></trkpt><trkpt lat="43.1683988" lon="10.5634972"><ele>19.5</ele><time>2026-04-05T11:37:22.699Z</time></trkpt><trkpt lat="43.1684849" lon="10.5634145"><ele>19.0</ele><time>2026-04-05T11:37:24.701Z</time></trkpt><trkpt lat="43.1685513" lon="10.5634151"><ele>18.5</ele><time>2026-04-05T11:37:26.702Z</time></trkpt><trkpt lat="43.1686246" lon="10.5634728"><ele>18.0</ele><time>2026-04-05T11:37:28.718Z</time></trkpt><trkpt lat="43.1687026" lon="10.5635165"><ele>17.5</ele><time>2026-04-05T11:37:30.721Z</time></trkpt><trkpt lat="43.168781" lon="10.5635646"><ele>17.0</ele><time>2026-04-05T11:37:32.718Z</time></trkpt><trkpt lat="43.1688577" lon="10.5636327"><ele>17.0</ele><time>2026-04-05T11:37:34.72Z</time></trkpt><trkpt lat="43.1689548" lon="10.5636816"><ele>17.0</ele><time>2026-04-05T11:37:36.724Z</time></trkpt><trkpt lat="43.1690493" lon="10.5637325"><ele>17.0</ele><time>2026-04-05T11:37:38.718Z</time></trkpt><trkpt lat="43.1691543" lon="10.5637629"><ele>17.0</ele><time>2026-04-05T11:37:40.715Z</time></trkpt><trkpt lat="43.1692757" lon="10.5637769"><ele>17.0</ele><time>2026-04-05T11:37:42.716Z</time></trkpt><trkpt lat="43.1693601" lon="10.5636948"><ele>17.333333333333336</ele><time>2026-04-05T11:37:44.716Z</time></trkpt><trkpt lat="43.1694246" lon="10.563568"><ele>17.666666666666668</ele><time>2026-04-05T11:37:46.716Z</time></trkpt><trkpt lat="43.1694502" lon="10.5634865"><ele>18.0</ele><time>2026-04-05T11:37:47.707Z</time></trkpt><trkpt lat="43.1694827" lon="10.5633956"><ele>18.333333333333332</ele><time>2026-04-05T11:37:48.699Z</time></trkpt><trkpt lat="43.169511" lon="10.5632475"><ele>18.666666666666664</ele><time>2026-04-05T11:37:50.712Z</time></trkpt><trkpt lat="43.1695141" lon="10.5631582"><ele>19.0</ele><time>2026-04-05T11:37:51.713Z</time></trkpt><trkpt lat="43.1695465" lon="10.5630022"><ele>18.599999999999998</ele><time>2026-04-05T11:37:53.695Z</time></trkpt><trkpt lat="43.1695769" lon="10.562846"><ele>18.2</ele><time>2026-04-05T11:37:55.708Z</time></trkpt><trkpt lat="43.1695772" lon="10.5627122"><ele>17.799999999999997</ele><time>2026-04-05T11:37:57.718Z</time></trkpt><trkpt lat="43.169588" lon="10.5625576"><ele>17.4</ele><time>2026-04-05T11:37:59.713Z</time></trkpt><trkpt lat="43.169596" lon="10.5624611"><ele>17.0</ele><time>2026-04-05T11:38:00.719Z</time></trkpt><trkpt lat="43.1696052" lon="10.5623613"><ele>17.0</ele><time>2026-04-05T11:38:01.718Z</time></trkpt><trkpt lat="43.1696151" lon="10.5622649"><ele>17.0</ele><time>2026-04-05T11:38:02.716Z</time></trkpt><trkpt lat="43.16963" lon="10.5621739"><ele>17.0</ele><time>2026-04-05T11:38:03.711Z</time></trkpt><trkpt lat="43.1696398" lon="10.5620855"><ele>17.0</ele><time>2026-04-05T11:38:04.718Z</time></trkpt><trkpt lat="43.1696502" lon="10.5620003"><ele>17.0</ele><time>2026-04-05T11:38:05.717Z</time></trkpt><trkpt lat="43.1696694" lon="10.5618375"><ele>17.0</ele><time>2026-04-05T11:38:07.716Z</time></trkpt><trkpt lat="43.1696831" lon="10.5617518"><ele>17.0</ele><time>2026-04-05T11:38:08.718Z</time></trkpt><trkpt lat="43.169697" lon="10.5616658"><ele>17.0</ele><time>2026-04-05T11:38:09.715Z</time></trkpt><trkpt lat="43.1697109" lon="10.5615769"><ele>17.0</ele><time>2026-04-05T11:38:10.712Z</time></trkpt><trkpt lat="43.1697258" lon="10.5614906"><ele>17.0</ele><time>2026-04-05T11:38:11.714Z</time></trkpt><trkpt lat="43.1697388" lon="10.5614002"><ele>17.0</ele><time>2026-04-05T11:38:12.721Z</time></trkpt><trkpt lat="43.1697518" lon="10.5612311"><ele>17.0</ele><time>2026-04-05T11:38:14.718Z</time></trkpt><trkpt lat="43.1697639" lon="10.5611454"><ele>17.0</ele><time>2026-04-05T11:38:15.719Z</time></trkpt><trkpt lat="43.1697893" lon="10.5609922"><ele>17.0</ele><time>2026-04-05T11:38:17.732Z</time></trkpt><trkpt lat="43.1698173" lon="10.5608287"><ele>17.0</ele><time>2026-04-05T11:38:19.714Z</time></trkpt><trkpt lat="43.169843" lon="10.5606631"><ele>17.0</ele><time>2026-04-05T11:38:21.718Z</time></trkpt><trkpt lat="43.1698569" lon="10.560578"><ele>17.0</ele><time>2026-04-05T11:38:22.713Z</time></trkpt><trkpt lat="43.1698809" lon="10.5604119"><ele>17.0</ele><time>2026-04-05T11:38:24.714Z</time></trkpt><trkpt lat="43.1699039" lon="10.5602456"><ele>17.0</ele><time>2026-04-05T11:38:26.716Z</time></trkpt><trkpt lat="43.1699267" lon="10.5600845"><ele>17.0</ele><time>2026-04-05T11:38:28.717Z</time></trkpt><trkpt lat="43.1699541" lon="10.5599248"><ele>17.0</ele><time>2026-04-05T11:38:30.713Z</time></trkpt><trkpt lat="43.1699771" lon="10.5597694"><ele>17.0</ele><time>2026-04-05T11:38:32.71Z</time></trkpt><trkpt lat="43.1700019" lon="10.559612"><ele>17.0</ele><time>2026-04-05T11:38:34.71Z</time></trkpt><trkpt lat="43.1700273" lon="10.5594437"><ele>17.0</ele><time>2026-04-05T11:38:36.716Z</time></trkpt><trkpt lat="43.1700542" lon="10.5592682"><ele>17.0</ele><time>2026-04-05T11:38:38.711Z</time></trkpt><trkpt lat="43.170076" lon="10.5591069"><ele>16.833333333333336</ele><time>2026-04-05T11:38:40.709Z</time></trkpt><trkpt lat="43.1700878" lon="10.5590202"><ele>16.666666666666668</ele><time>2026-04-05T11:38:41.708Z</time></trkpt><trkpt lat="43.1701013" lon="10.5589328"><ele>16.5</ele><time>2026-04-05T11:38:42.708Z</time></trkpt><trkpt lat="43.1701141" lon="10.5588445"><ele>16.333333333333332</ele><time>2026-04-05T11:38:43.713Z</time></trkpt><trkpt lat="43.1701387" lon="10.5586859"><ele>16.166666666666664</ele><time>2026-04-05T11:38:45.708Z</time></trkpt><trkpt lat="43.1701665" lon="10.5585204"><ele>16.0</ele><time>2026-04-05T11:38:47.711Z</time></trkpt><trkpt lat="43.1701913" lon="10.5583596"><ele>15.8</ele><time>2026-04-05T11:38:49.71Z</time></trkpt><trkpt lat="43.1702176" lon="10.5581861"><ele>15.600000000000001</ele><time>2026-04-05T11:38:51.714Z</time></trkpt><trkpt lat="43.170239" lon="10.5580168"><ele>15.4</ele><time>2026-04-05T11:38:53.712Z</time></trkpt><trkpt lat="43.1702609" lon="10.557853"><ele>15.2</ele><time>2026-04-05T11:38:55.712Z</time></trkpt><trkpt lat="43.1702748" lon="10.557764"><ele>15.0</ele><time>2026-04-05T11:38:56.712Z</time></trkpt><trkpt lat="43.1702915" lon="10.5576754"><ele>15.0</ele><time>2026-04-05T11:38:57.712Z</time></trkpt><trkpt lat="43.1703075" lon="10.5575897"><ele>15.0</ele><time>2026-04-05T11:38:58.716Z</time></trkpt><trkpt lat="43.1703297" lon="10.557427"><ele>15.0</ele><time>2026-04-05T11:39:00.712Z</time></trkpt><trkpt lat="43.1703567" lon="10.5572641"><ele>15.0</ele><time>2026-04-05T11:39:02.71Z</time></trkpt><trkpt lat="43.1703704" lon="10.5571775"><ele>15.0</ele><time>2026-04-05T11:39:03.713Z</time></trkpt><trkpt lat="43.170392" lon="10.5570141"><ele>15.0</ele><time>2026-04-05T11:39:05.711Z</time></trkpt><trkpt lat="43.1704162" lon="10.5568575"><ele>15.0</ele><time>2026-04-05T11:39:07.712Z</time></trkpt><trkpt lat="43.1704291" lon="10.5567685"><ele>15.0</ele><time>2026-04-05T11:39:08.713Z</time></trkpt><trkpt lat="43.1704396" lon="10.5566805"><ele>15.0</ele><time>2026-04-05T11:39:09.712Z</time></trkpt><trkpt lat="43.1704689" lon="10.5565182"><ele>15.0</ele><time>2026-04-05T11:39:11.718Z</time></trkpt><trkpt lat="43.1705017" lon="10.5563672"><ele>14.833333333333334</ele><time>2026-04-05T11:39:13.718Z</time></trkpt><trkpt lat="43.1705269" lon="10.5561992"><ele>14.666666666666668</ele><time>2026-04-05T11:39:15.715Z</time></trkpt><trkpt lat="43.1705403" lon="10.5561105"><ele>14.5</ele><time>2026-04-05T11:39:16.717Z</time></trkpt><trkpt lat="43.1705559" lon="10.5560202"><ele>14.333333333333334</ele><time>2026-04-05T11:39:17.714Z</time></trkpt><trkpt lat="43.1705783" lon="10.5558634"><ele>14.166666666666668</ele><time>2026-04-05T11:39:19.73Z</time></trkpt><trkpt lat="43.1705903" lon="10.5557757"><ele>14.0</ele><time>2026-04-05T11:39:20.713Z</time></trkpt><trkpt lat="43.1706084" lon="10.555613"><ele>14.0</ele><time>2026-04-05T11:39:22.716Z</time></trkpt><trkpt lat="43.1706189" lon="10.5555258"><ele>14.0</ele><time>2026-04-05T11:39:23.717Z</time></trkpt><trkpt lat="43.1706307" lon="10.5554385"><ele>14.0</ele><time>2026-04-05T11:39:24.721Z</time></trkpt><trkpt lat="43.1706433" lon="10.5553501"><ele>14.0</ele><time>2026-04-05T11:39:25.717Z</time></trkpt><trkpt lat="43.1706583" lon="10.5552661"><ele>14.0</ele><time>2026-04-05T11:39:26.717Z</time></trkpt><trkpt lat="43.1706719" lon="10.5551793"><ele>14.0</ele><time>2026-04-05T11:39:27.715Z</time></trkpt><trkpt lat="43.1706963" lon="10.555018"><ele>14.0</ele><time>2026-04-05T11:39:29.715Z</time></trkpt><trkpt lat="43.1707203" lon="10.554851"><ele>13.500000000000002</ele><time>2026-04-05T11:39:31.718Z</time></trkpt><trkpt lat="43.170734" lon="10.5547635"><ele>13.0</ele><time>2026-04-05T11:39:32.72Z</time></trkpt><trkpt lat="43.1707473" lon="10.5546775"><ele>12.5</ele><time>2026-04-05T11:39:33.721Z</time></trkpt><trkpt lat="43.1707584" lon="10.5545901"><ele>12.0</ele><time>2026-04-05T11:39:34.714Z</time></trkpt><trkpt lat="43.1707698" lon="10.5545022"><ele>11.5</ele><time>2026-04-05T11:39:35.714Z</time></trkpt><trkpt lat="43.1707956" lon="10.5543332"><ele>11.0</ele><time>2026-04-05T11:39:37.716Z</time></trkpt><trkpt lat="43.1708099" lon="10.5542435"><ele>10.833333333333332</ele><time>2026-04-05T11:39:38.717Z</time></trkpt><trkpt lat="43.1708226" lon="10.554157"><ele>10.666666666666666</ele><time>2026-04-05T11:39:39.717Z</time></trkpt><trkpt lat="43.1708376" lon="10.5540728"><ele>10.5</ele><time>2026-04-05T11:39:40.718Z</time></trkpt><trkpt lat="43.1708513" lon="10.5539876"><ele>10.333333333333334</ele><time>2026-04-05T11:39:41.719Z</time></trkpt><trkpt lat="43.1708637" lon="10.5539024"><ele>10.166666666666668</ele><time>2026-04-05T11:39:42.725Z</time></trkpt><trkpt lat="43.1708904" lon="10.5537382"><ele>10.0</ele><time>2026-04-05T11:39:44.716Z</time></trkpt><trkpt lat="43.1709154" lon="10.553577"><ele>10.0</ele><time>2026-04-05T11:39:46.72Z</time></trkpt><trkpt lat="43.1709354" lon="10.55342"><ele>10.0</ele><time>2026-04-05T11:39:48.718Z</time></trkpt><trkpt lat="43.1709577" lon="10.5532659"><ele>10.0</ele><time>2026-04-05T11:39:50.731Z</time></trkpt><trkpt lat="43.1709783" lon="10.553106"><ele>10.0</ele><time>2026-04-05T11:39:52.717Z</time></trkpt><trkpt lat="43.1709966" lon="10.5529427"><ele>10.0</ele><time>2026-04-05T11:39:54.718Z</time></trkpt><trkpt lat="43.1710241" lon="10.5527832"><ele>10.0</ele><time>2026-04-05T11:39:56.715Z</time></trkpt><trkpt lat="43.1710468" lon="10.552629"><ele>10.0</ele><time>2026-04-05T11:39:58.717Z</time></trkpt><trkpt lat="43.1710709" lon="10.5524578"><ele>10.0</ele><time>2026-04-05T11:40:00.716Z</time></trkpt><trkpt lat="43.1710919" lon="10.5522953"><ele>10.0</ele><time>2026-04-05T11:40:02.712Z</time></trkpt><trkpt lat="43.1711067" lon="10.5522114"><ele>10.0</ele><time>2026-04-05T11:40:03.713Z</time></trkpt><trkpt lat="43.1711188" lon="10.5521261"><ele>10.0</ele><time>2026-04-05T11:40:04.713Z</time></trkpt><trkpt lat="43.1711419" lon="10.5519689"><ele>10.0</ele><time>2026-04-05T11:40:06.712Z</time></trkpt><trkpt lat="43.1711663" lon="10.5518106"><ele>10.0</ele><time>2026-04-05T11:40:08.714Z</time></trkpt><trkpt lat="43.1711802" lon="10.5517263"><ele>10.0</ele><time>2026-04-05T11:40:09.716Z</time></trkpt><trkpt lat="43.171211" lon="10.5515681"><ele>9.833333333333334</ele><time>2026-04-05T11:40:11.717Z</time></trkpt><trkpt lat="43.1712366" lon="10.5514082"><ele>9.666666666666668</ele><time>2026-04-05T11:40:13.715Z</time></trkpt><trkpt lat="43.17125" lon="10.5513206"><ele>9.5</ele><time>2026-04-05T11:40:14.713Z</time></trkpt><trkpt lat="43.1712629" lon="10.5512291"><ele>9.333333333333334</ele><time>2026-04-05T11:40:15.708Z</time></trkpt><trkpt lat="43.171277" lon="10.5511385"><ele>9.166666666666666</ele><time>2026-04-05T11:40:16.712Z</time></trkpt><trkpt lat="43.1712948" lon="10.5510538"><ele>9.0</ele><time>2026-04-05T11:40:17.709Z</time></trkpt><trkpt lat="43.1713179" lon="10.5508856"><ele>8.8</ele><time>2026-04-05T11:40:19.712Z</time></trkpt><trkpt lat="43.1713427" lon="10.5507282"><ele>8.600000000000001</ele><time>2026-04-05T11:40:21.735Z</time></trkpt><trkpt lat="43.1713662" lon="10.5505608"><ele>8.4</ele><time>2026-04-05T11:40:23.716Z</time></trkpt><trkpt lat="43.1713766" lon="10.5504738"><ele>8.200000000000001</ele><time>2026-04-05T11:40:24.712Z</time></trkpt><trkpt lat="43.1714017" lon="10.5503112"><ele>8.0</ele><time>2026-04-05T11:40:26.712Z</time></trkpt><trkpt lat="43.1714161" lon="10.5502265"><ele>8.600000000000001</ele><time>2026-04-05T11:40:27.712Z</time></trkpt><trkpt lat="43.1714299" lon="10.5501418"><ele>9.200000000000001</ele><time>2026-04-05T11:40:28.715Z</time></trkpt><trkpt lat="43.1714505" lon="10.5499752"><ele>9.8</ele><time>2026-04-05T11:40:30.719Z</time></trkpt><trkpt lat="43.1714718" lon="10.5498122"><ele>10.4</ele><time>2026-04-05T11:40:32.721Z</time></trkpt><trkpt lat="43.1714921" lon="10.5496498"><ele>11.0</ele><time>2026-04-05T11:40:34.71Z</time></trkpt><trkpt lat="43.1715182" lon="10.5495036"><ele>12.8</ele><time>2026-04-05T11:40:36.715Z</time></trkpt><trkpt lat="43.1715557" lon="10.5493728"><ele>14.600000000000001</ele><time>2026-04-05T11:40:38.706Z</time></trkpt><trkpt lat="43.1716258" lon="10.5492987"><ele>16.4</ele><time>2026-04-05T11:40:40.703Z</time></trkpt><trkpt lat="43.1717231" lon="10.5492919"><ele>18.2</ele><time>2026-04-05T11:40:42.711Z</time></trkpt><trkpt lat="43.1718196" lon="10.5492995"><ele>20.0</ele><time>2026-04-05T11:40:44.713Z</time></trkpt><trkpt lat="43.1719301" lon="10.5493132"><ele>20.0</ele><time>2026-04-05T11:40:46.699Z</time></trkpt><trkpt lat="43.1719974" lon="10.549322"><ele>20.0</ele><time>2026-04-05T11:40:47.706Z</time></trkpt><trkpt lat="43.1720622" lon="10.5493157"><ele>20.0</ele><time>2026-04-05T11:40:48.704Z</time></trkpt><trkpt lat="43.1721224" lon="10.5493433"><ele>20.0</ele><time>2026-04-05T11:40:49.708Z</time></trkpt><trkpt lat="43.1721873" lon="10.5493525"><ele>20.0</ele><time>2026-04-05T11:40:50.719Z</time></trkpt><trkpt lat="43.1723144" lon="10.5493955"><ele>20.0</ele><time>2026-04-05T11:40:52.727Z</time></trkpt><trkpt lat="43.1723813" lon="10.5494173"><ele>20.166666666666668</ele><time>2026-04-05T11:40:53.712Z</time></trkpt><trkpt lat="43.1724482" lon="10.5494288"><ele>20.333333333333336</ele><time>2026-04-05T11:40:54.713Z</time></trkpt><trkpt lat="43.1725142" lon="10.5494395"><ele>20.5</ele><time>2026-04-05T11:40:55.714Z</time></trkpt><trkpt lat="43.1726363" lon="10.5494565"><ele>20.666666666666668</ele><time>2026-04-05T11:40:57.712Z</time></trkpt><trkpt lat="43.1726984" lon="10.5494739"><ele>20.833333333333332</ele><time>2026-04-05T11:40:58.713Z</time></trkpt><trkpt lat="43.1727645" lon="10.5494901"><ele>21.0</ele><time>2026-04-05T11:40:59.713Z</time></trkpt><trkpt lat="43.1728802" lon="10.5495258"><ele>18.8</ele><time>2026-04-05T11:41:01.71Z</time></trkpt><trkpt lat="43.1729858" lon="10.5495458"><ele>16.6</ele><time>2026-04-05T11:41:03.715Z</time></trkpt><trkpt lat="43.1731006" lon="10.5495714"><ele>14.4</ele><time>2026-04-05T11:41:05.702Z</time></trkpt><trkpt lat="43.1732123" lon="10.5495747"><ele>12.2</ele><time>2026-04-05T11:41:07.705Z</time></trkpt><trkpt lat="43.1733156" lon="10.5495778"><ele>10.0</ele><time>2026-04-05T11:41:09.711Z</time></trkpt><trkpt lat="43.1733839" lon="10.5495924"><ele>9.833333333333334</ele><time>2026-04-05T11:41:10.705Z</time></trkpt><trkpt lat="43.1734525" lon="10.5496104"><ele>9.666666666666668</ele><time>2026-04-05T11:41:11.709Z</time></trkpt><trkpt lat="43.1735187" lon="10.5496073"><ele>9.5</ele><time>2026-04-05T11:41:12.711Z</time></trkpt><trkpt lat="43.1735816" lon="10.5496004"><ele>9.333333333333334</ele><time>2026-04-05T11:41:13.722Z</time></trkpt><trkpt lat="43.1736462" lon="10.5495979"><ele>9.166666666666666</ele><time>2026-04-05T11:41:14.712Z</time></trkpt><trkpt lat="43.1737644" lon="10.5496146"><ele>9.0</ele><time>2026-04-05T11:41:16.714Z</time></trkpt><trkpt lat="43.173891" lon="10.5496239"><ele>9.0</ele><time>2026-04-05T11:41:18.716Z</time></trkpt><trkpt lat="43.1740135" lon="10.5496315"><ele>9.0</ele><time>2026-04-05T11:41:20.72Z</time></trkpt><trkpt lat="43.1741322" lon="10.5496449"><ele>9.0</ele><time>2026-04-05T11:41:22.715Z</time></trkpt><trkpt lat="43.1742489" lon="10.5496594"><ele>9.0</ele><time>2026-04-05T11:41:24.717Z</time></trkpt><trkpt lat="43.1743656" lon="10.549678"><ele>10.5</ele><time>2026-04-05T11:41:26.716Z</time></trkpt><trkpt lat="43.1744862" lon="10.5496913"><ele>12.0</ele><time>2026-04-05T11:41:28.72Z</time></trkpt><trkpt lat="43.1746032" lon="10.549718"><ele>13.5</ele><time>2026-04-05T11:41:30.721Z</time></trkpt><trkpt lat="43.1747249" lon="10.5497423"><ele>15.0</ele><time>2026-04-05T11:41:32.72Z</time></trkpt><trkpt lat="43.1748409" lon="10.5497563"><ele>14.833333333333334</ele><time>2026-04-05T11:41:34.722Z</time></trkpt><trkpt lat="43.1749055" lon="10.5497556"><ele>14.666666666666668</ele><time>2026-04-05T11:41:35.722Z</time></trkpt><trkpt lat="43.175028" lon="10.5497795"><ele>14.5</ele><time>2026-04-05T11:41:37.721Z</time></trkpt><trkpt lat="43.1751492" lon="10.5498001"><ele>14.333333333333334</ele><time>2026-04-05T11:41:39.723Z</time></trkpt><trkpt lat="43.1752125" lon="10.5498087"><ele>14.166666666666668</ele><time>2026-04-05T11:41:40.717Z</time></trkpt><trkpt lat="43.1752771" lon="10.5498085"><ele>14.0</ele><time>2026-04-05T11:41:41.714Z</time></trkpt><trkpt lat="43.1753989" lon="10.5498037"><ele>14.0</ele><time>2026-04-05T11:41:43.713Z</time></trkpt><trkpt lat="43.1754648" lon="10.5498064"><ele>14.0</ele><time>2026-04-05T11:41:44.712Z</time></trkpt><trkpt lat="43.1755285" lon="10.5498084"><ele>14.0</ele><time>2026-04-05T11:41:45.709Z</time></trkpt><trkpt lat="43.1755913" lon="10.5498226"><ele>14.0</ele><time>2026-04-05T11:41:46.712Z</time></trkpt><trkpt lat="43.1757111" lon="10.5498419"><ele>14.0</ele><time>2026-04-05T11:41:48.712Z</time></trkpt><trkpt lat="43.1757769" lon="10.5498415"><ele>14.0</ele><time>2026-04-05T11:41:49.714Z</time></trkpt><trkpt lat="43.1758419" lon="10.5498357"><ele>14.0</ele><time>2026-04-05T11:41:50.711Z</time></trkpt><trkpt lat="43.175909" lon="10.5498328"><ele>14.399999999999999</ele><time>2026-04-05T11:41:51.712Z</time></trkpt><trkpt lat="43.1759723" lon="10.5498296"><ele>14.799999999999999</ele><time>2026-04-05T11:41:52.71Z</time></trkpt><trkpt lat="43.1760866" lon="10.549821"><ele>15.200000000000001</ele><time>2026-04-05T11:41:54.723Z</time></trkpt><trkpt lat="43.176195" lon="10.5498174"><ele>15.600000000000001</ele><time>2026-04-05T11:41:56.707Z</time></trkpt><trkpt lat="43.1762927" lon="10.5498387"><ele>16.0</ele><time>2026-04-05T11:41:58.709Z</time></trkpt><trkpt lat="43.1764108" lon="10.5498788"><ele>16.0</ele><time>2026-04-05T11:42:00.708Z</time></trkpt><trkpt lat="43.1765113" lon="10.5499075"><ele>16.0</ele><time>2026-04-05T11:42:02.705Z</time></trkpt><trkpt lat="43.176606" lon="10.5499254"><ele>16.0</ele><time>2026-04-05T11:42:04.708Z</time></trkpt><trkpt lat="43.1767033" lon="10.5499284"><ele>16.0</ele><time>2026-04-05T11:42:06.704Z</time></trkpt><trkpt lat="43.1768125" lon="10.5499076"><ele>16.0</ele><time>2026-04-05T11:42:08.703Z</time></trkpt><trkpt lat="43.1769211" lon="10.5498917"><ele>16.2</ele><time>2026-04-05T11:42:10.703Z</time></trkpt><trkpt lat="43.1770191" lon="10.5499005"><ele>16.400000000000002</ele><time>2026-04-05T11:42:12.709Z</time></trkpt><trkpt lat="43.1771366" lon="10.5499179"><ele>16.6</ele><time>2026-04-05T11:42:14.702Z</time></trkpt><trkpt lat="43.1772608" lon="10.5499357"><ele>16.8</ele><time>2026-04-05T11:42:16.706Z</time></trkpt><trkpt lat="43.177324" lon="10.5499408"><ele>17.0</ele><time>2026-04-05T11:42:17.707Z</time></trkpt><trkpt lat="43.1774454" lon="10.5499325"><ele>17.166666666666668</ele><time>2026-04-05T11:42:19.705Z</time></trkpt><trkpt lat="43.1775727" lon="10.549936"><ele>17.333333333333336</ele><time>2026-04-05T11:42:21.714Z</time></trkpt><trkpt lat="43.1776401" lon="10.5499468"><ele>17.5</ele><time>2026-04-05T11:42:22.709Z</time></trkpt><trkpt lat="43.1777133" lon="10.5499518"><ele>17.666666666666668</ele><time>2026-04-05T11:42:23.71Z</time></trkpt><trkpt lat="43.1777821" lon="10.5499477"><ele>17.833333333333332</ele><time>2026-04-05T11:42:24.708Z</time></trkpt><trkpt lat="43.1778852" lon="10.5499445"><ele>18.0</ele><time>2026-04-05T11:42:26.712Z</time></trkpt><trkpt lat="43.1780073" lon="10.5499366"><ele>18.0</ele><time>2026-04-05T11:42:28.71Z</time></trkpt><trkpt lat="43.1781021" lon="10.5499569"><ele>18.0</ele><time>2026-04-05T11:42:30.711Z</time></trkpt><trkpt lat="43.1782026" lon="10.5499726"><ele>18.0</ele><time>2026-04-05T11:42:32.706Z</time></trkpt><trkpt lat="43.178306" lon="10.5499942"><ele>18.0</ele><time>2026-04-05T11:42:34.704Z</time></trkpt><trkpt lat="43.1783698" lon="10.5500006"><ele>18.0</ele><time>2026-04-05T11:42:35.703Z</time></trkpt><trkpt lat="43.1784864" lon="10.5500152"><ele>17.666666666666668</ele><time>2026-04-05T11:42:37.705Z</time></trkpt><trkpt lat="43.1785509" lon="10.5500366"><ele>17.333333333333332</ele><time>2026-04-05T11:42:38.709Z</time></trkpt><trkpt lat="43.1786155" lon="10.5500614"><ele>17.0</ele><time>2026-04-05T11:42:39.708Z</time></trkpt><trkpt lat="43.1786849" lon="10.5500823"><ele>16.666666666666664</ele><time>2026-04-05T11:42:40.706Z</time></trkpt><trkpt lat="43.1787483" lon="10.550098"><ele>16.333333333333332</ele><time>2026-04-05T11:42:41.704Z</time></trkpt><trkpt lat="43.1788138" lon="10.5501097"><ele>16.0</ele><time>2026-04-05T11:42:42.711Z</time></trkpt><trkpt lat="43.1789323" lon="10.5501171"><ele>16.166666666666664</ele><time>2026-04-05T11:42:44.711Z</time></trkpt><trkpt lat="43.1790549" lon="10.5501279"><ele>16.333333333333332</ele><time>2026-04-05T11:42:46.7Z</time></trkpt><trkpt lat="43.1791223" lon="10.5501276"><ele>16.5</ele><time>2026-04-05T11:42:47.704Z</time></trkpt><trkpt lat="43.1791915" lon="10.5501224"><ele>16.666666666666668</ele><time>2026-04-05T11:42:48.698Z</time></trkpt><trkpt lat="43.1792634" lon="10.5501167"><ele>16.833333333333336</ele><time>2026-04-05T11:42:49.702Z</time></trkpt><trkpt lat="43.1793292" lon="10.5501258"><ele>17.0</ele><time>2026-04-05T11:42:50.71Z</time></trkpt><trkpt lat="43.1794338" lon="10.5501494"><ele>17.0</ele><time>2026-04-05T11:42:52.709Z</time></trkpt><trkpt lat="43.179524" lon="10.5501866"><ele>17.0</ele><time>2026-04-05T11:42:54.71Z</time></trkpt><trkpt lat="43.179619" lon="10.550227"><ele>17.0</ele><time>2026-04-05T11:42:56.722Z</time></trkpt><trkpt lat="43.1796979" lon="10.5502704"><ele>17.0</ele><time>2026-04-05T11:42:58.707Z</time></trkpt><trkpt lat="43.1797777" lon="10.5502987"><ele>17.0</ele><time>2026-04-05T11:43:00.713Z</time></trkpt><trkpt lat="43.1798743" lon="10.5503239"><ele>16.333333333333336</ele><time>2026-04-05T11:43:03.703Z</time></trkpt><trkpt lat="43.1799557" lon="10.55035"><ele>15.666666666666668</ele><time>2026-04-05T11:43:05.707Z</time></trkpt><trkpt lat="43.1800377" lon="10.5503833"><ele>15.0</ele><time>2026-04-05T11:43:07.715Z</time></trkpt><trkpt lat="43.1801003" lon="10.5504433"><ele>14.333333333333332</ele><time>2026-04-05T11:43:11.72Z</time></trkpt><trkpt lat="43.180193" lon="10.5505469"><ele>13.666666666666666</ele><time>2026-04-05T11:43:13.722Z</time></trkpt><trkpt lat="43.1802635" lon="10.5505842"><ele>13.0</ele><time>2026-04-05T11:43:14.73Z</time></trkpt><trkpt lat="43.1803275" lon="10.5506125"><ele>12.714285714285714</ele><time>2026-04-05T11:43:15.723Z</time></trkpt><trkpt lat="43.1803953" lon="10.5506373"><ele>12.428571428571429</ele><time>2026-04-05T11:43:16.712Z</time></trkpt><trkpt lat="43.1804639" lon="10.5506394"><ele>12.142857142857142</ele><time>2026-04-05T11:43:17.72Z</time></trkpt><trkpt lat="43.1805314" lon="10.5506417"><ele>11.857142857142858</ele><time>2026-04-05T11:43:18.712Z</time></trkpt><trkpt lat="43.1805993" lon="10.550635"><ele>11.571428571428571</ele><time>2026-04-05T11:43:19.718Z</time></trkpt><trkpt lat="43.1806681" lon="10.550623"><ele>11.285714285714286</ele><time>2026-04-05T11:43:20.711Z</time></trkpt><trkpt lat="43.1807367" lon="10.5506137"><ele>11.0</ele><time>2026-04-05T11:43:21.724Z</time></trkpt><trkpt lat="43.1808079" lon="10.5506156"><ele>10.166666666666666</ele><time>2026-04-05T11:43:22.72Z</time></trkpt><trkpt lat="43.1808734" lon="10.5506107"><ele>9.333333333333332</ele><time>2026-04-05T11:43:23.72Z</time></trkpt><trkpt lat="43.1809375" lon="10.5506072"><ele>8.5</ele><time>2026-04-05T11:43:24.722Z</time></trkpt><trkpt lat="43.1810022" lon="10.5506049"><ele>7.666666666666666</ele><time>2026-04-05T11:43:25.721Z</time></trkpt><trkpt lat="43.1810659" lon="10.5506014"><ele>6.833333333333333</ele><time>2026-04-05T11:43:26.72Z</time></trkpt><trkpt lat="43.1811808" lon="10.5505873"><ele>6.0</ele><time>2026-04-05T11:43:28.721Z</time></trkpt><trkpt lat="43.1813005" lon="10.5505988"><ele>6.0</ele><time>2026-04-05T11:43:30.725Z</time></trkpt><trkpt lat="43.1813619" lon="10.5506231"><ele>6.0</ele><time>2026-04-05T11:43:31.719Z</time></trkpt><trkpt lat="43.1814782" lon="10.5506809"><ele>6.0</ele><time>2026-04-05T11:43:33.718Z</time></trkpt><trkpt lat="43.1815972" lon="10.5506812"><ele>6.0</ele><time>2026-04-05T11:43:35.732Z</time></trkpt><trkpt lat="43.1816612" lon="10.550636"><ele>6.0</ele><time>2026-04-05T11:43:36.726Z</time></trkpt><trkpt lat="43.1817218" lon="10.5505829"><ele>5.8</ele><time>2026-04-05T11:43:37.728Z</time></trkpt><trkpt lat="43.1817691" lon="10.5505246"><ele>5.6</ele><time>2026-04-05T11:43:38.732Z</time></trkpt><trkpt lat="43.1818651" lon="10.5504145"><ele>5.4</ele><time>2026-04-05T11:43:40.728Z</time></trkpt><trkpt lat="43.1819665" lon="10.5503693"><ele>5.2</ele><time>2026-04-05T11:43:42.728Z</time></trkpt><trkpt lat="43.1820804" lon="10.5503629"><ele>5.0</ele><time>2026-04-05T11:43:44.736Z</time></trkpt><trkpt lat="43.1821974" lon="10.5503177"><ele>5.0</ele><time>2026-04-05T11:43:46.735Z</time></trkpt><trkpt lat="43.1823051" lon="10.5502502"><ele>5.0</ele><time>2026-04-05T11:43:48.734Z</time></trkpt><trkpt lat="43.1824077" lon="10.5501862"><ele>5.0</ele><time>2026-04-05T11:43:50.724Z</time></trkpt><trkpt lat="43.1825147" lon="10.5501117"><ele>5.0</ele><time>2026-04-05T11:43:52.732Z</time></trkpt><trkpt lat="43.1825721" lon="10.5500746"><ele>5.0</ele><time>2026-04-05T11:43:53.727Z</time></trkpt><trkpt lat="43.1826291" lon="10.5500281"><ele>4.4</ele><time>2026-04-05T11:43:54.728Z</time></trkpt><trkpt lat="43.1827393" lon="10.5499473"><ele>3.8</ele><time>2026-04-05T11:43:56.725Z</time></trkpt><trkpt lat="43.1828503" lon="10.5498704"><ele>3.2</ele><time>2026-04-05T11:43:58.744Z</time></trkpt><trkpt lat="43.1829081" lon="10.5498318"><ele>2.6</ele><time>2026-04-05T11:43:59.726Z</time></trkpt><trkpt lat="43.1829675" lon="10.549792"><ele>2.0</ele><time>2026-04-05T11:44:00.729Z</time></trkpt><trkpt lat="43.1830731" lon="10.5497184"><ele>2.0</ele><time>2026-04-05T11:44:02.729Z</time></trkpt><trkpt lat="43.1831772" lon="10.549641"><ele>2.0</ele><time>2026-04-05T11:44:04.729Z</time></trkpt><trkpt lat="43.183283" lon="10.5495675"><ele>2.0</ele><time>2026-04-05T11:44:06.728Z</time></trkpt><trkpt lat="43.1833923" lon="10.549494"><ele>2.0</ele><time>2026-04-05T11:44:08.731Z</time></trkpt><trkpt lat="43.1834985" lon="10.5494216"><ele>2.0</ele><time>2026-04-05T11:44:10.736Z</time></trkpt><trkpt lat="43.183602" lon="10.5493477"><ele>2.0</ele><time>2026-04-05T11:44:12.735Z</time></trkpt><trkpt lat="43.1837063" lon="10.5492721"><ele>2.0</ele><time>2026-04-05T11:44:14.735Z</time></trkpt><trkpt lat="43.1838099" lon="10.5491983"><ele>2.0</ele><time>2026-04-05T11:44:16.734Z</time></trkpt><trkpt lat="43.1839138" lon="10.5491165"><ele>1.25</ele><time>2026-04-05T11:44:18.73Z</time></trkpt><trkpt lat="43.1840156" lon="10.5490399"><ele>0.5</ele><time>2026-04-05T11:44:20.731Z</time></trkpt><trkpt lat="43.1841212" lon="10.5489592"><ele>-0.25</ele><time>2026-04-05T11:44:22.726Z</time></trkpt><trkpt lat="43.184224" lon="10.54888"><ele>-1.0</ele><time>2026-04-05T11:44:24.731Z</time></trkpt><trkpt lat="43.1843282" lon="10.5488084"><ele>-1.0</ele><time>2026-04-05T11:44:26.72Z</time></trkpt><trkpt lat="43.1844312" lon="10.5487418"><ele>-1.0</ele><time>2026-04-05T11:44:28.734Z</time></trkpt><trkpt lat="43.1845402" lon="10.5486758"><ele>-1.0</ele><time>2026-04-05T11:44:30.729Z</time></trkpt><trkpt lat="43.1846474" lon="10.5486037"><ele>-1.0</ele><time>2026-04-05T11:44:32.733Z</time></trkpt><trkpt lat="43.1847494" lon="10.5485313"><ele>-0.75</ele><time>2026-04-05T11:44:34.727Z</time></trkpt><trkpt lat="43.1848507" lon="10.5484558"><ele>-0.5</ele><time>2026-04-05T11:44:36.731Z</time></trkpt><trkpt lat="43.1849548" lon="10.5483915"><ele>-0.25</ele><time>2026-04-05T11:44:38.721Z</time></trkpt><trkpt lat="43.1850545" lon="10.5483135"><ele>0.0</ele><time>2026-04-05T11:44:40.73Z</time></trkpt><trkpt lat="43.1851548" lon="10.5482319"><ele>0.0</ele><time>2026-04-05T11:44:42.731Z</time></trkpt><trkpt lat="43.1852656" lon="10.5481567"><ele>0.0</ele><time>2026-04-05T11:44:44.724Z</time></trkpt><trkpt lat="43.1853725" lon="10.5480964"><ele>0.0</ele><time>2026-04-05T11:44:46.738Z</time></trkpt><trkpt lat="43.1854581" lon="10.5480231"><ele>0.0</ele><time>2026-04-05T11:44:48.729Z</time></trkpt><trkpt lat="43.1855505" lon="10.5479301"><ele>0.0</ele><time>2026-04-05T11:44:50.734Z</time></trkpt><trkpt lat="43.1856511" lon="10.5478593"><ele>0.0</ele><time>2026-04-05T11:44:52.735Z</time></trkpt><trkpt lat="43.1857541" lon="10.5477929"><ele>0.0</ele><time>2026-04-05T11:44:54.734Z</time></trkpt><trkpt lat="43.1858605" lon="10.5477232"><ele>0.0</ele><time>2026-04-05T11:44:56.73Z</time></trkpt><trkpt lat="43.1859647" lon="10.5476499"><ele>0.0</ele><time>2026-04-05T11:44:58.725Z</time></trkpt><trkpt lat="43.18606" lon="10.5475821"><ele>0.0</ele><time>2026-04-05T11:45:00.728Z</time></trkpt><trkpt lat="43.18614" lon="10.5475417"><ele>0.0</ele><time>2026-04-05T11:45:02.725Z</time></trkpt><trkpt lat="43.1862288" lon="10.5475661"><ele>0.0</ele><time>2026-04-05T11:45:05.728Z</time></trkpt><trkpt lat="43.1862249" lon="10.5474495"><ele>0.0</ele><time>2026-04-05T11:45:08.72Z</time></trkpt><trkpt lat="43.1861454" lon="10.5473356"><ele>0.0</ele><time>2026-04-05T11:45:10.716Z</time></trkpt><trkpt lat="43.1860596" lon="10.5472149"><ele>0.0</ele><time>2026-04-05T11:45:12.721Z</time></trkpt><trkpt lat="43.1859811" lon="10.5470864"><ele>0.0</ele><time>2026-04-05T11:45:14.729Z</time></trkpt><trkpt lat="43.185943" lon="10.5470097"><ele>0.0</ele><time>2026-04-05T11:45:15.726Z</time></trkpt><trkpt lat="43.1858747" lon="10.5468921"><ele>0.0</ele><time>2026-04-05T11:45:17.727Z</time></trkpt><trkpt lat="43.1858054" lon="10.5467995"><ele>0.0</ele><time>2026-04-05T11:45:19.723Z</time></trkpt><trkpt lat="43.1857405" lon="10.5467042"><ele>0.0</ele><time>2026-04-05T11:45:21.719Z</time></trkpt><trkpt lat="43.1856668" lon="10.5465948"><ele>0.0</ele><time>2026-04-05T11:45:23.716Z</time></trkpt><trkpt lat="43.1855775" lon="10.5464875"><ele>0.0</ele><time>2026-04-05T11:45:25.714Z</time></trkpt><trkpt lat="43.185488" lon="10.5463717"><ele>0.0</ele><time>2026-04-05T11:45:27.72Z</time></trkpt><trkpt lat="43.1854067" lon="10.5462663"><ele>0.0</ele><time>2026-04-05T11:45:29.717Z</time></trkpt><trkpt lat="43.185328" lon="10.5461503"><ele>0.0</ele><time>2026-04-05T11:45:31.713Z</time></trkpt><trkpt lat="43.1852489" lon="10.5460384"><ele>0.0</ele><time>2026-04-05T11:45:33.715Z</time></trkpt><trkpt lat="43.1851671" lon="10.5459396"><ele>0.0</ele><time>2026-04-05T11:45:35.714Z</time></trkpt><trkpt lat="43.185087" lon="10.5458251"><ele>0.0</ele><time>2026-04-05T11:45:37.708Z</time></trkpt><trkpt lat="43.185038" lon="10.5457038"><ele>0.0</ele><time>2026-04-05T11:45:39.716Z</time></trkpt><trkpt lat="43.1850844" lon="10.5455638"><ele>0.0</ele><time>2026-04-05T11:45:41.714Z</time></trkpt><trkpt lat="43.1851886" lon="10.5454802"><ele>0.0</ele><time>2026-04-05T11:45:43.726Z</time></trkpt><trkpt lat="43.1852445" lon="10.5454381"><ele>0.0</ele><time>2026-04-05T11:45:44.718Z</time></trkpt><trkpt lat="43.1853002" lon="10.5453938"><ele>0.75</ele><time>2026-04-05T11:45:45.725Z</time></trkpt><trkpt lat="43.1854042" lon="10.5453195"><ele>1.5</ele><time>2026-04-05T11:45:47.719Z</time></trkpt><trkpt lat="43.1855119" lon="10.5452414"><ele>2.25</ele><time>2026-04-05T11:45:49.719Z</time></trkpt><trkpt lat="43.1856164" lon="10.5451752"><ele>3.0</ele><time>2026-04-05T11:45:51.72Z</time></trkpt><trkpt lat="43.1857245" lon="10.5451022"><ele>3.0</ele><time>2026-04-05T11:45:53.712Z</time></trkpt><trkpt lat="43.1857819" lon="10.5450653"><ele>3.0</ele><time>2026-04-05T11:45:54.716Z</time></trkpt><trkpt lat="43.1858412" lon="10.5450295"><ele>3.0</ele><time>2026-04-05T11:45:55.715Z</time></trkpt><trkpt lat="43.1858993" lon="10.5449902"><ele>3.0</ele><time>2026-04-05T11:45:56.717Z</time></trkpt><trkpt lat="43.1860107" lon="10.544912"><ele>3.0</ele><time>2026-04-05T11:45:58.711Z</time></trkpt><trkpt lat="43.1861179" lon="10.54484"><ele>3.0</ele><time>2026-04-05T11:46:00.717Z</time></trkpt><trkpt lat="43.1862277" lon="10.5447649"><ele>3.0</ele><time>2026-04-05T11:46:02.715Z</time></trkpt><trkpt lat="43.1863286" lon="10.5446824"><ele>3.0</ele><time>2026-04-05T11:46:04.715Z</time></trkpt><trkpt lat="43.1864303" lon="10.5445988"><ele>3.0</ele><time>2026-04-05T11:46:06.714Z</time></trkpt><trkpt lat="43.1865278" lon="10.5445266"><ele>3.0</ele><time>2026-04-05T11:46:08.71Z</time></trkpt><trkpt lat="43.1866304" lon="10.5444556"><ele>2.75</ele><time>2026-04-05T11:46:10.716Z</time></trkpt><trkpt lat="43.1867366" lon="10.5443873"><ele>2.5</ele><time>2026-04-05T11:46:12.71Z</time></trkpt><trkpt lat="43.1868298" lon="10.544316"><ele>2.25</ele><time>2026-04-05T11:46:14.707Z</time></trkpt><trkpt lat="43.1869325" lon="10.5442639"><ele>2.0</ele><time>2026-04-05T11:46:16.719Z</time></trkpt><trkpt lat="43.1870411" lon="10.5441976"><ele>1.9999999999999998</ele><time>2026-04-05T11:46:18.713Z</time></trkpt><trkpt lat="43.1871377" lon="10.5441009"><ele>2.0</ele><time>2026-04-05T11:46:20.714Z</time></trkpt><trkpt lat="43.1871998" lon="10.5439544"><ele>2.0</ele><time>2026-04-05T11:46:22.707Z</time></trkpt><trkpt lat="43.1872019" lon="10.5438578"><ele>2.0</ele><time>2026-04-05T11:46:23.709Z</time></trkpt><trkpt lat="43.187182" lon="10.5437711"><ele>1.9999999999999998</ele><time>2026-04-05T11:46:24.713Z</time></trkpt><trkpt lat="43.1871512" lon="10.543689"><ele>2.0</ele><time>2026-04-05T11:46:25.712Z</time></trkpt><trkpt lat="43.1871154" lon="10.5436078"><ele>2.5</ele><time>2026-04-05T11:46:26.717Z</time></trkpt><trkpt lat="43.1870789" lon="10.5435218"><ele>3.0</ele><time>2026-04-05T11:46:27.715Z</time></trkpt><trkpt lat="43.1870484" lon="10.5434364"><ele>3.5</ele><time>2026-04-05T11:46:28.709Z</time></trkpt><trkpt lat="43.1870299" lon="10.5433452"><ele>4.0</ele><time>2026-04-05T11:46:29.712Z</time></trkpt><trkpt lat="43.1870179" lon="10.5432568"><ele>4.5</ele><time>2026-04-05T11:46:30.717Z</time></trkpt><trkpt lat="43.1870016" lon="10.5430944"><ele>5.0</ele><time>2026-04-05T11:46:32.721Z</time></trkpt><trkpt lat="43.1869916" lon="10.542964"><ele>6.0</ele><time>2026-04-05T11:46:34.705Z</time></trkpt><trkpt lat="43.1869688" lon="10.5428537"><ele>7.0</ele><time>2026-04-05T11:46:36.699Z</time></trkpt><trkpt lat="43.1869143" lon="10.5427583"><ele>8.0</ele><time>2026-04-05T11:46:38.705Z</time></trkpt><trkpt lat="43.1868752" lon="10.5426561"><ele>9.0</ele><time>2026-04-05T11:46:40.701Z</time></trkpt><trkpt lat="43.1868518" lon="10.5425075"><ele>10.0</ele><time>2026-04-05T11:46:42.709Z</time></trkpt><trkpt lat="43.1868649" lon="10.542391"><ele>10.0</ele><time>2026-04-05T11:46:44.707Z</time></trkpt><trkpt lat="43.1869061" lon="10.5422742"><ele>10.0</ele><time>2026-04-05T11:46:46.713Z</time></trkpt><trkpt lat="43.1869555" lon="10.5422206"><ele>10.0</ele><time>2026-04-05T11:46:48.704Z</time></trkpt><trkpt lat="43.1870336" lon="10.5421525"><ele>10.0</ele><time>2026-04-05T11:46:51.712Z</time></trkpt><trkpt lat="43.1871008" lon="10.5420792"><ele>10.0</ele><time>2026-04-05T11:46:53.708Z</time></trkpt><trkpt lat="43.1871724" lon="10.5420165"><ele>10.0</ele><time>2026-04-05T11:46:55.704Z</time></trkpt><trkpt lat="43.1872299" lon="10.5419398"><ele>10.8</ele><time>2026-04-05T11:46:57.71Z</time></trkpt><trkpt lat="43.187303" lon="10.5418865"><ele>11.6</ele><time>2026-04-05T11:46:59.708Z</time></trkpt><trkpt lat="43.1873846" lon="10.5418463"><ele>12.399999999999999</ele><time>2026-04-05T11:47:01.708Z</time></trkpt><trkpt lat="43.1874727" lon="10.5418099"><ele>13.2</ele><time>2026-04-05T11:47:03.721Z</time></trkpt><trkpt lat="43.1875692" lon="10.5417437"><ele>14.0</ele><time>2026-04-05T11:47:05.706Z</time></trkpt><trkpt lat="43.1876752" lon="10.5416614"><ele>14.0</ele><time>2026-04-05T11:47:07.704Z</time></trkpt><trkpt lat="43.1877467" lon="10.5416478"><ele>14.0</ele><time>2026-04-05T11:47:08.713Z</time></trkpt><trkpt lat="43.1878156" lon="10.5416268"><ele>14.0</ele><time>2026-04-05T11:47:09.71Z</time></trkpt><trkpt lat="43.1878807" lon="10.5416013"><ele>14.0</ele><time>2026-04-05T11:47:10.713Z</time></trkpt><trkpt lat="43.1879417" lon="10.541567"><ele>14.0</ele><time>2026-04-05T11:47:11.711Z</time></trkpt><trkpt lat="43.1879982" lon="10.5415258"><ele>14.0</ele><time>2026-04-05T11:47:12.709Z</time></trkpt><trkpt lat="43.1880788" lon="10.5414493"><ele>14.0</ele><time>2026-04-05T11:47:14.707Z</time></trkpt><trkpt lat="43.1881252" lon="10.5413773"><ele>13.6</ele><time>2026-04-05T11:47:16.71Z</time></trkpt><trkpt lat="43.1881864" lon="10.5413099"><ele>13.2</ele><time>2026-04-05T11:47:18.714Z</time></trkpt><trkpt lat="43.1882553" lon="10.5412466"><ele>12.799999999999999</ele><time>2026-04-05T11:47:20.708Z</time></trkpt><trkpt lat="43.1883284" lon="10.5411685"><ele>12.399999999999999</ele><time>2026-04-05T11:47:22.706Z</time></trkpt><trkpt lat="43.1883821" lon="10.5410514"><ele>12.0</ele><time>2026-04-05T11:47:24.709Z</time></trkpt><trkpt lat="43.1883926" lon="10.5409221"><ele>12.0</ele><time>2026-04-05T11:47:26.71Z</time></trkpt><trkpt lat="43.1883763" lon="10.540792"><ele>12.0</ele><time>2026-04-05T11:47:28.705Z</time></trkpt><trkpt lat="43.1883609" lon="10.5406615"><ele>12.0</ele><time>2026-04-05T11:47:30.712Z</time></trkpt><trkpt lat="43.1883177" lon="10.5405784"><ele>12.0</ele><time>2026-04-05T11:47:32.7Z</time></trkpt><trkpt lat="43.1882731" lon="10.5405113"><ele>12.0</ele><time>2026-04-05T11:47:38.705Z</time></trkpt><trkpt lat="43.1882926" lon="10.5404119"><ele>12.0</ele><time>2026-04-05T11:49:45.7Z</time></trkpt></trkseg></trk></gpx>